<<back to data home page
Ready for Fall and Cooler Weather?? Stay in touch!! - DONATE ANY AMOUNT BY CLICKING THIS LINK!!!


    Month/Day/Year       Maximum   Minimum    Rel    Dew       Rainfall  Seasonal  Soil     Soil      Baro       Wind    Wind        Peak    Peak Gust  Evap     Leaf     Net
    and                  Air Temp  Air Temp   Hum    Point     Inches    Rainfall  Temp     Moisture  Pressure   Speed   Direction   Gust    Direction  Pan      Wetness  Radiation
    Local Time           Deg F     Deg F      %      Deg F               Inches    Deg F    dS/m      mbar       MPH     comp  deg   MPH     comp  deg  Inches   mV       W_m2
----------------------------------------------------------------------------------------------------------------------------------------------------------------------------------
   10/19/2018 21:50      66.4      65.3       28     31.5      0.00      0.32      72.3     0.30      1015.7     1.3     SSE   150   2.8     SSE   149   9.41    262      -77.9
   10/19/2018 21:40      66.9      66.2       27     31.3      0.00      0.32      72.3     0.30      1015.8     1.7      SE   146   2.6     SSE   152   9.41    262      -78.3
   10/19/2018 21:30      67.3      66.5       26     31.3      0.00      0.32      72.3     0.30      1015.7     1.7      SE   145   2.6       S   180   9.41    262      -79.1
   10/19/2018 21:20      67.6      67.0       26     31.0      0.00      0.32      72.2     0.30      1015.7     1.6     SSE   147   2.7      SE   130   9.42    262      -79.3
   10/19/2018 21:10      68.1      67.4       25     30.6      0.00      0.32      72.2     0.30      1015.7     1.4     SSE   154   2.7      SE   144   9.42    261      -79.5
   10/19/2018 21:00      69.2      67.8       24     30.4      0.00      0.32      72.2     0.30      1015.6     1.3     SSE   156   2.7      SE   144   9.42    261      -80.2
   10/19/2018 20:50      70.5      68.8       23     29.7      0.00      0.32      72.2     0.30      1015.6     1.5     SSE   157   3.0     SSE   157   9.42    261      -81.3
   10/19/2018 20:40      71.5      70.2       21     29.1      0.00      0.32      72.2     0.30      1015.5     1.7     SSE   153   3.1     SSE   148   9.43    261      -82.8
   10/19/2018 20:30      73.3      71.2       20     28.7      0.00      0.32      72.2     0.30      1015.5     1.8     SSE   156   4.5       S   170   9.43    261      -84.5
   10/19/2018 20:20      75.6      73.1       17     26.9      0.00      0.32      72.1     0.30      1015.4     1.1     SSE   159   2.0     SSE   152   9.43    261      -86.0
   10/19/2018 20:10      77.9      75.5       15     25.7      0.00      0.32      72.1     0.30      1015.3     1.0      SE   144   2.5      SE   140   9.43    261      -89.2
   10/19/2018 20:00      78.9      77.7       14     25.4      0.00      0.32      72.1     0.30      1015.3     0.9      NE    54   3.6      NE    54   9.43    261      -92.3
   10/19/2018 19:50      79.7      78.6       14     25.1      0.00      0.32      72.0     0.30      1015.3     1.4      NE    35   3.3     NNE    30   9.44    261      -94.1
   10/19/2018 19:40      80.1      79.4       13     24.9      0.00      0.32      72.0     0.30      1015.3     2.5     NNE    18   6.9       N     7   9.44    261      -96.4
   10/19/2018 19:30      80.6      79.8       13     24.8      0.00      0.32      72.0     0.30      1015.3     2.7     NNE    12   7.4      NE    36   9.44    261      -97.2
   10/19/2018 19:20      81.0      80.4       13     24.7      0.00      0.32      72.0     0.30      1015.2     3.4       N     9   6.4       N     2   9.44    260      -98.6
   10/19/2018 19:10      81.1      80.7       13     24.7      0.00      0.32      71.9     0.30      1015.2     3.3     NNE    13   8.3     NNE    12   9.45    261      -99.4
   10/19/2018 19:00      81.5      80.8       13     25.2      0.00      0.32      71.9     0.30      1015.0     3.5     NNE    18   8.9     NNW   335   9.45    261     -100.3
   10/19/2018 18:50      81.7      81.1       13     25.4      0.00      0.32      71.8     0.30      1014.9     3.5     NNE    23   7.6      NE    45   9.45    260     -100.6
   10/19/2018 18:40      81.9      81.4       13     25.6      0.00      0.32      71.8     0.30      1014.8     3.7     NNE    18   7.5     NNE    19   9.45    261     -101.3
   10/19/2018 18:30      82.5      81.4       13     26.1      0.00      0.32      71.8     0.30      1014.8     3.1     NNE    28   8.3     NNE    26   9.46    261     -101.6
   10/19/2018 18:20      83.1      82.2       13     26.0      0.00      0.32      71.7     0.30      1014.7     3.5     NNE    21   7.3      NE    42   9.46    261     -100.6
   10/19/2018 18:10      83.4      82.7       12     26.0      0.00      0.32      71.7     0.30      1014.6     5.0     NNE    19  10.8     NNE    31   9.46    261      -98.3
   10/19/2018 18:00      84.1      83.1       12     25.9      0.00      0.32      71.7     0.30      1014.6     5.4     NNE    22  10.9      NE    55   9.47    260      -95.8
   10/19/2018 17:50      84.4      83.6       12     25.2      0.00      0.32      71.6     0.30      1014.5     6.9     NNE    16  12.4     NNW   342   9.47    260      -90.9
   10/19/2018 17:40      84.9      84.1       11     25.2      0.00      0.32      71.6     0.30      1014.4     4.9     NNE    13   9.4       N     0   9.48    260      -86.8
   10/19/2018 17:30      85.3      84.5       11     25.4      0.00      0.32      71.5     0.30      1014.4     5.4     NNE    17  11.2       N   350   9.48    260      -41.2
   10/19/2018 17:20      85.6      84.9       11     25.1      0.00      0.32      71.5     0.30      1014.4     5.9     NNE    16  10.2       N   354   9.49    261      -21.0
   10/19/2018 17:10      85.6      85.2       11     25.0      0.00      0.32      71.5     0.30      1014.4     5.0     NNE    16  10.5     ENE    60   9.49    261        3.8
   10/19/2018 17:00      86.1      85.2       11     24.9      0.00      0.32      71.4     0.30      1014.5     7.0     NNE    18  13.4       S   177   9.50    261       30.6
   10/19/2018 16:50      86.3      85.6       11     25.3      0.00      0.32      71.3     0.30      1014.5     6.1     NNE    17  12.5     NNE    26   9.50    261       55.6
   10/19/2018 16:40      86.3      85.8       11     24.9      0.00      0.32      71.3     0.30      1014.6     5.3     NNE    30  11.9       N    11   9.50    261       81.5
   10/19/2018 16:30      86.6      85.8       11     25.0      0.00      0.32      71.3     0.30      1014.6     7.2     NNE    18  12.9       N   354   9.51    261      107.4
   10/19/2018 16:20      86.7      86.1       11     25.6      0.00      0.32      71.2     0.30      1014.6     5.3     NNE    21  12.7       N     0   9.51    261      130.3
   10/19/2018 16:10      86.7      86.0       11     24.8      0.00      0.32      71.2     0.30      1014.7     6.0     NNE    20  13.5     NNW   339   9.51    261      155.3
   10/19/2018 16:00      86.9      86.2       11     24.8      0.00      0.32      71.1     0.30      1014.8     7.6       N     9  13.4       N     6   9.52    261      178.7
   10/19/2018 15:50      86.9      86.3       11     25.3      0.00      0.32      71.1     0.30      1014.8     7.0       N    10  14.7     NNW   340   9.52    261      197.5
   10/19/2018 15:40      87.1      86.4       11     25.3      0.00      0.32      71.0     0.30      1014.8     8.2     NNE    13  14.4     ENE    69   9.53    260      207.4
   10/19/2018 15:30      87.3      86.7       11     26.0      0.00      0.32      71.0     0.30      1014.9     7.0     NNE    14  13.8      NW   316   9.53    260      224.1
   10/19/2018 15:20      87.1      86.7       11     26.2      0.00      0.32      70.9     0.30      1014.9     7.0     NNE    13  13.6       N     2   9.53    260      243.7
   10/19/2018 15:10      87.2      86.6       11     26.1      0.00      0.32      70.9     0.30      1014.9     7.2     NNE    18  13.0     NNE    19   9.54    260      264.7
   10/19/2018 15:00      86.9      86.5       11     26.3      0.00      0.32      70.8     0.30      1015.0     7.8     NNE    13  18.0       N    10   9.54    260      295.0
   10/19/2018 14:50      87.7      86.4       11     26.2      0.00      0.32      70.8     0.30      1015.0     8.7       N    10  16.4     NNE    13   9.55    260      315.1
   10/19/2018 14:40      87.5      86.6       11     26.3      0.00      0.32      70.7     0.30      1015.1     7.1     NNE    14  13.1     NNE    21   9.55    260      328.7
   10/19/2018 14:30      87.9      87.1       11     26.8      0.00      0.32      70.7     0.30      1015.2     7.2     NNE    13  15.2       N   355   9.55    260      341.2
   10/19/2018 14:20      87.9      87.1       11     27.3      0.00      0.32      70.7     0.30      1015.2     6.7     NNE    24  11.8     NNE    24   9.56    260      354.3
   10/19/2018 14:10      88.0      86.7       11     27.1      0.00      0.32      70.6     0.30      1015.3     5.1     NNE    28  10.1      NE    52   9.56    260      365.9
   10/19/2018 14:00      87.2      86.7       12     27.2      0.00      0.32      70.6     0.30      1015.4     8.1       N     7  14.6       N     3   9.56    260      378.7
   10/19/2018 13:50      87.1      86.6       11     26.6      0.00      0.32      70.6     0.30      1015.5     6.5     NNE    29  12.2       N   355   9.57    260      387.7
   10/19/2018 13:40      86.9      86.6       11     26.3      0.00      0.32      70.5     0.30      1015.7     7.5     NNE    27  15.1     NNE    33   9.57    260      397.3
   10/19/2018 13:30      87.3      86.5       12     27.2      0.00      0.32      70.5     0.30      1015.9     7.9       N    10  14.8      NE    39   9.57    260      408.2
   10/19/2018 13:20      86.9      86.4       12     28.4      0.00      0.32      70.5     0.30      1016.0     7.0     NNE    19  13.4     NNE    22   9.57    260      414.4
   10/19/2018 13:10      86.7      85.8       12     28.1      0.00      0.32      70.5     0.30      1016.1     7.6     NNE    20  15.5     NNE    13   9.57    260      421.0
   10/19/2018 13:00      87.1      85.8       12     28.3      0.00      0.32      70.4     0.30      1016.2     9.2       N     3  18.2       N     4   9.58    260      424.7
   10/19/2018 12:50      87.0      86.3       12     28.3      0.00      0.32      70.4     0.30      1016.4     6.6     NNE    28  13.7      NE    46   9.58    260      426.4
   10/19/2018 12:40      87.1      86.2       12     28.3      0.00      0.32      70.4     0.30      1016.5     7.3     NNE    20  11.7      NE    34   9.58    260      429.1
   10/19/2018 12:30      87.0      86.2       13     28.9      0.00      0.32      70.4     0.30      1016.6     6.5     NNE    31  10.9      NE    38   9.58    261      428.4
   10/19/2018 12:20      86.3      85.5       13     28.5      0.00      0.32      70.5     0.30      1016.7     8.1       N    10  15.7     NNE    14   9.59    261      426.9
   10/19/2018 12:10      86.6      85.9       13     28.9      0.00      0.32      70.4     0.30      1016.8     7.6       N     9  15.6     NNW   347   9.59    261      420.4
   10/19/2018 12:00      86.6      85.3       13     29.6      0.00      0.32      70.4     0.30      1017.0     6.1     NNE    24  12.6       N     7   9.59    261      417.5
   10/19/2018 11:50      86.0      85.3       13     29.6      0.00      0.32      70.4     0.30      1017.0     8.0     NNE    15  15.8     ESE   108   9.59    261      413.6
   10/19/2018 11:40      86.1      85.2       14     30.1      0.00      0.32      70.4     0.30      1017.1     7.4     NNE    14  16.0      NE    36   9.59    261      407.0
   10/19/2018 11:30      85.9      84.5       14     30.6      0.00      0.32      70.5     0.30      1017.2     6.6       N     5  13.9     NNW   327   9.59    261      401.2
   10/19/2018 11:20      85.2      84.3       14     30.5      0.00      0.32      70.5     0.30      1017.2     6.8     NNE    14  13.7       N     5   9.59    261      392.9
   10/19/2018 11:10      84.9      84.2       14     30.4      0.00      0.32      70.5     0.30      1017.3     7.1     NNE    16  14.0     NNE    22   9.60    261      383.0
   10/19/2018 11:00      84.7      84.0       15     30.9      0.00      0.32      70.5     0.30      1017.4     6.9     NNE    21  13.3       N     1   9.60    261      370.6
   10/19/2018 10:50      84.1      82.8       15     31.1      0.00      0.32      70.5     0.30      1017.5     6.7       N     5  14.3     NNW   348   9.60    261      359.7
   10/19/2018 10:40      83.6      82.2       16     31.6      0.00      0.32      70.5     0.30      1017.6     4.5       N     3   8.2      NW   319   9.60    261      344.4
   10/19/2018 10:30      82.5      81.2       16     31.7      0.00      0.32      70.5     0.30      1017.7     4.5       N     5  10.1       N   355   9.60    261      330.1
   10/19/2018 10:20      81.5      80.0       17     31.6      0.00      0.32      70.6     0.30      1017.9     4.7       N   358   8.7     NNW   331   9.60    261      316.0
   10/19/2018 10:10      80.1      79.3       17     31.3      0.00      0.32      70.6     0.30      1018.0     5.0       N   351   9.7       N     0   9.60    261      300.1
   10/19/2018 10:00      79.7      78.2       18     31.1      0.00      0.32      70.6     0.30      1018.1     4.3       N   356   8.7       N   354   9.60    261      284.1
   10/19/2018 09:50      78.4      77.8       18     30.8      0.00      0.32      70.7     0.30      1018.2     5.1       N   352  11.4     NNE    14   9.60    261      267.5
   10/19/2018 09:40      77.8      77.3       18     30.4      0.00      0.32      70.7     0.30      1018.2     5.3       N   356  10.1       N     0   9.59    261      249.7
   10/19/2018 09:30      77.7      76.8       18     30.3      0.00      0.32      70.7     0.30      1018.2     3.7       N     7   7.8     NNE    30   9.45    261      230.1
   10/19/2018 09:20      78.2      76.9       18     30.2      0.00      0.32      70.7     0.30      1018.3     3.3     NNE    12   7.3     NNE    26   9.45    261      211.2
   10/19/2018 09:10      78.0      76.5       18     30.0      0.00      0.32      70.8     0.30      1018.3     1.5     NNE    15   6.2     NNW   348   9.45    261      192.8
   10/19/2018 09:00      76.8      76.0       18     29.9      0.00      0.32      70.8     0.30      1018.2     2.1       W   280   5.3       N   351   9.45    261      174.3
   10/19/2018 08:50      76.1      74.4       19     30.3      0.00      0.32      70.8     0.30      1018.2     1.7     SSE   153   4.3     SSE   166   9.45    261      156.8
   10/19/2018 08:40      75.0      74.3       19     30.2      0.00      0.32      70.9     0.30      1018.1     2.5     SSE   155   5.7     SSE   167   9.45    262      133.0
   10/19/2018 08:30      74.4      71.7       20     29.9      0.00      0.32      70.8     0.30      1018.1     1.3      SE   141   3.3     NNE    27   9.45    262      110.7
   10/19/2018 08:20      71.7      70.2       23     31.6      0.00      0.32      70.9     0.30      1018.0     1.5     SSE   156   3.4     SSE   149   9.45    263      -18.4
   10/19/2018 08:10      70.2      69.1       25     31.7      0.00      0.32      70.9     0.30      1017.9     1.6     SSE   150   4.2       S   173   9.45    263      -55.7
   10/19/2018 08:00      70.2      67.7       24     30.5      0.00      0.32      70.9     0.30      1017.8     1.3      SE   144   3.3       S   174   9.45    263      -36.4
   10/19/2018 07:50      68.3      67.1       24     30.0      0.00      0.32      71.0     0.30      1017.7     1.7     SSE   156   3.7       S   172   9.45    263      -52.5
   10/19/2018 07:40      67.2      63.1       26     29.3      0.00      0.32      71.0     0.30      1017.7     1.3     SSE   159   2.7      NE    46   9.45    263      -52.2
   10/19/2018 07:30      63.3      62.1       30     30.7      0.00      0.32      71.0     0.30      1017.6     1.8     SSE   151   4.5      SE   135   9.45    263      -54.8
   10/19/2018 07:20      62.9      61.7       30     30.3      0.00      0.32      71.0     0.30      1017.5     1.7       S   172   3.7     SSE   168   9.45    263      -58.9
   10/19/2018 07:10      62.8      61.5       30     30.4      0.00      0.32      71.1     0.30      1017.5     2.6     SSE   156   5.2     SSE   152   9.45    263      -63.6
   10/19/2018 07:00      65.7      62.5       27     29.8      0.00      0.32      71.1     0.30      1017.4     1.6     SSE   162   3.6       S   185   9.45    263      -67.4
   10/19/2018 06:50      66.1      63.9       25     28.7      0.00      0.32      71.1     0.30      1017.4     1.7     SSE   156   3.3     SSE   152   9.45    263      -68.8
   10/19/2018 06:40      64.0      63.4       27     29.5      0.00      0.32      71.1     0.30      1017.4     1.9     SSE   154   4.1      SE   142   9.46    263      -69.0
   10/19/2018 06:30      65.4      63.0       27     29.5      0.00      0.32      71.1     0.30      1017.3     1.4     SSE   160   2.5       S   176   9.46    263      -69.5
   10/19/2018 06:20      65.9      63.7       25     28.5      0.00      0.32      71.2     0.30      1017.2     3.1       S   172   5.8       S   181   9.46    263      -69.8
   10/19/2018 06:10      64.0      62.5       27     29.0      0.00      0.32      71.2     0.30      1017.2     1.8       S   176   3.7     SSW   200   9.46    263      -68.8
   10/19/2018 06:00      64.8      63.5       26     28.8      0.00      0.32      71.2     0.30      1017.2     1.6     SSE   162   3.6      SE   142   9.46    263      -69.6
   10/19/2018 05:50      64.5      62.3       28     29.8      0.00      0.32      71.2     0.30      1017.2     1.6     SSE   153   4.6       W   275   9.46    263      -70.0
   10/19/2018 05:40      64.6      63.4       27     29.0      0.00      0.32      71.3     0.30      1017.1     2.1       S   171   4.1       S   170   9.46    263      -70.2
   10/19/2018 05:30      64.2      62.9       27     29.3      0.00      0.32      71.3     0.30      1017.1     2.4     SSE   161   4.2       S   180   9.46    263      -70.3
   10/19/2018 05:20      66.4      63.8       25     28.9      0.00      0.32      71.3     0.30      1017.0     2.6     SSE   157   5.3      SE   143   9.46    263      -72.0
   10/19/2018 05:10      66.3      64.1       25     28.5      0.00      0.32      71.4     0.30      1017.0     2.2     SSE   153   5.0      SE   140   9.46    263      -71.0
   10/19/2018 05:00      64.8      63.5       26     28.9      0.00      0.32      71.3     0.30      1017.0     1.8     SSE   153   4.3     SSE   149   9.46    263      -69.9
   10/19/2018 04:50      63.7      61.9       28     29.3      0.00      0.32      71.4     0.30      1016.9     2.7     SSE   160   4.6     SSE   147   9.46    263      -68.4
   10/19/2018 04:40      62.9      61.8       29     29.6      0.00      0.32      71.4     0.30      1016.9     2.0     SSE   149   3.7     ESE   117   9.46    263      -68.0
   10/19/2018 04:30      63.9      62.8       27     28.8      0.00      0.32      71.4     0.30      1016.9     2.0     SSE   162   3.5      SE   139   9.47    263      -67.8
   10/19/2018 04:20      67.4      62.9       26     29.2      0.00      0.32      71.4     0.30      1017.0     2.4     SSE   165   4.3     SSW   196   9.47    263      -69.1
   10/19/2018 04:10      66.5      63.4       25     28.2      0.00      0.32      71.5     0.30      1016.9     2.6     SSW   201   4.4      SW   216   9.47    263      -67.7
   10/19/2018 04:00      64.3      62.8       27     28.6      0.00      0.32      71.4     0.30      1017.0     1.8       S   180   3.9       S   179   9.47    263      -67.2
   10/19/2018 03:50      64.3      61.6       27     29.0      0.00      0.32      71.5     0.30      1017.0     1.8     SSW   195   4.8     WSW   251   9.47    263      -67.3
   10/19/2018 03:40      62.4      61.3       30     30.0      0.00      0.32      71.5     0.30      1017.0     1.4     SSE   162   2.8     SSE   155   9.47    264      -65.6
   10/19/2018 03:30      61.6      59.4       32     30.2      0.00      0.32      71.5     0.30      1017.1     1.9       S   177   4.8       S   178   9.47    263      -65.1
   10/19/2018 03:20      59.8      59.2       34     31.1      0.00      0.32      71.5     0.30      1017.3     1.1     SSE   161   3.1       S   186   9.47    264      -65.7
   10/19/2018 03:10      60.0      59.2       34     31.4      0.00      0.32      71.6     0.30      1017.3     1.2     SSE   155   3.0      SE   139   9.47    264      -65.4
   10/19/2018 03:00      60.3      59.5       34     31.3      0.00      0.32      71.6     0.30      1017.3     0.9      SE   141   2.5     SSE   149   9.47    263      -65.9
   10/19/2018 02:50      60.4      59.5       34     31.8      0.00      0.32      71.6     0.30      1017.4     1.2      SE   144   2.7     SSE   148   9.47    264      -66.6
   10/19/2018 02:40      60.4      59.2       34     31.3      0.00      0.32      71.6     0.30      1017.4     1.6     SSE   163   2.8     SSE   154   9.47    263      -65.5
   10/19/2018 02:30      59.6      58.9       35     31.7      0.00      0.32      71.7     0.30      1017.5     1.5      SE   146   2.7     SSE   158   9.48    264      -65.9
   10/19/2018 02:20      59.1      58.6       36     32.0      0.00      0.32      71.7     0.30      1017.5     1.6      SE   143   2.8      SE   142   9.48    264      -65.6
   10/19/2018 02:10      58.9      57.5       37     32.4      0.00      0.32      71.7     0.30      1017.5     1.4      SE   135   2.3       S   170   9.48    264      -65.3
   10/19/2018 02:00      57.8      57.1       39     32.7      0.00      0.32      71.7     0.30      1017.5     1.1       S   178   3.4       S   188   9.48    264      -65.1
   10/19/2018 01:50      58.1      57.3       39     32.8      0.00      0.32      71.7     0.30      1017.6     0.9     SSE   165   2.4       W   259   9.48    264      -65.5
   10/19/2018 01:40      58.1      57.3       39     32.7      0.00      0.32      71.7     0.30      1017.6     1.0       S   181   2.9      SW   227   9.48    264      -66.4
   10/19/2018 01:30      58.3      57.6       39     33.2      0.00      0.32      71.7     0.30      1017.6     1.0     SSW   192   3.3     SSW   199   9.48    264      -67.2
   10/19/2018 01:20      58.7      58.0       39     33.4      0.00      0.32      71.7     0.30      1017.5     1.2      SE   137   3.2     NNE    33   9.48    264      -68.1
   10/19/2018 01:10      58.9      58.2       38     33.0      0.00      0.32      71.8     0.30      1017.5     1.1     SSE   154   2.9      SE   138   9.48    264      -66.9
   10/19/2018 01:00      59.8      58.6       38     33.6      0.00      0.32      71.8     0.30      1017.5     0.5       S   170   1.9     SSE   162   9.48    263      -68.8
   10/19/2018 00:50      60.6      59.6       37     33.8      0.00      0.32      71.8     0.30      1017.5     1.4     SSE   151   3.6       S   174   9.48    263      -70.4
   10/19/2018 00:40      60.8      60.0       37     33.9      0.00      0.32      71.8     0.30      1017.5     1.3     SSW   196   3.5     SSW   192   9.48    263      -71.0
   10/19/2018 00:30      61.0      60.0       36     33.5      0.00      0.32      71.8     0.30      1017.5     1.9     SSE   157   4.6     SSW   210   9.48    263      -71.0
   10/19/2018 00:20      60.6      58.6       37     33.4      0.00      0.32      71.8     0.30      1017.5     3.4       S   178   5.3     SSW   209   9.49    263      -69.7
   10/19/2018 00:10      59.0      58.4       39     33.9      0.00      0.32      71.8     0.30      1017.5     1.6      SE   143   3.7       S   180   9.49    263      -70.7
   10/19/2018 00:00      59.1      58.4       38     33.4      0.00      0.32      71.8     0.30      1017.5     1.0      SW   216   2.8       S   191   9.49    263      -69.0
   10/18/2018 23:50      59.3      58.4       38     33.3      0.00      0.32      71.8     0.30      1017.5     0.5     SSE   153   1.6     NNE    15   9.49    263      -68.3
   10/18/2018 23:40      59.8      58.8       38     33.7      0.00      0.32      71.8     0.30      1017.7     0.3      SE   145   1.5       S   178   9.49    263      -69.0
   10/18/2018 23:30      60.3      59.6       36     33.0      0.00      0.32      71.8     0.30      1017.7     0.8       S   175   1.7      SW   217   9.49    263      -68.8
   10/18/2018 23:20      61.2      60.2       36     33.4      0.00      0.32      71.8     0.30      1017.7     0.2      SE   141   0.9     SSE   158   9.49    263      -69.3
   10/18/2018 23:10      61.6      60.9       35     33.2      0.00      0.32      71.8     0.30      1017.7     0.3      SW   220   1.1      NW   317   9.49    263      -70.5
   10/18/2018 23:00      61.9      61.2       34     33.3      0.00      0.32      71.8     0.30      1017.7     0.6      SE   144   1.3       S   176   9.50    263      -71.1
   10/18/2018 22:50      62.0      61.5       35     33.8      0.00      0.32      71.8     0.30      1017.8     1.0     SSE   155   2.3     SSE   150   9.50    263      -72.0
   10/18/2018 22:40      62.6      61.6       34     33.5      0.00      0.32      71.7     0.30      1017.8     0.8     SSE   160   1.9     SSE   147   9.50    263      -72.7
   10/18/2018 22:30      63.7      62.3       33     33.8      0.00      0.32      71.7     0.30      1017.7     1.5     SSE   150   2.8      SE   139   9.50    263      -73.1
   10/18/2018 22:20      64.3      63.5       31     33.0      0.00      0.32      71.8     0.30      1017.7     0.7     SSE   153   2.6      SE   133   9.50    263      -73.3
   10/18/2018 22:10      65.2      64.1       31     33.0      0.00      0.32      71.8     0.30      1017.7     1.4     SSE   154   3.4      SE   145   9.50    262      -75.4
   10/18/2018 22:00      66.7      65.1       29     32.4      0.00      0.32      71.8     0.30      1017.6     2.2     SSE   164   4.1      SE   140   9.50    262      -77.4
   10/18/2018 21:50      66.5      64.9       28     31.9      0.00      0.32      71.7     0.30      1017.5     2.2       S   181   3.9       S   184   9.50    262      -77.6
   10/18/2018 21:40      66.5      65.4       28     31.9      0.00      0.32      71.7     0.30      1017.3     1.5     SSE   168   2.9      SE   143   9.51    262      -78.2
   10/18/2018 21:30      67.6      66.2       27     31.9      0.00      0.32      71.7     0.30      1017.3     1.8     SSE   157   3.5      SE   131   9.51    262      -79.5
   10/18/2018 21:20      68.3      67.1       26     31.4      0.00      0.32      71.7     0.30      1017.3     1.3       S   181   2.6     SSW   198   9.51    262      -78.4
   10/18/2018 21:10      69.4      68.0       25     31.6      0.00      0.32      71.7     0.30      1017.3     1.4     SSE   161   3.5       S   177   9.51    262      -81.4
   10/18/2018 21:00      70.2      69.2       24     31.3      0.00      0.32      71.7     0.30      1017.3     1.6       S   170   3.6     SSE   161   9.51    261      -83.8
   10/18/2018 20:50      70.6      69.7       23     30.9      0.00      0.32      71.6     0.30      1017.3     2.9       S   184   5.4      SW   230   9.52    262      -86.6
   10/18/2018 20:40      70.8      70.1       23     30.7      0.00      0.32      71.6     0.30      1017.3     2.2      SW   215   4.4       S   183   9.52    261      -88.0
   10/18/2018 20:30      70.6      69.9       23     30.9      0.00      0.32      71.6     0.30      1017.3     3.4     SSW   206   5.3     SSW   200   9.52    261      -88.5
   10/18/2018 20:20      70.6      70.1       23     30.9      0.00      0.32      71.6     0.30      1017.2     4.2     SSW   202   6.8     SSW   197   9.52    261      -88.7
   10/18/2018 20:10      70.8      70.1       23     30.9      0.00      0.32      71.5     0.30      1017.2     2.7     SSW   200   6.3      SW   224   9.53    261      -89.2
   10/18/2018 20:00      71.2      70.5       22     30.6      0.00      0.32      71.5     0.30      1017.1     3.4     SSW   197   6.3     SSW   197   9.53    261      -89.8
   10/18/2018 19:50      71.5      71.1       22     30.7      0.00      0.32      71.5     0.30      1017.1     2.1      SW   221   4.6      SW   229   9.53    261      -90.7
   10/18/2018 19:40      72.0      71.2       22     30.7      0.00      0.32      71.5     0.30      1017.1     3.4      SW   220   5.5      SW   216   9.54    261      -90.3
   10/18/2018 19:30      72.5      71.7       22     30.7      0.00      0.32      71.4     0.30      1017.0     1.9      SW   215   3.4      SW   231   9.54    261      -90.9
   10/18/2018 19:20      72.9      72.3       21     30.6      0.00      0.32      71.4     0.30      1017.0     2.5     SSW   208   4.8      SW   218   9.54    261      -92.6
   10/18/2018 19:10      73.6      72.6       21     30.4      0.00      0.32      71.3     0.30      1016.9     2.3      SW   223   5.7     WSW   254   9.54    261      -93.1
   10/18/2018 19:00      74.3      73.3       20     30.0      0.00      0.32      71.3     0.30      1016.8     2.9     SSW   209   5.0      SW   229   9.55    261      -94.3
   10/18/2018 18:50      75.1      73.9       19     30.0      0.00      0.32      71.3     0.30      1016.7     2.0     WSW   244   3.2      SW   217   9.55    261      -95.1
   10/18/2018 18:40      75.9      74.7       19     30.0      0.00      0.32      71.3     0.30      1016.6     2.8     WSW   252   4.8      SW   225   9.55    261      -97.6
   10/18/2018 18:30      76.8      75.7       19     30.4      0.00      0.32      71.2     0.30      1016.4     3.7     WSW   248   6.0     WSW   246   9.56    261      -97.9
   10/18/2018 18:20      77.6      76.5       19     31.6      0.00      0.32      71.2     0.30      1016.2     4.2     WSW   253   7.5     SSW   206   9.56    261      -97.1
   10/18/2018 18:10      78.7      77.4       18     31.7      0.00      0.32      71.0     0.30      1016.1     5.1       W   262  10.4       W   265   9.56    261      -94.7
   10/18/2018 18:00      79.8      78.4       18     31.8      0.00      0.32      71.1     0.30      1015.9     5.8     WSW   253   9.0     WNW   301   9.57    261      -92.1
   10/18/2018 17:50      81.6      79.5       17     31.7      0.00      0.32      71.0     0.30      1015.9     4.6       W   269   9.7       W   275   9.58    261      -91.2
   10/18/2018 17:40      82.6      81.2       16     31.2      0.00      0.32      70.9     0.30      1015.8     2.8     WNW   292   6.6     WNW   296   9.58    261      -78.3
   10/18/2018 17:30      83.0      82.2       15     30.5      0.00      0.32      70.9     0.30      1015.7     3.6      NW   321   7.6       N   351   9.59    261      -37.1
   10/18/2018 17:20      84.9      82.7       14     30.0      0.00      0.32      70.9     0.30      1015.7     4.2      NW   316   7.0      NW   318   9.59    261      -17.8
   10/18/2018 17:10      85.0      84.5       12     27.0      0.00      0.32      70.8     0.30      1015.7     3.9       N   359   7.2       N    11   9.59    261        5.9
   10/18/2018 17:00      85.2      84.6       12     26.5      0.00      0.32      70.8     0.30      1015.6     4.3     NNW   348   8.2       N   352   9.60    261       32.3
   10/18/2018 16:50      85.2      84.7       12     26.1      0.00      0.32      70.7     0.30      1015.6     5.2       N     5  11.6       N     4   9.60    261       58.6
   10/18/2018 16:40      85.6      85.0       12     26.2      0.00      0.32      70.7     0.30      1015.6     5.6       N     8  10.8      NE    40   9.60    261       84.8
   10/18/2018 16:30      85.8      85.2       11     26.0      0.00      0.32      70.6     0.30      1015.6     5.2     NNE    12  13.0      NE    37   9.61    261      109.7
   10/18/2018 16:20      86.0      85.3       11     25.9      0.00      0.32      70.6     0.30      1015.5     5.6       N   357  10.4     NNW   339   9.61    261      135.5
   10/18/2018 16:10      86.3      85.6       11     25.7      0.00      0.32      70.5     0.30      1015.5     5.4       N     4   9.3      NW   326   9.61    261      159.4
   10/18/2018 16:00      86.4      85.4       11     25.6      0.00      0.32      70.4     0.30      1015.6     6.4     NNE    12  12.5     NNE    26   9.62    261      182.2
   10/18/2018 15:50      86.6      85.6       11     25.6      0.00      0.32      70.4     0.30      1015.7     4.8     NNE    15   9.6       N   355   9.62    261      197.2
   10/18/2018 15:40      86.3      85.6       11     25.0      0.00      0.32      70.3     0.30      1015.7     6.1     NNE    13  14.0       N     8   9.62    260      206.0
   10/18/2018 15:30      86.7      85.6       11     25.0      0.00      0.32      70.3     0.30      1015.7     5.6       N     5  13.8     NNW   334   9.63    260      225.0
   10/18/2018 15:20      86.4      85.8       11     24.6      0.00      0.32      70.3     0.30      1015.8     6.3       N     5  12.1      NE    46   9.63    260      244.9
   10/18/2018 15:10      87.2      86.1       11     24.8      0.00      0.32      70.2     0.30      1015.8     5.4       N     3  10.3     NNW   331   9.63    260      263.0
   10/18/2018 15:00      87.0      86.4       11     25.3      0.00      0.32      70.2     0.30      1015.9     5.2       N   349  12.2      NW   322   9.64    259      293.4
   10/18/2018 14:50      87.3      86.3       11     24.9      0.00      0.32      70.1     0.30      1015.9     5.2       N     5  10.4       N    10   9.64    260      313.8
   10/18/2018 14:40      87.4      86.1       11     25.4      0.00      0.32      70.1     0.30      1016.0     4.2       N    11   9.2     NNW   340   9.64    260      327.7
   10/18/2018 14:30      86.4      85.9       11     24.8      0.00      0.32      70.0     0.30      1016.1     5.5     NNE    12  10.1      NE    36   9.64    260      345.4
   10/18/2018 14:20      86.9      85.8       11     24.9      0.00      0.32      70.0     0.30      1016.2     6.1     NNE    12  11.5      NE    38   9.65    260      358.8
   10/18/2018 14:10      86.8      86.1       11     25.1      0.00      0.32      70.0     0.30      1016.3     5.2       N   354  10.0      NE    35   9.65    260      370.6
   10/18/2018 14:00      87.0      85.8       11     25.3      0.00      0.32      69.9     0.30      1016.4     4.9       N     6   9.6       N   353   9.65    260      380.5
   10/18/2018 13:50      86.0      85.3       11     24.8      0.00      0.32      69.9     0.30      1016.6     5.5       N   353  10.2     NNW   346   9.65    260      392.9
   10/18/2018 13:40      86.4      85.0       11     24.6      0.00      0.32      69.8     0.30      1016.7     7.1       N     2  12.8       N     8   9.65    260      403.5
   10/18/2018 13:30      86.3      85.3       11     25.1      0.00      0.32      69.8     0.30      1016.8     5.1       N     9  12.0     NNE    21   9.66    260      409.8
   10/18/2018 13:20      85.6      84.9       11     25.0      0.00      0.32      69.8     0.30      1017.0     5.9       N     4  11.8       N   349   9.66    260      419.2
   10/18/2018 13:10      85.9      85.0       11     25.3      0.00      0.32      69.7     0.30      1017.1     6.4       N   355  10.7     NNW   349   9.66    260      424.0
   10/18/2018 13:00      85.9      85.2       11     25.6      0.00      0.32      69.7     0.30      1017.3     6.0       N     4  11.7     NNW   331   9.66    260      427.1
   10/18/2018 12:50      86.4      85.2       11     25.9      0.00      0.32      69.7     0.30      1017.4     5.8       N     8  12.9       N   350   9.66    260      428.3
   10/18/2018 12:40      86.9      85.3       12     27.1      0.00      0.32      69.7     0.30      1017.7     3.6       N   360  13.1     NNW   331   9.66    260      427.0
   10/18/2018 12:30      85.8      84.5       12     26.9      0.00      0.32      69.7     0.30      1017.8     5.1       N     0  13.7      NE    51   9.66    260      430.3
   10/18/2018 12:20      85.5      84.4       12     27.0      0.00      0.32      69.8     0.30      1018.0     4.6     NNE    19  10.6       N   353   9.67    261      427.1
   10/18/2018 12:10      86.1      85.0       12     27.8      0.00      0.32      69.7     0.30      1018.1     3.5       N     2   9.4     NNE    13   9.67    261      420.9
   10/18/2018 12:00      85.0      83.4       13     27.6      0.00      0.32      69.8     0.30      1018.2     3.2       N     2   6.3     NNE    15   9.67    261      418.3
   10/18/2018 11:50      84.7      83.6       13     28.7      0.00      0.32      69.8     0.30      1018.4     3.1       N     3   5.7      NW   324   9.67    261      413.7
   10/18/2018 11:40      83.7      82.0       14     29.3      0.00      0.32      69.8     0.30      1018.5     2.0      NE    36   6.6       N     2   9.67    261      409.4
   10/18/2018 11:30      82.4      81.4       15     29.5      0.00      0.32      69.8     0.30      1018.7     3.3       N   349   6.7       N    10   9.67    261      404.4
   10/18/2018 11:20      82.2      81.3       15     29.7      0.00      0.32      69.9     0.30      1018.7     2.9      SW   227   5.4       W   278   9.67    261      397.2
   10/18/2018 11:10      82.0      80.6       16     30.3      0.00      0.32      69.9     0.30      1018.9     1.6     WNW   283   5.1     WNW   282   9.67    261      386.7
   10/18/2018 11:00      81.0      79.8       16     30.1      0.00      0.32      69.9     0.30      1019.0     1.7      SW   221   4.0     SSW   213   9.67    261      376.6
   10/18/2018 10:50      80.4      79.9       16     30.1      0.00      0.32      69.9     0.30      1019.1     1.1     NNE    27   2.7     ENE    72   9.67    261      363.8
   10/18/2018 10:40      80.4      79.1       17     30.5      0.00      0.32      70.0     0.30      1019.2     0.8      SE   134   2.7      SE   143   9.67    261      351.0
   10/18/2018 10:30      80.1      79.0       17     31.0      0.00      0.32      70.0     0.30      1019.3     1.1       S   172   3.2       S   183   9.68    261      337.5
   10/18/2018 10:20      79.7      77.9       17     30.7      0.00      0.32      70.0     0.30      1019.4     0.4       N   352   1.8     NNE    22   9.68    261      320.8
   10/18/2018 10:10      78.1      77.2       18     30.8      0.00      0.32      70.1     0.30      1019.5     0.9       E    82   2.1       E    98   9.68    261      303.8
   10/18/2018 10:00      77.5      76.3       19     31.2      0.00      0.32      70.1     0.30      1019.6     0.7     NNW   331   2.3      NW   314   9.68    261      288.6
   10/18/2018 09:50      76.6      75.3       19     30.7      0.00      0.32      70.2     0.30      1019.7     0.9      NW   312   2.4      NW   310   9.68    261      273.9
   10/18/2018 09:40      75.8      75.0       19     30.1      0.00      0.32      70.2     0.30      1019.7     1.4     NNW   339   3.3     NNE    30   9.68    261      256.9
   10/18/2018 09:30      75.7      74.3       19     30.5      0.00      0.32      70.2     0.30      1019.7     0.6      NW   313   1.8     WNW   291   9.68    261      239.1
   10/18/2018 09:20      74.8      74.1       21     32.3      0.00      0.32      70.3     0.30      1019.8     1.0      SE   143   2.5      SE   142   9.68    262      222.9
   10/18/2018 09:10      74.3      70.3       26     35.6      0.00      0.32      70.3     0.30      1019.8     0.0     WSW   240   0.7       S   173   9.68    262      206.0
   10/18/2018 09:00      70.4      67.4       34     39.3      0.00      0.32      70.4     0.30      1019.8     0.1      NE    38   1.0      NE    37   9.69    263      188.9
   10/18/2018 08:50      67.5      64.8       37     38.5      0.00      0.32      70.4     0.30      1019.8     0.5     ESE   123   1.4      SE   134   9.69    264      169.9
   10/18/2018 08:40      65.0      61.8       38     37.7      0.00      0.32      70.4     0.30      1019.7     0.4     ENE    65   1.4     ENE    78   9.69    264      148.6
   10/18/2018 08:30      61.9      59.0       43     37.4      0.00      0.32      70.5     0.30      1019.6     0.5     NNW   342   2.4     WNW   301   9.69    265      125.7
   10/18/2018 08:20      59.2      56.9       44     36.3      0.00      0.32      70.5     0.30      1019.5     1.1     ESE   114   2.3      SE   135   9.69    265        1.6
   10/18/2018 08:10      56.9      54.0       47     35.2      0.00      0.32      70.6     0.30      1019.5     1.2       S   181   2.5     SSW   197   9.69    265      -44.8
   10/18/2018 08:00      54.1      51.8       50     34.6      0.00      0.32      70.6     0.30      1019.4     0.7       S   186   2.3       S   179   9.69    266      -20.2
   10/18/2018 07:50      52.0      50.0       54     34.8      0.00      0.32      70.5     0.30      1019.3     0.0     NNE    24   1.0     NNE    24   9.29    266      -42.0
   10/18/2018 07:40      50.0      49.2       56     34.6      0.00      0.32      70.6     0.30      1019.2     0.0       N     0   0.0       E    96   9.29    266      -44.5
   10/18/2018 07:30      49.3      48.7       54     32.9      0.00      0.32      70.7     0.30      1019.1     0.8      SE   134   1.9     ESE   120   9.29    266      -46.7
   10/18/2018 07:20      48.8      48.1       54     32.5      0.00      0.32      70.7     0.30      1019.0     0.5       S   180   2.2     SSW   197   9.29    266      -50.1
   10/18/2018 07:10      48.4      47.5       56     32.9      0.00      0.32      70.7     0.30      1019.0     0.6     SSE   167   1.4     SSE   150   9.29    266      -54.4
   10/18/2018 07:00      48.1      47.5       58     33.7      0.00      0.32      70.8     0.30      1018.9     0.3       S   177   1.4     SSE   164   9.29    266      -57.5
   10/18/2018 06:50      48.1      47.4       57     33.4      0.00      0.32      70.8     0.30      1018.8     0.5     SSE   166   1.3       S   169   9.29    266      -58.5
   10/18/2018 06:40      47.7      47.4       57     33.0      0.00      0.32      70.8     0.30      1018.7     0.8     SSE   158   1.7     SSE   168   9.29    266      -60.0
   10/18/2018 06:30      47.8      47.2       57     33.0      0.00      0.32      70.8     0.30      1018.8     0.2     ESE   113   1.7       N     0   9.29    266      -60.4
   10/18/2018 06:20      48.0      47.2       57     33.2      0.00      0.32      70.9     0.30      1018.7     0.5       S   175   1.8       S   182   9.29    266      -60.5
   10/18/2018 06:10      48.1      47.7       56     33.0      0.00      0.32      70.9     0.30      1018.7     0.9      SE   142   1.8       S   178   9.29    266      -61.6
   10/18/2018 06:00      48.1      47.8       55     32.7      0.00      0.32      70.9     0.30      1018.6     0.7     SSE   156   1.9       N     6   9.29    266      -61.6
   10/18/2018 05:50      48.5      47.8       57     33.4      0.00      0.32      70.9     0.30      1018.6     0.4     SSW   196   1.5     SSW   203   9.29    265      -61.4
   10/18/2018 05:40      48.6      48.1       54     32.4      0.00      0.32      71.0     0.30      1018.5     0.8     SSE   154   1.4      SE   146   9.29    266      -60.9
   10/18/2018 05:30      48.6      48.1       53     32.2      0.00      0.32      71.0     0.30      1018.4     0.1     SSE   167   1.3     SSE   148   9.29    266      -60.6
   10/18/2018 05:20      48.8      48.1       54     32.5      0.00      0.32      71.1     0.30      1018.4     0.4       S   173   1.0       S   184   9.29    265      -61.5
   10/18/2018 05:10      49.1      48.4       53     32.5      0.00      0.32      71.1     0.30      1018.4     0.3     SSW   202   1.2      SW   227   9.29    265      -61.8
   10/18/2018 05:00      49.1      48.3       55     33.1      0.00      0.32      71.1     0.30      1018.3     0.1      SW   216   1.4      SW   227   9.29    265      -62.5
   10/18/2018 04:50      49.8      48.8       54     33.1      0.00      0.32      71.1     0.30      1018.2     0.5     SSE   167   1.7       S   184   9.29    265      -62.0
   10/18/2018 04:40      50.0      49.5       52     32.6      0.00      0.32      71.2     0.30      1018.1     0.4     SSE   162   0.9     SSE   155   9.30    265      -62.0
   10/18/2018 04:30      50.4      49.7       51     32.8      0.00      0.32      71.1     0.30      1018.1     0.3     SSE   154   1.0     SSE   159   9.30    265      -62.3
   10/18/2018 04:20      50.5      49.9       52     33.1      0.00      0.32      71.2     0.30      1018.2     0.4     SSE   148   1.2     SSE   146   9.30    265      -62.4
   10/18/2018 04:10      50.5      50.0       51     32.7      0.00      0.32      71.2     0.30      1018.2     0.0     SSE   155   0.7     SSE   159   9.30    265      -63.0
   10/18/2018 04:00      50.5      49.9       52     33.1      0.00      0.32      71.3     0.30      1018.2     0.4     SSE   168   1.1     SSE   158   9.30    265      -63.3
   10/18/2018 03:50      50.5      50.0       51     32.7      0.00      0.32      71.3     0.30      1018.2     0.4     SSE   161   1.5     SSE   160   9.30    265      -63.4
   10/18/2018 03:40      50.8      49.9       51     32.8      0.00      0.32      71.3     0.30      1018.3     0.3     SSE   159   0.8     SSE   155   9.30    265      -63.5
   10/18/2018 03:30      50.9      50.4       49     32.1      0.00      0.32      71.3     0.30      1018.2     0.0       S   188   0.6       S   190   9.30    265      -63.4
   10/18/2018 03:20      51.4      50.3       50     32.7      0.00      0.32      71.3     0.30      1018.2     0.3     SSE   165   0.9       S   181   9.30    264      -64.0
   10/18/2018 03:10      51.6      51.1       49     32.6      0.00      0.32      71.4     0.30      1018.2     0.5     SSE   148   1.5     ESE   124   9.30    264      -63.6
   10/18/2018 03:00      51.8      51.3       48     32.5      0.00      0.32      71.4     0.30      1018.2     0.0       N     0   0.0      SE   131   9.30    264      -63.7
   10/18/2018 02:50      52.4      51.5       49     33.3      0.00      0.32      71.4     0.30      1018.3     0.0      SE   138   0.9      SE   138   9.30    264      -64.1
   10/18/2018 02:40      52.2      51.8       49     33.6      0.00      0.32      71.4     0.30      1018.3     0.9      SE   145   1.6      SE   143   9.30    264      -64.9
   10/18/2018 02:30      52.1      51.7       49     33.3      0.00      0.32      71.5     0.30      1018.4     0.7     SSE   158   1.7     SSE   154   9.30    264      -64.4
   10/18/2018 02:20      52.4      51.9       48     32.8      0.00      0.32      71.5     0.30      1018.5     0.8     SSE   155   1.6      SE   142   9.30    264      -65.2
   10/18/2018 02:10      52.2      51.8       47     32.5      0.00      0.32      71.4     0.30      1018.4     0.5     SSE   161   1.2     SSE   167   9.31    264      -64.8
   10/18/2018 02:00      52.5      51.9       49     33.4      0.00      0.32      71.5     0.30      1018.4     0.0     SSE   165   0.7     SSE   168   9.31    264      -65.4
   10/18/2018 01:50      52.9      52.2       46     32.5      0.00      0.32      71.5     0.30      1018.4     0.3     SSE   153   1.2      SE   136   9.31    264      -65.9
   10/18/2018 01:40      53.5      52.6       46     32.7      0.00      0.32      71.5     0.30      1018.4     0.5     SSE   160   1.2     SSE   161   9.31    264      -66.0
   10/18/2018 01:30      53.5      52.9       47     33.3      0.00      0.32      71.6     0.30      1018.4     0.1     WSW   248   0.9      SW   234   9.31    264      -65.6
   10/18/2018 01:20      53.8      53.0       46     33.3      0.00      0.32      71.6     0.30      1018.4     0.3     SSE   147   0.9     SSE   157   9.31    264      -66.6
   10/18/2018 01:10      54.1      53.6       44     32.6      0.00      0.32      71.6     0.30      1018.4     0.6     SSE   155   1.7      SE   143   9.31    264      -66.9
   10/18/2018 01:00      54.1      53.7       44     32.2      0.00      0.32      71.6     0.30      1018.3     0.3     SSE   160   1.1     SSE   154   9.31    264      -67.6
   10/18/2018 00:50      54.3      53.8       43     32.1      0.00      0.32      71.6     0.30      1018.3     0.8     SSE   162   1.8     SSW   208   9.31    264      -67.8
   10/18/2018 00:40      55.1      54.0       44     32.6      0.00      0.32      71.7     0.30      1018.3     0.6       S   173   1.7     SSW   212   9.31    264      -68.6
   10/18/2018 00:30      55.1      54.8       42     32.2      0.00      0.32      71.7     0.30      1018.3     0.5       S   172   1.3     SSW   204   9.31    264      -68.2
   10/18/2018 00:20      55.2      54.8       42     32.5      0.00      0.32      71.7     0.30      1018.3     0.4       S   181   0.9     SSW   205   9.31    264      -68.3
   10/18/2018 00:10      55.9      55.0       43     33.2      0.00      0.32      71.6     0.30      1018.3     0.0       S   173   0.5     SSW   192   9.32    264      -69.0
   10/18/2018 00:00      55.8      55.4       43     33.2      0.00      0.32      71.7     0.30      1018.3     0.6     SSE   153   1.4     SSE   161   9.32    264      -68.6
   10/17/2018 23:50      57.4      55.5       41     33.0      0.00      0.32      71.7     0.30      1018.3     0.4     SSE   165   1.6       S   174   9.32    264      -69.9
   10/17/2018 23:40      58.2      57.0       38     32.2      0.00      0.32      71.7     0.30      1018.3     0.7     SSE   153   1.6      SE   130   9.32    263      -71.0
   10/17/2018 23:30      58.1      56.6       38     31.7      0.00      0.32      71.7     0.30      1018.3     1.3       S   189   2.6      SW   218   9.32    264      -71.2
   10/17/2018 23:20      57.9      57.0       38     31.9      0.00      0.32      71.7     0.30      1018.3     0.6       S   179   1.7       S   187   9.32    263      -72.2
   10/17/2018 23:10      59.0      57.7       37     32.0      0.00      0.32      71.7     0.30      1018.3     0.5     SSE   152   2.1      SE   137   9.32    263      -73.1
   10/17/2018 23:00      60.3      58.7       35     31.7      0.00      0.32      71.7     0.30      1018.2     0.8     ESE   109   2.8     NNW   346   9.32    263      -72.3
   10/17/2018 22:50      60.6      59.5       33     31.1      0.00      0.32      71.7     0.30      1018.2     1.2     SSE   147   2.4       N   352   9.32    263      -72.6
   10/17/2018 22:40      60.5      58.7       35     31.2      0.00      0.32      71.7     0.30      1018.2     1.0     SSW   206   2.8     SSW   206   9.32    263      -72.6
   10/17/2018 22:30      59.1      58.5       36     31.6      0.00      0.32      71.7     0.30      1018.2     0.6     SSW   196   2.2     SSE   156   9.32    263      -72.6
   10/17/2018 22:20      59.3      58.7       36     31.8      0.00      0.32      71.7     0.30      1018.2     0.4       S   172   2.5     SSW   206   9.33    263      -72.4
   10/17/2018 22:10      59.8      59.0       35     31.7      0.00      0.32      71.7     0.30      1018.2     0.5     SSE   161   1.2       S   188   9.33    263      -73.9
   10/17/2018 22:00      60.8      59.5       34     31.4      0.00      0.32      71.7     0.30      1018.2     0.4       S   171   1.2     SSW   201   9.33    263      -75.1
   10/17/2018 21:50      61.5      60.5       32     31.1      0.00      0.32      71.7     0.30      1018.1     0.4       E    97   1.2       E    86   9.33    263      -76.7
   10/17/2018 21:40      62.3      61.3       31     31.1      0.00      0.32      71.7     0.30      1018.1     0.7      SE   128   1.4      SE   137   9.33    263      -77.6
   10/17/2018 21:30      63.3      62.1       30     30.6      0.00      0.32      71.7     0.30      1018.0     0.7      SE   138   1.4      SE   134   9.33    263      -77.7
   10/17/2018 21:20      64.0      63.1       28     30.2      0.00      0.32      71.6     0.31      1017.9     0.7     SSE   155   1.5       S   176   9.34    262      -78.9
   10/17/2018 21:10      65.3      63.7       28     30.2      0.00      0.32      71.6     0.30      1017.9     0.8     SSE   153   1.8      SE   145   9.34    262      -80.2
   10/17/2018 21:00      65.3      64.5       27     30.0      0.00      0.32      71.6     0.30      1017.8     1.5       S   169   2.7     SSW   196   9.34    262      -81.4
   10/17/2018 20:50      66.7      64.9       26     29.9      0.00      0.32      71.6     0.31      1017.7     1.5     SSE   164   2.5     SSW   198   9.34    262      -82.7
   10/17/2018 20:40      67.4      66.4       24     28.8      0.00      0.32      71.6     0.30      1017.6     2.3       S   187   3.7      SW   219   9.34    261      -85.1
   10/17/2018 20:30      67.4      66.6       24     28.7      0.00      0.32      71.5     0.30      1017.6     2.5     SSW   205   4.8      SW   223   9.34    262      -85.9
   10/17/2018 20:20      68.0      66.7       24     29.1      0.00      0.32      71.5     0.30      1017.5     1.9       S   183   4.3      SW   224   9.34    262      -86.1
   10/17/2018 20:10      68.4      67.6       23     29.0      0.00      0.32      71.5     0.30      1017.5     2.3     SSW   196   3.7     SSW   199   9.34    261      -87.3
   10/17/2018 20:00      68.5      68.1       23     28.6      0.00      0.32      71.5     0.30      1017.5     2.2     SSW   202   3.8      SW   220   9.35    261      -87.2
   10/17/2018 19:50      69.2      68.2       22     28.0      0.00      0.32      71.5     0.30      1017.5     1.7     SSW   212   2.9     SSW   197   9.35    261      -86.3
   10/17/2018 19:40      70.0      68.9       21     28.0      0.00      0.32      71.4     0.30      1017.4     1.3     SSW   207   2.8     WSW   237   9.35    261      -88.9
   10/17/2018 19:30      70.6      69.7       20     27.6      0.00      0.32      71.4     0.30      1017.3     2.9     WSW   240   5.7     WSW   250   9.35    261      -90.9
   10/17/2018 19:20      70.6      70.0       21     28.3      0.00      0.32      71.4     0.30      1017.3     1.8       W   263   4.3     WSW   250   9.36    261      -91.4
   10/17/2018 19:10      71.1      70.2       21     28.9      0.00      0.32      71.3     0.30      1017.1     1.7      SW   220   3.6     SSW   198   9.36    261      -91.7
   10/17/2018 19:00      72.0      70.9       21     29.0      0.00      0.32      71.3     0.30      1017.0     2.6      SW   222   4.1     WSW   256   9.36    261      -92.8
   10/17/2018 18:50      72.9      71.8       20     28.9      0.00      0.32      71.3     0.30      1016.9     2.1     WSW   240   3.3       W   260   9.36    261      -94.7
   10/17/2018 18:40      73.3      72.5       19     28.8      0.00      0.32      71.2     0.30      1016.7     3.3     WSW   240   5.7     WSW   250   9.37    261      -96.6
   10/17/2018 18:30      74.0      73.1       19     28.6      0.00      0.32      71.2     0.30      1016.5     3.0     WSW   240   6.2       W   265   9.37    261      -96.8
   10/17/2018 18:20      74.8      73.7       19     28.9      0.00      0.32      71.2     0.30      1016.4     3.4     WSW   252   6.7     WSW   251   9.37    261      -95.8
   10/17/2018 18:10      75.6      74.5       18     29.0      0.00      0.32      71.1     0.30      1016.3     3.6     WNW   285   6.5     WSW   254   9.38    261      -93.3
   10/17/2018 18:00      76.0      75.1       18     29.4      0.00      0.32      71.0     0.30      1016.2     4.8       W   272   8.9      SW   230   9.38    261      -89.7
   10/17/2018 17:50      76.8      75.8       18     29.5      0.00      0.32      70.9     0.30      1016.1     4.5       W   272   9.2     WSW   246   9.38    261      -88.0
   10/17/2018 17:40      78.0      76.5       19     31.3      0.00      0.32      71.0     0.30      1016.0     5.2       W   265   9.8       W   263   9.39    261      -62.1
   10/17/2018 17:30      78.6      77.7       20     33.8      0.00      0.32      70.9     0.30      1015.8     4.3     WSW   249   8.7       W   275   9.39    261      -32.9
   10/17/2018 17:20      79.4      78.4       17     30.4      0.00      0.32      70.8     0.30      1015.7     5.0     WSW   259   8.5       W   260   9.40    261      -11.7
   10/17/2018 17:10      80.5      79.1       17     30.5      0.00      0.32      70.8     0.30      1015.6     4.1     WNW   284   8.5     WSW   237   9.40    261       10.4
   10/17/2018 17:00      82.3      80.1       16     30.1      0.00      0.32      70.8     0.30      1015.6     4.7     WNW   292   8.9      NW   310   9.41    261       36.3
   10/17/2018 16:50      83.0      81.9       14     29.4      0.00      0.32      70.7     0.30      1015.6     3.1     WNW   281   6.0     WNW   297   9.41    261       59.1
   10/17/2018 16:40      83.7      82.5       14     28.3      0.00      0.32      70.7     0.30      1015.5     4.6       W   266   8.9     WSW   246   9.41    261       88.4
   10/17/2018 16:30      84.9      83.1       12     25.9      0.00      0.32      70.6     0.30      1015.4     4.5       W   277   9.2     WSW   246   9.42    261      112.9
   10/17/2018 16:20      85.3      84.6       11     23.7      0.00      0.32      70.6     0.30      1015.4     3.7     NNW   338   8.3      NW   326   9.42    261      133.2
   10/17/2018 16:10      85.1      84.3       11     23.7      0.00      0.32      70.5     0.30      1015.4     2.7     NNE    19   7.7     NNW   343   9.42    261      153.4
   10/17/2018 16:00      85.0      84.5       11     23.6      0.00      0.32      70.5     0.30      1015.5     3.6     NNE    23   7.8       N    10   9.43    261      177.9
   10/17/2018 15:50      85.3      84.6       10     22.8      0.00      0.32      70.4     0.30      1015.5     4.3       N   349   9.4     NNW   342   9.43    261      196.1
   10/17/2018 15:40      85.3      84.0       10     22.6      0.00      0.32      70.3     0.30      1015.6     3.9     NNW   328   7.7       W   267   9.43    260      206.7
   10/17/2018 15:30      84.5      84.1       10     22.4      0.00      0.32      70.3     0.30      1015.7     4.7       N   358   8.2     NNE    17   9.43    260      227.0
   10/17/2018 15:20      84.7      83.6       10     21.8      0.00      0.32      70.2     0.30      1015.7     4.7     NNW   341  11.4       N   350   9.44    260      247.1
   10/17/2018 15:10      84.7      83.6       10     21.9      0.00      0.32      70.2     0.30      1015.8     5.6       N   349  10.6       N     9   9.44    260      268.1
   10/17/2018 15:00      84.7      83.8       10     22.2      0.00      0.32      70.1     0.30      1015.9     5.0       N     1  10.8       N   352   9.44    259      296.8
   10/17/2018 14:50      84.4      83.7       10     22.0      0.00      0.32      70.1     0.30      1016.0     5.0       N     1  10.8       N   352   9.44    260      317.6
   10/17/2018 14:40      84.6      83.9       10     21.4      0.00      0.32      70.0     0.30      1016.1     5.3       N     4  10.3     NNW   340   9.44    260      332.8
   10/17/2018 14:30      84.7      84.1       10     21.1      0.00      0.32      70.0     0.30      1016.2     5.3       N   357   9.5       N     0   9.45    259      347.0
   10/17/2018 14:20      85.0      84.0        9     20.6      0.00      0.32      70.0     0.30      1016.3     5.5     NNW   347  12.7     NNW   334   9.45    260      360.9
   10/17/2018 14:10      85.2      83.9        9     20.6      0.00      0.32      69.9     0.30      1016.5     4.2       N   355   9.6       W   273   9.45    260      371.9
   10/17/2018 14:00      84.2      83.6        9     20.2      0.00      0.32      69.9     0.30      1016.6     5.0     NNW   342  10.8     NNW   347   9.45    260      385.2
   10/17/2018 13:50      83.9      83.3       10     20.1      0.00      0.32      69.8     0.30      1016.8     5.4     NNW   343  11.4      NE    43   9.45    259      394.6
   10/17/2018 13:40      84.2      83.1        9     19.9      0.00      0.32      69.8     0.30      1017.0     5.3       N   350  11.8      NW   315   9.46    260      403.8
   10/17/2018 13:30      83.9      83.3        9     19.9      0.00      0.32      69.8     0.30      1017.2     4.7       N     0   7.7      NE    43   9.46    260      410.8
   10/17/2018 13:20      84.2      83.3        9     19.7      0.00      0.32      69.8     0.30      1017.4     4.9     NNW   333  10.8       W   278   9.46    260      417.6
   10/17/2018 13:10      84.4      83.1       10     21.6      0.00      0.32      69.8     0.30      1017.6     3.7     NNW   346   8.7     NNW   343   9.46    260      419.6
   10/17/2018 13:00      84.3      83.1       10     22.3      0.00      0.32      69.8     0.30      1017.8     1.3       E    84   4.0      SE   128   9.46    260      425.6
   10/17/2018 12:50      83.6      81.5       11     22.0      0.00      0.32      69.8     0.30      1018.0     1.9      NE    48   7.0     ENE    59   9.46    260      430.8
   10/17/2018 12:40      83.5      82.0       11     23.1      0.00      0.32      69.7     0.30      1018.2     2.7     ENE    71   5.5      NE    41   9.46    260      431.0
   10/17/2018 12:30      83.4      80.9       12     23.7      0.00      0.32      69.8     0.30      1018.4     1.1      NW   314   4.1      NE    46   9.46    260      432.6
   10/17/2018 12:20      82.2      80.9       12     23.5      0.00      0.32      69.8     0.30      1018.6     2.1      SW   224   5.5       W   266   9.46    261      430.7
   10/17/2018 12:10      82.4      80.9       12     24.1      0.00      0.32      69.8     0.30      1018.7     1.2     WSW   256   3.9       W   268   9.46    260      425.0
   10/17/2018 12:00      81.1      80.0       12     24.0      0.00      0.32      69.8     0.30      1018.7     1.2     NNW   336   2.9     WNW   294   9.46    260      421.8
   10/17/2018 11:50      80.8      79.8       12     23.7      0.00      0.32      69.8     0.30      1018.9     1.3       W   266   4.4       W   274   9.46    260      418.6
   10/17/2018 11:40      80.7      79.8       13     24.1      0.00      0.32      69.8     0.30      1019.0     1.3      NW   308   3.8       N   349   9.46    260      412.0
   10/17/2018 11:30      80.1      78.6       13     24.0      0.00      0.32      69.8     0.30      1019.0     1.3     WNW   290   3.1     WSW   250   9.46    260      406.4
   10/17/2018 11:20      79.0      78.1       13     23.4      0.00      0.32      69.9     0.30      1019.1     1.8     WNW   290   5.0       W   266   9.46    260      398.5
   10/17/2018 11:10      78.6      77.4       13     23.6      0.00      0.32      69.9     0.30      1019.1     1.4      NW   310   3.5     WSW   257   9.46    261      388.6
   10/17/2018 11:00      77.9      77.2       14     24.2      0.00      0.32      69.9     0.30      1019.2     1.5       N     6   3.6     ESE   115   9.46    261      377.3
   10/17/2018 10:50      77.8      77.1       14     24.1      0.00      0.32      70.0     0.30      1019.3     1.0      NE    35   2.5       N   353   9.46    261      365.8
   10/17/2018 10:40      77.4      76.1       13     22.8      0.00      0.32      70.0     0.30      1019.4     0.8     ESE   109   2.6       E    93   9.46    261      352.6
   10/17/2018 10:30      76.7      75.5       14     22.6      0.00      0.32      70.0     0.30      1019.5     0.9     ESE   112   2.7     ESE   119   9.46    261      338.6
   10/17/2018 10:20      75.7      74.4       15     24.0      0.00      0.32      70.1     0.30      1019.7     0.7      NE    40   1.9     NNE    30   9.46    261      324.4
   10/17/2018 10:10      74.6      73.1       18     26.9      0.00      0.32      70.0     0.30      1019.7     0.6       E    95   2.7       E    89   9.46    261      309.4
   10/17/2018 10:00      73.4      72.8       19     29.0      0.00      0.32      70.2     0.30      1019.8     0.6      NE    36   2.2     ESE   120   9.47    261      291.8
   10/17/2018 09:50      73.0      71.3       19     28.0      0.00      0.32      70.2     0.30      1019.9     0.7       W   264   1.6     WSW   253   9.46    261      276.2
   10/17/2018 09:40      71.3      70.2       21     29.1      0.00      0.32      70.2     0.30      1019.9     0.6      SW   232   1.3     WSW   253   9.47    262      259.9
   10/17/2018 09:30      70.6      69.6       24     31.4      0.00      0.32      70.3     0.30      1019.9     0.3       W   261   1.8      SW   223   9.46    262      242.5
   10/17/2018 09:20      70.0      68.3       26     32.5      0.00      0.32      70.3     0.30      1020.0     0.3       W   266   1.8     WSW   257   9.47    262      224.3
   10/17/2018 09:10      68.4      66.0       27     32.3      0.00      0.32      70.3     0.30      1020.0     0.0     SSW   195   0.9      SW   219   9.47    263      205.8
   10/17/2018 09:00      66.1      65.5       31     34.3      0.00      0.32      70.4     0.30      1020.0     0.4       N   356   1.4       N     8   9.47    263      187.9
   10/17/2018 08:50      65.6      62.8       35     35.8      0.00      0.32      70.5     0.30      1019.9     0.0       N     8   0.0       N     8   9.47    264      168.7
   10/17/2018 08:40      63.0      61.0       38     36.1      0.00      0.32      70.5     0.30      1019.8     0.2      NE    47   1.0     ENE    72   9.47    266      147.0
   10/17/2018 08:30      61.1      59.2       40     36.0      0.00      0.32      70.5     0.30      1019.8     0.0       N     0   0.0     ENE    73   9.47    266      124.0
   10/17/2018 08:20      59.4      55.6       44     36.0      0.00      0.32      70.6     0.30      1019.7     0.0       N     0   0.0     ENE    73   9.47    266        8.8
   10/17/2018 08:10      55.7      52.1       50     35.5      0.00      0.32      70.6     0.30      1019.6     0.0       N     0   0.0     ENE    73   9.47    266      -46.4
   10/17/2018 08:00      52.3      50.3       54     34.9      0.00      0.32      70.6     0.30      1019.4     0.6     ESE   121   1.6      SE   135   9.47    266      -10.1
   10/17/2018 07:50      50.4      48.6       57     34.6      0.00      0.32      70.7     0.30      1019.3     0.0     SSW   210   0.0     SSW   210   9.47    266      -42.0
   10/17/2018 07:40      48.8      47.7       59     34.5      0.00      0.32      70.7     0.30      1019.2     0.4     ESE   120   1.8       E    83   9.47    266      -47.8
   10/17/2018 07:30      47.9      46.3       61     34.3      0.00      0.32      70.7     0.30      1019.0     1.4      SW   215   2.2      SW   218   9.47    266      -50.4
   10/17/2018 07:20      46.8      46.3       62     34.2      0.00      0.32      70.8     0.30      1018.9     0.7      SE   143   1.9       S   189   9.47    266      -54.9
   10/17/2018 07:10      46.7      46.1       62     34.1      0.00      0.32      70.8     0.30      1018.8     0.8     SSE   164   3.0     SSE   168   9.47    266      -58.5
   10/17/2018 07:00      46.7      46.2       63     34.3      0.00      0.32      70.8     0.30      1018.7     0.5     SSW   192   1.8      NE    43   9.47    266      -60.5
   10/17/2018 06:50      47.1      46.3       62     34.5      0.00      0.32      70.8     0.30      1018.5     0.2      SE   145   1.1     SSE   158   9.47    266      -62.1
   10/17/2018 06:40      47.2      46.8       62     34.8      0.00      0.32      70.9     0.30      1018.4     0.3      SE   131   1.3     ESE   105   9.47    266      -61.8
   10/17/2018 06:30      47.4      46.8       64     35.4      0.00      0.32      71.0     0.30      1018.2     0.7      SW   214   2.2       N   352   9.47    266      -62.1
   10/17/2018 06:20      47.4      46.9       64     35.4      0.00      0.32      71.0     0.30      1018.2     1.3     SSE   156   2.6       S   184   9.47    266      -62.4
   10/17/2018 06:10      47.5      46.9       63     35.4      0.00      0.32      71.0     0.30      1018.2     1.2     SSE   155   3.1       S   188   9.47    266      -62.5
   10/17/2018 06:00      47.0      46.4       65     35.6      0.00      0.32      71.0     0.30      1018.2     0.5      SW   235   2.1     SSW   200   9.47    266      -62.5
   10/17/2018 05:50      46.7      46.4       66     35.8      0.00      0.32      71.1     0.30      1018.1     0.6     SSE   165   1.5       S   182   9.47    266      -63.0
   10/17/2018 05:40      47.1      46.4       65     35.4      0.00      0.32      71.1     0.30      1018.1     0.3     SSE   163   1.4       S   190   9.47    266      -63.1
   10/17/2018 05:30      47.6      46.9       63     35.1      0.00      0.32      71.1     0.30      1018.0     0.7       S   174   3.0       S   181   9.47    266      -63.5
   10/17/2018 05:20      47.6      46.9       63     35.1      0.00      0.32      71.2     0.30      1017.9     0.8     SSW   200   1.7      SW   230   9.47    266      -63.6
   10/17/2018 05:10      47.2      46.9       65     35.7      0.00      0.32      71.2     0.30      1017.9     0.0      NE    34   1.1     NNE    27   9.47    266      -64.5
   10/17/2018 05:00      47.5      47.0       64     35.5      0.00      0.32      71.2     0.30      1017.8     0.5     SSE   168   1.5     SSW   193   9.47    266      -64.3
   10/17/2018 04:50      48.1      47.3       64     36.0      0.00      0.32      71.2     0.30      1017.8     0.2      SE   137   1.7       S   179   9.48    266      -64.5
   10/17/2018 04:40      48.5      47.8       61     35.2      0.00      0.32      71.2     0.30      1017.7     0.3     SSE   152   0.8     SSE   155   9.48    266      -64.4
   10/17/2018 04:30      48.4      47.8       61     35.5      0.00      0.32      71.3     0.30      1017.7     0.4       S   169   1.2       S   179   9.47    266      -64.2
   10/17/2018 04:20      48.5      47.6       62     35.7      0.00      0.32      71.3     0.30      1017.7     0.4     SSE   157   1.0     SSE   163   9.48    266      -64.9
   10/17/2018 04:10      48.5      47.9       59     34.7      0.00      0.32      71.3     0.30      1017.7     0.6       S   180   1.2      SE   141   9.48    266      -64.8
   10/17/2018 04:00      48.7      48.0       62     35.8      0.00      0.32      71.4     0.30      1017.7     0.0       S   185   0.3       S   185   9.48    266      -65.3
   10/17/2018 03:50      49.1      48.5       60     35.4      0.00      0.32      71.4     0.30      1017.7     0.0     SSE   157   0.9     SSE   155   9.48    266      -65.3
   10/17/2018 03:40      49.5      48.8       57     34.7      0.00      0.32      71.4     0.30      1017.8     0.3     SSE   158   1.1     SSE   156   9.48    266      -65.4
   10/17/2018 03:30      49.5      49.0       57     34.4      0.00      0.32      71.4     0.30      1017.8     0.6     SSE   160   1.2     SSE   153   9.48    266      -65.9
   10/17/2018 03:20      49.4      48.9       57     34.8      0.00      0.32      71.5     0.30      1017.9     0.7     SSE   154   1.1     SSE   163   9.48    266      -66.2
   10/17/2018 03:10      49.8      49.0       55     34.0      0.00      0.32      71.4     0.30      1017.9     0.0     SSE   160   0.4     SSE   160   9.48    266      -66.1
   10/17/2018 03:00      50.4      49.5       57     35.2      0.00      0.32      71.5     0.30      1018.0     0.2     SSE   161   0.7     SSE   162   9.48    266      -66.6
   10/17/2018 02:50      50.5      50.0       54     34.2      0.00      0.32      71.5     0.30      1018.1     0.0       S   173   0.4       S   172   9.48    265      -66.8
   10/17/2018 02:40      50.3      49.9       55     34.5      0.00      0.32      71.6     0.31      1018.1     0.0       N     0   0.0       S   173   9.48    265      -67.8
   10/17/2018 02:30      50.5      49.9       54     34.3      0.00      0.32      71.6     0.31      1018.2     0.6     SSE   161   1.1     SSE   158   9.48    265      -68.5
   10/17/2018 02:20      50.6      50.1       54     34.4      0.00      0.32      71.6     0.31      1018.3     0.3     SSE   165   1.1     SSE   167   9.48    265      -68.8
   10/17/2018 02:10      51.4      50.4       52     33.8      0.00      0.32      71.6     0.31      1018.3     0.4     SSE   148   1.4      SE   142   9.48    265      -69.4
   10/17/2018 02:00      51.4      50.8       51     33.7      0.00      0.32      71.7     0.31      1018.3     0.3     SSE   153   1.0     SSE   152   9.49    265      -69.0
   10/17/2018 01:50      51.5      51.0       52     34.1      0.00      0.32      71.7     0.31      1018.3     0.6       S   175   1.1     SSE   150   9.49    265      -69.4
   10/17/2018 01:40      51.6      51.1       53     34.8      0.00      0.32      71.7     0.31      1018.3     0.1     SSE   159   0.9     SSE   159   9.49    265      -69.4
   10/17/2018 01:30      52.3      51.4       53     35.2      0.00      0.32      71.7     0.31      1018.3     0.2      SE   143   1.3      SE   145   9.49    264      -70.6
   10/17/2018 01:20      52.5      51.9       50     34.2      0.00      0.32      71.7     0.31      1018.3     0.9     SSE   152   2.8      SE   136   9.49    264      -70.1
   10/17/2018 01:10      53.0      52.1       49     33.7      0.00      0.32      71.7     0.31      1018.3     0.4     SSE   162   1.2     SSE   158   9.49    264      -69.9
   10/17/2018 01:00      53.6      52.7       47     33.4      0.00      0.32      71.8     0.31      1018.3     0.4     SSE   155   1.3      SE   141   9.49    264      -71.1
   10/17/2018 00:50      53.9      53.4       46     33.5      0.00      0.32      71.8     0.31      1018.3     0.9       S   184   1.9     SSE   162   9.49    264      -70.8
   10/17/2018 00:40      54.5      53.5       46     33.7      0.00      0.32      71.8     0.31      1018.4     0.0     ENE    58   0.8     ENE    58   9.49    264      -72.0
   10/17/2018 00:30      54.6      54.0       45     33.6      0.00      0.32      71.8     0.31      1018.4     0.9     SSE   149   2.5     SSE   152   9.49    264      -71.8
   10/17/2018 00:20      54.9      54.1       45     33.3      0.00      0.32      71.8     0.31      1018.4     1.0     SSE   154   1.9     SSE   147   9.50    264      -72.1
   10/17/2018 00:10      55.3      54.5       43     33.0      0.00      0.32      71.8     0.31      1018.4     0.9     SSE   161   1.7      SE   142   9.50    264      -72.4
   10/17/2018 00:00      55.4      54.9       42     32.6      0.00      0.32      71.8     0.31      1018.5     0.9     SSE   151   2.0     SSE   151   9.50    264      -73.9
   10/16/2018 23:50      55.7      55.1       42     32.7      0.00      0.32      71.8     0.31      1018.6     1.5     SSE   167   3.2       S   174   9.50    264      -74.7
   10/16/2018 23:40      56.0      55.1       43     33.1      0.00      0.32      71.8     0.31      1018.6     1.3     SSE   149   3.0     SSE   147   9.50    264      -75.8
   10/16/2018 23:30      57.4      55.8       40     32.1      0.00      0.32      71.9     0.31      1018.5     1.3     SSE   156   2.5      SE   142   9.50    264      -75.4
   10/16/2018 23:20      57.7      56.5       38     31.7      0.00      0.32      71.8     0.31      1018.4     1.1     WSW   239   2.8       W   263   9.50    263      -75.4
   10/16/2018 23:10      58.4      56.4       38     31.9      0.00      0.32      71.8     0.31      1018.5     0.5       S   169   2.1     WSW   237   9.50    264      -76.6
   10/16/2018 23:00      58.7      58.1       36     31.6      0.00      0.32      71.9     0.31      1018.3     1.1      SW   226   1.8     WNW   290   9.50    263      -75.5
   10/16/2018 22:50      59.3      58.0       36     31.6      0.00      0.32      71.9     0.31      1018.4     0.8     SSW   200   2.1     WSW   244   9.51    263      -76.3
   10/16/2018 22:40      61.5      59.1       34     31.6      0.00      0.32      71.9     0.31      1018.3     0.8     SSE   155   1.8     SSE   159   9.51    263      -79.5
   10/16/2018 22:30      61.6      60.9       32     30.7      0.00      0.32      71.9     0.31      1018.3     1.9       S   183   3.1      SW   230   9.51    263      -80.6
   10/16/2018 22:20      62.0      60.9       29     28.8      0.00      0.32      71.9     0.31      1018.3     1.4     ESE   106   2.2      SE   130   9.51    263      -81.0
   10/16/2018 22:10      62.0      60.3       28     27.9      0.00      0.32      71.9     0.31      1018.1     1.3       S   190   2.5       S   182   9.51    262      -81.5
   10/16/2018 22:00      61.3      59.7       30     28.8      0.00      0.32      71.9     0.31      1018.0     0.9       E    89   3.7      SE   132   9.51    262      -82.0
   10/16/2018 21:50      62.5      61.0       28     28.4      0.00      0.32      71.8     0.31      1017.7     0.7     ESE   116   1.4       E    88   9.52    262      -82.0
   10/16/2018 21:40      64.0      62.3       27     28.0      0.00      0.32      71.8     0.31      1017.6     0.8      SE   141   1.8      SW   234   9.52    262      -82.8
   10/16/2018 21:30      65.5      63.7       24     26.8      0.00      0.32      71.8     0.31      1017.6     1.5     SSW   192   4.3     WSW   252   9.52    262      -85.2
   10/16/2018 21:20      64.7      64.2       24     26.6      0.00      0.32      71.8     0.31      1017.6     0.7     SSW   197   4.4     WSW   251   9.52    262      -84.5
   10/16/2018 21:10      67.0      64.5       23     26.8      0.00      0.32      71.8     0.31      1017.6     1.8       S   171   4.1       S   177   9.52    262      -86.9
   10/16/2018 21:00      67.8      66.8       20     25.1      0.00      0.32      71.8     0.31      1017.5     3.2     SSW   195   4.6     SSW   204   9.53    262      -88.8
   10/16/2018 20:50      67.5      66.1       21     25.4      0.00      0.32      71.8     0.31      1017.4     4.6     SSW   199   6.6       S   182   9.53    262      -88.6
   10/16/2018 20:40      66.7      66.1       22     26.0      0.00      0.32      71.8     0.31      1017.3     1.4       S   178   3.3       S   185   9.53    262      -88.2
   10/16/2018 20:30      66.9      66.3       22     26.0      0.00      0.32      71.7     0.31      1017.2     1.5     SSW   194   3.5      SW   221   9.53    261      -89.0
   10/16/2018 20:20      66.6      65.9       22     26.3      0.00      0.32      71.7     0.31      1017.1     1.9       S   182   4.3       S   185   9.53    261      -88.3
   10/16/2018 20:10      66.7      65.7       23     26.7      0.00      0.32      71.7     0.31      1017.0     1.0       S   190   2.0     SSW   202   9.54    261      -87.2
   10/16/2018 20:00      67.7      66.3       22     26.3      0.00      0.32      71.7     0.31      1017.0     1.6       S   187   2.8       S   183   9.54    261      -88.0
   10/16/2018 19:50      68.6      67.3       20     25.7      0.00      0.32      71.7     0.31      1016.9     1.8      SW   219   3.9      SW   223   9.54    261      -89.5
   10/16/2018 19:40      68.5      68.0       20     25.5      0.00      0.32      71.6     0.31      1016.8     2.1     WSW   240   3.2     WSW   245   9.54    261      -89.7
   10/16/2018 19:30      69.5      68.2       19     24.9      0.00      0.32      71.6     0.31      1016.7     0.9     SSW   198   1.8     SSW   199   9.55    261      -92.0
   10/16/2018 19:20      71.3      69.3       18     24.6      0.00      0.32      71.6     0.31      1016.6     1.1     SSW   204   2.4     SSW   212   9.55    261      -94.4
   10/16/2018 19:10      71.5      70.9       17     24.3      0.00      0.32      71.5     0.31      1016.4     2.9     WSW   240   4.7      SW   216   9.55    261      -98.4
   10/16/2018 19:00      72.3      71.2       17     24.5      0.00      0.32      71.5     0.31      1016.3     3.1     SSW   206   4.6     SSW   195   9.56    261      -99.4
   10/16/2018 18:50      73.7      72.0       15     23.1      0.00      0.32      71.5     0.31      1016.1     3.3     SSW   203   5.4       S   180   9.56    261     -101.2
   10/16/2018 18:40      74.7      73.4       14     21.9      0.00      0.32      71.5     0.31      1016.0     3.7      SW   230   7.1      SW   235   9.56    261     -103.0
   10/16/2018 18:30      76.0      74.5       13     20.2      0.00      0.32      71.4     0.31      1015.9     4.8     WSW   240   7.6       W   267   9.57    261     -102.9
   10/16/2018 18:20      77.5      75.8       12     19.9      0.00      0.32      71.4     0.31      1015.8     4.3     WSW   256   7.4     WSW   257   9.57    261     -101.4
   10/16/2018 18:10      78.4      77.3       11     19.3      0.00      0.32      71.3     0.31      1015.5     3.3     WNW   293   8.7      NW   317   9.58    261      -97.5
   10/16/2018 18:00      80.4      78.0       10     17.3      0.00      0.32      71.3     0.31      1015.4     0.8     WSW   236   3.1       N     0   9.58    260      -95.0
   10/16/2018 17:50      81.2      80.0        9     15.8      0.00      0.32      71.2     0.31      1015.4     0.7       N   356   2.7     NNW   334   9.58    260      -97.7
   10/16/2018 17:40      81.7      80.9        9     15.9      0.00      0.32      71.2     0.31      1015.4     1.0      NE    44   3.1       N   355   9.59    260      -66.3
   10/16/2018 17:30      81.7      81.3        8     14.7      0.00      0.32      71.2     0.31      1015.4     1.8     NNE    25   3.4       N     5   9.59    260      -41.4
   10/16/2018 17:20      81.8      81.2        8     14.2      0.00      0.32      71.2     0.31      1015.5     2.4      NE    45   4.9     NNE    25   9.59    260      -17.2
   10/16/2018 17:10      82.2      81.4        8     14.7      0.00      0.32      71.1     0.30      1015.5     3.3      NE    43   6.6     NNE    27   9.60    260        8.2
   10/16/2018 17:00      82.2      81.7        8     14.1      0.00      0.32      71.1     0.30      1015.6     3.2     NNE    16   7.2      NE    39   9.60    260       34.3
   10/16/2018 16:50      82.4      81.8        8     14.2      0.00      0.32      71.0     0.30      1015.6     2.9      NE    43   6.3       N   353   9.60    261       60.7
   10/16/2018 16:40      82.8      82.1        8     14.5      0.00      0.32      71.0     0.30      1015.6     2.9     NNE    33   7.2      NE    45   9.60    260       85.7
   10/16/2018 16:30      82.8      81.6        8     14.6      0.00      0.32      71.0     0.30      1015.7     2.7     NNE    17   6.4      NE    36   9.61    261      111.6
   10/16/2018 16:20      82.5      81.5        8     13.6      0.00      0.32      70.9     0.30      1015.8     4.5      NE    40   7.3      NE    44   9.61    261      138.0
   10/16/2018 16:10      83.3      82.2        8     14.4      0.00      0.32      70.9     0.30      1015.8     4.8      NE    39   8.3     ENE    66   9.61    260      160.9
   10/16/2018 16:00      83.6      82.5        8     14.8      0.00      0.32      70.8     0.30      1015.8     3.7      NE    34   8.5     NNE    23   9.62    260      182.8
   10/16/2018 15:50      83.4      83.0        8     14.4      0.00      0.32      70.7     0.30      1015.9     4.0     NNE    22   7.9      NE    43   9.62    260      193.9
   10/16/2018 15:40      83.3      82.3        7     13.9      0.00      0.32      70.7     0.30      1016.0     4.0       N     9   8.9     NNW   342   9.62    260      208.2
   10/16/2018 15:30      83.8      82.6        7     14.0      0.00      0.32      70.7     0.30      1016.1     4.5     NNE    20   9.1     NNW   342   9.62    259      228.4
   10/16/2018 15:20      83.6      82.6        7     13.8      0.00      0.32      70.6     0.30      1016.2     3.4     NNE    18   7.8     NNE    27   9.62    260      247.1
   10/16/2018 15:10      83.1      81.9        8     13.8      0.00      0.32      70.6     0.30      1016.2     3.9      NE    35   7.0     NNE    14   9.63    259      269.2
   10/16/2018 15:00      82.6      81.9        7     13.4      0.00      0.32      70.5     0.30      1016.3     4.8     NNE    20  10.3       N     7   9.63    259      302.4
   10/16/2018 14:50      82.8      82.0        7     13.4      0.00      0.32      70.5     0.30      1016.3     3.8     NNE    16   9.2     NNE    13   9.63    259      320.1
   10/16/2018 14:40      82.4      81.8        7     13.1      0.00      0.32      70.5     0.30      1016.5     4.5       N     7   8.4     NNE    17   9.64    259      337.6
   10/16/2018 14:30      82.4      81.7        7     13.3      0.00      0.32      70.4     0.30      1016.5     5.3     NNE    34   9.6     ENE    60   9.64    259      353.5
   10/16/2018 14:20      82.3      81.3        7     12.6      0.00      0.32      70.3     0.30      1016.6     4.0     NNE    24   7.5     NNW   335   9.64    259      366.1
   10/16/2018 14:10      81.8      80.4        7     12.4      0.00      0.32      70.3     0.30      1016.8     5.6       N     8  10.9     NNE    14   9.64    259      383.0
   10/16/2018 14:00      81.0      80.4        7     11.7      0.00      0.32      70.3     0.30      1016.9     7.3     NNE    13  12.6       N   354   9.65    259      394.7
   10/16/2018 13:50      81.1      80.4        7     12.0      0.00      0.32      70.3     0.30      1017.1     6.2       N    10  12.3     NNW   338   9.65    259      404.6
   10/16/2018 13:40      80.8      79.8        8     12.3      0.00      0.32      70.2     0.30      1017.4     7.2       N     3  13.3       N     5   9.65    259      417.1
   10/16/2018 13:30      80.3      79.6        8     12.8      0.00      0.32      70.2     0.30      1017.6     6.4       N     5  11.3       N     4   9.65    259      422.5
   10/16/2018 13:20      80.6      79.8        8     13.4      0.00      0.32      70.2     0.30      1017.6     6.6       N     9  12.9       N   350   9.66    259      428.1
   10/16/2018 13:10      80.6      79.5        8     14.0      0.00      0.32      70.2     0.30      1017.6     5.6       N     9  15.6     NNW   339   9.66    259      434.3
   10/16/2018 13:00      80.5      79.2        8     14.2      0.00      0.32      70.2     0.30      1017.8     4.9       N     9  12.8      NE    52   9.66    259      439.4
   10/16/2018 12:50      79.6      78.9        8     13.6      0.00      0.32      70.2     0.30      1017.9     6.5       N     4  12.6      NE    37   9.66    259      445.0
   10/16/2018 12:40      79.5      78.4        9     14.2      0.00      0.32      70.1     0.30      1018.0     6.5       N     0  12.2      NW   313   9.66    260      446.4
   10/16/2018 12:30      79.2      78.4        8     13.7      0.00      0.32      70.1     0.30      1018.1     6.8       N     5  12.7      NE    47   9.66    260      445.5
   10/16/2018 12:20      79.2      77.8        8     13.7      0.00      0.32      70.1     0.30      1018.2     6.4       N     4  14.3     NNW   331   9.67    260      444.2
   10/16/2018 12:10      78.3      77.6        8     12.7      0.00      0.32      70.2     0.30      1018.4     6.9     NNE    12  11.2     NNE    15   9.67    260      440.6
   10/16/2018 12:00      78.2      77.3        8     12.7      0.00      0.32      70.2     0.30      1018.5     6.0       N     7  13.2     NNW   348   9.67    260      436.2
   10/16/2018 11:50      77.5      77.0        8     11.8      0.00      0.32      70.2     0.30      1018.7     6.7       N    11  12.7     NNE    12   9.67    260      431.9
   10/16/2018 11:40      77.3      76.7        8     11.7      0.00      0.32      70.2     0.30      1018.7     6.6       N     0  11.3     NNW   327   9.67    260      425.5
   10/16/2018 11:30      77.1      76.3        8     11.3      0.00      0.32      70.2     0.30      1018.8     7.1       N     3  14.0     NNW   345   9.68    260      418.8
   10/16/2018 11:20      77.4      76.4        8     11.9      0.00      0.32      70.2     0.30      1018.8     6.6       N   353  17.1     NNW   347   9.68    260      407.3
   10/16/2018 11:10      77.1      76.2        8     11.1      0.00      0.32      70.2     0.30      1018.9     7.5     NNE    16  15.6     NNE    14   9.68    260      399.1
   10/16/2018 11:00      77.1      75.9        8     11.6      0.00      0.32      70.2     0.30      1018.9     6.2       N     5  12.2     NNE    26   9.68    260      386.7
   10/16/2018 10:50      76.7      76.1        8     11.1      0.00      0.32      70.3     0.30      1018.9     8.0       N     7  14.7      NE    36   9.68    260      375.1
   10/16/2018 10:40      76.6      75.6        8     11.7      0.00      0.32      70.3     0.30      1019.1     5.4       N     3  10.4       N    10   9.68    260      358.1
   10/16/2018 10:30      76.1      75.3        8     11.5      0.00      0.32      70.3     0.30      1019.2     5.3       N   352   9.2     NNW   336   9.68    260      343.1
   10/16/2018 10:20      75.5      74.7        9     11.2      0.00      0.32      70.3     0.30      1019.2     5.1       N   356  10.9      NW   324   9.69    260      326.8
   10/16/2018 10:10      75.0      73.9        9     10.6      0.00      0.32      70.4     0.30      1019.3     4.5      NW   324   8.8      NW   321   9.69    259      309.6
   10/16/2018 10:00      74.1      72.9        8      9.6      0.00      0.32      70.4     0.30      1019.4     3.9     NNW   333   7.8       N     5   9.69    259      292.7
   10/16/2018 09:50      73.3      72.6        8      8.8      0.00      0.32      70.4     0.30      1019.4     4.9     NNW   336   8.2       N   355   9.69    260      275.5
   10/16/2018 09:40      73.0      72.0        8      8.2      0.00      0.32      70.5     0.30      1019.4     4.4     NNW   340   8.0     NNW   349   9.69    260      256.8
   10/16/2018 09:30      72.2      71.4        8      7.0      0.00      0.32      70.5     0.30      1019.4     5.2       N   349  10.1      NW   320   9.69    260      237.9
   10/16/2018 09:20      71.7      71.1        8      5.8      0.00      0.32      70.5     0.30      1019.4     5.7       N   354  11.2       N     5   9.69    260      218.2
   10/16/2018 09:10      71.4      70.3        8      6.7      0.00      0.32      70.5     0.30      1019.4     4.3       N     2   8.5     NNE    29   9.69    260      199.0
   10/16/2018 09:00      70.6      70.0        8      6.4      0.00      0.32      70.6     0.30      1019.2     4.8     NNW   348   9.4     NNE    14   9.69    260      179.4
   10/16/2018 08:50      70.3      69.2        8      6.6      0.00      0.32      70.6     0.30      1019.2     4.3       N   353   7.6      NW   305   9.69    260      159.3
   10/16/2018 08:40      69.4      68.9        8      5.5      0.00      0.32      70.6     0.30      1019.1     4.8     NNW   347   9.0     NNW   345   9.70    261      135.9
   10/16/2018 08:30      69.1      68.2        8      5.9      0.00      0.32      70.6     0.30      1019.0     4.1     NNW   346  10.3      NW   322   9.70    261      111.2
   10/16/2018 08:20      68.5      67.4        8      5.5      0.00      0.32      70.6     0.30      1018.9     4.1     NNW   348   8.2       N     0   9.70    261        3.6
   10/16/2018 08:10      67.7      66.7        8      4.5      0.00      0.32      70.7     0.30      1018.7     4.0     NNW   342   8.5      NW   311   9.70    261      -66.1
   10/16/2018 08:00      67.0      66.1        8      4.3      0.00      0.32      70.7     0.30      1018.7     3.7     NNW   341   6.7     WNW   302   9.70    261      -26.2
   10/16/2018 07:50      66.3      65.9        8      3.5      0.00      0.32      70.7     0.30      1018.5     3.7     NNW   344   7.0     NNW   332   9.36    261      -61.0
   10/16/2018 07:40      66.1      65.0        8      3.1      0.00      0.32      70.8     0.30      1018.5     3.9     NNW   348   9.2       N     3   9.36    261      -71.8
   10/16/2018 07:30      65.3      64.6        8      2.1      0.00      0.32      70.8     0.30      1018.3     3.6     NNW   346   6.0       N     3   9.36    261      -74.1
   10/16/2018 07:20      64.7      64.0        8      2.2      0.00      0.32      70.8     0.30      1018.3     3.9     NNW   343   9.3     NNE    22   9.36    261      -78.2
   10/16/2018 07:10      64.3      63.8        8      1.5      0.00      0.32      70.8     0.30      1018.3     3.3     NNW   341   7.1      NW   323   9.36    261      -82.2
   10/16/2018 07:00      64.5      63.8        8      1.6      0.00      0.32      70.9     0.30      1018.3     3.7     NNW   333   6.2     NNW   334   9.36    261      -85.7
   10/16/2018 06:50      65.2      64.2        8      0.9      0.00      0.32      70.9     0.30      1018.3     3.4     NNW   328   6.1       N    11   9.37    261      -87.5
   10/16/2018 06:40      65.6      65.0        7      0.4      0.00      0.32      70.9     0.30      1018.3     3.6     NNW   342   7.8       N     7   9.37    261      -88.2
   10/16/2018 06:30      65.6      65.2        7     -0.3      0.00      0.32      70.9     0.30      1018.3     2.9       N   352   6.1     NNW   348   9.37    261      -88.4
   10/16/2018 06:20      66.0      65.4        7     -0.9      0.00      0.32      71.0     0.31      1018.2     3.5       N   349   6.4     NNW   338   9.37    261      -88.8
   10/16/2018 06:10      65.6      65.2        7     -0.9      0.00      0.32      71.0     0.30      1018.2     3.8     NNW   343   8.1     NNE    15   9.37    261      -87.8
   10/16/2018 06:00      66.2      65.2        7     -1.1      0.00      0.32      71.0     0.31      1018.1     2.9     NNW   347   5.0       N     4   9.37    261      -88.3
   10/16/2018 05:50      66.1      65.3        7     -1.6      0.00      0.32      71.1     0.31      1017.9     3.8     NNW   345   6.7       N     5   9.37    261      -87.9
   10/16/2018 05:40      65.6      65.1        7     -0.8      0.00      0.32      71.1     0.31      1017.9     2.8     NNW   337   6.1      NW   325   9.37    261      -86.4
   10/16/2018 05:30      66.0      65.2        7     -1.1      0.00      0.32      71.1     0.31      1017.8     2.3     NNW   330   5.6     WNW   285   9.37    261      -86.5
   10/16/2018 05:20      66.5      65.7        6     -1.9      0.00      0.32      71.1     0.31      1017.8     1.6     NNW   339   3.7     NNE    21   9.37    261      -87.2
   10/16/2018 05:10      66.5      66.1        6     -2.1      0.00      0.32      71.2     0.31      1017.8     2.3     NNW   347   7.8       N   354   9.38    261      -88.5
   10/16/2018 05:00      67.0      66.0        6     -2.3      0.00      0.32      71.2     0.31      1017.8     1.8     NNW   341   5.8       N   353   9.38    261      -89.1
   10/16/2018 04:50      67.0      66.5        6     -2.7      0.00      0.32      71.2     0.31      1017.7     3.2     NNW   335   7.4       N     2   9.38    261      -90.9
   10/16/2018 04:40      67.2      66.3        6     -2.7      0.00      0.32      71.3     0.31      1017.7     2.7     NNW   332   6.1     NNE    13   9.38    261      -90.6
   10/16/2018 04:30      67.1      66.6        6     -2.9      0.00      0.32      71.3     0.31      1017.6     3.1     NNW   328   8.5     NNE    17   9.38    261      -91.3
   10/16/2018 04:20      67.4      66.6        6     -2.8      0.00      0.32      71.3     0.31      1017.6     2.9     NNW   327   7.3      NW   326   9.38    261      -91.7
   10/16/2018 04:10      68.0      67.2        6     -3.2      0.00      0.32      71.3     0.31      1017.5     3.3     NNW   332   6.1      NW   326   9.38    261      -92.6
   10/16/2018 04:00      68.3      67.4        6     -3.6      0.00      0.32      71.4     0.31      1017.5     4.3      NW   325  12.1      NW   322   9.38    261      -92.7
   10/16/2018 03:50      67.9      67.4        6     -3.2      0.00      0.32      71.4     0.31      1017.5     4.1     NNW   338   8.6     NNW   345   9.38    261      -92.5
   10/16/2018 03:40      68.2      67.7        6     -3.5      0.00      0.32      71.4     0.31      1017.4     4.1      NW   312   8.6     WNW   301   9.38    261      -92.4
   10/16/2018 03:30      68.4      67.7        6     -3.3      0.00      0.32      71.5     0.31      1017.4     3.2      NW   310   7.1      NW   310   9.38    261      -91.7
   10/16/2018 03:20      68.3      67.8        5     -3.6      0.00      0.32      71.5     0.31      1017.4     4.1      NW   310   8.1     NNW   334   9.39    261      -91.1
   10/16/2018 03:10      68.2      67.2        6     -2.9      0.00      0.32      71.5     0.31      1017.5     3.2     NNW   336   8.2       N    11   9.39    261      -88.6
   10/16/2018 03:00      67.4      65.2        6     -2.0      0.00      0.32      71.5     0.31      1017.6     3.2       N   352   7.9     NNW   328   9.39    261      -86.1
   10/16/2018 02:50      65.2      61.4        8      1.8      0.00      0.32      71.6     0.31      1017.6     2.6       N   360   5.0     NNW   345   9.39    262      -83.6
   10/16/2018 02:40      61.7      60.9       11      6.9      0.00      0.32      71.6     0.31      1017.7     0.9       E    96   3.7     ENE    69   9.39    262      -82.7
   10/16/2018 02:30      62.4      61.4       10      5.0      0.00      0.32      71.6     0.31      1017.6     0.8      SE   132   2.5     SSE   150   9.39    262      -82.8
   10/16/2018 02:20      61.8      59.1       11      6.1      0.00      0.32      71.7     0.31      1017.6     1.8     SSW   199   3.8       S   181   9.39    262      -81.5
   10/16/2018 02:10      62.3      59.3       12      7.8      0.00      0.32      71.7     0.31      1017.6     2.0       S   181   3.3      SW   229   9.39    262      -81.6
   10/16/2018 02:00      62.3      60.2       10      4.5      0.00      0.32      71.7     0.31      1017.7     2.5     SSW   196   4.3     SSW   209   9.39    262      -81.5
   10/16/2018 01:50      60.6      58.5       12      7.3      0.00      0.32      71.7     0.31      1017.8     2.3       S   177   3.6       S   171   9.39    262      -81.4
   10/16/2018 01:40      60.7      59.1       13      9.2      0.00      0.32      71.7     0.31      1017.8     2.2       S   171   3.8     SSW   196   9.40    262      -83.8
   10/16/2018 01:30      63.0      60.4       12      8.3      0.00      0.32      71.8     0.31      1017.8     1.5     SSW   196   4.5     SSW   210   9.40    262      -87.0
   10/16/2018 01:20      66.0      62.8        8      2.5      0.00      0.32      71.8     0.31      1017.7     1.9       S   184   4.4       S   187   9.40    261      -90.1
   10/16/2018 01:10      66.9      65.7        7     -0.7      0.00      0.32      71.8     0.31      1017.7     2.9      NW   318   5.0       N   350   9.40    261      -90.6
   10/16/2018 01:00      66.9      66.5        6     -1.9      0.00      0.32      71.8     0.31      1017.7     2.9      NW   317   6.5     WNW   296   9.40    261      -91.3
   10/16/2018 00:50      66.9      64.5        7     -1.3      0.00      0.32      71.8     0.31      1017.7     3.5     WSW   247   9.1     WSW   247   9.40    261      -92.1
   10/16/2018 00:40      64.5      60.9       11      6.1      0.00      0.32      71.9     0.31      1017.7     3.6       S   190   6.3      SW   228   9.40    262      -89.1
   10/16/2018 00:30      66.8      62.1       10      5.5      0.00      0.32      71.9     0.31      1017.7     2.7       S   175   4.5       S   186   9.41    262      -91.1
   10/16/2018 00:20      66.7      66.4        6     -1.6      0.00      0.32      71.9     0.31      1017.6     2.8       W   271   6.1      NW   319   9.41    261      -93.6
   10/16/2018 00:10      66.6      66.1        6     -1.2      0.00      0.32      71.9     0.31      1017.6     2.6      NW   320   6.2     WNW   282   9.41    261      -92.5
   10/16/2018 00:00      66.3      64.8        7     -0.2      0.00      0.32      71.9     0.31      1017.7     2.7      NW   326   6.0      NW   313   9.41    261      -91.2
   10/15/2018 23:50      65.0      62.3        8      1.5      0.00      0.32      72.0     0.31      1017.8     2.3       W   278   6.0     WNW   294   9.41    261      -89.1
   10/15/2018 23:40      62.4      60.1       12      6.9      0.00      0.32      72.0     0.31      1017.9     2.0     SSW   212   4.1       W   276   9.41    262      -86.6
   10/15/2018 23:30      61.0      59.3       12      8.0      0.00      0.32      72.0     0.31      1017.9     1.3     SSW   192   2.8      SW   215   9.42    262      -87.0
   10/15/2018 23:20      60.3      58.3       15     11.6      0.00      0.32      72.0     0.31      1017.9     0.8     SSE   165   1.8     SSE   157   9.42    262      -87.7
   10/15/2018 23:10      63.9      60.1       13     10.4      0.00      0.32      72.0     0.31      1018.0     1.4     SSE   168   3.3     SSW   196   9.42    262      -89.5
   10/15/2018 23:00      67.0      63.9        8      2.7      0.00      0.32      72.1     0.31      1017.9     1.9      SW   225   3.3       W   280   9.42    261      -93.6
   10/15/2018 22:50      67.3      66.7        7      0.2      0.00      0.32      72.0     0.31      1017.9     1.6      NW   309   4.9     NNW   333   9.42    261      -95.6
   10/15/2018 22:40      67.3      66.9        7      0.1      0.00      0.32      72.1     0.31      1017.9     2.7      NW   321   5.3     WNW   304   9.42    261      -95.7
   10/15/2018 22:30      67.5      67.0        7      0.2      0.00      0.32      72.1     0.31      1017.9     2.2      NW   319   4.3     WNW   293   9.43    261      -95.4
   10/15/2018 22:20      67.8      67.2        7      0.3      0.00      0.32      72.1     0.31      1017.9     2.4     NNW   331   6.9      NW   304   9.43    261      -95.7
   10/15/2018 22:10      67.9      67.4        7      0.0      0.00      0.32      72.1     0.31      1017.8     1.9     NNW   343   4.9      NW   326   9.43    261      -96.6
   10/15/2018 22:00      67.8      67.4        7     -0.0      0.00      0.32      72.1     0.31      1017.8     2.6     NNW   329   5.7     NNW   347   9.43    261      -97.0
   10/15/2018 21:50      67.9      67.4        7      0.1      0.00      0.32      72.1     0.31      1017.8     2.5     NNW   334   4.6     WNW   290   9.43    261      -97.8
   10/15/2018 21:40      67.9      67.4        7     -0.0      0.00      0.32      72.1     0.31      1017.8     2.4     NNW   330   5.7     NNW   331   9.43    261      -98.5
   10/15/2018 21:30      67.9      67.4        7     -0.0      0.00      0.32      72.1     0.31      1017.8     2.4     NNW   332   4.8     NNW   345   9.43    261      -98.3
   10/15/2018 21:20      67.8      67.2        7      0.2      0.00      0.32      72.2     0.31      1017.8     2.4     NNW   336   5.8     NNW   333   9.44    261      -98.5
   10/15/2018 21:10      67.9      67.3        7      0.5      0.00      0.32      72.1     0.31      1017.8     2.1     NNW   337   4.0     NNW   340   9.44    261      -98.6
   10/15/2018 21:00      68.0      67.5        7      0.7      0.00      0.32      72.1     0.31      1017.8     1.9     NNW   340   4.6      NW   305   9.44    261      -99.2
   10/15/2018 20:50      68.2      67.7        7      1.0      0.00      0.32      72.1     0.31      1017.7     2.2     NNW   344   5.1      NW   325   9.44    261      -99.2
   10/15/2018 20:40      68.2      67.7        7      0.3      0.00      0.32      72.1     0.31      1017.8     2.6     NNW   334   5.0     NNW   334   9.44    261     -100.0
   10/15/2018 20:30      68.0      67.7        7      0.7      0.00      0.32      72.1     0.31      1017.8     2.5     NNW   343   5.6       W   276   9.45    261      -99.2
   10/15/2018 20:20      68.0      66.5        7      1.5      0.00      0.32      72.1     0.31      1017.8     2.6     NNW   347   4.3       N     4   9.45    261      -97.9
   10/15/2018 20:10      66.6      65.0        8      3.2      0.00      0.32      72.1     0.31      1017.8     1.6     NNW   337   4.5      NW   309   9.45    262      -97.2
   10/15/2018 20:00      65.3      63.8       10      6.6      0.00      0.32      72.1     0.31      1017.7     0.9     WSW   244   2.5       W   266   9.45    262      -96.0
   10/15/2018 19:50      66.2      64.6       10      7.3      0.00      0.32      72.0     0.31      1017.6     0.6     SSW   193   1.8      SW   214   9.45    261      -97.2
   10/15/2018 19:40      68.1      66.2        8      4.7      0.00      0.32      72.1     0.31      1017.6     0.2     ESE   103   1.0      SE   136   9.45    261     -100.1
   10/15/2018 19:30      70.6      68.1        6      0.6      0.00      0.32      72.1     0.31      1017.6     0.5       E    79   1.7      NE    52   9.46    261     -104.4
   10/15/2018 19:20      70.8      70.1        5     -2.0      0.00      0.32      72.0     0.31      1017.6     1.2      NW   322   2.4     WNW   302   9.46    261     -106.1
   10/15/2018 19:10      71.2      70.6        5     -2.0      0.00      0.32      72.0     0.31      1017.5     1.1      NW   316   2.4     NNW   349   9.46    261     -108.6
   10/15/2018 19:00      71.7      70.9        5     -1.4      0.00      0.32      72.0     0.31      1017.5     1.4     NNW   329   3.5      NW   326   9.46    261     -109.9
   10/15/2018 18:50      72.6      71.5        5     -1.6      0.00      0.32      72.0     0.31      1017.4     1.3      NW   315   3.8       N   352   9.46    261     -111.2
   10/15/2018 18:40      73.3      72.3        5     -1.9      0.00      0.32      72.0     0.31      1017.4     1.6     WNW   297   4.8     NNW   338   9.47    261     -113.0
   10/15/2018 18:30      74.2      73.0        5     -2.7      0.00      0.32      72.0     0.31      1017.3     1.9     NNW   327   4.6       N     2   9.47    261     -114.0
   10/15/2018 18:20      74.3      73.7        4     -3.9      0.00      0.32      72.0     0.31      1017.0     3.8     NNE    20   7.7     NNE    22   9.47    261     -113.3
   10/15/2018 18:10      75.1      73.9        5     -0.6      0.00      0.32      71.9     0.31      1017.0     1.9      NE    38   4.4      NE    50   9.48    261     -110.3
   10/15/2018 18:00      76.1      74.8        5     -2.3      0.00      0.32      71.9     0.31      1017.0     2.2      NE    42   5.7     ENE    61   9.48    260     -107.2
   10/15/2018 17:50      76.7      75.8        4     -2.2      0.00      0.32      71.9     0.31      1017.1     3.6      NE    37   6.6     NNE    33   9.48    260     -107.2
   10/15/2018 17:40      77.3      76.4        5     -0.5      0.00      0.32      71.9     0.31      1017.1     2.2      NE    35   3.9     NNE    31   9.49    260      -64.7
   10/15/2018 17:30      77.8      76.9        4     -2.5      0.00      0.32      71.9     0.31      1017.1     3.3     NNE    32   5.3     ENE    60   9.49    261      -43.4
   10/15/2018 17:20      77.7      77.3        4     -2.4      0.00      0.32      71.8     0.31      1017.2     3.0     NNE    33   5.6      NE    38   9.49    260      -17.7
   10/15/2018 17:10      77.7      77.3        4     -5.0      0.00      0.32      71.8     0.31      1017.2     4.4     NNE    15   8.5       N   354   9.49    261        9.9
   10/15/2018 17:00      78.1      77.4        4     -4.3      0.00      0.32      71.8     0.31      1017.4     4.8     NNE    30   8.5      NE    42   9.50    261       37.4
   10/15/2018 16:50      78.0      77.6        4     -3.2      0.00      0.32      71.8     0.31      1017.4     4.7     NNE    20   8.1     NNE    24   9.50    261       65.2
   10/15/2018 16:40      78.0      77.4        4     -4.9      0.00      0.32      71.7     0.31      1017.4     6.1     NNE    16  11.0      NW   307   9.50    260       93.9
   10/15/2018 16:30      77.9      77.3        4     -4.9      0.00      0.32      71.7     0.31      1017.5     5.5     NNE    23  11.2     NNE    25   9.50    261      121.7
   10/15/2018 16:20      77.8      77.3        4     -6.0      0.00      0.32      71.5     0.31      1017.6     7.7     NNE    15  15.3     NNE    13   9.51    261      146.9
   10/15/2018 16:10      78.2      77.3        4     -5.8      0.00      0.32      71.7     0.31      1017.7     7.8     NNE    24  14.2     NNE    31   9.51    261      169.2
   10/15/2018 16:00      78.2      77.5        4     -4.7      0.00      0.32      71.6     0.31      1017.8     6.5     NNE    28  16.7       N   353   9.52    261      189.5
   10/15/2018 15:50      78.1      77.3        4     -2.5      0.00      0.32      71.6     0.31      1017.9     6.0     NNE    16  11.1       N     9   9.52    261      200.4
   10/15/2018 15:40      78.2      77.4        4     -1.6      0.00      0.32      71.5     0.31      1018.0     5.4      NE    40  11.9      NE    43   9.52    261      217.2
   10/15/2018 15:30      78.3      77.7        4     -1.4      0.00      0.32      71.5     0.31      1018.1     4.9     NNE    26  10.3      NE    35   9.53    261      238.7
   10/15/2018 15:20      78.1      77.3        4     -1.5      0.00      0.32      71.5     0.31      1018.1     5.4     NNE    26   9.8      NE    47   9.53    260      260.9
   10/15/2018 15:10      77.7      76.9        4     -2.3      0.00      0.32      71.5     0.31      1018.1     5.9      NE    36  11.1      NE    42   9.53    260      282.4
   10/15/2018 15:00      77.5      76.8        4     -2.5      0.00      0.32      71.5     0.31      1018.2     7.3      NE    36  11.9      NE    55   9.54    260      314.9
   10/15/2018 14:50      77.6      76.4        4     -2.5      0.00      0.32      71.4     0.31      1018.3     6.6      NE    38  12.0     NNE    24   9.54    260      335.9
   10/15/2018 14:40      77.5      76.6        5     -0.0      0.00      0.32      71.4     0.31      1018.4     5.6      NE    45  11.3     NNE    24   9.54    260      348.0
   10/15/2018 14:30      77.1      76.5        5     -0.9      0.00      0.32      71.4     0.31      1018.6     5.8     NNE    31  12.0     NNE    19   9.54    260      363.7
   10/15/2018 14:20      77.1      75.7        5      0.6      0.00      0.32      71.3     0.31      1018.7     4.7      NE    36  11.1     NNW   347   9.55    260      377.5
   10/15/2018 14:10      76.5      75.8        5      1.0      0.00      0.32      71.4     0.31      1018.8     5.2      NE    39  10.7     NNW   334   9.55    260      391.6
   10/15/2018 14:00      76.2      75.6        5      1.1      0.00      0.32      71.3     0.31      1019.0     4.9      NE    44   9.8      NE    36   9.55    260      402.4
   10/15/2018 13:50      77.0      75.7        6      2.8      0.00      0.32      71.3     0.31      1019.2     5.5     NNE    32  12.9     NNW   348   9.55    260      412.0
   10/15/2018 13:40      76.4      75.2        6      2.4      0.00      0.32      71.3     0.31      1019.4     5.8     NNE    19  11.8     NNW   344   9.56    260      424.0
   10/15/2018 13:30      75.7      74.3        6      3.1      0.00      0.32      71.3     0.31      1019.6     5.7     NNE    25  13.0      NW   317   9.56    260      434.4
   10/15/2018 13:20      74.6      73.6        6      2.9      0.00      0.32      71.3     0.31      1019.9     6.6     NNE    18  12.2       N     0   9.56    260      444.5
   10/15/2018 13:10      74.3      73.2        6      3.4      0.00      0.32      71.3     0.31      1020.2     6.2       N     7  18.1       N   352   9.57    260      448.8
   10/15/2018 13:00      73.8      73.4        6      3.7      0.00      0.32      71.3     0.31      1020.4     6.7     NNE    31  14.3     NNE    20   9.57    261      457.6
   10/15/2018 12:50      73.7      72.2        6      3.7      0.00      0.32      71.3     0.31      1020.5     6.5     NNE    17  10.1       N     0   9.57    261      461.7
   10/15/2018 12:40      72.8      72.3        6      3.3      0.00      0.32      71.3     0.31      1020.5     7.5     NNE    18  12.6       N   352   9.57    261      467.5
   10/15/2018 12:30      73.0      72.2        7      3.6      0.00      0.32      71.4     0.31      1020.4     8.2     NNE    26  14.2       N   353   9.57    261      467.5
   10/15/2018 12:20      72.9      72.0        7      4.1      0.00      0.32      71.3     0.31      1020.3     7.3     NNE    21  16.8     NNE    14   9.58    261      463.7
   10/15/2018 12:10      72.8      71.9        7      3.2      0.00      0.32      71.4     0.31      1020.4     8.5     NNE    21  17.9     ESE   119   9.58    261      458.7
   10/15/2018 12:00      72.8      72.3        7      4.0      0.00      0.32      71.4     0.31      1020.4     7.8     NNE    17  16.0     NNE    23   9.59    261      454.0
   10/15/2018 11:50      72.6      72.0        7      4.9      0.00      0.32      71.5     0.31      1020.5     7.1     NNE    12  12.4      NE    42   9.58    261      449.6
   10/15/2018 11:40      72.5      71.4        7      4.3      0.00      0.32      71.4     0.31      1020.5     6.3     NNE    31  13.2      NE    56   9.59    261      441.9
   10/15/2018 11:30      72.1      71.2        7      4.0      0.00      0.32      71.4     0.31      1020.7     6.8     NNE    26  15.2     ENE    62   9.59    261      433.2
   10/15/2018 11:20      72.4      71.5        7      3.8      0.00      0.32      71.5     0.31      1020.5     7.4     NNE    24  18.4      NE    35   9.59    261      423.0
   10/15/2018 11:10      72.5      71.8        7      5.5      0.00      0.32      71.5     0.31      1020.5     5.2     NNE    24  10.9      NW   313   9.59    261      409.0
   10/15/2018 11:00      71.9      70.7        8      5.6      0.00      0.32      71.6     0.31      1020.4     5.3      NE    34  12.5       N     9   9.59    261      398.9
   10/15/2018 10:50      72.1      71.0        8      6.5      0.00      0.32      71.6     0.31      1020.3     5.1     NNE    21  16.9       N   353   9.60    261      382.7
   10/15/2018 10:40      71.6      70.9        8      6.7      0.00      0.32      71.6     0.31      1020.3     4.8     NNE    20   9.3     ENE    77   9.60    261      369.0
   10/15/2018 10:30      71.5      70.6        8      7.5      0.00      0.32      71.7     0.31      1020.5     4.2     NNE    32  13.1     NNW   328   9.60    261      352.6
   10/15/2018 10:20      71.4      70.2        8      7.7      0.00      0.32      71.7     0.31      1020.5     4.6     NNE    30  11.8     ENE    58   9.60    261      334.0
   10/15/2018 10:10      71.3      70.2        9      8.5      0.00      0.32      71.7     0.31      1020.6     3.6      NE    40   8.6     NNE    15   9.60    261      314.7
   10/15/2018 10:00      70.9      70.1        9      8.6      0.00      0.32      71.7     0.31      1020.7     3.7      NE    36   9.5      NE    34   9.60    261      295.6
   10/15/2018 09:50      71.1      70.2        9      8.9      0.00      0.32      71.8     0.31      1020.7     2.8     NNE    29   8.4      NE    36   9.60    261      275.3
   10/15/2018 09:40      70.8      70.1        9      9.5      0.00      0.32      71.8     0.31      1020.8     2.7      NE    48   6.4      NE    45   9.60    261      257.1
   10/15/2018 09:30      70.6      69.8        9      9.6      0.00      0.32      71.9     0.31      1020.7     2.6     ENE    71   6.4     ENE    62   9.60    261      236.9
   10/15/2018 09:20      70.5      69.1        9      8.8      0.00      0.32      71.9     0.31      1020.6     1.7       E    85   4.7     ESE   101   9.60    261      216.7
   10/15/2018 09:10      69.3      68.6       10     10.1      0.00      0.32      72.0     0.31      1020.6     2.2      SE   133   4.8       E    90   9.60    261      198.2
   10/15/2018 09:00      68.9      68.2       10      9.2      0.00      0.32      72.0     0.31      1020.7     2.2     SSW   205   4.1     SSW   193   9.60    262      179.9
   10/15/2018 08:50      69.7      68.4       10      9.5      0.00      0.32      72.0     0.31      1020.8     2.4      SW   235   6.6     WSW   245   9.60    262      159.7
   10/15/2018 08:40      68.6      67.6       10     10.0      0.00      0.32      72.1     0.31      1020.7     1.7     NNE    12   4.9     NNW   348   9.61    263      134.6
   10/15/2018 08:30      67.7      67.2       11     10.4      0.00      0.32      72.1     0.31      1020.7     2.9       N   355   5.6      NW   312   9.61    263      105.0
   10/15/2018 08:20      67.7      66.6       11     10.3      0.00      0.32      72.2     0.31      1020.8     2.6     NNE    25   6.8     ENE    60   9.55    263       11.3
   10/15/2018 08:10      66.7      66.0       11     10.0      0.00      0.32      72.2     0.31      1020.6     3.3       N   358   6.2     NNW   328   9.37    264      -59.4
   10/15/2018 08:00      66.1      65.4       11     10.1      0.00      0.32      72.2     0.31      1020.2     6.7       N     9  11.7     NNW   345   9.37    264      -24.3
   10/15/2018 07:50      65.7      65.0       12     11.2      0.00      0.32      72.3     0.31      1020.1     4.1     NNE    23   8.2     NNE    25   9.37    264      -45.7
   10/15/2018 07:40      65.3      64.6       12     11.5      0.00      0.32      72.3     0.31      1020.0     4.4     NNE    31  15.4     NNE    22   9.37    264      -64.4
   10/15/2018 07:30      64.8      64.3       13     11.9      0.00      0.32      72.3     0.31      1019.7     3.4     NNE    25   7.5     NNW   332   9.37    264      -67.3
   10/15/2018 07:20      64.5      63.2       13     12.2      0.00      0.32      72.4     0.31      1019.6     3.1     NNE    18   7.7      NE    45   9.37    264      -71.0
   10/15/2018 07:10      63.3      62.3       15     14.7      0.00      0.32      72.4     0.31      1019.6     1.6      NW   318   4.1     NNW   344   9.37    264      -73.7
   10/15/2018 07:00      63.7      62.9       15     14.3      0.00      0.32      72.5     0.31      1019.6     0.7     ENE    63   3.7     NNE    25   9.37    264      -78.2
   10/15/2018 06:50      64.7      63.1       15     15.8      0.00      0.32      72.5     0.31      1019.5     1.3     NNE    31   5.4     NNE    23   9.37    264      -79.6
   10/15/2018 06:40      65.2      64.5       14     13.9      0.00      0.32      72.5     0.31      1019.3     1.6     NNE    27   4.2     NNE    27   9.38    264      -80.7
   10/15/2018 06:30      65.3      65.0       13     13.9      0.00      0.32      72.6     0.31      1019.1     3.4     NNE    23   8.9     NNW   340   9.38    264      -79.8
   10/15/2018 06:20      65.5      64.8       14     14.5      0.00      0.32      72.6     0.31      1019.0     3.2     NNE    18   9.5     NNE    19   9.38    264      -78.8
   10/15/2018 06:10      65.5      64.8       14     15.0      0.00      0.32      72.6     0.31      1018.9     3.5     NNE    22   7.1       N   353   9.38    265      -77.6
   10/15/2018 06:00      65.7      65.0       14     15.2      0.00      0.32      72.7     0.31      1018.7     3.4     NNE    16   8.1     NNW   339   9.38    265      -76.8
   10/15/2018 05:50      65.7      65.2       14     15.4      0.00      0.32      72.7     0.31      1018.5     4.6       N     7  10.1     NNE    17   9.38    265      -75.8
   10/15/2018 05:40      65.7      65.1       15     16.4      0.00      0.32      72.8     0.31      1018.4     3.9     NNE    18   8.5     NNE    26   9.38    266      -74.0
   10/15/2018 05:30      65.6      64.7       15     16.5      0.00      0.32      72.8     0.31      1018.3     4.2       N     9  10.9       N   354   9.38    266      -72.7
   10/15/2018 05:20      64.8      61.8       17     18.1      0.00      0.32      72.8     0.31      1018.2     3.8     NNE    16   9.9     NNE    33   9.38    266      -70.4
   10/15/2018 05:10      62.0      60.8       22     22.4      0.00      0.32      72.8     0.31      1018.1     1.4     NNE    13   5.4      NE    48   9.38    267      -68.0
   10/15/2018 05:00      61.0      59.5       25     23.9      0.00      0.32      72.8     0.31      1018.0     0.7       N   357   3.8      NE    43   9.38    267      -66.5
   10/15/2018 04:50      60.1      59.1       28     26.3      0.00      0.32      72.9     0.31      1017.8     0.7     SSE   168   2.3      SE   125   9.38    268      -65.4
   10/15/2018 04:40      59.5      58.0       30     26.9      0.00      0.32      72.9     0.31      1017.6     0.0     NNE    25   1.1      NE    38   9.39    268      -65.7
   10/15/2018 04:30      58.2      57.0       34     29.3      0.00      0.32      73.0     0.31      1017.5     0.5      SE   136   2.7      SE   138   9.39    268      -65.2
   10/15/2018 04:20      57.6      56.4       38     31.5      0.00      0.32      73.0     0.31      1017.5     0.9     SSE   153   2.6      SE   138   9.39    269      -65.9
   10/15/2018 04:10      58.3      57.0       38     32.4      0.00      0.32      73.0     0.31      1017.3     1.3     SSE   165   2.1     SSE   156   9.39    269      -66.8
   10/15/2018 04:00      58.4      57.6       40     33.7      0.00      0.32      73.0     0.31      1017.3     1.0     SSE   160   2.6     SSE   147   9.39    269      -67.5
   10/15/2018 03:50      58.1      57.1       43     35.5      0.00      0.32      73.1     0.31      1017.2     0.8     SSE   152   2.4      SE   142   9.39    272      -67.0
   10/15/2018 03:40      57.7      55.3       49     37.6      0.00      0.32      73.1     0.31      1017.2     0.6     SSE   149   2.0      SE   129   9.39    309      -47.2
   10/15/2018 03:30      55.3      53.5       62     41.6      0.00      0.32      73.1     0.31      1017.3     1.0     SSE   159   2.1      SE   137   9.39    336      -38.7
   10/15/2018 03:20      53.8      53.4       72     44.6      0.00      0.32      73.2     0.31      1017.4     1.4     SSE   154   2.3      SE   137   9.39    353      -36.0
   10/15/2018 03:10      53.6      53.1       76     46.0      0.00      0.32      73.2     0.31      1017.4     1.3     SSE   148   2.0     SSE   149   9.39    363      -34.7
   10/15/2018 03:00      54.0      52.9       82     48.1      0.00      0.32      73.2     0.31      1017.4     1.0     SSE   164   2.0     SSE   159   9.39    371      -32.0
   10/15/2018 02:50      54.4      53.7       88     50.4      0.00      0.32      73.2     0.31      1017.3     1.1      SE   142   3.3      SE   144   9.39    375      -31.0
   10/15/2018 02:40      54.8      54.0       90     51.3      0.00      0.32      73.2     0.31      1017.2     1.1     SSE   149   2.1     SSE   149   9.39    375      -30.9
   10/15/2018 02:30      55.6      54.5       90     52.2      0.00      0.32      73.2     0.31      1017.2     1.0     SSE   159   2.9      SE   139   9.39    373      -30.9
   10/15/2018 02:20      56.3      55.1       90     52.9      0.00      0.32      73.3     0.31      1017.2     0.8     SSW   204   2.3       S   183   9.39    367      -31.5
   10/15/2018 02:10      56.5      55.7       90     53.1      0.00      0.32      73.3     0.31      1017.1     0.8      SW   216   2.0      SW   218   9.39    361      -33.0
   10/15/2018 02:00      57.2      56.0       89     53.4      0.00      0.32      73.3     0.31      1017.0     0.0     ESE   111   0.7       E    91   9.40    352      -34.9
   10/15/2018 01:50      57.9      56.7       89     54.0      0.00      0.32      73.3     0.31      1016.9     0.8      SE   134   2.0     ESE   110   9.40    344      -35.2
   10/15/2018 01:40      58.5      57.8       90     55.2      0.00      0.32      73.3     0.31      1016.9     1.6       S   182   7.5     SSW   196   9.40    336      -35.0
   10/15/2018 01:30      58.3      57.0       91     55.3      0.00      0.32      73.4     0.31      1016.9     2.6     WSW   236   5.1     WSW   242   9.40    334      -36.0
   10/15/2018 01:20      57.3      56.6       91     54.1      0.00      0.32      73.4     0.31      1016.9     0.3     SSW   206   2.4      SW   228   9.40    329      -38.8
   10/15/2018 01:10      57.6      57.0       90     54.4      0.00      0.32      73.4     0.31      1016.9     0.1       S   171   1.5       S   187   9.40    322      -41.2
   10/15/2018 01:00      57.7      57.1       90     54.4      0.00      0.32      73.4     0.31      1016.8     0.5     SSE   167   1.8       S   189   9.40    315      -43.3
   10/15/2018 00:50      57.9      57.3       89     54.3      0.00      0.32      73.4     0.31      1016.8     0.6       S   180   1.7      SW   226   9.40    308      -46.4
   10/15/2018 00:40      58.1      57.6       89     54.5      0.00      0.32      73.4     0.31      1016.7     0.3     SSE   149   1.4      SE   140   9.40    303      -49.1
   10/15/2018 00:30      58.7      57.8       88     54.6      0.00      0.32      73.4     0.31      1016.6     0.2     SSE   161   1.4       S   191   9.40    297      -52.9
   10/15/2018 00:20      59.1      58.4       87     55.0      0.00      0.32      73.4     0.31      1016.5     0.5     SSE   155   1.9      SE   137   9.40    291      -55.2
   10/15/2018 00:10      59.5      58.9       87     55.5      0.00      0.32      73.5     0.31      1016.5     0.4      NE    42   1.7       N   353   9.40    287      -57.7
   10/15/2018 00:00      59.7      59.0       87     55.4      0.00      0.32      73.5     0.31      1016.4     0.4     ENE    75   1.4      NE    50   9.40    282      -61.2
   10/14/2018 23:50      59.7      59.0       87     55.4      0.00      0.32      73.5     0.31      1016.4     0.3      SE   142   1.4     SSE   147   9.40    276      -63.1
   10/14/2018 23:40      60.3      59.4       85     55.3      0.00      0.32      73.5     0.31      1016.4     0.6     SSE   166   2.1      SW   233   9.40    272      -64.3
   10/14/2018 23:30      60.7      59.9       85     55.6      0.00      0.32      73.5     0.31      1016.3     0.2     SSE   163   1.9       S   170   9.40    269      -65.4
   10/14/2018 23:20      60.8      60.3       84     55.6      0.00      0.32      73.5     0.31      1016.2     0.0       S   169   1.0       S   176   9.40    266      -65.3
   10/14/2018 23:10      61.2      60.5       83     55.7      0.00      0.32      73.5     0.31      1016.3     0.5       S   176   1.5     SSE   151   9.40    264      -65.3
   10/14/2018 23:00      61.4      60.9       83     55.9      0.00      0.32      73.5     0.31      1016.3     0.2       S   188   1.9       S   184   9.40    266      -65.1
   10/14/2018 22:50      61.7      61.2       83     56.0      0.00      0.32      73.5     0.31      1016.1     1.8     SSW   200   3.8      SW   222   9.41    270      -64.3
   10/14/2018 22:40      61.6      61.3       83     56.1      0.00      0.32      73.5     0.31      1016.0     2.9     SSW   205   5.1     SSW   211   9.41    270      -62.4
   10/14/2018 22:30      61.7      61.3       83     56.1      0.00      0.32      73.5     0.31      1015.9     2.6     SSW   205   5.5      SW   230   9.41    270      -62.5
   10/14/2018 22:20      61.8      61.3       82     56.0      0.00      0.32      73.5     0.31      1015.9     1.2     SSW   194   2.9     SSE   166   9.41    270      -62.8
   10/14/2018 22:10      62.0      61.4       82     56.0      0.00      0.32      73.5     0.31      1015.8     1.9     SSW   199   3.5     SSW   193   9.41    270      -64.8
   10/14/2018 22:00      62.5      61.8       81     56.0      0.00      0.32      73.5     0.31      1015.7     1.4       S   188   3.3      SW   229   9.41    270      -64.7
   10/14/2018 21:50      62.4      62.0       81     56.1      0.00      0.32      73.5     0.31      1015.6     2.7     WSW   240   5.3     WSW   253   9.41    270      -63.8
   10/14/2018 21:40      62.7      62.0       80     56.1      0.00      0.32      73.5     0.31      1015.6     2.7     SSW   212   4.3       S   189   9.41    270      -64.7
   10/14/2018 21:30      62.7      62.2       80     56.1      0.00      0.32      73.6     0.31      1015.6     2.8     SSW   206   4.3     WSW   241   9.41    269      -64.6
   10/14/2018 21:20      62.6      62.2       80     56.1      0.00      0.32      73.5     0.31      1015.4     2.3     SSW   208   4.3     SSW   209   9.41    269      -64.9
   10/14/2018 21:10      63.0      62.3       79     56.1      0.00      0.32      73.5     0.31      1015.4     1.7     SSW   192   3.0      SW   219   9.41    269      -65.3
   10/14/2018 21:00      63.3      62.7       79     56.1      0.00      0.32      73.5     0.31      1015.3     1.4     SSW   198   3.6     SSW   210   9.42    269      -65.2
   10/14/2018 20:50      63.6      62.9       78     56.1      0.00      0.32      73.5     0.31      1015.2     1.4     SSW   206   2.7      SW   229   9.42    269      -65.7
   10/14/2018 20:40      63.7      63.3       77     56.1      0.00      0.32      73.5     0.31      1015.2     2.0      SW   221   3.9      SW   232   9.42    269      -66.1
   10/14/2018 20:30      64.2      63.4       76     56.2      0.00      0.32      73.5     0.31      1015.1     2.0      SW   215   3.7     WSW   242   9.42    269      -66.7
   10/14/2018 20:20      64.3      63.8       76     56.2      0.00      0.32      73.5     0.31      1015.0     1.8      SW   234   4.3     WSW   243   9.42    268      -66.7
   10/14/2018 20:10      64.7      64.0       75     56.2      0.00      0.32      73.5     0.31      1015.0     2.6      SW   218   5.5     SSW   197   9.42    268      -67.1
   10/14/2018 20:00      65.2      64.5       74     56.3      0.00      0.32      73.4     0.31      1014.9     2.4      SW   230   4.7     WSW   239   9.42    268      -67.7
   10/14/2018 19:50      65.3      64.7       73     56.3      0.00      0.32      73.4     0.31      1014.8     3.0      SW   223   5.1     SSW   202   9.42    268      -68.0
   10/14/2018 19:40      65.2      64.7       74     56.3      0.00      0.32      73.4     0.31      1014.7     2.7      SW   225   4.0     WSW   240   9.42    268      -68.3
   10/14/2018 19:30      65.6      64.8       73     56.1      0.00      0.32      73.4     0.31      1014.5     1.4       S   185   3.1     WSW   253   9.42    268      -69.5
   10/14/2018 19:20      66.6      65.3       71     56.2      0.00      0.32      73.4     0.31      1014.5     1.8       S   187   4.2     WSW   245   9.43    268      -70.7
   10/14/2018 19:10      67.0      66.2       70     56.3      0.00      0.32      73.3     0.31      1014.3     2.5      SW   223   4.4     SSW   213   9.43    268      -71.5
   10/14/2018 19:00      67.0      66.6       69     56.3      0.00      0.32      73.3     0.31      1014.3     3.4      SW   225   5.3     WSW   247   9.43    268      -66.6
   10/14/2018 18:50      67.2      66.7       69     56.5      0.00      0.32      73.3     0.31      1014.2     2.7     SSW   207   3.8      SW   222   9.43    268      -50.1
   10/14/2018 18:40      67.3      66.7       69     56.6      0.00      0.32      73.3     0.31      1014.0     2.2     SSW   193   3.9     SSW   201   9.43    268      -42.0
   10/14/2018 18:30      67.3      66.9       69     56.5      0.00      0.32      73.2     0.31      1014.0     2.3       S   188   3.8       S   181   9.43    268      -39.6
   10/14/2018 18:20      67.4      67.0       69     56.6      0.00      0.32      73.2     0.31      1013.9     2.6       S   171   4.4       S   190   9.44    268      -31.3
   10/14/2018 18:10      67.7      67.2       68     56.5      0.00      0.32      73.2     0.31      1013.8     3.3       S   171   6.0     SSW   192   9.44    268      -23.3
   10/14/2018 18:00      67.9      67.3       68     56.4      0.00      0.32      73.1     0.31      1013.7     3.3       S   171   6.4       S   175   9.44    267      -21.3
   10/14/2018 17:50      68.5      67.6       67     56.4      0.00      0.32      73.1     0.31      1013.7     3.8       S   191   5.9     SSW   196   9.44    267      -13.9
   10/14/2018 17:40      68.8      68.2       66     56.5      0.00      0.32      73.1     0.31      1013.7     2.9       S   175   5.5       S   184   9.44    267       -1.1
   10/14/2018 17:30      69.0      68.6       65     56.5      0.00      0.32      73.0     0.31      1013.7     3.0     SSW   194   5.6       S   188   9.45    267        5.4
   10/14/2018 17:20      70.0      68.7       64     56.5      0.00      0.32      73.0     0.31      1013.7     3.6       S   191   6.0     SSW   195   9.45    267        4.6
   10/14/2018 17:10      70.0      69.3       63     56.6      0.00      0.32      73.0     0.31      1013.7     3.1       S   171   5.5     SSW   200   9.45    267       24.9
   10/14/2018 17:00      70.4      69.7       62     56.5      0.00      0.32      73.0     0.31      1013.7     3.4       S   183   5.5     SSW   202   9.45    266       30.6
   10/14/2018 16:50      71.5      70.1       61     56.6      0.00      0.32      72.9     0.31      1013.6     2.9       S   180   5.5     SSW   203   9.45    266       58.5
   10/14/2018 16:40      71.4      71.0       60     56.6      0.00      0.32      72.9     0.31      1013.6     3.0     SSE   152   6.2     SSE   166   9.46    266      133.4
   10/14/2018 16:30      71.9      71.1       60     56.5      0.00      0.32      72.8     0.31      1013.6     4.0       S   172   7.3       S   185   9.46    266      169.7
   10/14/2018 16:20      72.0      71.4       59     56.5      0.00      0.32      72.8     0.31      1013.6     3.9       S   176   6.4      SE   130   9.46    266      188.6
   10/14/2018 16:10      72.4      71.3       59     56.3      0.00      0.32      72.8     0.31      1013.7     3.8     SSE   162   7.1      SE   137   9.46    266      153.4
   10/14/2018 16:00      73.0      72.0       57     56.5      0.00      0.32      72.7     0.31      1013.7     3.8       S   188   7.1     SSW   212   9.47    266      196.9
   10/14/2018 15:50      73.4      72.0       57     56.3      0.00      0.32      72.7     0.31      1013.7     4.9     SSW   198   8.0       S   181   9.47    266      216.8
   10/14/2018 15:40      73.4      71.8       57     56.3      0.00      0.32      72.6     0.31      1013.7     3.7       S   177   6.9       S   184   9.47    266      249.0
   10/14/2018 15:30      73.0      72.1       56     56.1      0.00      0.32      72.5     0.31      1013.6     3.8     SSE   162   8.7     SSW   200   9.47    266      261.8
   10/14/2018 15:20      72.9      72.3       56     56.1      0.00      0.32      72.5     0.31      1013.5     3.2      SE   144   7.3      SE   143   9.47    266      204.7
   10/14/2018 15:10      72.9      72.1       56     56.1      0.00      0.32      72.5     0.31      1013.5     3.2     ESE   112   6.5      SE   129   9.47    265      295.8
   10/14/2018 15:00      73.4      72.3       55     56.0      0.00      0.32      72.4     0.31      1013.5     3.4      SE   139   7.4       S   186   9.47    266      279.5
   10/14/2018 14:50      74.8      73.2       53     56.0      0.00      0.32      72.4     0.31      1013.6     2.7     ESE   121   6.4      SE   144   9.47    266      258.5
   10/14/2018 14:40      73.7      72.2       55     55.6      0.00      0.32      72.3     0.31      1013.7     2.8     SSW   208   7.4      SW   222   9.48    266      369.3
   10/14/2018 14:30      72.8      71.7       57     55.9      0.00      0.32      72.3     0.31      1013.7     4.0     SSE   163   8.0      SE   136   9.48    266      390.6
   10/14/2018 14:20      72.8      72.0       57     56.4      0.00      0.32      72.3     0.31      1013.8     4.6       S   187   7.8     SSW   207   9.48    266      405.1
   10/14/2018 14:10      73.8      72.4       53     54.9      0.00      0.32      72.2     0.31      1013.8     3.0       S   175   6.7      SE   132   9.48    266      301.4
   10/14/2018 14:00      75.0      73.4       52     55.4      0.00      0.32      72.2     0.31      1013.8     3.0      SE   132   7.8      SE   128   9.48    266      416.3
   10/14/2018 13:50      74.8      73.7       52     55.4      0.00      0.32      72.1     0.31      1013.9     1.9     ESE   121   6.9      SE   130   9.48    266      463.3
   10/14/2018 13:40      74.0      73.0       53     55.4      0.00      0.32      72.1     0.31      1014.0     2.5     ESE   109   5.3     ESE   120   9.48    265      449.9
   10/14/2018 13:30      74.1      72.8       49     53.4      0.00      0.32      72.0     0.31      1014.1     2.0     ESE   123   5.1     SSE   150   9.48    266      417.3
   10/14/2018 13:20      74.1      73.5       47     52.1      0.00      0.32      72.1     0.31      1014.2     2.8     NNE    16   5.2       N     0   9.48    265      445.4
   10/14/2018 13:10      74.7      73.6       47     52.4      0.00      0.32      72.0     0.31      1014.3     2.7     NNE    14   4.6      NE    50   9.48    265      451.4
   10/14/2018 13:00      74.4      73.6       47     52.1      0.00      0.32      72.1     0.31      1014.4     2.3     NNW   347   5.6     NNW   347   9.48    266      456.9
   10/14/2018 12:50      74.7      73.2       47     52.3      0.00      0.32      72.0     0.31      1014.6     1.4       N     4   4.9       N   352   9.48    266      458.6
   10/14/2018 12:40      73.4      72.4       49     52.4      0.00      0.32      72.0     0.31      1014.6     1.6      NE    48   4.8      NE    44   9.48    266      455.7
   10/14/2018 12:30      72.6      71.3       50     52.0      0.00      0.32      72.0     0.31      1014.7     1.2      SE   143   3.1     ESE   119   9.48    266      457.3
   10/14/2018 12:20      71.8      70.7       50     51.7      0.00      0.32      72.0     0.31      1014.9     1.6       E    93   3.8       E    96   9.49    266      457.2
   10/14/2018 12:10      71.1      70.5       51     51.8      0.00      0.32      72.0     0.31      1014.9     2.2       E    83   4.2      SE   134   9.49    266      454.6
   10/14/2018 12:00      71.6      70.6       51     52.1      0.00      0.32      72.0     0.31      1015.0     2.1      NE    39   4.3       E    91   9.49    266      449.6
   10/14/2018 11:50      71.3      70.4       51     51.9      0.00      0.32      72.1     0.31      1015.1     2.3       N    10   4.3      NE    52   9.49    266      445.1
   10/14/2018 11:40      70.6      69.2       53     51.7      0.00      0.32      72.0     0.31      1015.3     2.0     NNE    15   4.9      NE    55   9.49    266      435.4
   10/14/2018 11:30      70.2      68.7       53     51.7      0.00      0.32      72.1     0.31      1015.3     1.8     NNW   342   3.5       N     0   9.49    266      428.1
   10/14/2018 11:20      68.9      67.7       55     51.6      0.00      0.32      72.1     0.31      1015.5     2.5      NW   316   4.7      NW   315   9.49    266      428.4
   10/14/2018 11:10      67.9      67.2       56     51.4      0.00      0.32      72.1     0.31      1015.5     3.5       W   264   6.0     WSW   252   9.49    267      426.0
   10/14/2018 11:00      67.8      67.2       58     52.0      0.00      0.32      72.1     0.31      1015.6     3.2     WSW   239   6.4      SW   234   9.49    267      418.3
   10/14/2018 10:50      67.4      65.7       59     51.8      0.00      0.32      72.1     0.31      1015.6     2.3     WNW   297   4.5       W   277   9.49    267      390.8
   10/14/2018 10:40      66.9      65.6       59     51.5      0.00      0.32      72.2     0.31      1015.6     4.1       W   266   6.7       W   265   9.49    268      202.9
   10/14/2018 10:30      67.7      66.5       58     51.8      0.00      0.32      72.2     0.31      1015.5     3.6      SW   219   8.3       W   260   9.49    267      438.8
   10/14/2018 10:20      67.5      65.4       60     51.9      0.00      0.32      72.2     0.31      1015.6     1.9     SSW   212   4.2      SW   232   9.49    267      426.2
   10/14/2018 10:10      65.6      64.8       62     51.6      0.00      0.32      72.2     0.31      1015.6     2.6      SW   220   5.5     WSW   249   9.49    268      253.8
   10/14/2018 10:00      65.4      64.3       62     51.6      0.00      0.32      72.2     0.31      1015.6     1.6      SW   231   4.5      SW   233   9.49    268      137.5
   10/14/2018 09:50      65.5      64.3       62     51.7      0.00      0.32      72.3     0.31      1015.6     1.9       S   172   3.4     SSW   194   9.49    268      128.2
   10/14/2018 09:40      66.0      65.3       63     52.8      0.00      0.32      72.3     0.31      1015.6     1.4     WSW   252   3.5     WSW   241   9.49    268      117.8
   10/14/2018 09:30      65.5      64.4       71     55.1      0.00      0.32      72.3     0.31      1015.5     0.9     WNW   281   2.6       W   280   9.49    269      237.6
   10/14/2018 09:20      64.9      63.2       77     56.8      0.00      0.32      72.3     0.31      1015.5     0.8     NNW   347   3.0       N   353   9.49    269      186.1
   10/14/2018 09:10      63.3      61.4       82     56.4      0.00      0.32      72.4     0.31      1015.4     0.2     ESE   116   1.1      SE   137   9.49    270      180.6
   10/14/2018 09:00      61.6      61.2       86     57.0      0.00      0.32      72.4     0.31      1015.4     0.3     SSW   198   1.0     SSW   209   9.49    274      121.2
   10/14/2018 08:50      61.3      60.1       88     57.1      0.00      0.32      72.5     0.31      1015.3     0.0       N     0   0.0      SW   221   9.49    293      103.6
   10/14/2018 08:40      60.3      59.5       89     56.7      0.00      0.32      72.5     0.31      1015.2     0.0       N     0   0.0       E    79   9.49    320       86.3
   10/14/2018 08:30      59.7      59.0       90     56.6      0.00      0.32      72.5     0.31      1015.2     0.0       N     0   0.0       E    79   9.49    339       67.7
   10/14/2018 08:20      59.2      58.5       91     56.2      0.00      0.32      72.5     0.31      1015.0     0.0       N     0   0.0       E    79   9.49    352       53.0
   10/14/2018 08:10      59.0      58.4       92     56.5      0.00      0.32      72.6     0.31      1015.0     0.0       N     0   0.0     ENE    79   9.49    363       38.0
   10/14/2018 08:00      58.7      58.0       92     56.1      0.00      0.32      72.6     0.31      1014.8     0.0       N     0   0.0     ENE    79   9.49    370       28.4
   10/14/2018 07:50      58.3      57.8       93     55.8      0.00      0.32      72.6     0.31      1014.7     0.0       N     0   0.0     ENE    79   9.49    376       20.4
   10/14/2018 07:40      58.0      57.5       93     55.6      0.00      0.32      72.7     0.31      1014.7     0.0       N     0   0.0     ENE    79   9.49    380       12.8
   10/14/2018 07:30      57.7      57.2       93     55.4      0.00      0.32      72.7     0.31      1014.5     0.0       N     0   0.0     ENE    78   9.49    382        7.1
   10/14/2018 07:20      57.4      56.9       93     55.1      0.00      0.32      72.7     0.31      1014.4     0.0       N     0   0.0     SSE   148   9.49    383        3.1
   10/14/2018 07:10      57.2      56.6       93     54.8      0.00      0.32      72.7     0.31      1014.3     0.3     SSE   148   1.0     SSE   148   9.49    385       -0.5
   10/14/2018 07:00      56.8      56.4       93     54.6      0.00      0.32      72.8     0.31      1014.2     0.0     SSE   148   0.4     SSE   148   9.49    386       -2.8
   10/14/2018 06:50      56.7      56.0       93     54.3      0.00      0.32      72.8     0.31      1014.2     0.0     SSE   148   0.5     SSE   148   9.49    387       -3.6
   10/14/2018 06:40      56.3      55.7       93     54.0      0.00      0.32      72.8     0.31      1014.2     0.0     SSE   148   0.4     SSE   148   9.49    387       -3.7
   10/14/2018 06:30      56.0      55.5       93     53.7      0.00      0.32      72.9     0.31      1014.1     0.0     SSE   148   0.6     SSE   148   9.49    387       -3.6
   10/14/2018 06:20      55.7      55.0       93     53.4      0.00      0.32      72.9     0.31      1013.9     0.2     SSE   148   0.8     SSE   148   9.49    388       -4.7
   10/14/2018 06:10      55.3      54.7       93     53.0      0.00      0.32      72.9     0.31      1013.9     0.6     SSE   166   1.6     SSE   148   9.49    388       -4.5
   10/14/2018 06:00      55.0      54.0       93     52.3      0.00      0.32      72.9     0.31      1013.8     1.1       S   178   1.6       S   189   9.49    387      -13.7
   10/14/2018 05:50      54.5      53.9       92     51.9      0.00      0.32      73.0     0.31      1013.7     0.4     SSE   149   1.2     SSE   153   9.49    383      -23.0
   10/14/2018 05:40      54.8      54.1       92     52.1      0.00      0.32      73.0     0.31      1013.6     0.1     SSE   161   0.8     SSE   161   9.49    376      -24.2
   10/14/2018 05:30      55.3      54.5       92     52.7      0.00      0.32      73.0     0.31      1013.5     0.5     SSW   199   1.2       S   189   9.49    370      -24.0
   10/14/2018 05:20      55.2      54.5       92     52.5      0.00      0.32      73.0     0.31      1013.4     0.2      SW   224   1.0      SW   224   9.49    363      -25.4
   10/14/2018 05:10      55.1      54.7       92     52.5      0.00      0.32      73.1     0.31      1013.3     0.0       N     0   0.0       S   178   9.49    359      -26.6
   10/14/2018 05:00      55.5      54.9       92     52.7      0.00      0.32      73.1     0.31      1013.2     0.0       S   178   0.4       S   178   9.49    355      -27.6
   10/14/2018 04:50      55.4      55.1       92     52.9      0.00      0.32      73.1     0.31      1013.0     0.4     SSE   166   1.1      SE   143   9.49    349      -28.6
   10/14/2018 04:40      55.5      55.1       92     52.9      0.00      0.32      73.1     0.31      1013.0     0.2     SSE   166   0.8     SSE   166   9.49    343      -30.2
   10/14/2018 04:30      56.2      55.1       91     53.0      0.00      0.32      73.2     0.31      1013.0     0.0     SSE   166   0.9     SSE   166   9.49    339      -31.4
   10/14/2018 04:20      56.2      55.6       92     53.4      0.00      0.32      73.2     0.31      1012.9     0.3      SE   125   1.1      SE   141   9.49    334      -32.7
   10/14/2018 04:10      56.1      55.5       91     53.2      0.00      0.32      73.2     0.31      1012.9     0.0     SSE   165   0.6     SSE   165   9.49    329      -34.8
   10/14/2018 04:00      56.3      55.8       91     53.3      0.00      0.32      73.2     0.31      1012.9     0.2     SSE   158   0.7     SSE   166   9.49    323      -35.7
   10/14/2018 03:50      56.4      55.9       91     53.5      0.00      0.32      73.2     0.31      1012.9     0.1     SSE   149   1.3       S   176   9.49    319      -37.9
   10/14/2018 03:40      56.6      56.1       90     53.5      0.00      0.32      73.2     0.31      1012.9     0.6     SSE   168   1.1       S   174   9.49    315      -39.3
   10/14/2018 03:30      56.9      56.3       90     53.6      0.00      0.32      73.3     0.31      1013.0     0.3     SSE   159   1.4     SSE   147   9.49    310      -41.6
   10/14/2018 03:20      57.0      56.5       90     53.8      0.00      0.32      73.3     0.31      1013.1     0.5     SSE   167   1.3     SSE   163   9.49    306      -43.1
   10/14/2018 03:10      57.6      56.8       89     53.8      0.00      0.32      73.3     0.31      1013.1     0.0       S   170   0.8       S   170   9.49    301      -45.2
   10/14/2018 03:00      58.1      57.4       88     54.1      0.00      0.32      73.3     0.31      1013.1     0.6     SSE   157   1.4       S   170   9.49    296      -48.7
   10/14/2018 02:50      58.7      57.7       87     54.4      0.00      0.32      73.3     0.31      1013.0     0.5     SSE   161   1.5       S   172   9.49    292      -51.9
   10/14/2018 02:40      58.9      58.4       87     54.7      0.00      0.32      73.3     0.31      1013.1     1.0       S   172   1.6       S   175   9.49    288      -54.0
   10/14/2018 02:30      58.9      58.4       87     54.7      0.00      0.32      73.4     0.31      1013.1     1.1       S   177   2.1     SSW   205   9.49    284      -57.3
   10/14/2018 02:20      58.7      58.4       87     54.6      0.00      0.32      73.4     0.31      1013.2     0.2       S   177   1.0       S   177   9.49    281      -61.3
   10/14/2018 02:10      58.9      58.4       86     54.4      0.00      0.32      73.4     0.31      1013.3     0.1       S   177   1.0       S   177   9.49    277      -63.6
   10/14/2018 02:00      59.7      58.7       85     54.5      0.00      0.32      73.5     0.31      1013.3     0.4       S   177   1.0       S   177   9.49    273      -65.2
   10/14/2018 01:50      60.6      59.3       83     54.7      0.00      0.32      73.5     0.31      1013.2     0.8       S   178   1.4       S   177   9.49    267      -66.7
   10/14/2018 01:40      61.3      60.3       81     54.9      0.00      0.32      73.5     0.31      1013.2     0.6       S   189   1.3     SSW   193   9.50    267      -67.3
   10/14/2018 01:30      61.7      61.0       81     55.4      0.00      0.32      73.5     0.31      1013.1     1.2     SSW   195   1.8     SSW   196   9.50    271      -61.3
   10/14/2018 01:20      61.7      61.3       81     55.7      0.00      0.32      73.5     0.31      1013.3     1.1     SSW   209   2.0     SSW   209   9.50    270      -41.4
   10/14/2018 01:10      61.7      61.3       81     55.7      0.00      0.32      73.5     0.31      1013.3     1.6       S   189   2.2       S   184   9.50    271      -30.8
   10/14/2018 01:00      61.9      61.4       82     56.0      0.00      0.32      73.6     0.31      1013.3     0.9       S   177   1.9       S   185   9.50    271      -25.4
   10/14/2018 00:50      61.9      61.5       83     56.3      0.00      0.32      73.6     0.31      1013.2     0.3       S   175   1.1       S   175   9.50    270      -22.8
   10/14/2018 00:40      61.9      61.6       83     56.3      0.00      0.32      73.6     0.32      1013.3     0.3       S   175   1.4       S   176   9.50    271      -19.0
   10/14/2018 00:30      62.0      61.6       82     56.3      0.00      0.32      73.6     0.31      1013.4     0.9       S   175   1.5       S   174   9.50    271      -16.0
   10/14/2018 00:20      62.0      61.7       82     56.2      0.00      0.32      73.6     0.32      1013.4     0.3     SSE   155   1.3     SSE   147   9.50    271      -15.4
   10/14/2018 00:10      62.1      61.7       80     55.8      0.00      0.32      73.6     0.32      1013.4     0.7       S   170   1.7     SSE   147   9.50    271      -18.5
   10/14/2018 00:00      62.0      61.6       81     55.8      0.00      0.32      73.7     0.32      1013.4     0.8       S   185   1.5     SSW   200   9.50    270      -16.8
   10/13/2018 23:50      62.1      61.6       81     55.8      0.00      0.32      73.6     0.32      1013.5     0.7     SSW   199   1.2      SW   226   9.50    270      -14.8
   10/13/2018 23:40      61.9      61.4       81     55.8      0.00      0.32      73.7     0.32      1013.5     0.6       S   190   1.5     SSW   198   9.50    270      -14.2
   10/13/2018 23:30      61.7      61.3       82     55.9      0.00      0.32      73.7     0.31      1013.5     0.7     SSW   207   1.9     SSW   203   9.50    270      -15.2
   10/13/2018 23:20      61.7      61.3       82     55.8      0.00      0.32      73.7     0.32      1013.4     0.6       S   190   1.6       S   186   9.50    270      -20.3
   10/13/2018 23:10      61.7      61.3       81     55.7      0.00      0.32      73.8     0.32      1013.4     0.9       S   191   1.8      SW   218   9.50    271      -26.0
   10/13/2018 23:00      61.9      61.4       81     55.6      0.00      0.32      73.8     0.32      1013.4     0.1     SSW   209   1.2      SW   224   9.50    271      -29.8
   10/13/2018 22:50      61.9      61.6       80     55.7      0.00      0.32      73.8     0.32      1013.5     0.4     SSW   213   1.6      SW   214   9.50    271      -30.5
   10/13/2018 22:40      61.9      61.4       81     55.7      0.00      0.32      73.8     0.32      1013.5     0.8      SW   219   1.9     WSW   257   9.50    271      -29.1
   10/13/2018 22:30      61.6      60.9       83     55.9      0.00      0.32      73.8     0.32      1013.4     1.4      SW   222   4.1      SW   226   9.50    271      -36.9
   10/13/2018 22:20      61.1      60.3       85     56.2      0.00      0.32      73.8     0.32      1013.5     1.4     SSW   202   2.5     SSW   210   9.50    271      -36.4
   10/13/2018 22:10      60.5      59.8       87     56.1      0.00      0.32      73.8     0.32      1013.5     0.4       S   187   1.7     SSW   206   9.50    271      -34.0
   10/13/2018 22:00      60.1      59.5       87     56.1      0.00      0.32      73.8     0.32      1013.5     1.0       S   183   2.0       S   178   9.50    267      -34.6
   10/13/2018 21:50      60.0      59.5       87     55.9      0.00      0.32      73.8     0.32      1013.4     1.0       S   177   1.6       S   187   9.50    271      -54.1
   10/13/2018 21:40      60.3      59.5       86     55.8      0.00      0.32      73.8     0.32      1013.3     0.8     SSE   162   1.7       S   178   9.50    271      -57.8
   10/13/2018 21:30      60.8      60.0       85     55.9      0.00      0.32      73.8     0.32      1013.2     0.4       S   173   1.3     SSE   151   9.50    268      -59.0
   10/13/2018 21:20      61.1      60.5       85     56.1      0.00      0.32      73.8     0.32      1013.1     1.0       S   185   2.1     SSW   200   9.50    266      -62.4
   10/13/2018 21:10      61.8      60.6       83     55.8      0.00      0.32      73.9     0.32      1013.1     1.0     SSE   165   2.2       S   179   9.50    267      -64.0
   10/13/2018 21:00      62.5      61.5       81     56.0      0.00      0.32      73.8     0.32      1013.0     0.0     WSW   239   0.7     WSW   239   9.50    266      -65.8
   10/13/2018 20:50      62.9      62.2       80     56.3      0.00      0.32      73.8     0.32      1013.0     0.2     WNW   284   1.4       W   263   9.50    267      -66.8
   10/13/2018 20:40      62.9      62.4       81     56.5      0.00      0.32      73.9     0.32      1012.9     0.8     WSW   237   2.6       W   260   9.50    270      -67.6
   10/13/2018 20:30      62.7      62.4       82     56.9      0.00      0.32      73.8     0.32      1012.9     1.5      SW   218   2.6      SW   235   9.51    270      -67.3
   10/13/2018 20:20      62.7      62.2       83     57.1      0.00      0.32      73.8     0.32      1012.8     1.0     SSW   199   1.8     SSW   198   9.51    270      -56.9
   10/13/2018 20:10      62.6      62.2       83     57.1      0.00      0.32      73.8     0.32      1012.8     1.4       S   179   2.3       S   183   9.51    270      -29.7
   10/13/2018 20:00      62.7      62.2       82     56.9      0.00      0.32      73.8     0.32      1012.8     1.7       S   174   2.8     SSE   166   9.51    270      -45.8
   10/13/2018 19:50      62.8      62.4       82     56.9      0.00      0.32      73.8     0.32      1012.7     1.6       S   178   2.6       S   180   9.51    269      -54.3
   10/13/2018 19:40      62.8      62.5       82     56.9      0.00      0.32      73.8     0.32      1012.7     1.8       S   180   3.7      SW   218   9.51    269      -49.8
   10/13/2018 19:30      62.8      62.3       82     56.9      0.00      0.32      73.8     0.32      1012.5     2.1     SSW   193   3.7       S   178   9.51    269      -51.0
   10/13/2018 19:20      62.7      62.4       82     56.9      0.00      0.32      73.8     0.32      1012.4     2.4       S   190   3.9       S   169   9.51    269      -58.0
   10/13/2018 19:10      63.0      62.4       82     56.9      0.00      0.32      73.8     0.32      1012.3     3.1       S   184   5.5       S   184   9.51    269      -60.9
   10/13/2018 19:00      63.1      62.5       82     57.1      0.00      0.32      73.8     0.32      1012.1     4.1       S   183   6.8       S   180   9.51    269      -62.8
   10/13/2018 18:50      63.2      62.8       82     57.3      0.00      0.32      73.7     0.32      1012.0     3.4       S   187   5.7     SSW   205   9.51    269      -62.8
   10/13/2018 18:40      64.1      62.9       80     57.3      0.00      0.32      73.7     0.32      1011.9     5.1       S   186   9.2     SSW   194   9.51    268      -63.9
   10/13/2018 18:30      65.1      63.8       78     57.5      0.00      0.32      73.7     0.32      1011.8     3.3       S   182   7.3     SSW   200   9.52    268      -58.9
   10/13/2018 18:20      66.3      64.8       76     57.6      0.00      0.32      73.7     0.32      1011.7     4.1       S   177   7.2     SSE   159   9.52    268      -45.7
   10/13/2018 18:10      66.7      65.9       73     57.6      0.00      0.32      73.7     0.32      1011.6     3.5       S   183   7.1       S   190   9.52    268      -35.1
   10/13/2018 18:00      67.0      66.4       73     57.9      0.00      0.32      73.7     0.32      1011.5     2.9       S   178   5.1       S   177   9.52    268      -30.4
   10/13/2018 17:50      67.7      66.8       72     57.9      0.00      0.32      73.7     0.32      1011.5     3.0       S   169   6.5       S   178   9.52    268      -24.9
   10/13/2018 17:40      70.0      67.5       66     57.1      0.00      0.32      73.6     0.32      1011.4     3.9       S   184   7.3       S   186   9.53    267      -15.8
   10/13/2018 17:30      70.5      69.7       60     55.8      0.00      0.32      73.6     0.32      1011.3     3.1      SW   229   5.2     WSW   255   9.53    267       -8.6
   10/13/2018 17:20      70.8      70.2       59     55.3      0.00      0.32      73.6     0.32      1011.2     4.7     WSW   240   8.2      SW   231   9.53    267       32.3
   10/13/2018 17:10      71.2      70.6       57     55.0      0.00      0.32      73.6     0.32      1011.2     4.4     WSW   244   6.7      SW   218   9.53    266       76.0
   10/13/2018 17:00      71.4      71.0       57     55.2      0.00      0.32      73.6     0.32      1011.2     3.9     WSW   239   7.5     WSW   258   9.53    266      114.3
   10/13/2018 16:50      71.4      70.6       58     55.3      0.00      0.32      73.6     0.32      1011.2     3.9     WSW   256   7.3     WSW   253   9.53    266      170.2
   10/13/2018 16:40      71.0      70.1       61     56.2      0.00      0.32      73.5     0.32      1011.1     3.7     SSW   205   7.3      SW   232   9.53    267      152.2
   10/13/2018 16:30      71.6      70.3       59     56.1      0.00      0.32      73.5     0.32      1011.2     5.0     SSW   212   7.8      SW   232   9.54    267      155.9
   10/13/2018 16:20      71.5      70.8       59     56.0      0.00      0.32      73.5     0.32      1011.1     4.9      SW   234   8.1     SSW   206   9.54    267      306.5
   10/13/2018 16:10      71.0      70.2       59     55.7      0.00      0.32      73.5     0.32      1011.2     5.3      SW   214  10.0       S   189   9.54    267      272.4
   10/13/2018 16:00      70.5      69.5       60     55.5      0.00      0.32      73.5     0.32      1011.2     4.4      SW   227   8.3     WSW   236   9.54    267      113.5
   10/13/2018 15:50      70.6      69.4       60     55.5      0.00      0.32      73.5     0.32      1011.1     6.3     SSW   203   9.8      SW   231   9.54    267      130.2
   10/13/2018 15:40      71.3      70.5       59     55.9      0.00      0.32      73.4     0.32      1011.1     5.2      SW   224   8.5      SW   233   9.54    267      183.8
   10/13/2018 15:30      72.0      71.0       59     56.2      0.00      0.32      73.5     0.32      1011.0     5.2     SSW   207   7.6      SW   221   9.54    266      259.6
   10/13/2018 15:20      71.8      71.3       56     54.9      0.00      0.32      73.5     0.32      1011.1     3.5       W   267   7.3       W   277   9.54    266      237.0
   10/13/2018 15:10      71.6      69.6       59     55.4      0.00      0.32      73.4     0.32      1011.1     3.5       W   259   6.8       W   264   9.54    266      300.6
   10/13/2018 15:00      69.8      69.2       63     56.5      0.00      0.32      73.4     0.32      1011.1     4.2       S   191   7.4       S   185   9.54    267      213.5
   10/13/2018 14:50      69.3      68.2       66     57.2      0.00      0.32      73.5     0.32      1011.2     4.0       S   179   7.0      SW   214   9.54    267      234.9
   10/13/2018 14:40      69.5      68.1       68     57.8      0.00      0.32      73.4     0.32      1011.3     4.9     SSE   162   7.9       S   175   9.54    268      177.0
   10/13/2018 14:30      69.3      68.9       65     56.9      0.00      0.32      73.5     0.32      1011.4     4.1     SSW   203   8.1     WSW   252   9.54    267      196.6
   10/13/2018 14:20      69.7      69.0       64     56.7      0.00      0.32      73.4     0.32      1011.5     4.4     SSW   201   9.7     SSW   205   9.54    267      201.2
   10/13/2018 14:10      70.3      69.5       65     57.7      0.00      0.32      73.5     0.32      1011.6     3.6     SSE   162   6.2       S   186   9.54    267      442.7
   10/13/2018 14:00      70.1      69.1       66     57.8      0.00      0.32      73.4     0.32      1011.6     4.4     SSE   160   7.4     SSW   193   9.54    267      530.9
   10/13/2018 13:50      70.7      68.8       62     56.1      0.00      0.32      73.4     0.32      1011.6     3.6     SSW   195   7.1     SSE   160   9.54    266      576.6
   10/13/2018 13:40      69.1      68.6       63     55.6      0.00      0.32      73.5     0.32      1011.8     4.1      SW   225   7.3      SW   231   9.54    267      397.9
   10/13/2018 13:30      69.0      67.8       64     55.7      0.00      0.32      73.5     0.32      1011.9     3.6     WSW   239   6.5      SW   215   9.54    267      489.2
   10/13/2018 13:20      67.9      66.7       67     55.9      0.00      0.32      73.4     0.32      1012.1     3.3     SSW   207   5.3     SSW   198   9.54    268      393.9
   10/13/2018 13:10      67.4      66.9       68     56.3      0.00      0.32      73.4     0.32      1012.3     3.0      SW   234   4.6     WSW   257   9.54    268      114.6
   10/13/2018 13:00      67.3      66.7       69     56.4      0.00      0.32      73.5     0.32      1012.4     1.5     WNW   284   4.2     SSW   212   9.54    268      107.6
   10/13/2018 12:50      66.9      66.4       69     56.2      0.00      0.32      73.5     0.32      1012.5     2.0      SW   229   4.1      SW   216   9.54    268      129.1
   10/13/2018 12:40      66.5      66.0       70     56.2      0.00      0.32      73.4     0.32      1012.6     1.6     WSW   237   3.6       S   188   9.54    268      131.1
   10/13/2018 12:30      66.3      65.7       71     56.2      0.00      0.32      73.5     0.32      1012.8     1.8     SSW   208   3.8      SW   222   9.54    268      131.0
   10/13/2018 12:20      66.1      65.6       70     55.9      0.00      0.32      73.5     0.32      1012.9     1.6       S   190   3.1       S   191   9.54    268       86.9
   10/13/2018 12:10      66.1      65.6       70     55.9      0.00      0.32      73.5     0.32      1012.9     1.5       W   259   3.3       W   261   9.54    268       79.7
   10/13/2018 12:00      66.0      65.5       72     56.5      0.00      0.32      73.5     0.32      1013.0     1.8       W   267   3.9     SSW   194   9.54    268       65.0
   10/13/2018 11:50      66.1      65.3       72     56.3      0.00      0.32      73.5     0.32      1013.2     1.3     WSW   245   3.7     WSW   246   9.54    268       63.9
   10/13/2018 11:40      65.6      65.1       73     56.3      0.00      0.32      73.5     0.32      1013.2     2.2      SW   236   5.2     WSW   243   9.54    268       68.1
   10/13/2018 11:30      65.8      65.2       73     56.5      0.00      0.32      73.5     0.32      1013.3     2.3       W   263   4.2       W   279   9.54    268      109.2
   10/13/2018 11:20      65.8      65.2       74     57.2      0.00      0.32      73.5     0.32      1013.3     2.6     WNW   296   5.0      NW   323   9.54    268      179.2
   10/13/2018 11:10      65.6      64.7       77     57.6      0.00      0.32      73.5     0.32      1013.3     2.5       W   273   4.9      NW   310   9.54    269      302.2
   10/13/2018 11:00      64.8      63.7       79     57.7      0.00      0.32      73.6     0.32      1013.5     2.5     WSW   237   5.3     WSW   252   9.54    269      283.2
   10/13/2018 10:50      64.0      63.4       81     57.7      0.00      0.32      73.6     0.32      1013.5     2.2     SSW   210   4.9     WSW   248   9.54    269      141.3
   10/13/2018 10:40      63.9      63.5       81     57.6      0.00      0.32      73.6     0.32      1013.5     3.4      SW   229   5.5      SW   224   9.54    270      137.9
   10/13/2018 10:30      63.9      63.3       80     57.4      0.00      0.32      73.6     0.32      1013.5     3.3     WSW   236   5.9      SW   233   9.54    269      165.5
   10/13/2018 10:20      63.7      63.3       81     57.4      0.00      0.32      73.6     0.32      1013.7     3.2      SW   230   5.6     WSW   240   9.54    270      190.6
   10/13/2018 10:10      63.5      62.9       82     57.4      0.00      0.32      73.7     0.32      1013.8     3.0     WSW   250   5.2     WNW   288   9.54    270      159.3
   10/13/2018 10:00      63.2      62.6       82     57.5      0.00      0.32      73.7     0.32      1013.9     2.7     WSW   247   4.9     WSW   241   9.54    270      159.4
   10/13/2018 09:50      63.0      62.4       83     57.3      0.00      0.32      73.7     0.32      1013.8     3.0      SW   215   5.0      SW   236   9.54    270      157.4
   10/13/2018 09:40      62.7      62.1       83     57.0      0.00      0.32      73.7     0.32      1013.7     3.7     WSW   238   5.2      SW   232   9.54    270      133.0
   10/13/2018 09:30      62.5      62.0       84     57.2      0.00      0.32      73.8     0.32      1013.7     3.4     WSW   243   5.5      SW   232   9.54    271      122.9
   10/13/2018 09:20      62.2      61.6       85     57.3      0.00      0.32      73.8     0.32      1013.7     2.9      SW   236   5.7      SW   214   9.54    271      113.2
   10/13/2018 09:10      61.9      61.4       86     57.2      0.00      0.32      73.8     0.32      1013.6     2.8     SSW   214   4.3     WSW   245   9.54    272       77.0
   10/13/2018 09:00      61.7      61.3       86     57.1      0.00      0.32      73.8     0.32      1013.4     2.8      SW   216   5.0     WSW   237   9.54    276       61.3
   10/13/2018 08:50      61.7      61.3       86     57.1      0.00      0.32      73.8     0.32      1013.4     3.4     WSW   238   6.2     SSW   201   9.54    279       52.0
   10/13/2018 08:40      61.6      61.2       86     57.2      0.00      0.32      73.8     0.32      1013.3     3.0     WSW   238   4.7     WSW   255   9.54    282       42.3
   10/13/2018 08:30      61.4      61.1       87     57.3      0.00      0.32      73.9     0.32      1013.1     2.4      SW   233   5.4     WSW   248   9.54    285       31.8
   10/13/2018 08:20      61.4      60.9       87     57.2      0.00      0.32      73.9     0.32      1013.0     3.0      SW   223   5.3      SW   231   9.54    287       23.8
   10/13/2018 08:10      61.3      60.9       88     57.4      0.00      0.32      73.9     0.32      1012.9     2.8     SSW   213   5.0     SSW   199   9.54    289       25.6
   10/13/2018 08:00      61.4      61.0       88     57.5      0.00      0.32      73.9     0.32      1012.7     2.2     SSW   208   3.8     SSW   213   9.54    290       13.6
   10/13/2018 07:50      61.3      60.8       88     57.5      0.00      0.32      73.9     0.32      1012.5     2.0      SW   219   3.5      SW   219   9.54    292        9.0
   10/13/2018 07:40      61.1      60.8       88     57.4      0.00      0.32      74.0     0.32      1012.5     2.3     SSW   208   3.5     SSW   205   9.54    293        3.9
   10/13/2018 07:30      61.1      60.7       88     57.2      0.00      0.32      74.0     0.32      1012.4     2.0     SSW   202   3.8     SSW   208   9.54    294        1.1
   10/13/2018 07:20      61.3      60.7       87     57.1      0.00      0.32      74.0     0.32      1012.1     3.2      SW   221   6.8      SW   226   9.54    296       -0.7
   10/13/2018 07:10      61.2      60.7       87     57.1      0.00      0.32      74.0     0.32      1012.0     3.7     WSW   242   6.6     SSW   211   9.54    297       -3.3
   10/13/2018 07:00      61.1      60.6       88     57.2      0.00      0.32      74.1     0.32      1012.1     2.6      SW   228   5.7      SW   218   9.54    299       -4.9
   10/13/2018 06:50      61.1      60.6       88     57.3      0.00      0.32      74.0     0.32      1012.1     2.3     SSW   202   3.8     SSW   213   9.54    301       -5.4
   10/13/2018 06:40      61.1      60.8       88     57.4      0.00      0.32      74.1     0.32      1012.1     2.0     SSW   204   3.2     SSW   206   9.54    305       -6.0
   10/13/2018 06:30      61.1      60.7       88     57.3      0.00      0.32      74.1     0.32      1012.0     2.2     SSW   194   5.3     SSW   193   9.54    309       -6.6
   10/13/2018 06:20      61.0      60.6       88     57.3      0.00      0.32      74.1     0.32      1011.7     3.0     SSW   211   5.9      SW   222   9.54    307       -6.7
   10/13/2018 06:10      61.0      60.5       89     57.3      0.00      0.32      74.1     0.32      1011.6     3.2     SSW   203   5.2       S   186   9.54    311       -7.1
   10/13/2018 06:00      60.8      60.5       89     57.3      0.00      0.32      74.2     0.32      1011.6     3.0     SSW   202   4.8       S   190   9.54    314       -7.0
   10/13/2018 05:50      60.8      60.4       90     57.5      0.01      0.32      74.2     0.32      1011.6     2.7     SSW   203   4.9     SSW   209   9.54    322       -6.6
   10/13/2018 05:40      60.8      60.4       90     57.6      0.00      0.31      74.2     0.32      1011.5     1.7     SSW   199   4.6     SSW   193   9.54    315       -6.8
   10/13/2018 05:30      60.8      60.4       90     57.7      0.00      0.31      74.2     0.32      1011.3     1.6       S   188   3.5       S   184   9.54    306       -6.2
   10/13/2018 05:20      61.1      60.4       90     57.7      0.00      0.31      74.2     0.32      1011.2     1.9       S   171   3.6     SSW   193   9.54    301       -5.7
   10/13/2018 05:10      61.1      60.6       90     57.7      0.00      0.31      74.2     0.32      1011.3     0.5       E    94   1.8     ENE    70   9.53    295       -6.3
   10/13/2018 05:00      61.0      60.5       90     57.6      0.00      0.31      74.3     0.32      1011.0     1.5      SW   217   5.1      SW   217   9.53    294       -7.2
   10/13/2018 04:50      61.0      60.6       90     57.9      0.00      0.31      74.3     0.32      1010.8     2.4     SSW   198   3.9     SSW   209   9.53    295       -6.3
   10/13/2018 04:40      61.2      60.7       90     58.0      0.00      0.31      74.3     0.32      1010.7     3.5     SSW   210   5.5     SSW   212   9.53    291       -6.3
   10/13/2018 04:30      61.3      60.9       90     58.1      0.00      0.31      74.3     0.32      1010.9     1.7     SSW   202   2.9     SSW   210   9.53    292       -6.5
   10/13/2018 04:20      61.3      60.8       90     58.1      0.00      0.31      74.3     0.32      1010.9     2.0     SSW   204   3.4     SSW   201   9.53    294       -6.6
   10/13/2018 04:10      61.4      61.0       90     58.3      0.00      0.31      74.3     0.32      1010.8     2.7     WSW   247   4.3     WSW   239   9.53    296       -6.8
   10/13/2018 04:00      61.2      60.9       91     58.2      0.01      0.31      74.3     0.32      1010.7     2.2      SW   234   3.6     WSW   245   9.53    302       -7.3
   10/13/2018 03:50      61.3      61.0       91     58.4      0.00      0.30      74.3     0.32      1010.6     2.2      SW   214   4.6      SW   220   9.53    293       -6.7
   10/13/2018 03:40      61.3      60.8       91     58.4      0.00      0.30      74.4     0.32      1010.5     3.1      SW   233   5.3     WSW   247   9.53    296       -7.0
   10/13/2018 03:30      61.2      60.8       92     58.4      0.00      0.30      74.4     0.32      1010.7     2.9     SSW   202   4.6      SW   218   9.53    299       -7.2
   10/13/2018 03:20      61.6      60.8       92     58.8      0.00      0.30      74.4     0.32      1010.9     1.8      SW   222   3.5       W   264   9.53    314       -6.7
   10/13/2018 03:10      61.7      61.3       92     59.2      0.00      0.30      74.4     0.32      1011.1     0.3      NE    53   1.1     ENE    56   9.52    313       -5.9
   10/13/2018 03:00      61.7      61.3       93     59.3      0.00      0.30      74.4     0.32      1011.0     1.3     SSW   193   2.7       S   178   9.52    311       -6.0
   10/13/2018 02:50      61.7      61.3       93     59.4      0.00      0.30      74.5     0.32      1011.0     2.1     SSE   169   4.5       S   183   9.52    309       -5.2
   10/13/2018 02:40      61.9      61.4       93     59.6      0.00      0.30      74.5     0.32      1010.9     2.7       S   169   4.7     SSE   167   9.52    311       -4.7
   10/13/2018 02:30      62.0      61.5       93     59.7      0.00      0.30      74.5     0.32      1010.9     2.0     SSE   168   3.6       S   178   9.52    317       -4.9
   10/13/2018 02:20      61.9      61.6       93     59.7      0.00      0.30      74.5     0.32      1011.1     1.2      SE   135   2.5      SE   126   9.52    319       -4.8
   10/13/2018 02:10      62.0      61.6       93     59.7      0.00      0.30      74.5     0.32      1011.2     1.7      SE   134   2.8      SE   139   9.52    321       -5.1
   10/13/2018 02:00      62.0      61.6       93     59.7      0.00      0.30      74.5     0.32      1011.3     0.8      NE    56   2.0      NE    51   9.52    324       -5.2
   10/13/2018 01:50      62.1      61.6       93     59.7      0.00      0.30      74.5     0.32      1011.4     0.3     SSE   164   2.7       S   182   9.52    320       -5.3
   10/13/2018 01:40      62.1      61.6       93     59.6      0.00      0.30      74.5     0.32      1011.6     1.3     SSE   148   3.1       S   183   9.52    316       -5.4
   10/13/2018 01:30      62.0      61.6       93     59.7      0.00      0.30      74.5     0.32      1011.6     0.4      NW   319   1.8      NW   318   9.52    318       -5.7
   10/13/2018 01:20      61.9      61.5       93     59.5      0.00      0.30      74.6     0.32      1011.9     0.0       N     0   0.0     ENE    74   9.52    319       -5.9
   10/13/2018 01:10      61.9      61.4       92     59.4      0.00      0.30      74.6     0.32      1012.2     0.0       N     0   0.0     ENE    73   9.52    324       -5.9
   10/13/2018 01:00      61.9      61.4       92     59.4      0.00      0.30      74.6     0.32      1012.3     0.3     ESE   121   1.5      SE   143   9.52    332       -5.8
   10/13/2018 00:50      61.9      61.4       92     59.3      0.00      0.30      74.6     0.32      1012.4     0.1      SE   137   0.9      SE   145   9.52    349       -6.0
   10/13/2018 00:40      61.8      61.4       92     59.3      0.00      0.30      74.6     0.32      1012.3     0.0       N     0   0.0     SSE   147   9.52    339       -6.1
   10/13/2018 00:30      61.9      61.4       92     59.4      0.01      0.30      74.6     0.32      1012.3     0.5     ENE    69   1.6      SE   139   9.52    353       -6.1
   10/13/2018 00:20      61.8      61.4       92     59.3      0.00      0.29      74.6     0.32      1012.4     0.4       N   355   2.0       N   354   9.52    380       -6.1
   10/13/2018 00:10      61.7      61.4       92     59.3      0.00      0.29      74.6     0.32      1012.5     0.6     ENE    62   1.6      NE    51   9.51    382       -6.0
   10/13/2018 00:00      62.0      61.3       92     59.4      0.03      0.29      74.6     0.32      1012.5     3.0     ESE   113   7.1      SE   127   9.51    408       -5.4
   10/12/2018 23:50      62.3      61.7       92     59.5      0.02      0.26      74.6     0.32      1012.0     3.1       N     7   6.0      SE   135   9.50    384       -5.9
   10/12/2018 23:40      62.7      62.0       92     59.8      0.01      0.24      74.6     0.32      1012.5     1.1      NE    36   3.4       N   353   9.48    441       -5.9
   10/12/2018 23:30      62.9      62.2       92     60.0      0.03      0.23      74.6     0.32      1012.8     1.5     ENE    66   2.9     ENE    65   9.46    421       -5.8
   10/12/2018 23:20      62.9      62.5       92     60.1      0.00      0.20      74.6     0.32      1012.6     1.0     NNE    23   4.3     NNE    19   9.44    401       -5.9
   10/12/2018 23:10      62.7      62.2       91     59.9      0.01      0.20      74.6     0.32      1012.4     1.7     ENE    66   4.0      NE    51   9.44    400       -6.1
   10/12/2018 23:00      62.7      62.2       91     59.7      0.00      0.19      74.6     0.32      1011.9     0.8       E    95   1.7     NNE    22   9.43    329       -7.3
   10/12/2018 22:50      62.7      62.3       91     59.7      0.00      0.19      74.6     0.32      1011.7     1.5       W   275   3.7     WSW   253   9.43    320       -7.8
   10/12/2018 22:40      62.6      62.2       91     59.6      0.00      0.19      74.6     0.32      1011.8     2.2      SW   231   3.6     WSW   243   9.43    324       -7.5
   10/12/2018 22:30      62.5      62.2       91     59.6      0.01      0.19      74.6     0.32      1011.9     0.6       S   170   1.9      SE   135   9.43    347       -7.0
   10/12/2018 22:20      62.5      62.0       91     59.5      0.00      0.18      74.6     0.32      1011.9     1.3       N    10   3.5       N    10   9.42    393       -7.1
   10/12/2018 22:10      62.7      61.9       90     59.3      0.01      0.18      74.5     0.32      1011.9     0.8      NE    46   3.2     ENE    59   9.42    393       -6.6
   10/12/2018 22:00      62.6      62.1       90     59.4      0.04      0.17      74.6     0.32      1011.9     1.3      NE    49   4.3       E    91   9.40    432       -6.7
   10/12/2018 21:50      62.6      62.2       89     59.1      0.03      0.13      74.5     0.32      1011.4     2.0     SSE   150   4.0      SW   228   9.38    436       -7.6
   10/12/2018 21:40      62.6      62.2       89     59.0      0.03      0.10      74.5     0.31      1011.1     2.0     WSW   252   5.6     WSW   251   9.35    337       -8.2
   10/12/2018 21:30      62.9      62.1       88     58.8      0.03      0.07      74.5     0.31      1011.1     1.3       E    86   4.6     ENE    69   9.32    402       -8.3
   10/12/2018 21:20      63.5      62.6       86     58.9      0.02      0.04      74.5     0.31      1011.0     2.1      NE    49   5.1     ENE    72   9.30    415       -8.1
   10/12/2018 21:10      64.7      63.3       83     58.5      0.02      0.02      74.5     0.31      1011.0     2.8      NE    52   6.5      NE    43   9.27    365       -9.7
   10/12/2018 21:00      65.4      64.5       77     57.5      0.00      0.00      74.4     0.31      1010.8     3.1      NE    51   5.8     NNE    17   9.26    347      -11.4
   10/12/2018 20:50      65.9      65.0       71     56.0      0.00      0.00      74.4     0.31      1010.3     3.1     ENE    72   8.4      SW   224   9.26    320      -12.1
   10/12/2018 20:40      66.2      65.4       70     55.6      0.00      0.00      74.4     0.31      1009.7     3.4       S   184   7.8     SSW   206   9.26    330      -15.1
   10/12/2018 20:30      68.1      65.9       68     56.0      0.00      0.00      74.4     0.31      1009.7     3.1      SE   134   6.5       E    95   9.26    326      -16.6
   10/12/2018 20:20      68.5      67.7       62     54.4      0.00      0.00      74.4     0.31      1009.7     3.7     ESE   115   9.5     ESE   102   9.25    268      -22.8
   10/12/2018 20:10      69.5      68.0       55     51.6      0.00      0.00      74.3     0.31      1008.8     6.0       S   172  12.3     SSW   211   9.26    268      -32.1
   10/12/2018 20:00      69.9      69.2       53     51.9      0.00      0.00      74.2     0.31      1008.5     4.5     WSW   254   8.0     WSW   239   9.26    266      -29.0
   10/12/2018 19:50      69.7      69.3       53     51.9      0.00      0.00      74.3     0.31      1008.4     3.8      SW   233   6.7       W   259   9.26    266      -28.8
   10/12/2018 19:40      69.7      69.3       54     52.0      0.00      0.00      74.2     0.31      1008.4     4.1     SSW   201   7.9       S   187   9.26    266      -30.7
   10/12/2018 19:30      70.0      69.2       54     52.1      0.00      0.00      74.2     0.31      1008.2     6.0     SSW   212  10.5      SW   224   9.27    266      -37.9
   10/12/2018 19:20      70.4      69.6       53     52.0      0.00      0.00      74.2     0.31      1007.9     4.4      SW   225   9.2     WSW   256   9.27    266      -56.4
   10/12/2018 19:10      71.1      70.1       52     52.0      0.00      0.00      74.1     0.31      1007.8     3.9      SW   220   6.5      SW   221   9.27    266      -64.0
   10/12/2018 19:00      72.0      70.9       50     51.8      0.00      0.00      74.1     0.31      1007.8     4.8      SW   227   8.5      SW   230   9.27    266      -63.5
   10/12/2018 18:50      72.7      71.8       48     51.6      0.00      0.00      74.0     0.31      1007.7     4.6     WSW   240   9.2     WSW   240   9.28    266      -68.9
   10/12/2018 18:40      73.6      72.3       47     51.5      0.00      0.00      74.0     0.31      1007.7     4.8      SW   233  10.6     WSW   245   9.28    265      -70.5
   10/12/2018 18:30      74.4      73.3       46     51.5      0.00      0.00      74.0     0.31      1007.7     4.1      SW   227   7.1     WSW   254   9.29    265      -69.7
   10/12/2018 18:20      74.8      74.2       44     51.3      0.00      0.00      73.9     0.31      1007.7     4.0      SW   233   8.1     SSW   213   9.29    265      -62.5
   10/12/2018 18:10      75.6      74.4       44     51.1      0.00      0.00      73.9     0.31      1007.6     4.5     WSW   247   8.1       W   271   9.29    264      -46.9
   10/12/2018 18:00      76.1      75.2       43     51.5      0.00      0.00      73.8     0.31      1007.5     2.6     WNW   284   6.6     WSW   255   9.30    264      -47.5
   10/12/2018 17:50      77.1      75.8       42     51.7      0.00      0.00      73.8     0.31      1007.4     3.5     WNW   297   6.7      NW   310   9.30    264      -46.0
   10/12/2018 17:40      77.8      76.6       42     52.0      0.00      0.00      73.7     0.31      1007.3     4.2     WNW   303   6.7       W   273   9.30    264      -19.2
   10/12/2018 17:30      78.5      77.5       41     52.3      0.00      0.00      73.7     0.31      1007.3     4.2      NW   304   8.8      NW   312   9.30    264        9.4
   10/12/2018 17:20      79.3      78.3       40     52.4      0.00      0.00      73.6     0.30      1007.2     4.3      NW   310   7.5      NW   307   9.31    264       48.7
   10/12/2018 17:10      80.1      79.1       39     52.2      0.00      0.00      73.6     0.30      1007.2     3.8      NW   306   7.7     WNW   289   9.31    264       59.1
   10/12/2018 17:00      80.7      79.9       37     52.0      0.00      0.00      73.5     0.30      1007.0     3.8     WNW   294   7.9      NW   324   9.31    264       35.9
   10/12/2018 16:50      81.6      80.3       35     51.1      0.00      0.00      73.5     0.30      1007.0     4.1     WNW   286   7.8      NW   308   9.31    264       39.6
   10/12/2018 16:40      81.5      80.6       37     52.5      0.00      0.00      73.5     0.30      1007.0     2.5     WNW   284   5.2     WSW   249   9.32    264      141.9
   10/12/2018 16:30      81.6      80.5       37     52.3      0.00      0.00      73.3     0.30      1007.0     4.0     WNW   292   8.2       W   270   9.32    264      153.0
   10/12/2018 16:20      81.5      80.7       37     52.4      0.00      0.00      73.3     0.30      1007.0     5.7       W   263   9.8     WSW   255   9.32    264      197.6
   10/12/2018 16:10      82.8      81.1       37     52.4      0.00      0.00      73.2     0.30      1007.0     4.6     WNW   301   7.8     WNW   300   9.33    264      105.2
   10/12/2018 16:00      83.7      82.4       34     51.6      0.00      0.00      73.2     0.30      1007.0     3.4     WNW   303   7.7      SW   230   9.33    263      142.2
   10/12/2018 15:50      83.8      83.4       32     50.7      0.00      0.00      73.1     0.30      1007.0     1.3       N   350   4.4       N     7   9.33    263      142.9
   10/12/2018 15:40      83.6      82.4       28     46.5      0.00      0.00      73.1     0.30      1007.0     1.9     ENE    57   4.6      SE   140   9.33    263       82.9
   10/12/2018 15:30      84.9      82.9       28     46.6      0.00      0.00      73.0     0.30      1007.0     3.2       S   183   6.7      SW   234   9.33    263       77.7
   10/12/2018 15:20      85.3      84.6       27     47.1      0.00      0.00      73.0     0.30      1006.9     2.0       E    92   5.6     ENE    70   9.34    262      198.3
   10/12/2018 15:10      86.0      84.6       27     47.2      0.00      0.00      73.0     0.30      1006.9     3.6     ESE   112   7.0      SE   138   9.34    263      372.5
   10/12/2018 15:00      86.2      84.3       26     47.3      0.00      0.00      72.9     0.30      1006.8     2.2      SE   127   6.6     ENE    71   9.34    262      373.6
   10/12/2018 14:50      84.3      83.0       28     46.8      0.00      0.00      72.8     0.30      1006.9     3.3      SE   127   8.0      SE   143   9.34    263      333.6
   10/12/2018 14:40      84.7      83.7       27     46.7      0.00      0.00      72.8     0.30      1007.0     4.5       S   178   7.5       S   191   9.35    263      309.5
   10/12/2018 14:30      84.3      83.7       27     46.7      0.00      0.00      72.7     0.30      1007.1     3.3       E   100   6.2     ESE   123   9.35    262      368.4
   10/12/2018 14:20      87.0      83.7       26     46.5      0.00      0.00      72.7     0.30      1007.3     2.8     ESE   115   6.2      SE   139   9.35    263      332.1
   10/12/2018 14:10      86.9      85.5       25     46.3      0.00      0.00      72.7     0.30      1007.4     1.9     ENE    59   4.9      NE    48   9.35    263      341.2
   10/12/2018 14:00      86.2      83.8       26     46.3      0.00      0.00      72.7     0.30      1007.5     2.0     NNW   332   4.3     WSW   254   9.35    262      407.4
   10/12/2018 13:50      84.0      83.0       27     45.7      0.00      0.00      72.6     0.30      1007.7     3.2       W   268   7.2       W   279   9.35    263      347.6
   10/12/2018 13:40      84.7      83.0       26     45.7      0.00      0.00      72.6     0.30      1007.9     2.1     ESE   104   6.6      SE   131   9.35    263      410.7
   10/12/2018 13:30      84.9      83.0       27     46.1      0.00      0.00      72.5     0.30      1008.1     2.4     NNE    34   6.3       N     0   9.36    263      237.7
   10/12/2018 13:20      84.8      83.1       27     46.4      0.00      0.00      72.5     0.30      1008.2     1.9      NE    36   5.0      SE   127   9.36    263      451.0
   10/12/2018 13:10      83.5      82.8       28     46.4      0.00      0.00      72.5     0.30      1008.4     2.9     ESE   107   7.3      SE   132   9.36    263      482.6
   10/12/2018 13:00      83.0      82.1       28     46.4      0.00      0.00      72.5     0.30      1008.5     2.8       E    85   6.4      SE   132   9.36    263      452.2
   10/12/2018 12:50      82.9      81.9       29     46.7      0.00      0.00      72.5     0.30      1008.7     2.0     ESE   117   5.5     SSW   204   9.36    263      453.4
   10/12/2018 12:40      82.2      81.4       29     46.6      0.00      0.00      72.5     0.30      1009.0     2.3       E    99   5.0       S   171   9.36    264      454.9
   10/12/2018 12:30      82.7      81.0       29     46.8      0.00      0.00      72.5     0.30      1009.2     2.3      SE   127   6.1      SE   142   9.36    263      464.5
   10/12/2018 12:20      81.6      80.8       30     47.2      0.00      0.00      72.5     0.30      1009.3     2.4     SSE   162   5.8      SE   145   9.36    264      467.8
   10/12/2018 12:10      81.9      80.3       31     47.5      0.00      0.00      72.5     0.30      1009.5     1.5     ESE   116   5.4     ESE   115   9.36    264      443.1
   10/12/2018 12:00      80.6      79.5       32     47.4      0.00      0.00      72.5     0.30      1009.6     2.1      SE   133   6.7      SE   139   9.36    264      445.0
   10/12/2018 11:50      80.6      79.7       32     47.5      0.00      0.00      72.5     0.30      1009.7     2.6     ENE    77   7.2       E    82   9.36    264      440.0
   10/12/2018 11:40      79.9      77.9       34     48.0      0.00      0.00      72.6     0.30      1009.9     2.8       E    81   4.9      NE    46   9.36    264      435.1
   10/12/2018 11:30      78.6      77.2       35     47.9      0.00      0.00      72.6     0.30      1010.1     3.7       E    85   7.5     ENE    77   9.36    264      428.8
   10/12/2018 11:20      78.1      77.3       35     47.6      0.00      0.00      72.6     0.30      1010.2     3.6     ESE   103   8.1     ENE    65   9.36    264      417.9
   10/12/2018 11:10      78.0      77.2       35     47.5      0.00      0.00      72.6     0.30      1010.3     2.6     ENE    75   5.5     ESE   115   9.36    264      405.7
   10/12/2018 11:00      77.6      76.8       35     47.4      0.00      0.00      72.6     0.30      1010.5     2.3      NE    48   4.3     NNE    19   9.36    264      393.6
   10/12/2018 10:50      77.1      75.7       36     47.3      0.00      0.00      72.6     0.30      1010.5     1.3     NNE    32   3.1       N     0   9.36    264      381.4
   10/12/2018 10:40      76.4      75.2       37     47.4      0.00      0.00      72.7     0.30      1010.6     1.2     NNE    14   3.8       N   353   9.36    264      368.3
   10/12/2018 10:30      76.0      74.0       38     47.5      0.00      0.00      72.7     0.30      1010.7     0.9     NNW   340   3.0     NNE    21   9.36    265      356.6
   10/12/2018 10:20      73.9      73.3       40     47.5      0.00      0.00      72.8     0.30      1010.9     1.3     NNW   334   2.5      NW   322   9.36    265      340.3
   10/12/2018 10:10      73.4      72.1       41     47.8      0.00      0.00      72.8     0.30      1010.9     1.0       N   350   2.5       N     2   9.36    265      325.7
   10/12/2018 10:00      72.1      70.7       43     47.3      0.00      0.00      72.8     0.30      1011.0     1.4     NNW   334   4.7      NW   311   9.36    265      309.0
   10/12/2018 09:50      71.5      70.6       43     47.5      0.00      0.00      72.9     0.30      1011.2     1.9       N   353   3.4       N     8   9.36    266      290.9
   10/12/2018 09:40      71.5      69.4       44     47.7      0.00      0.00      72.9     0.30      1011.1     1.1     WSW   243   3.6     NNW   335   9.36    266      274.5
   10/12/2018 09:30      69.4      68.0       47     47.5      0.00      0.00      73.0     0.30      1011.2     1.1     WNW   288   3.2      SW   227   9.35    266      256.4
   10/12/2018 09:20      68.4      67.8       48     47.9      0.00      0.00      73.0     0.30      1011.3     1.1       N     9   2.8     NNE    18   9.36    266      238.5
   10/12/2018 09:10      68.4      66.2       50     48.2      0.00      0.00      73.0     0.30      1011.3     0.3       E    79   1.2       E    98   9.36    266      220.2
   10/12/2018 09:00      66.2      63.8       54     47.9      0.00      0.00      73.0     0.30      1011.3     0.4       N     9   2.0       N     8   9.36    266      200.7
   10/12/2018 08:50      64.2      62.7       56     47.5      0.00      0.00      73.1     0.30      1011.3     0.9       N    10   2.4       N   354   9.36    268      181.0
   10/12/2018 08:40      62.8      61.8       58     47.3      0.00      0.00      73.1     0.30      1011.2     1.1     NNW   346   3.3      NW   309   9.36    268      157.7
   10/12/2018 08:30      62.1      61.4       60     47.6      0.00      0.00      73.1     0.30      1011.1     0.9     NNW   336   1.9     NNW   330   9.36    269      131.7
   10/12/2018 08:20      61.6      60.1       62     47.8      0.00      0.00      73.2     0.30      1011.0     0.2       N   358   1.7     NNE    26   9.36    269      105.2
   10/12/2018 08:10      60.1      57.8       66     47.6      0.00      0.00      73.2     0.30      1010.9     0.0     NNW   339   0.7     NNW   339   9.36    269       54.4
   10/12/2018 08:00      57.9      55.0       72     47.3      0.00      0.00      73.2     0.30      1010.9     0.0     ENE    67   0.2     ENE    68   9.36    269       31.6
   10/12/2018 07:50      55.0      53.9       75     46.5      0.00      0.00      73.2     0.30      1010.9     0.9     SSE   161   2.3      SE   130   9.36    269       -3.6
   10/12/2018 07:40      54.1      52.5       78     46.6      0.00      0.00      73.3     0.30      1010.9     0.3     NNE    14   1.3     SSW   206   9.36    268      -25.8
   10/12/2018 07:30      52.6      51.2       80     45.9      0.00      0.00      73.3     0.30      1010.7     0.6      SE   133   1.8      SE   141   9.36    262      -30.1
   10/12/2018 07:20      51.4      50.8       81     45.2      0.00      0.00      73.3     0.31      1010.7     0.8     SSE   164   2.3      SE   142   9.36    265      -34.8
   10/12/2018 07:10      51.1      50.7       81     45.1      0.00      0.00      73.4     0.31      1010.6     0.7       S   176   1.7       S   180   9.36    259      -40.0
   10/12/2018 07:00      51.5      50.7       80     45.0      0.00      0.00      73.4     0.31      1010.6     0.6       S   174   1.7      SW   232   9.36    255      -43.7
   10/12/2018 06:50      51.4      50.9       81     45.5      0.00      0.00      73.4     0.31      1010.5     0.3       S   177   1.3     SSE   166   9.36    258      -45.3
   10/12/2018 06:40      51.5      50.9       81     45.4      0.00      0.00      73.5     0.31      1010.4     0.3     SSE   161   1.3      SE   137   9.36    256      -46.1
   10/12/2018 06:30      51.4      51.0       82     45.8      0.00      0.00      73.5     0.31      1010.3     0.3       S   182   1.1       S   184   9.36    252      -45.3
   10/12/2018 06:20      51.3      50.5       82     45.6      0.00      0.00      73.5     0.31      1010.2     0.2       S   185   1.4       S   185   9.36    251      -45.6
   10/12/2018 06:10      51.0      50.5       82     45.4      0.00      0.00      73.6     0.31      1010.3     0.3      SE   136   1.8      SE   140   9.36    256      -46.9
   10/12/2018 06:00      51.2      50.7       82     45.5      0.00      0.00      73.6     0.31      1010.3     0.5     SSE   166   1.3       S   169   9.36    257      -47.4
   10/12/2018 05:50      51.4      50.8       81     45.3      0.00      0.00      73.6     0.31      1010.3     0.0     SSE   158   0.8     SSE   166   9.36    256      -47.6
   10/12/2018 05:40      51.3      50.8       81     45.3      0.00      0.00      73.7     0.31      1010.2     0.3     SSE   155   1.1     SSE   161   9.36    257      -48.6
   10/12/2018 05:30      51.5      50.9       80     45.4      0.00      0.00      73.7     0.30      1010.1     0.2     SSE   155   1.7      SE   144   9.36    258      -48.0
   10/12/2018 05:20      51.5      51.0       80     45.3      0.00      0.00      73.7     0.30      1010.1     0.2      SW   215   1.8     SSW   212   9.36    257      -48.1
   10/12/2018 05:10      51.6      51.2       80     45.3      0.00      0.00      73.7     0.30      1010.2     0.3      SE   141   1.4      SE   145   9.36    260      -49.2
   10/12/2018 05:00      52.0      51.2       78     44.9      0.00      0.00      73.8     0.30      1010.1     0.3     SSE   164   1.3       S   171   9.36    256      -49.6
   10/12/2018 04:50      52.1      51.5       80     45.8      0.00      0.00      73.8     0.30      1010.2     0.8       S   187   2.6       S   187   9.36    267      -48.4
   10/12/2018 04:40      51.9      51.4       79     45.3      0.00      0.00      73.8     0.30      1010.2     0.0       N     0   0.0     SSE   165   9.36    265      -49.4
   10/12/2018 04:30      52.0      51.6       79     45.3      0.00      0.00      73.9     0.30      1010.2     0.0       N     0   0.0     SSE   165   9.36    258      -50.3
   10/12/2018 04:20      52.5      51.7       78     45.5      0.00      0.00      73.9     0.31      1010.3     0.2     SSE   164   1.0     SSE   155   9.36    259      -50.7
   10/12/2018 04:10      52.9      52.1       77     45.6      0.00      0.00      73.9     0.31      1010.3     0.2       S   190   1.2     SSE   164   9.36    262      -50.0
   10/12/2018 04:00      53.0      52.4       77     45.7      0.00      0.00      73.9     0.31      1010.3     0.1     SSW   205   1.1     SSW   198   9.36    267      -50.3
   10/12/2018 03:50      53.5      52.8       76     45.8      0.00      0.00      74.0     0.31      1010.4     0.2     SSE   158   1.0      SE   128   9.36    264      -50.7
   10/12/2018 03:40      53.5      53.1       75     45.6      0.00      0.00      74.0     0.31      1010.4     0.3      SW   233   1.6      SW   234   9.36    265      -50.9
   10/12/2018 03:30      53.4      52.7       77     46.1      0.00      0.00      74.0     0.31      1010.4     1.5       S   189   2.5       S   188   9.36    268      -50.5
   10/12/2018 03:20      52.9      52.5       78     45.9      0.00      0.00      74.0     0.31      1010.5     1.0       S   177   2.1       S   170   9.37    266      -52.1
   10/12/2018 03:10      53.1      52.4       77     45.5      0.00      0.00      74.0     0.31      1010.6     0.4      SE   146   1.2      SE   138   9.37    265      -52.4
   10/12/2018 03:00      53.3      52.6       76     45.4      0.00      0.00      74.1     0.31      1010.7     0.4     SSE   151   1.6      SE   146   9.37    267      -52.2
   10/12/2018 02:50      53.6      52.9       75     45.4      0.00      0.00      74.1     0.31      1010.7     0.2     SSE   156   1.1      SE   132   9.37    269      -52.2
   10/12/2018 02:40      54.0      53.3       73     45.3      0.00      0.00      74.1     0.31      1010.7     0.9     SSE   152   1.5      SE   139   9.37    269      -51.9
   10/12/2018 02:30      54.1      53.7       73     45.4      0.00      0.00      74.1     0.31      1010.9     0.4      SW   220   0.9      SW   220   9.37    269      -51.4
   10/12/2018 02:20      54.2      53.6       73     45.5      0.00      0.00      74.2     0.31      1010.9     0.9      SW   215   1.8      SW   220   9.37    269      -51.4
   10/12/2018 02:10      54.4      53.7       74     45.8      0.00      0.00      74.1     0.31      1010.9     0.4       S   191   1.3     SSW   204   9.37    269      -52.3
   10/12/2018 02:00      54.8      54.0       72     45.6      0.00      0.00      74.2     0.31      1011.0     0.0       N     0   0.0       S   190   9.37    268      -53.3
   10/12/2018 01:50      55.0      54.5       72     45.9      0.00      0.00      74.2     0.31      1010.9     0.1       S   190   0.9       S   190   9.37    269      -53.0
   10/12/2018 01:40      55.5      54.7       71     45.9      0.00      0.00      74.2     0.31      1010.8     0.0       N     0   0.0       S   190   9.37    269      -54.2
   10/12/2018 01:30      55.6      55.0       71     46.0      0.00      0.00      74.3     0.31      1010.7     0.0       N     0   0.0       S   190   9.37    269      -53.9
   10/12/2018 01:20      56.4      55.4       70     45.9      0.00      0.00      74.3     0.31      1010.6     0.1       S   190   1.0       S   190   9.37    269      -54.5
   10/12/2018 01:10      57.7      56.1       67     45.9      0.00      0.00      74.3     0.31      1010.6     0.1      SE   146   0.7     SSE   164   9.37    269      -56.5
   10/12/2018 01:00      58.3      57.4       65     46.2      0.00      0.00      74.3     0.31      1010.6     0.2     SSE   158   1.6     SSW   206   9.37    268      -57.3
   10/12/2018 00:50      58.6      58.1       64     46.2      0.00      0.00      74.3     0.31      1010.6     1.3       S   190   2.7       S   180   9.37    268      -57.9
   10/12/2018 00:40      58.8      58.2       64     46.3      0.00      0.00      74.3     0.31      1010.6     1.1     SSW   202   2.5     WSW   238   9.37    268      -58.0
   10/12/2018 00:30      58.6      58.1       64     46.4      0.00      0.00      74.4     0.31      1010.6     2.4     SSW   197   4.2       S   170   9.37    268      -58.2
   10/12/2018 00:20      58.4      58.0       65     46.5      0.00      0.00      74.4     0.31      1010.6     2.3     SSW   197   3.9      SW   220   9.38    268      -58.4
   10/12/2018 00:10      58.8      58.1       65     46.6      0.00      0.00      74.4     0.31      1010.8     1.8       S   191   4.4      SW   224   9.38    268      -58.6
   10/12/2018 00:00      59.3      58.5       64     46.7      0.00      0.00      74.4     0.31      1010.8     2.2     SSW   197   4.1     SSW   205   9.38    268      -59.0
   10/11/2018 23:50      59.1      58.8       64     46.6      0.00      0.00      74.5     0.31      1010.9     2.4      SW   224   4.0     WSW   253   9.38    268      -59.7
   10/11/2018 23:40      59.1      58.3       64     46.5      0.00      0.00      74.4     0.31      1010.8     2.6     WSW   239   4.8       W   261   9.38    268      -59.6
   10/11/2018 23:30      58.5      57.5       65     46.4      0.00      0.00      74.5     0.31      1010.9     1.1      SW   223   3.5      SW   232   9.38    268      -57.9
   10/11/2018 23:20      58.4      57.5       65     46.2      0.00      0.00      74.5     0.31      1010.9     0.2     SSE   149   1.4      SE   143   9.38    268      -58.4
   10/11/2018 23:10      58.3      57.7       66     46.7      0.00      0.00      74.5     0.31      1010.9     0.9       S   182   1.9      SE   140   9.38    268      -58.6
   10/11/2018 23:00      57.9      57.5       67     46.7      0.00      0.00      74.5     0.31      1011.1     0.8       S   170   1.5       S   176   9.38    268      -58.7
   10/11/2018 22:50      58.2      57.6       66     46.6      0.00      0.00      74.5     0.31      1011.1     1.4       S   176   3.0       S   183   9.38    268      -59.6
   10/11/2018 22:40      58.7      57.8       65     46.6      0.00      0.00      74.5     0.31      1011.1     1.1     SSE   165   1.8       S   176   9.38    268      -59.8
   10/11/2018 22:30      58.7      58.4       65     46.8      0.00      0.00      74.5     0.31      1011.2     1.5       S   190   2.3       S   185   9.38    268      -59.9
   10/11/2018 22:20      59.4      58.5       64     46.7      0.00      0.00      74.5     0.31      1011.2     1.0       S   174   1.4       S   174   9.38    267      -61.0
   10/11/2018 22:10      59.9      59.0       62     46.5      0.00      0.00      74.5     0.31      1011.2     1.7       S   187   2.7      SW   215   9.38    267      -62.2
   10/11/2018 22:00      60.2      59.7       61     46.5      0.00      0.00      74.5     0.31      1011.2     1.8      SW   229   3.0      SW   232   9.39    267      -62.6
   10/11/2018 21:50      60.8      59.8       60     46.4      0.00      0.00      74.5     0.31      1011.2     1.7      SW   224   3.0     WSW   238   9.39    267      -63.4
   10/11/2018 21:40      60.7      60.3       60     46.5      0.00      0.00      74.5     0.31      1011.2     1.9     WSW   238   3.4     WSW   247   9.39    267      -64.6
   10/11/2018 21:30      61.1      60.4       59     46.4      0.00      0.00      74.6     0.31      1011.2     1.7      SW   216   3.6     WSW   244   9.39    266      -65.2
   10/11/2018 21:20      61.3      60.8       58     46.3      0.00      0.00      74.5     0.31      1011.2     2.3      SW   228   4.0     WNW   287   9.39    266      -65.6
   10/11/2018 21:10      61.3      60.9       58     46.1      0.00      0.00      74.6     0.31      1011.2     2.5      SW   223   4.2     SSW   196   9.39    266      -66.1
   10/11/2018 21:00      61.5      61.1       58     46.2      0.00      0.00      74.6     0.31      1011.0     2.5      SW   220   4.3     WSW   245   9.39    266      -66.7
   10/11/2018 20:50      61.8      61.2       57     46.3      0.00      0.00      74.5     0.31      1010.9     2.8     SSW   210   4.9      SW   229   9.39    266      -67.3
   10/11/2018 20:40      61.7      61.3       57     46.3      0.00      0.00      74.5     0.31      1010.8     2.7      SW   226   5.6     SSW   205   9.39    266      -68.0
   10/11/2018 20:30      62.0      61.3       57     46.4      0.00      0.00      74.5     0.31      1010.7     2.7     SSW   211   5.0     SSW   201   9.40    266      -68.6
   10/11/2018 20:20      62.4      61.7       57     46.5      0.00      0.00      74.5     0.31      1010.6     3.4      SW   216   6.0      SW   220   9.40    266      -69.0
   10/11/2018 20:10      62.9      62.1       56     46.4      0.00      0.00      74.5     0.31      1010.6     3.6      SW   226   6.1      SW   222   9.40    266      -69.7
   10/11/2018 20:00      63.1      62.5       55     46.4      0.00      0.00      74.5     0.31      1010.5     3.6      SW   234   6.7      SW   228   9.40    266      -70.1
   10/11/2018 19:50      63.5      62.8       55     46.4      0.00      0.00      74.5     0.31      1010.3     3.5     WSW   240   6.5      SW   223   9.40    266      -70.5
   10/11/2018 19:40      63.7      63.1       54     46.5      0.00      0.00      74.5     0.31      1010.2     4.5     WSW   251   7.7       W   267   9.40    266      -70.9
   10/11/2018 19:30      64.0      63.4       54     46.4      0.00      0.00      74.4     0.31      1010.1     4.9     WSW   257   7.6     WSW   252   9.40    266      -71.3
   10/11/2018 19:20      64.5      63.7       53     46.4      0.00      0.00      74.4     0.31      1010.0     4.6       W   261   8.0     WSW   255   9.41    266      -72.1
   10/11/2018 19:10      65.1      64.2       52     46.4      0.00      0.00      74.4     0.31      1009.9     3.8       W   270   7.7     WSW   252   9.41    266      -72.8
   10/11/2018 19:00      65.6      64.7       51     46.3      0.00      0.00      74.3     0.31      1009.8     2.7     WNW   297   8.2     WSW   251   9.41    266      -73.4
   10/11/2018 18:50      65.7      65.3       49     45.6      0.00      0.00      74.4     0.31      1009.7     2.5       W   268   7.1     WSW   246   9.41    266      -74.0
   10/11/2018 18:40      66.1      65.5       48     45.5      0.00      0.00      74.4     0.31      1009.6     3.7     WSW   239   7.3     WNW   298   9.42    266      -74.1
   10/11/2018 18:30      66.4      65.8       47     45.4      0.00      0.00      74.3     0.31      1009.6     4.5     WSW   239   6.9     WSW   238   9.42    266      -72.4
   10/11/2018 18:20      66.7      66.0       47     45.3      0.00      0.00      74.3     0.31      1009.4     5.0      SW   231   8.8     WSW   254   9.42    266      -69.0
   10/11/2018 18:10      66.8      66.3       46     45.3      0.00      0.00      74.3     0.31      1009.4     4.1      SW   221   7.0      SW   224   9.42    266      -64.6
   10/11/2018 18:00      67.2      66.5       46     45.2      0.00      0.00      74.2     0.31      1009.6     3.9      SW   219   6.9     SSW   212   9.43    265      -54.3
   10/11/2018 17:50      67.5      66.7       46     45.2      0.00      0.00      74.2     0.31      1009.7     4.4     SSW   207   7.3       S   183   9.43    265      -44.5
   10/11/2018 17:40      68.0      67.2       44     45.1      0.00      0.00      74.2     0.31      1009.7     5.2      SW   215   8.1       S   185   9.43    265      -20.0
   10/11/2018 17:30      68.2      67.7       44     45.4      0.00      0.00      74.1     0.31      1009.6     4.7      SW   221   8.8     SSW   198   9.44    265        5.1
   10/11/2018 17:20      68.5      67.9       44     45.6      0.00      0.00      74.1     0.31      1009.7     5.4      SW   218   9.2       W   271   9.44    264       28.9
   10/11/2018 17:10      68.9      68.1       44     45.6      0.00      0.00      74.1     0.31      1009.9     6.1      SW   220   8.4      SW   225   9.44    264       53.7
   10/11/2018 17:00      69.3      68.6       43     45.7      0.00      0.00      74.0     0.31      1009.9     5.2      SW   223   8.3      SW   233   9.45    264       78.0
   10/11/2018 16:50      69.4      68.6       43     45.5      0.00      0.00      74.0     0.31      1009.8     4.9       S   185   8.3     SSW   193   9.45    265      104.2
   10/11/2018 16:40      69.0      68.3       43     45.3      0.00      0.00      74.0     0.31      1009.9     5.8       S   173  10.3     SSW   206   9.45    265      130.1
   10/11/2018 16:30      69.8      68.7       42     45.3      0.00      0.00      73.9     0.31      1009.9     6.0       S   169  10.6       S   176   9.45    264      155.5
   10/11/2018 16:20      70.0      69.3       42     45.4      0.00      0.00      73.9     0.31      1010.0     6.0     SSE   155  11.2       S   179   9.46    264      180.2
   10/11/2018 16:10      70.8      69.8       41     45.4      0.00      0.00      73.9     0.31      1009.9     5.7     SSE   166   9.7     SSW   199   9.46    264      202.4
   10/11/2018 16:00      70.9      70.1       40     45.4      0.00      0.00      73.8     0.31      1009.8     6.0     SSE   158  10.1       S   188   9.46    264      218.6
   10/11/2018 15:50      71.3      69.8       40     45.2      0.00      0.00      73.8     0.31      1009.7     6.6     SSE   149  11.0     SSE   166   9.47    264      234.8
   10/11/2018 15:40      71.5      70.9       39     45.3      0.00      0.00      73.7     0.31      1009.5     6.5     SSE   147  12.4     SSE   152   9.47    264      255.0
   10/11/2018 15:30      72.4      71.1       38     45.1      0.00      0.00      73.7     0.31      1009.4     7.3       S   176  11.8       S   187   9.47    264      274.6
   10/11/2018 15:20      73.1      71.7       37     45.0      0.00      0.00      73.6     0.31      1009.3     6.1       S   188  12.9     SSW   208   9.48    264      295.7
   10/11/2018 15:10      73.5      72.8       36     44.4      0.00      0.00      73.6     0.31      1009.3     3.5       S   181   8.0     SSW   206   9.48    264      324.5
   10/11/2018 15:00      74.5      72.8       35     44.0      0.00      0.00      73.5     0.31      1009.3     3.9     SSW   204   6.7      SW   220   9.48    264      216.1
   10/11/2018 14:50      74.8      73.6       34     44.2      0.00      0.00      73.5     0.31      1009.3     2.4     ESE   106   5.4       S   184   9.48    263      351.3
   10/11/2018 14:40      73.8      72.9       35     43.9      0.00      0.00      73.5     0.31      1009.3     1.9       E    99   4.4       E    90   9.49    264      367.7
   10/11/2018 14:30      73.8      72.1       35     43.9      0.00      0.00      73.4     0.31      1009.4     2.6       W   267   7.5      SW   234   9.49    263      380.1
   10/11/2018 14:20      72.4      71.2       37     44.1      0.00      0.00      73.4     0.31      1009.5     2.6      NW   309   7.3     WNW   289   9.49    264      396.8
   10/11/2018 14:10      72.3      71.1       37     44.2      0.00      0.00      73.4     0.31      1009.7     4.5      SW   220   8.5     WSW   256   9.49    264      412.3
   10/11/2018 14:00      72.6      70.9       37     44.1      0.00      0.00      73.3     0.31      1009.8     3.0     WSW   255   8.7     WSW   251   9.49    264      415.8
   10/11/2018 13:50      71.7      70.7       38     44.2      0.00      0.00      73.3     0.31      1010.0     5.1     SSW   207   9.3     SSW   202   9.49    264      434.6
   10/11/2018 13:40      72.1      70.8       38     44.2      0.00      0.00      73.3     0.30      1010.1     3.4       S   183   8.9      SW   231   9.50    264      443.6
   10/11/2018 13:30      72.6      70.5       37     44.2      0.00      0.00      73.3     0.31      1010.3     2.5     SSW   207   7.0     SSW   204   9.50    264      465.2
   10/11/2018 13:20      73.0      70.5       37     44.0      0.00      0.00      73.3     0.30      1010.5     4.1      SW   236   7.6       S   190   9.50    264      393.2
   10/11/2018 13:10      73.0      72.2       36     44.2      0.00      0.00      73.3     0.30      1010.6     2.7      NW   323   7.2      NW   320   9.50    264      402.2
   10/11/2018 13:00      72.8      71.1       37     43.9      0.00      0.00      73.3     0.30      1010.8     3.4     WNW   291   8.5       W   277   9.50    264      510.9
   10/11/2018 12:50      72.6      71.3       36     43.8      0.00      0.00      73.3     0.30      1011.0     3.0     WNW   285   7.8     WSW   237   9.50    264      487.1
   10/11/2018 12:40      71.6      70.1       37     43.8      0.00      0.00      73.1     0.30      1011.1     2.3     NNW   335   5.1       W   274   9.50    264      507.9
   10/11/2018 12:30      72.1      70.4       37     43.6      0.00      0.00      73.3     0.30      1011.3     1.8       N   357   4.5       S   180   9.51    265      140.7
   10/11/2018 12:20      72.1      70.7       37     43.9      0.00      0.00      73.3     0.30      1011.5     2.3     WNW   292   6.7       W   264   9.51    264      537.5
   10/11/2018 12:10      72.1      70.3       36     43.1      0.00      0.00      73.3     0.30      1011.6     3.4       W   271   7.7       W   280   9.51    264      562.5
   10/11/2018 12:00      72.0      69.8       38     43.8      0.00      0.00      73.3     0.30      1011.7     2.2      NW   317   6.0       W   275   9.51    264      566.4
   10/11/2018 11:50      71.3      69.6       39     44.4      0.00      0.00      73.3     0.30      1011.8     3.0       W   260   6.6     WSW   236   9.51    264      559.2
   10/11/2018 11:40      71.2      70.1       40     45.3      0.00      0.00      73.4     0.30      1011.9     1.8      NW   312   5.5      NW   322   9.51    264      494.2
   10/11/2018 11:30      70.4      68.7       42     45.4      0.00      0.00      73.4     0.31      1012.0     2.0      NW   319   4.3     NNW   345   9.51    265      466.5
   10/11/2018 11:20      69.2      68.3       43     45.5      0.00      0.00      73.4     0.30      1012.2     3.4      NW   307   8.9      SW   234   9.51    265      505.3
   10/11/2018 11:10      69.5      68.6       43     45.5      0.00      0.00      73.5     0.30      1012.3     3.0       W   279   7.0      SW   230   9.51    265      465.1
   10/11/2018 11:00      69.2      66.8       45     46.1      0.00      0.00      73.4     0.30      1012.3     1.9     WNW   283   4.5     WSW   253   9.51    266      474.6
   10/11/2018 10:50      66.9      66.2       48     46.1      0.00      0.00      73.5     0.31      1012.4     2.1     WNW   294   6.1     NNW   341   9.51    266      368.7
   10/11/2018 10:40      67.0      66.5       47     46.0      0.00      0.00      73.5     0.30      1012.5     1.6     NNW   343   4.9     NNE    12   9.51    266      144.1
   10/11/2018 10:30      66.9      65.8       48     46.0      0.00      0.00      73.6     0.30      1012.5     2.5     WNW   300   7.0     WNW   286   9.51    266      375.9
   10/11/2018 10:20      66.2      65.3       49     45.9      0.00      0.00      73.6     0.31      1012.6     1.9      SW   231   4.6       S   179   9.51    266      364.2
   10/11/2018 10:10      66.5      65.3       48     45.9      0.00      0.00      73.7     0.31      1012.6     3.1       W   263   6.4       W   269   9.51    266      340.8
   10/11/2018 10:00      66.6      65.2       48     46.2      0.00      0.00      73.7     0.31      1012.6     1.5     NNW   333   3.7     WNW   288   9.51    266      317.7
   10/11/2018 09:50      65.4      64.8       51     46.4      0.00      0.00      73.7     0.31      1012.6     2.0       N   352   3.5       N     0   9.51    266      301.2
   10/11/2018 09:40      65.5      65.0       52     47.0      0.00      0.00      73.8     0.31      1012.7     2.0      NE    43   3.5     NNE    18   9.51    266      282.1
   10/11/2018 09:30      65.2      64.4       54     47.8      0.00      0.00      73.8     0.31      1012.7     1.2     NNE    29   2.8     NNE    28   9.51    266      263.4
   10/11/2018 09:20      64.6      63.8       57     48.6      0.00      0.00      73.9     0.31      1012.8     1.1     NNE    25   3.0       N    11   9.51    266      243.9
   10/11/2018 09:10      64.3      63.2       58     48.7      0.00      0.00      73.9     0.31      1012.7     1.0     NNE    16   2.2     NNE    22   9.51    266      223.2
   10/11/2018 09:00      63.7      62.7       60     48.9      0.00      0.00      73.9     0.31      1012.7     1.3      NE    37   2.8      NE    35   9.51    267      203.9
   10/11/2018 08:50      63.6      62.8       59     48.8      0.00      0.00      74.0     0.31      1012.7     1.0     NNE    12   2.2     NNE    34   9.51    269      181.6
   10/11/2018 08:40      63.6      62.3       60     48.9      0.00      0.00      74.0     0.31      1012.7     0.4       N   353   1.6     NNW   339   9.51    269      155.0
   10/11/2018 08:30      62.9      61.7       61     48.7      0.00      0.00      74.0     0.31      1012.6     0.2       N     8   1.2       N     0   9.51    270      136.0
   10/11/2018 08:20      61.8      58.3       67     49.1      0.00      0.00      74.1     0.31      1012.6     0.0      NE    42   0.6      NE    42   9.51    270      138.2
   10/11/2018 08:10      58.4      56.2       73     48.6      0.00      0.00      74.1     0.31      1012.5     0.4      SE   142   1.3      SE   137   9.51    269      106.2
   10/11/2018 08:00      56.1      53.5       80     48.5      0.00      0.00      74.1     0.31      1012.5     0.0       N     0   0.0     SSE   149   9.51    262       64.0
   10/11/2018 07:50      53.7      52.7       83     48.0      0.00      0.00      74.2     0.31      1012.3     0.3     SSE   149   1.1     SSE   149   9.51    273       17.4
   10/11/2018 07:40      52.9      51.7       86     48.5      0.00      0.00      74.2     0.31      1012.3     0.0       N     0   0.0     SSE   149   9.51    282       -7.7
   10/11/2018 07:30      52.0      50.6       88     47.5      0.00      0.00      74.2     0.31      1012.2     0.2     SSE   166   1.2       S   172   9.51    284      -12.4
   10/11/2018 07:20      51.0      50.2       88     47.0      0.00      0.00      74.3     0.31      1012.2     0.3       S   180   1.2       S   190   9.51    284      -18.9
   10/11/2018 07:10      50.5      49.9       88     46.8      0.00      0.00      74.3     0.31      1012.1     0.8       S   171   1.3       S   178   9.51    285      -25.3
   10/11/2018 07:00      50.5      49.9       88     46.8      0.00      0.00      74.3     0.31      1012.1     0.5       S   171   1.4       S   181   9.51    285      -29.2
   10/11/2018 06:50      50.6      49.9       88     46.8      0.00      0.00      74.4     0.31      1012.0     0.0       N     0   0.0     SSE   156   9.51    285      -32.7
   10/11/2018 06:40      50.6      50.3       88     47.1      0.00      0.00      74.4     0.31      1011.9     0.2     SSE   156   0.8     SSE   156   9.51    284      -33.9
   10/11/2018 06:30      51.0      50.4       88     47.3      0.00      0.00      74.4     0.31      1011.8     0.2     SSE   158   0.7     SSE   159   9.51    282      -34.7
   10/11/2018 06:20      51.2      50.6       88     47.4      0.00      0.00      74.5     0.31      1011.6     0.3     SSE   155   1.2     SSE   155   9.51    280      -34.8
   10/11/2018 06:10      51.3      50.7       87     47.3      0.00      0.00      74.5     0.31      1011.5     0.1     SSE   155   0.9     SSE   155   9.51    276      -35.9
   10/11/2018 06:00      51.5      51.0       87     47.5      0.00      0.00      74.5     0.31      1011.6     0.3     SSE   155   0.9     SSE   155   9.51    273      -36.3
   10/11/2018 05:50      51.5      51.0       87     47.5      0.00      0.00      74.6     0.31      1011.5     0.1     SSE   155   0.7     SSE   155   9.51    271      -37.1
   10/11/2018 05:40      51.3      50.9       86     47.1      0.00      0.00      74.5     0.31      1011.5     0.4     SSE   155   0.9     SSE   155   9.51    266      -38.3
   10/11/2018 05:30      51.4      50.9       86     47.0      0.00      0.00      74.6     0.31      1011.4     0.2     SSE   155   0.8     SSE   155   9.51    262      -39.1
   10/11/2018 05:20      52.0      50.8       85     46.8      0.00      0.00      74.6     0.31      1011.4     0.0     SSE   155   0.6     SSE   155   9.51    258      -41.1
   10/11/2018 05:10      52.0      51.6       85     47.3      0.00      0.00      74.7     0.31      1011.4     0.0     SSE   155   0.6     SSE   155   9.52    259      -41.8
   10/11/2018 05:00      52.2      51.6       85     47.3      0.00      0.00      74.7     0.31      1011.3     0.1     SSE   155   0.9     SSE   155   9.52    257      -42.6
   10/11/2018 04:50      52.0      51.7       84     47.2      0.00      0.00      74.8     0.31      1011.3     0.2     SSE   155   0.9     SSE   155   9.52    258      -45.8
   10/11/2018 04:40      52.5      51.7       84     47.3      0.00      0.00      74.8     0.31      1011.2     0.1     SSE   155   0.7     SSE   155   9.52    255      -47.6
   10/11/2018 04:30      52.5      52.0       83     47.2      0.00      0.00      74.8     0.31      1011.2     0.2     SSE   155   0.7     SSE   155   9.52    254      -50.3
   10/11/2018 04:20      52.6      52.1       82     46.9      0.00      0.00      74.8     0.31      1011.2     0.0     SSE   155   0.8     SSE   155   9.52    251      -52.9
   10/11/2018 04:10      53.1      52.3       82     47.4      0.00      0.00      74.8     0.31      1011.3     0.4     SSE   155   1.1     SSE   155   9.52    251      -53.0
   10/11/2018 04:00      53.1      52.8       82     47.5      0.00      0.00      74.9     0.31      1011.2     0.4     SSE   155   1.1     SSE   155   9.52    254      -53.5
   10/11/2018 03:50      53.4      52.7       82     47.6      0.00      0.00      74.9     0.31      1011.2     0.3     SSE   155   0.8     SSE   155   9.52    251      -54.7
   10/11/2018 03:40      53.3      52.9       82     47.6      0.00      0.00      74.9     0.31      1011.2     0.5     SSE   156   1.1     SSE   155   9.52    253      -55.8
   10/11/2018 03:30      53.6      52.9       81     47.4      0.00      0.00      74.9     0.31      1011.2     0.7     SSE   153   1.5     SSE   153   9.52    251      -57.2
   10/11/2018 03:20      53.9      53.2       81     47.6      0.00      0.00      75.0     0.31      1011.2     1.0     SSE   148   1.7      SE   144   9.52    254      -57.0
   10/11/2018 03:10      54.0      53.6       80     47.6      0.00      0.00      75.0     0.31      1011.3     1.0     SSE   151   1.6     SSE   147   9.52    260      -58.0
   10/11/2018 03:00      54.4      53.7       79     47.6      0.00      0.00      75.0     0.31      1011.4     0.9     SSE   154   1.6     SSE   149   9.52    257      -58.4
   10/11/2018 02:50      54.6      54.0       78     47.4      0.00      0.00      75.0     0.31      1011.5     0.7     SSE   149   1.4      SE   144   9.53    260      -59.6
   10/11/2018 02:40      54.8      54.3       77     47.6      0.00      0.00      75.0     0.31      1011.6     0.5     SSE   159   1.2     SSE   152   9.53    264      -60.2
   10/11/2018 02:30      54.8      54.4       78     47.7      0.00      0.00      75.1     0.31      1011.6     1.4      SE   144   1.8      SE   142   9.53    264      -60.3
   10/11/2018 02:20      55.0      54.5       76     47.4      0.00      0.00      75.1     0.31      1011.7     0.9     SSE   154   2.0     SSE   147   9.53    263      -60.2
   10/11/2018 02:10      55.6      54.7       75     47.4      0.00      0.00      75.1     0.31      1011.7     0.4     SSE   162   0.9     SSE   156   9.53    267      -61.0
   10/11/2018 02:00      56.4      55.4       74     47.6      0.00      0.00      75.1     0.31      1011.7     0.1       S   173   0.7       S   173   9.53    265      -61.2
   10/11/2018 01:50      56.5      56.0       73     47.7      0.00      0.00      75.1     0.31      1011.7     0.1       S   173   0.8       S   173   9.53    266      -62.3
   10/11/2018 01:40      57.1      56.2       70     46.9      0.00      0.00      75.1     0.31      1011.7     0.2       S   176   1.4       S   173   9.53    266      -63.4
   10/11/2018 01:30      58.5      57.0       68     46.9      0.00      0.00      75.2     0.31      1011.7     0.3       S   172   1.1       S   183   9.53    268      -63.8
   10/11/2018 01:20      59.4      58.1       66     47.1      0.00      0.00      75.2     0.31      1011.7     0.6     SSW   191   1.4       S   186   9.53    268      -64.8
   10/11/2018 01:10      60.6      59.0       63     47.4      0.00      0.00      75.2     0.31      1011.8     0.3       S   189   1.3       S   189   9.53    268      -67.3
   10/11/2018 01:00      60.8      60.3       63     47.7      0.00      0.00      75.2     0.31      1011.9     0.5     WSW   251   2.1     WSW   255   9.53    268      -62.3
   10/11/2018 00:50      61.3      60.5       61     47.4      0.00      0.00      75.3     0.31      1011.9     2.4     WSW   240   4.2     WSW   241   9.53    267      -31.7
   10/11/2018 00:40      61.1      60.8       60     47.0      0.00      0.00      75.3     0.31      1011.9     0.9      SW   232   2.7     WSW   236   9.53    267      -21.9
   10/11/2018 00:30      61.1      60.7       60     47.0      0.00      0.00      75.3     0.31      1012.0     0.0      SW   219   0.4      SW   219   9.54    267      -20.1
   10/11/2018 00:20      61.1      60.6       60     46.8      0.00      0.00      75.3     0.31      1012.0     0.0      SW   219   0.6      SW   219   9.54    267      -20.5
   10/11/2018 00:10      61.1      60.6       60     47.0      0.00      0.00      75.3     0.31      1012.0     0.5      SW   219   1.2      SW   219   9.54    267      -25.2
   10/11/2018 00:00      61.1      60.8       61     47.1      0.00      0.00      75.3     0.31      1012.0     0.0       N     0   0.0       E    94   9.54    267      -28.5
   10/10/2018 23:50      61.1      60.8       60     47.0      0.00      0.00      75.4     0.31      1012.0     0.4       E   100   1.1     ESE   108   9.54    267      -23.4
   10/10/2018 23:40      61.0      60.6       60     46.9      0.00      0.00      75.4     0.31      1012.0     0.6      SE   128   1.4      SE   135   9.54    267      -18.7
   10/10/2018 23:30      60.8      60.4       61     46.9      0.00      0.00      75.4     0.31      1012.0     0.5     ESE   114   1.4      SE   127   9.54    267      -18.6
   10/10/2018 23:20      60.8      60.3       61     46.9      0.00      0.00      75.4     0.31      1012.0     0.4     ESE   104   1.5       E    96   9.54    267      -19.5
   10/10/2018 23:10      60.8      60.3       60     46.6      0.00      0.00      75.5     0.31      1012.0     0.3      SE   139   1.3      SE   140   9.54    267      -20.4
   10/10/2018 23:00      61.2      60.5       59     46.5      0.00      0.00      75.5     0.31      1011.9     0.2      SE   145   1.0      SE   144   9.54    267      -23.7
   10/10/2018 22:50      61.1      60.6       60     46.6      0.00      0.00      75.5     0.31      1011.9     1.0     WSW   248   2.7     WSW   241   9.54    267      -22.7
   10/10/2018 22:40      61.0      60.5       60     46.5      0.00      0.00      75.4     0.31      1011.9     0.7      SW   232   2.8      SW   229   9.54    267      -21.8
   10/10/2018 22:30      60.8      60.3       60     46.6      0.00      0.00      75.5     0.31      1011.8     1.6     WSW   257   3.0     WSW   247   9.54    267      -36.3
   10/10/2018 22:20      60.7      60.1       60     46.6      0.00      0.00      75.5     0.31      1011.7     0.4     WNW   301   1.7     WNW   303   9.54    267      -31.4
   10/10/2018 22:10      60.6      60.1       61     46.7      0.00      0.00      75.5     0.31      1011.7     0.4     WSW   253   1.9      SW   227   9.54    267      -37.8
   10/10/2018 22:00      60.5      60.1       61     46.8      0.00      0.00      75.6     0.31      1011.7     0.2     ESE   117   1.0       E    90   9.54    267      -30.6
   10/10/2018 21:50      60.3      59.9       61     46.7      0.00      0.00      75.6     0.31      1011.7     0.4     SSE   148   1.6       S   172   9.54    267      -27.0
   10/10/2018 21:40      60.2      59.4       62     46.7      0.00      0.00      75.6     0.31      1011.6     1.0     SSE   160   1.9     SSE   166   9.54    267      -23.6
   10/10/2018 21:30      59.7      58.9       64     46.9      0.00      0.00      75.6     0.31      1011.6     0.2       E    85   2.0       E    84   9.54    267      -17.8
   10/10/2018 21:20      59.0      58.4       65     47.0      0.00      0.00      75.6     0.31      1011.5     0.1     SSE   166   1.2       S   186   9.54    267      -21.8
   10/10/2018 21:10      58.6      57.9       66     46.9      0.00      0.00      75.6     0.31      1011.4     0.7     SSE   165   1.5       S   175   9.55    268      -26.7
   10/10/2018 21:00      58.9      58.0       66     46.8      0.00      0.00      75.6     0.31      1011.4     1.0       S   169   1.7     SSE   165   9.55    268      -50.3
   10/10/2018 20:50      59.2      58.4       65     46.8      0.00      0.00      75.6     0.31      1011.3     1.2     SSE   163   2.4     SSE   160   9.55    268      -68.1
   10/10/2018 20:40      59.5      58.8       63     46.7      0.00      0.00      75.6     0.31      1011.2     1.3     SSE   167   2.8     SSW   203   9.55    268      -68.5
   10/10/2018 20:30      59.5      59.0       63     46.8      0.00      0.00      75.6     0.31      1011.1     1.6     SSW   192   2.5     SSW   198   9.55    267      -68.8
   10/10/2018 20:20      60.5      59.3       63     46.9      0.00      0.00      75.6     0.31      1010.9     1.4       S   175   2.3       S   177   9.55    267      -70.1
   10/10/2018 20:10      60.6      60.1       61     47.0      0.00      0.00      75.6     0.31      1010.9     1.9       S   190   3.5     SSW   205   9.55    267      -70.9
   10/10/2018 20:00      60.6      60.0       62     47.1      0.00      0.00      75.6     0.31      1010.9     2.1       S   174   3.7       S   181   9.56    267      -71.7
   10/10/2018 19:50      60.9      60.3       62     47.4      0.00      0.00      75.6     0.31      1010.9     1.7       S   173   3.3     SSE   166   9.56    267      -72.3
   10/10/2018 19:40      61.2      60.5       62     47.6      0.00      0.00      75.6     0.31      1010.9     1.2       S   189   2.1       S   178   9.56    267      -72.8
   10/10/2018 19:30      61.5      60.8       61     47.7      0.00      0.00      75.6     0.31      1010.8     2.2       S   179   4.0       S   172   9.56    267      -73.8
   10/10/2018 19:20      61.8      61.2       61     47.8      0.00      0.00      75.6     0.31      1010.8     2.3       S   186   3.6       S   178   9.56    267      -73.8
   10/10/2018 19:10      62.2      61.5       60     47.9      0.00      0.00      75.6     0.31      1010.7     1.9     SSW   200   4.0       S   183   9.57    266      -74.2
   10/10/2018 19:00      62.6      61.7       60     47.9      0.00      0.00      75.5     0.31      1010.6     2.9     SSW   192   5.2     SSE   168   9.57    266      -74.8
   10/10/2018 18:50      63.6      62.4       58     47.8      0.00      0.00      75.5     0.31      1010.5     3.1       S   191   4.6     SSW   201   9.57    266      -75.6
   10/10/2018 18:40      63.9      63.2       57     47.8      0.00      0.00      75.5     0.31      1010.3     3.3     SSW   202   5.1     SSW   196   9.57    266      -76.0
   10/10/2018 18:30      64.7      63.7       55     47.7      0.00      0.00      75.5     0.31      1010.0     3.2       S   175   6.2       S   179   9.58    266      -75.7
   10/10/2018 18:20      65.1      64.3       54     47.8      0.00      0.00      75.5     0.31      1009.9     3.0       S   173   6.2     SSW   211   9.58    266      -72.9
   10/10/2018 18:10      65.8      64.8       54     48.1      0.00      0.00      75.5     0.31      1009.7     3.0       S   184   5.3     SSW   197   9.58    266      -68.3
   10/10/2018 18:00      66.5      65.5       52     48.2      0.00      0.00      75.5     0.31      1009.6     2.6       S   180   4.1     SSW   194   9.59    266      -55.7
   10/10/2018 17:50      67.2      66.3       52     48.3      0.00      0.00      75.4     0.31      1009.5     3.9     SSE   166   8.0      SE   126   9.59    266      -44.4
   10/10/2018 17:40      68.1      66.9       51     48.6      0.00      0.00      75.4     0.31      1009.6     4.4     SSE   160   8.5     SSE   147   9.59    266      -11.8
   10/10/2018 17:30      68.8      67.9       49     48.3      0.00      0.00      75.3     0.31      1009.6     4.3       S   171   7.9     SSW   195   9.60    266        8.4
   10/10/2018 17:20      70.5      68.6       46     47.8      0.00      0.00      75.4     0.31      1009.7     5.2       S   190   7.9       S   177   9.60    266       32.1
   10/10/2018 17:10      70.3      69.3       46     48.2      0.00      0.00      75.3     0.31      1009.7     3.9     SSW   194   8.1     SSW   194   9.60    266       57.2
   10/10/2018 17:00      70.2      69.6       46     48.5      0.00      0.00      75.3     0.31      1009.6     4.5     SSW   195   7.6     SSW   201   9.61    265       82.3
   10/10/2018 16:50      70.6      69.8       46     48.6      0.00      0.00      75.3     0.31      1009.6     4.3       S   173   7.0     SSE   161   9.61    266      107.0
   10/10/2018 16:40      70.6      70.1       47     48.9      0.00      0.00      75.3     0.31      1009.6     4.9       S   190   8.0       S   181   9.61    266      130.4
   10/10/2018 16:30      70.9      70.2       46     49.0      0.00      0.00      75.3     0.31      1009.6     4.1       S   179   9.0       S   190   9.62    266      155.5
   10/10/2018 16:20      72.0      70.6       46     49.2      0.00      0.00      75.2     0.31      1009.6     6.1     SSE   168   9.7       S   179   9.62    266      182.5
   10/10/2018 16:10      72.0      70.6       46     49.5      0.00      0.00      75.2     0.31      1009.6     4.4     SSE   167   9.0     SSE   155   9.62    265      204.9
   10/10/2018 16:00      71.2      70.6       47     49.5      0.00      0.00      75.2     0.31      1009.6     5.4       S   185   8.7       S   187   9.62    266      220.6
   10/10/2018 15:50      71.3      70.4       47     49.7      0.00      0.00      75.2     0.31      1009.5     6.3     SSE   165   9.9       S   189   9.63    266      239.2
   10/10/2018 15:40      72.6      71.2       46     50.1      0.00      0.00      75.1     0.31      1009.5     5.3     SSE   166  11.5      SE   139   9.63    265      259.1
   10/10/2018 15:30      73.0      71.4       47     50.3      0.00      0.00      75.1     0.31      1009.5     5.8     SSE   166  10.4     SSE   153   9.63    265      283.5
   10/10/2018 15:20      73.1      72.3       46     50.6      0.00      0.00      75.1     0.31      1009.6     5.5       S   185  10.4      SW   219   9.64    264      301.1
   10/10/2018 15:10      73.0      72.3       46     50.8      0.00      0.00      75.0     0.31      1009.6     5.8     SSW   192  12.0       S   178   9.64    264      326.9
   10/10/2018 15:00      73.5      72.4       46     50.7      0.00      0.00      75.0     0.31      1009.6     6.1     SSW   197   9.4      SW   214   9.64    264      363.0
   10/10/2018 14:50      73.7      73.0       44     50.4      0.00      0.00      75.0     0.31      1009.5     5.4       S   181   9.0     SSW   204   9.65    264      384.7
   10/10/2018 14:40      74.6      73.4       43     49.9      0.00      0.00      75.0     0.31      1009.5     3.7     SSW   203   7.4      SW   223   9.65    264      405.9
   10/10/2018 14:30      74.5      73.5       42     49.5      0.00      0.00      74.9     0.31      1009.7     3.3     WSW   245   7.1      SW   226   9.65    264      414.2
   10/10/2018 14:20      73.6      72.5       43     49.3      0.00      0.00      74.9     0.31      1009.8     2.2       S   173   6.6      SW   233   9.65    264      332.8
   10/10/2018 14:10      73.9      72.6       43     49.5      0.00      0.00      74.9     0.31      1010.0     3.7       S   184   6.0      SW   215   9.65    264      399.1
   10/10/2018 14:00      73.8      72.2       45     50.2      0.00      0.00      74.9     0.31      1010.1     2.4       E    87   6.9      SE   131   9.66    264      444.1
   10/10/2018 13:50      73.9      71.7       45     50.0      0.00      0.00      74.8     0.31      1010.3     4.1     SSE   160   6.6     SSW   192   9.66    264      466.0
   10/10/2018 13:40      74.0      73.1       44     50.2      0.00      0.00      74.9     0.31      1010.4     2.3     ENE    65   6.0     SSW   210   9.66    264      463.2
   10/10/2018 13:30      73.1      71.2       46     50.0      0.00      0.00      74.8     0.31      1010.6     2.3     ENE    61   4.8      NE    40   9.66    264      460.1
   10/10/2018 13:20      71.5      70.6       47     49.8      0.00      0.00      74.8     0.31      1010.8     2.3     SSE   167   4.6     ESE   109   9.66    265      356.1
   10/10/2018 13:10      71.2      69.3       48     49.8      0.00      0.00      74.8     0.31      1011.0     1.6     ESE   121   4.6     ENE    78   9.66    265      363.5
   10/10/2018 13:00      71.2      69.5       48     49.6      0.00      0.00      74.8     0.31      1011.1     4.3     WSW   251   6.6      NW   311   9.66    266      169.3
   10/10/2018 12:50      71.2      69.9       48     49.8      0.00      0.00      74.8     0.31      1011.1     2.7      NW   316   4.9     NNW   334   9.67    266      180.4
   10/10/2018 12:40      71.2      70.0       48     49.9      0.00      0.00      74.9     0.31      1011.2     2.2     SSE   163   7.2     WSW   257   9.67    265      330.5
   10/10/2018 12:30      70.7      69.5       49     49.8      0.00      0.00      74.8     0.31      1011.3     2.4     ESE   120   6.2      SE   128   9.67    265      487.7
   10/10/2018 12:20      70.5      69.0       49     49.8      0.00      0.00      74.9     0.31      1011.5     3.1       S   169   6.7     SSE   151   9.67    266      496.0
   10/10/2018 12:10      70.6      68.7       49     49.5      0.00      0.00      74.8     0.31      1011.6     4.3     SSW   200   7.1       S   187   9.67    266      499.6
   10/10/2018 12:00      71.5      70.4       47     49.8      0.00      0.00      74.9     0.31      1011.6     3.0       S   180   7.8     SSE   148   9.67    266      441.4
   10/10/2018 11:50      70.7      68.6       49     49.3      0.00      0.00      74.9     0.31      1011.6     1.5     ENE    66   4.4     SSE   156   9.67    266      299.6
   10/10/2018 11:40      70.9      69.2       47     49.3      0.00      0.00      74.9     0.31      1011.7     2.9     NNE    26   6.0     ESE   113   9.67    266      274.5
   10/10/2018 11:30      70.8      68.2       49     49.3      0.00      0.00      74.9     0.31      1011.7     2.2       N     8   5.1      NE    42   9.67    265      471.9
   10/10/2018 11:20      70.1      68.9       48     49.2      0.00      0.00      75.0     0.31      1011.9     2.5       N     4   6.6       N    11   9.68    266      361.4
   10/10/2018 11:10      69.7      68.5       49     49.1      0.00      0.00      75.0     0.31      1012.0     2.7     NNW   333   5.6     NNW   344   9.68    266      459.1
   10/10/2018 11:00      68.6      67.4       50     48.6      0.00      0.00      75.0     0.31      1012.2     3.3     WNW   287  13.3      NW   314   9.68    266      407.2
   10/10/2018 10:50      68.3      67.6       50     48.5      0.00      0.00      75.0     0.31      1012.3     2.2       W   259   5.5     WSW   256   9.68    266      372.2
   10/10/2018 10:40      68.0      67.0       51     48.5      0.00      0.00      75.0     0.31      1012.3     2.7     WNW   285   5.7     SSW   208   9.68    266      335.9
   10/10/2018 10:30      67.8      66.3       52     48.8      0.00      0.00      75.0     0.31      1012.3     2.2     NNW   328   5.3     NNW   334   9.68    266      379.1
   10/10/2018 10:20      66.8      66.2       53     48.7      0.00      0.00      75.0     0.31      1012.3     2.9     WSW   258   5.9     WSW   245   9.68    266      397.4
   10/10/2018 10:10      66.7      65.3       54     48.9      0.00      0.00      75.1     0.31      1012.2     2.7       W   268   4.8      NW   313   9.69    266      382.3
   10/10/2018 10:00      67.0      65.6       53     48.9      0.00      0.00      75.1     0.31      1012.2     1.9       S   189   5.3     SSW   210   9.69    266      352.7
   10/10/2018 09:50      67.8      66.0       52     49.0      0.00      0.00      75.1     0.31      1012.2     1.7      SW   217   4.7      SW   226   9.69    266      330.1
   10/10/2018 09:40      67.5      66.4       53     49.2      0.00      0.00      75.2     0.31      1012.2     0.9       N     1   3.0     ESE   108   9.69    266      315.8
   10/10/2018 09:30      67.1      66.0       54     49.1      0.00      0.00      75.2     0.31      1012.1     1.3     ESE   102   3.3      SE   130   9.69    266      286.1
   10/10/2018 09:20      67.1      64.8       55     49.1      0.00      0.00      75.2     0.31      1012.1     0.8      NE    54   4.0      SE   141   9.69    266      266.9
   10/10/2018 09:10      65.2      62.9       58     49.0      0.00      0.00      75.3     0.31      1012.0     1.4      NE    37   3.4     ENE    60   9.69    266      250.7
   10/10/2018 09:00      63.4      62.4       60     48.7      0.00      0.00      75.3     0.31      1012.1     2.6     SSE   149   5.4      SE   141   9.69    268      169.7
   10/10/2018 08:50      64.9      63.4       59     49.4      0.00      0.00      75.3     0.31      1012.0     2.0      SE   132   5.0     SSE   154   9.69    284      149.0
   10/10/2018 08:40      64.6      63.8       59     49.3      0.00      0.00      75.3     0.31      1011.9     1.2     ESE   123   5.0      SE   137   9.32    268      206.5
   10/10/2018 08:30      64.0      62.7       61     49.9      0.00      0.00      75.3     0.31      1011.9     1.1     ESE   112   3.3     ESE   121   9.32    269      154.2
   10/10/2018 08:20      62.9      61.9       66     50.6      0.00      0.00      75.4     0.31      1011.8     1.1      SE   136   3.1      SE   137   9.32    269      127.4
   10/10/2018 08:10      62.8      61.8       67     51.2      0.00      0.00      75.4     0.31      1011.7     0.8     ESE   123   2.8      SE   138   9.32    269       62.2
   10/10/2018 08:00      61.9      59.4       73     51.8      0.00      0.00      75.4     0.31      1011.6     0.2      SE   131   1.4     SSE   148   9.32    270       23.2
   10/10/2018 07:50      59.5      58.2       76     51.1      0.00      0.00      75.4     0.31      1011.6     0.3      SE   145   1.2      SE   140   9.32    269      -10.1
   10/10/2018 07:40      58.5      57.9       75     50.4      0.00      0.00      75.4     0.31      1011.5     0.8     SSE   164   1.4      SE   144   9.32    269      -33.8
   10/10/2018 07:30      58.6      57.9       75     50.1      0.00      0.00      75.5     0.31      1011.4     0.0     SSW   206   0.7     SSW   206   9.32    268      -42.1
   10/10/2018 07:20      58.7      58.2       75     50.7      0.00      0.00      75.4     0.31      1011.4     0.9     SSW   205   1.5     SSW   205   9.32    269      -44.1
   10/10/2018 07:10      58.9      58.4       75     50.6      0.00      0.00      75.5     0.31      1011.4     0.0       N     0   0.0     ENE    69   9.32    270      -36.8
   10/10/2018 07:00      59.2      58.6       73     50.4      0.00      0.00      75.5     0.31      1011.4     0.4     ESE   118   1.1     ENE    70   9.33    270      -34.2
   10/10/2018 06:50      59.5      58.9       74     50.8      0.00      0.00      75.5     0.31      1011.4     0.6      SW   214   1.6      SW   214   9.33    270      -41.8
   10/10/2018 06:40      59.7      59.2       75     51.3      0.00      0.00      75.5     0.31      1011.4     0.0       E    97   0.5       E    97   9.33    270      -30.8
   10/10/2018 06:30      59.7      59.4       75     51.6      0.00      0.00      75.6     0.31      1011.4     0.0       N     0   0.0     SSW   202   9.33    270      -23.9
   10/10/2018 06:20      59.7      59.2       76     51.9      0.00      0.00      75.6     0.31      1011.4     0.3     SSW   202   1.0     SSW   202   9.33    270      -20.4
   10/10/2018 06:10      59.7      59.3       77     52.1      0.00      0.00      75.6     0.31      1011.4     0.8     SSW   202   1.2     SSW   202   9.33    270      -24.1
   10/10/2018 06:00      59.8      59.4       77     52.4      0.00      0.00      75.6     0.31      1011.4     0.3     SSW   199   1.1     SSW   203   9.33    270      -21.3
   10/10/2018 05:50      59.7      59.4       78     52.6      0.00      0.00      75.7     0.31      1011.4     0.3     ESE   117   1.2     ESE   122   9.33    270      -24.5
   10/10/2018 05:40      59.9      59.4       79     52.9      0.00      0.00      75.7     0.31      1011.4     0.7     ESE   124   1.9     SSE   157   9.33    270      -22.3
   10/10/2018 05:30      59.9      59.5       78     52.8      0.00      0.00      75.7     0.31      1011.4     0.6     ESE   106   1.6       E    90   9.33    270      -19.0
   10/10/2018 05:20      59.8      59.5       78     52.8      0.00      0.00      75.8     0.31      1011.4     0.6       E    94   2.0       E    91   9.33    270      -15.6
   10/10/2018 05:10      59.8      59.5       78     52.9      0.00      0.00      75.8     0.31      1011.4     0.1      SE   131   0.9      SE   137   9.33    270      -14.3
   10/10/2018 05:00      59.7      59.4       79     53.0      0.00      0.00      75.8     0.31      1011.4     0.1       E    99   1.0       E    92   9.33    270      -13.7
   10/10/2018 04:50      59.7      59.2       80     53.3      0.00      0.00      75.8     0.31      1011.4     0.2     ESE   103   1.1       E    84   9.33    270      -13.6
   10/10/2018 04:40      59.6      59.3       81     53.6      0.00      0.00      75.8     0.31      1011.4     0.1       E    84   0.9       E    80   9.33    269      -13.9
   10/10/2018 04:30      59.5      59.0       82     53.6      0.00      0.00      75.9     0.31      1011.4     0.0     SSW   200   0.6     SSW   200   9.33    267      -14.0
   10/10/2018 04:20      59.3      59.0       82     53.6      0.00      0.00      75.9     0.31      1011.4     0.2       S   187   0.9       S   189   9.33    268      -13.2
   10/10/2018 04:10      59.4      58.9       82     53.5      0.00      0.00      75.9     0.31      1011.4     0.2     ESE   120   1.7     ESE   107   9.33    265      -22.6
   10/10/2018 04:00      59.7      59.0       82     53.7      0.00      0.00      75.9     0.31      1011.4     0.1      SE   130   0.8      SE   130   9.33    264      -29.9
   10/10/2018 03:50      59.6      59.4       82     53.8      0.00      0.00      76.0     0.31      1011.5     0.0      SE   130   0.5      SE   130   9.33    260      -36.7
   10/10/2018 03:40      59.5      59.1       82     53.7      0.00      0.00      76.0     0.31      1011.7     0.0       N     0   0.0      SE   130   9.33    266      -17.0
   10/10/2018 03:30      59.4      58.9       82     53.6      0.00      0.00      76.0     0.31      1011.7     0.0      SE   126   0.5      SE   126   9.33    267      -13.6
   10/10/2018 03:20      59.2      58.9       82     53.6      0.00      0.00      76.1     0.31      1011.8     0.0       N     0   0.0      SE   126   9.33    266      -19.4
   10/10/2018 03:10      59.1      58.8       83     53.6      0.00      0.00      76.1     0.31      1011.9     0.0      SE   126   0.2      SE   126   9.33    265      -22.4
   10/10/2018 03:00      59.1      58.6       83     53.7      0.00      0.00      76.1     0.31      1012.0     0.0       N     0   0.0      SE   126   9.33    264      -19.5
   10/10/2018 02:50      58.8      58.4       84     53.7      0.00      0.00      76.1     0.31      1012.0     0.0      SE   126   0.4      SE   126   9.33    267      -12.3
   10/10/2018 02:40      58.6      58.0       85     53.7      0.00      0.00      76.1     0.31      1012.1     0.0      SE   126   0.5      SE   126   9.33    266       -9.8
   10/10/2018 02:30      58.1      57.5       86     53.5      0.00      0.00      76.2     0.31      1012.1     0.0      SE   126   0.5      SE   126   9.33    265       -8.3
   10/10/2018 02:20      57.7      57.0       86     53.3      0.00      0.00      76.2     0.31      1012.1     0.0       E    89   0.6     ENE    74   9.33    264       -6.6
   10/10/2018 02:10      57.2      56.6       87     53.0      0.00      0.00      76.2     0.31      1012.1     0.0       E    84   0.2       E    84   9.33    261       -5.0
   10/10/2018 02:00      56.8      56.5       87     52.8      0.00      0.00      76.2     0.31      1012.0     0.0     NNE    23   0.6     NNE    23   9.33    256       -9.6
   10/10/2018 01:50      56.9      56.5       87     52.9      0.00      0.00      76.3     0.31      1012.0     0.0       S   174   0.3       S   174   9.33    260      -16.0
   10/10/2018 01:40      56.8      56.4       88     53.0      0.00      0.00      76.3     0.31      1012.0     0.9       S   180   1.7       S   188   9.33    269      -31.6
   10/10/2018 01:30      56.7      55.4       88     52.5      0.00      0.00      76.3     0.31      1011.9     1.0       S   179   2.1       S   173   9.33    269      -33.6
   10/10/2018 01:20      55.9      55.3       88     52.0      0.00      0.00      76.3     0.31      1011.9     0.3      SE   144   1.4       S   170   9.33    270      -36.5
   10/10/2018 01:10      55.7      54.9       87     51.4      0.00      0.00      76.3     0.31      1011.9     0.5     SSE   161   1.3       S   172   9.33    269      -39.0
   10/10/2018 01:00      55.7      55.1       87     51.4      0.00      0.00      76.3     0.31      1011.8     0.0       N     0   0.0       E    95   9.34    266      -39.9
   10/10/2018 00:50      55.6      55.1       86     51.5      0.00      0.00      76.3     0.31      1011.8     0.2     SSE   150   1.2       S   174   9.34    266      -42.8
   10/10/2018 00:40      56.0      55.1       85     51.1      0.00      0.00      76.4     0.31      1011.7     0.3       S   183   1.2       S   177   9.34    260      -45.6
   10/10/2018 00:30      56.7      55.8       86     52.1      0.00      0.00      76.4     0.31      1011.6     0.7     SSE   166   1.9       S   177   9.34    261      -46.1
   10/10/2018 00:20      56.6      56.1       86     52.1      0.00      0.00      76.4     0.31      1011.5     0.0     SSE   156   0.6     SSE   156   9.34    261      -49.8
   10/10/2018 00:10      56.9      56.2       85     52.2      0.00      0.00      76.5     0.31      1011.5     0.0     SSE   156   0.5     SSE   156   9.34    255      -49.5
   10/10/2018 00:00      57.2      56.6       85     52.2      0.00      0.00      76.4     0.31      1011.5     0.0       S   181   0.5       S   181   9.34    255      -48.9
   10/09/2018 23:50      57.4      57.0       85     52.7      0.00      0.00      76.5     0.31      1011.5     0.6       S   178   1.6       S   182   9.34    251      -45.9
   10/09/2018 23:40      57.2      56.7       84     52.2      0.00      0.00      76.5     0.31      1011.4     0.3     SSE   161   1.1     SSE   155   9.34    252      -49.6
   10/09/2018 23:30      57.8      57.0       83     52.3      0.00      0.00      76.5     0.31      1011.3     0.4     SSE   156   1.1     SSE   155   9.34    251      -55.5
   10/09/2018 23:20      58.1      57.5       83     52.6      0.00      0.00      76.5     0.31      1011.2     0.4     SSE   165   1.1     SSE   155   9.34    253      -56.9
   10/09/2018 23:10      58.3      57.7       82     52.5      0.00      0.00      76.5     0.31      1011.3     1.1     SSW   200   2.0       S   191   9.34    252      -54.9
   10/09/2018 23:00      58.3      57.9       82     52.5      0.00      0.00      76.5     0.31      1011.3     0.0       S   182   0.5       S   182   9.34    259      -57.8
   10/09/2018 22:50      58.9      58.0       80     52.3      0.00      0.00      76.5     0.31      1011.3     0.3     SSE   163   1.2       S   182   9.34    250      -61.2
   10/09/2018 22:40      59.7      58.7       79     52.9      0.00      0.00      76.5     0.31      1011.3     0.2     SSE   160   1.2     WSW   238   9.35    251      -63.1
   10/09/2018 22:30      60.2      59.2       79     53.1      0.00      0.00      76.5     0.31      1011.3     0.1     SSE   151   1.5       S   187   9.35    249      -64.0
   10/09/2018 22:20      60.3      59.9       79     53.4      0.00      0.00      76.5     0.31      1011.1     1.6     SSW   195   4.3      SW   233   9.35    254      -65.3
   10/09/2018 22:10      60.8      60.1       78     53.4      0.00      0.00      76.5     0.31      1011.0     1.9     SSW   193   3.0       S   172   9.35    263      -65.9
   10/09/2018 22:00      61.0      60.5       77     53.5      0.00      0.00      76.5     0.31      1011.0     2.1      SW   230   3.6     WSW   243   9.35    266      -67.0
   10/09/2018 21:50      61.2      60.8       76     53.5      0.00      0.00      76.5     0.31      1010.9     2.1      SW   225   3.8      SW   236   9.35    267      -67.5
   10/09/2018 21:40      61.5      60.9       76     53.5      0.00      0.00      76.5     0.31      1010.9     1.9     SSW   204   4.1      SW   220   9.35    267      -67.7
   10/09/2018 21:30      61.8      61.2       75     53.5      0.00      0.00      76.5     0.31      1010.8     1.9      SW   215   3.3     WSW   238   9.35    269      -68.0
   10/09/2018 21:20      62.0      61.5       74     53.5      0.00      0.00      76.5     0.31      1010.7     1.6      SW   232   3.6     WSW   237   9.35    269      -67.5
   10/09/2018 21:10      62.3      61.8       74     53.6      0.00      0.00      76.5     0.31      1010.6     2.3      SW   231   4.5      SW   227   9.35    269      -67.7
   10/09/2018 21:00      62.5      61.9       73     53.6      0.00      0.00      76.5     0.31      1010.6     3.7     WSW   241   5.5     WSW   239   9.36    269      -68.5
   10/09/2018 20:50      63.0      62.3       73     53.6      0.00      0.00      76.5     0.31      1010.6     3.6      SW   236   5.1     WSW   243   9.36    269      -68.8
   10/09/2018 20:40      63.3      62.8       72     53.8      0.00      0.00      76.5     0.31      1010.5     3.8     WSW   240   5.5     WSW   256   9.36    269      -69.0
   10/09/2018 20:30      63.8      62.9       71     53.8      0.00      0.00      76.5     0.31      1010.4     2.7     SSW   211   4.0      SW   235   9.36    269      -69.0
   10/09/2018 20:20      64.2      63.4       70     53.8      0.00      0.00      76.5     0.31      1010.2     2.0     SSW   213   3.6     SSW   213   9.36    268      -69.4
   10/09/2018 20:10      64.7      64.1       69     53.9      0.00      0.00      76.4     0.31      1010.2     2.2      SW   235   4.3     WSW   237   9.36    268      -69.9
   10/09/2018 20:00      65.0      64.5       68     53.9      0.00      0.00      76.4     0.31      1010.1     1.3     WSW   244   3.4       W   259   9.36    268      -70.5
   10/09/2018 19:50      65.5      64.7       68     54.1      0.00      0.00      76.4     0.31      1009.9     2.7      SW   216   5.1      SW   230   9.37    268      -70.8
   10/09/2018 19:40      66.1      65.2       67     54.1      0.00      0.00      76.4     0.31      1009.9     2.9      SW   235   5.5     WSW   237   9.37    268      -71.7
   10/09/2018 19:30      66.2      65.7       66     54.1      0.00      0.00      76.3     0.31      1009.8     1.9     WSW   246   3.6     WSW   249   9.37    268      -72.0
   10/09/2018 19:20      66.1      65.5       65     53.8      0.00      0.00      76.3     0.31      1009.7     2.3     WSW   238   4.9     WSW   239   9.37    267      -72.2
   10/09/2018 19:10      66.2      65.3       64     53.1      0.00      0.00      76.3     0.31      1009.7     0.3     SSW   202   1.1     SSW   202   9.37    267      -72.7
   10/09/2018 19:00      66.4      65.8       63     53.2      0.00      0.00      76.3     0.31      1009.6     1.3     SSW   199   3.2     SSW   195   9.37    267      -73.8
   10/09/2018 18:50      67.1      66.2       62     53.2      0.00      0.00      76.3     0.31      1009.6     2.7       S   190   4.1      SW   215   9.37    267      -74.1
   10/09/2018 18:40      67.5      66.8       61     53.2      0.00      0.00      76.2     0.31      1009.5     2.8     SSW   202   4.9     SSW   199   9.38    266      -74.3
   10/09/2018 18:30      67.9      67.2       60     53.2      0.00      0.00      76.2     0.31      1009.5     2.4       S   190   4.7       S   179   9.38    266      -72.7
   10/09/2018 18:20      68.6      67.7       59     53.2      0.00      0.00      76.2     0.31      1009.3     2.9       S   171   5.1       S   189   9.38    266      -69.2
   10/09/2018 18:10      69.6      68.4       57     53.1      0.00      0.00      76.2     0.31      1009.2     3.5       S   179   7.2       S   182   9.39    266      -64.8
   10/09/2018 18:00      70.8      69.4       55     53.0      0.00      0.00      76.1     0.31      1009.3     3.8       S   179   6.6      SE   141   9.39    266      -51.3
   10/09/2018 17:50      71.7      70.5       52     52.9      0.00      0.00      76.1     0.31      1009.2     3.0       S   178   5.0      SW   231   9.39    266      -39.6
   10/09/2018 17:40      72.0      71.4       51     53.0      0.00      0.00      76.0     0.31      1009.1     3.0     SSE   169   4.9       S   174   9.40    266      -10.9
   10/09/2018 17:30      72.0      71.5       51     52.9      0.00      0.00      76.0     0.31      1009.0     3.3       S   182   5.3       S   190   9.40    266        9.9
   10/09/2018 17:20      72.2      71.6       51     52.9      0.00      0.00      76.0     0.31      1009.0     4.0       S   177   7.6     SSW   193   9.40    266       33.9
   10/09/2018 17:10      72.4      71.6       51     52.8      0.00      0.00      75.9     0.31      1009.1     4.6     SSE   160   7.0       S   178   9.41    266       60.5
   10/09/2018 17:00      72.5      72.0       51     53.1      0.00      0.00      75.9     0.31      1009.2     4.9     SSE   159   8.2       S   187   9.41    266       86.7
   10/09/2018 16:50      73.5      72.4       50     53.1      0.00      0.00      75.8     0.31      1009.3     5.0     SSE   165   8.5      SE   141   9.41    265      110.5
   10/09/2018 16:40      73.5      72.8       49     53.1      0.00      0.00      75.8     0.31      1009.4     4.1     SSE   160   8.5      SE   141   9.42    266      133.6
   10/09/2018 16:30      73.7      73.0       49     53.0      0.00      0.00      75.8     0.31      1009.4     5.1      SE   145   7.8      SE   127   9.42    265      159.8
   10/09/2018 16:20      74.0      73.2       48     52.7      0.00      0.00      75.7     0.31      1009.4     5.0     SSE   150   8.8      SE   142   9.42    265      183.7
   10/09/2018 16:10      74.7      73.3       47     52.4      0.00      0.00      75.7     0.31      1009.4     5.5     SSE   162   8.9     SSE   150   9.42    266      206.9
   10/09/2018 16:00      75.1      74.2       46     52.6      0.00      0.00      75.6     0.31      1009.4     5.3     SSE   167  10.1       E    89   9.43    265      217.8
   10/09/2018 15:50      75.3      74.2       46     52.5      0.00      0.00      75.6     0.31      1009.4     5.8     SSE   153  10.7      SE   128   9.43    265      233.5
   10/09/2018 15:40      75.5      74.3       45     52.1      0.00      0.00      75.5     0.31      1009.4     4.9       S   169   8.7     SSW   198   9.43    265      252.8
   10/09/2018 15:30      75.2      74.1       46     52.4      0.00      0.00      75.5     0.31      1009.4     5.9      SE   144  10.3      SE   143   9.44    265      277.8
   10/09/2018 15:20      75.8      74.8       46     52.8      0.00      0.00      75.4     0.31      1009.4     5.7       S   176   9.0       S   179   9.44    264      295.6
   10/09/2018 15:10      76.1      75.3       45     52.6      0.00      0.00      75.4     0.31      1009.5     4.8       S   176  10.1      SE   134   9.45    264      313.9
   10/09/2018 15:00      76.9      75.2       44     52.5      0.00      0.00      75.4     0.31      1009.6     4.6       S   190   7.8       S   182   9.45    264      345.2
   10/09/2018 14:50      78.4      76.8       42     52.5      0.00      0.00      75.3     0.31      1009.6     3.7     SSE   164   9.1     ESE   114   9.45    264      373.6
   10/09/2018 14:40      78.2      77.3       40     51.7      0.00      0.00      75.2     0.31      1009.7     2.1       E    91   4.7      SW   218   9.45    264      403.0
   10/09/2018 14:30      79.0      78.1       39     51.6      0.00      0.00      75.3     0.31      1009.8     2.5     SSW   204   6.0      SW   235   9.45    264      441.0
   10/09/2018 14:20      78.5      77.8       40     51.9      0.00      0.00      75.3     0.31      1009.8     2.0       N     6   4.9     NNW   332   9.46    264      392.2
   10/09/2018 14:10      78.3      77.3       41     52.0      0.00      0.00      75.2     0.31      1009.9     2.1     NNE    14   4.3       N   353   9.46    264      423.3
   10/09/2018 14:00      77.8      76.7       41     51.8      0.00      0.00      75.2     0.31      1010.0     1.8     WSW   241   5.1      SW   221   9.46    264      424.4
   10/09/2018 13:50      78.8      76.4       42     52.0      0.00      0.00      75.1     0.31      1010.1     2.5       E    82   6.2     ENE    76   9.46    264      434.5
   10/09/2018 13:40      78.9      75.5       42     52.1      0.00      0.00      75.1     0.31      1010.2     1.3      NE    55   5.6       S   169   9.46    264      453.7
   10/09/2018 13:30      76.7      75.5       42     51.6      0.00      0.00      75.1     0.31      1010.4     2.6     SSE   154   4.5     WNW   295   9.46    264      457.5
   10/09/2018 13:20      77.2      75.7       42     51.6      0.00      0.00      75.1     0.31      1010.6     2.0      NE    48   5.0      NE    44   9.46    264      456.7
   10/09/2018 13:10      75.7      73.4       45     51.3      0.00      0.00      75.0     0.31      1010.8     1.5       E    92   3.5      NE    36   9.46    265      440.2
   10/09/2018 13:00      74.0      73.0       45     51.0      0.00      0.00      75.0     0.31      1011.0     3.1      SW   216   5.7      SW   222   9.46    265      436.1
   10/09/2018 12:50      74.6      73.7       44     51.1      0.00      0.00      75.0     0.31      1011.2     3.0       W   270   6.4     WSW   257   9.46    264      446.2
   10/09/2018 12:40      74.8      73.7       44     51.3      0.00      0.00      75.0     0.31      1011.3     2.3     WNW   285   4.8      NW   306   9.46    264      457.7
   10/09/2018 12:30      74.0      73.4       45     51.2      0.00      0.00      75.0     0.30      1011.4     2.2     WNW   289   5.3      NW   310   9.46    265      461.2
   10/09/2018 12:20      73.6      72.6       47     51.4      0.00      0.00      75.0     0.31      1011.6     2.8     WNW   287   5.7     WNW   290   9.46    265      458.0
   10/09/2018 12:10      74.5      73.4       46     51.7      0.00      0.00      75.0     0.31      1011.6     2.8       N   352   6.3       N     0   9.47    265      451.2
   10/09/2018 12:00      74.4      72.4       46     51.7      0.00      0.00      75.0     0.31      1011.8     1.2     WNW   300   4.7       N   350   9.47    265      452.8
   10/09/2018 11:50      72.5      71.7       48     51.5      0.00      0.00      75.0     0.31      1011.9     2.3       N     8   5.4     NNW   338   9.47    266      443.9
   10/09/2018 11:40      72.6      71.2       49     51.6      0.00      0.00      75.0     0.31      1011.9     2.3     NNW   336   5.7     NNW   337   9.47    266      439.3
   10/09/2018 11:30      71.7      70.3       50     51.5      0.00      0.00      75.0     0.31      1012.0     1.9     ESE   122   4.4       S   189   9.47    266      431.4
   10/09/2018 11:20      70.6      69.4       52     51.5      0.00      0.00      75.0     0.31      1012.1     2.6      SW   214   4.7     SSW   202   9.47    266      423.7
   10/09/2018 11:10      70.3      69.5       52     51.5      0.00      0.00      75.1     0.31      1012.2     2.3       E    79   5.5     ENE    62   9.47    266      413.0
   10/09/2018 11:00      69.9      69.2       53     51.6      0.00      0.00      75.1     0.31      1012.3     2.6     ENE    77   7.0     ENE    77   9.47    266      401.8
   10/09/2018 10:50      69.4      68.4       54     51.4      0.00      0.00      75.1     0.31      1012.5     1.7     ENE    57   4.2       E    85   9.47    266      379.5
   10/09/2018 10:40      69.4      68.8       54     51.6      0.00      0.00      75.1     0.31      1012.6     2.2      NE    36   4.1     NNE    28   9.47    266      387.8
   10/09/2018 10:30      68.9      67.8       55     51.4      0.00      0.00      75.1     0.31      1012.6     2.7     ENE    63   5.4     ENE    60   9.47    266      374.0
   10/09/2018 10:20      68.2      67.3       56     51.5      0.00      0.00      75.1     0.31      1012.6     2.9     ENE    77   5.6       E    83   9.47    266      366.1
   10/09/2018 10:10      67.4      65.3       59     51.3      0.00      0.00      75.2     0.31      1012.6     2.1       S   177   4.7      SW   224   9.47    266      372.5
   10/09/2018 10:00      65.8      65.3       60     51.3      0.00      0.00      75.2     0.31      1012.6     1.7       S   176   5.4       S   177   9.47    267      132.2
   10/09/2018 09:50      65.6      64.3       62     51.5      0.00      0.00      75.1     0.31      1012.7     1.6      SE   128   4.7       E    95   9.47    267      151.4
   10/09/2018 09:40      65.0      64.2       62     51.5      0.00      0.00      75.2     0.31      1012.7     2.1      SE   132   4.9      SE   134   9.47    267      135.6
   10/09/2018 09:30      64.7      64.2       62     51.4      0.00      0.00      75.2     0.31      1012.6     1.4       E    96   4.8       E    91   9.47    267      141.2
   10/09/2018 09:20      64.4      63.4       64     51.3      0.00      0.00      75.2     0.31      1012.6     1.5       E    98   4.8       E   101   9.47    267      102.2
   10/09/2018 09:10      63.7      63.2       65     51.3      0.00      0.00      75.2     0.31      1012.5     2.7     SSE   152   5.5      SE   127   9.47    268      110.5
   10/09/2018 09:00      63.6      63.2       65     51.5      0.00      0.00      75.2     0.31      1012.5     3.2      SE   142   5.0      SE   130   9.47    268      112.0
   10/09/2018 08:50      63.8      63.3       66     51.8      0.00      0.00      75.2     0.31      1012.4     1.9      SE   132   3.9      SE   128   9.47    268       71.8
   10/09/2018 08:40      63.6      63.0       66     51.9      0.00      0.00      75.3     0.31      1012.4     0.8      SE   126   2.7     ESE   121   9.48    268       54.2
   10/09/2018 08:30      63.3      63.0       66     51.7      0.00      0.00      75.3     0.31      1012.3     1.2     ENE    68   2.4     ENE    58   9.48    268       43.0
   10/09/2018 08:20      63.3      62.8       67     51.7      0.00      0.00      75.3     0.31      1012.2     1.1     ENE    73   2.8     ENE    63   9.48    269       34.9
   10/09/2018 08:10      63.1      62.5       66     51.4      0.00      0.00      75.3     0.31      1012.1     1.2      SE   124   3.1      SE   134   9.48    269       30.5
   10/09/2018 08:00      62.9      62.3       67     51.5      0.00      0.00      75.3     0.31      1012.0     0.8     ENE    59   2.7      NE    51   9.48    269       20.3
   10/09/2018 07:50      62.7      62.2       68     51.8      0.00      0.00      75.3     0.31      1011.9     1.2     ENE    78   2.8     ENE    59   9.48    269       13.1
   10/09/2018 07:40      62.4      61.9       68     51.5      0.00      0.00      75.3     0.31      1011.9     0.8     ESE   103   3.0     ESE   123   9.48    269        4.1
   10/09/2018 07:30      62.2      61.8       69     51.6      0.00      0.00      75.4     0.31      1011.9     1.2     ESE   123   3.1       E    99   9.48    269       -2.4
   10/09/2018 07:20      62.2      61.6       69     51.7      0.00      0.00      75.4     0.31      1011.8     0.6      SE   133   1.9     SSE   155   9.48    269       -8.3
   10/09/2018 07:10      61.9      61.4       71     52.1      0.00      0.00      75.4     0.31      1011.8     1.2      SE   128   3.7     SSE   148   9.48    269      -11.1
   10/09/2018 07:00      61.8      61.4       72     52.3      0.00      0.00      75.4     0.31      1011.7     0.3     SSE   152   1.3     WSW   241   9.48    269      -12.7
   10/09/2018 06:50      61.8      61.4       72     52.3      0.00      0.00      75.5     0.31      1011.8     0.2      SE   136   1.3      SE   136   9.48    269      -14.4
   10/09/2018 06:40      61.7      61.3       72     52.3      0.00      0.00      75.4     0.31      1011.9     0.0      SE   137   0.2      SE   137   9.48    269      -12.9
   10/09/2018 06:30      61.7      61.3       72     52.4      0.00      0.00      75.4     0.31      1011.9     0.1     ESE   106   1.1     ESE   115   9.48    269      -14.3
   10/09/2018 06:20      61.6      61.1       72     52.4      0.00      0.00      75.5     0.31      1011.8     0.4     ENE    77   1.3     ENE    71   9.48    269      -13.3
   10/09/2018 06:10      61.5      61.1       73     52.4      0.00      0.00      75.5     0.31      1011.7     0.7      SE   131   2.1     ENE    71   9.48    269      -13.5
   10/09/2018 06:00      61.4      61.1       73     52.5      0.00      0.00      75.5     0.31      1011.7     0.3     ENE    70   1.4     ENE    69   9.48    269      -14.9
   10/09/2018 05:50      61.3      60.9       74     52.5      0.00      0.00      75.5     0.31      1011.6     0.5      SE   141   1.8       S   176   9.48    269      -14.3
   10/09/2018 05:40      61.2      60.8       74     52.6      0.00      0.00      75.5     0.31      1011.6     1.3       S   172   2.7     SSE   166   9.48    269      -14.3
   10/09/2018 05:30      61.2      60.8       75     52.8      0.00      0.00      75.6     0.31      1011.5     0.4     SSW   208   1.1     SSW   203   9.48    270      -14.3
   10/09/2018 05:20      61.0      60.5       75     52.8      0.00      0.00      75.5     0.31      1011.5     1.1     SSW   205   2.3     SSW   195   9.48    269      -14.4
   10/09/2018 05:10      60.8      60.5       76     52.9      0.00      0.00      75.6     0.31      1011.6     1.0     SSW   198   1.9     SSW   206   9.48    270      -14.4
   10/09/2018 05:00      60.8      60.4       76     53.0      0.00      0.00      75.7     0.31      1011.5     1.4       S   181   2.3       S   184   9.48    270      -15.2
   10/09/2018 04:50      60.8      60.5       77     53.2      0.00      0.00      75.7     0.31      1011.6     1.3       S   176   2.9       S   177   9.48    270      -13.6
   10/09/2018 04:40      61.1      60.5       77     53.4      0.00      0.00      75.7     0.31      1011.6     1.5     SSE   147   3.8     SSE   152   9.48    270      -13.1
   10/09/2018 04:30      60.8      60.5       77     53.5      0.00      0.00      75.8     0.31      1011.4     0.4      SE   124   1.4       S   170   9.48    270      -15.4
   10/09/2018 04:20      60.8      60.4       77     53.4      0.00      0.00      75.7     0.31      1011.4     1.4     SSE   166   2.2       S   184   9.48    270      -15.1
   10/09/2018 04:10      60.8      60.3       78     53.5      0.00      0.00      75.7     0.31      1011.3     1.0       S   184   1.9       S   184   9.48    270      -14.1
   10/09/2018 04:00      60.7      60.3       78     53.6      0.00      0.00      75.8     0.31      1011.3     0.7      SE   139   1.8       S   177   9.48    270      -13.7
   10/09/2018 03:50      60.6      60.3       78     53.7      0.00      0.00      75.8     0.31      1011.3     0.3      SE   127   1.8     ESE   119   9.48    270      -13.3
   10/09/2018 03:40      60.7      60.2       79     53.7      0.00      0.00      75.8     0.31      1011.4     1.4      SE   139   3.5      SE   142   9.48    270      -13.4
   10/09/2018 03:30      60.9      60.3       79     53.9      0.00      0.00      75.8     0.31      1011.4     1.3     SSE   161   2.9      SE   140   9.48    270      -12.7
   10/09/2018 03:20      60.6      60.3       79     53.9      0.00      0.00      75.9     0.31      1011.5     0.9     ESE   118   2.1       S   177   9.48    270      -11.4
   10/09/2018 03:10      60.6      60.1       80     54.1      0.00      0.00      75.9     0.31      1011.6     1.7     SSE   161   2.9      SE   138   9.48    270      -11.4
   10/09/2018 03:00      60.6      60.2       80     54.2      0.00      0.00      75.9     0.31      1011.6     1.2     SSE   155   2.8       S   180   9.48    269      -11.9
   10/09/2018 02:50      60.5      60.1       81     54.3      0.00      0.00      75.9     0.31      1011.6     0.7     SSE   146   2.2     SSW   199   9.48    269      -11.5
   10/09/2018 02:40      60.3      60.0       82     54.4      0.00      0.00      76.0     0.31      1011.7     0.9     ESE   119   3.2      SE   145   9.48    269      -10.4
   10/09/2018 02:30      60.2      59.8       82     54.6      0.00      0.00      76.0     0.31      1011.9     0.6     ESE   118   1.8      SE   129   9.48    268      -10.1
   10/09/2018 02:20      60.1      59.5       83     54.6      0.00      0.00      76.0     0.31      1011.9     0.2     SSE   155   1.2       S   180   9.48    267      -10.1
   10/09/2018 02:10      59.7      59.1       84     54.6      0.00      0.00      76.0     0.31      1011.7     1.0       S   173   2.6       S   176   9.48    267      -10.5
   10/09/2018 02:00      59.3      58.5       85     54.5      0.00      0.00      76.0     0.31      1011.9     0.7     SSE   162   2.2       S   185   9.48    267       -9.3
   10/09/2018 01:50      58.6      57.9       86     54.1      0.00      0.00      76.1     0.31      1012.1     0.5       S   177   1.8       S   173   9.48    266       -7.8
   10/09/2018 01:40      58.0      57.4       87     53.7      0.00      0.00      76.0     0.31      1012.1     0.0       N     0   0.0       S   189   9.48    265       -6.7
   10/09/2018 01:30      57.5      56.9       87     53.4      0.00      0.00      76.1     0.31      1012.1     0.0       S   189   0.3       S   189   9.48    262      -10.8
   10/09/2018 01:20      57.2      56.6       88     53.3      0.00      0.00      76.1     0.31      1012.1     0.0       N     0   0.0       S   189   9.48    253      -20.4
   10/09/2018 01:10      56.8      56.3       88     53.0      0.00      0.00      76.1     0.31      1011.9     0.4       S   183   1.2       S   189   9.48    255      -13.2
   10/09/2018 01:00      56.6      55.9       88     52.6      0.00      0.00      76.2     0.31      1011.9     0.4      SE   141   1.6      SE   137   9.48    259      -25.5
   10/09/2018 00:50      56.5      55.9       88     52.5      0.00      0.00      76.2     0.31      1011.9     0.6     SSE   165   1.4     SSE   147   9.49    265      -37.5
   10/09/2018 00:40      56.4      55.9       87     52.1      0.00      0.00      76.2     0.31      1011.8     0.3     SSE   149   0.7     SSE   149   9.49    263      -43.6
   10/09/2018 00:30      56.8      56.1       86     52.2      0.00      0.00      76.2     0.31      1011.8     0.0     SSE   149   0.6     SSE   149   9.49    266      -45.6
   10/09/2018 00:20      57.7      56.4       85     52.6      0.00      0.00      76.2     0.31      1011.7     0.3     SSE   149   1.1     SSE   149   9.49    267      -46.5
   10/09/2018 00:10      57.8      57.1       85     53.0      0.00      0.00      76.2     0.31      1011.7     0.0       N     0   0.0     SSE   149   9.49    265      -48.5
   10/09/2018 00:00      57.8      57.4       85     53.0      0.00      0.00      76.3     0.31      1011.7     0.3     SSE   163   0.8     SSE   149   9.49    255      -49.9
   10/08/2018 23:50      58.4      57.5       84     53.0      0.00      0.00      76.3     0.31      1011.6     1.0       S   188   2.2      SE   140   9.49    251      -49.5
   10/08/2018 23:40      59.1      58.0       83     53.4      0.00      0.00      76.3     0.31      1011.5     0.2      SW   222   0.9      SW   222   9.49    250      -49.5
   10/08/2018 23:30      59.5      58.8       83     53.9      0.00      0.00      76.3     0.31      1011.5     0.6      SW   215   1.3       S   191   9.49    250      -48.8
   10/08/2018 23:20      59.7      59.1       83     54.1      0.00      0.00      76.3     0.31      1011.4     0.6     SSW   207   1.5     SSW   211   9.49    248      -51.7
   10/08/2018 23:10      59.6      59.0       83     54.0      0.00      0.00      76.3     0.31      1011.4     0.3     SSE   158   2.1      SW   214   9.49    252      -53.2
   10/08/2018 23:00      59.2      58.5       83     53.8      0.00      0.00      76.3     0.31      1011.3     0.3     SSW   214   1.7     SSE   148   9.49    250      -54.1
   10/08/2018 22:50      58.9      58.4       82     53.3      0.00      0.00      76.3     0.31      1011.3     0.5     SSE   159   1.5      SE   144   9.49    259      -56.5
   10/08/2018 22:40      59.4      58.5       82     53.4      0.00      0.00      76.3     0.31      1011.2     0.3       S   171   1.1       S   176   9.49    252      -57.0
   10/08/2018 22:30      59.5      58.9       82     53.7      0.00      0.00      76.3     0.31      1011.1     1.0       S   169   2.0     SSW   194   9.49    251      -56.9
   10/08/2018 22:20      59.8      59.1       80     53.3      0.00      0.00      76.3     0.31      1011.0     0.2     SSE   155   0.8     SSE   155   9.49    251      -58.9
   10/08/2018 22:10      59.8      59.3       79     52.9      0.00      0.00      76.3     0.31      1011.0     0.4     SSE   152   1.7     SSE   156   9.50    257      -60.2
   10/08/2018 22:00      60.5      59.6       78     53.2      0.00      0.00      76.3     0.31      1010.9     0.6       S   173   1.4       S   182   9.50    264      -60.5
   10/08/2018 21:50      60.6      59.9       77     53.0      0.00      0.00      76.3     0.31      1010.9     0.2       S   184   1.0       S   172   9.50    260      -60.2
   10/08/2018 21:40      60.8      60.3       76     52.8      0.00      0.00      76.3     0.31      1010.8     0.2     SSW   195   0.7     SSW   194   9.50    264      -61.2
   10/08/2018 21:30      61.1      60.4       75     52.6      0.00      0.00      76.3     0.31      1010.7     0.2     SSW   195   0.8     SSW   196   9.50    268      -61.6
   10/08/2018 21:20      61.5      60.8       73     52.5      0.00      0.00      76.3     0.31      1010.5     0.3       S   185   1.0     SSW   195   9.50    269      -62.1
   10/08/2018 21:10      62.1      61.3       73     52.9      0.00      0.00      76.2     0.31      1010.4     0.5       S   174   1.4       S   189   9.50    269      -62.9
   10/08/2018 21:00      62.3      61.8       72     52.8      0.00      0.00      76.3     0.31      1010.4     0.6     SSW   207   1.5     SSW   194   9.50    269      -62.9
   10/08/2018 20:50      62.5      61.7       70     52.2      0.00      0.00      76.3     0.31      1010.4     0.3      SW   219   1.2      SW   218   9.50    268      -63.4
   10/08/2018 20:40      62.5      62.0       70     52.5      0.00      0.00      76.3     0.31      1010.4     0.0      SE   145   0.4      SE   145   9.51    269      -64.1
   10/08/2018 20:30      63.4      62.3       69     52.3      0.00      0.00      76.2     0.31      1010.3     0.0      SE   145   0.6      SE   145   9.51    268      -64.7
   10/08/2018 20:20      63.9      63.1       67     52.5      0.00      0.00      76.3     0.31      1010.2     0.0       N     0   0.0     SSE   148   9.51    268      -65.6
   10/08/2018 20:10      64.7      63.7       67     53.0      0.00      0.00      76.2     0.31      1010.1     0.5       S   178   1.2       S   180   9.51    268      -66.3
   10/08/2018 20:00      65.2      64.3       66     52.9      0.00      0.00      76.2     0.31      1009.9     0.5     SSE   156   1.3       S   179   9.51    268      -67.7
   10/08/2018 19:50      65.7      64.8       64     52.9      0.00      0.00      76.1     0.31      1009.8     0.7     SSE   155   1.5     SSE   153   9.51    267      -68.8
   10/08/2018 19:40      66.2      65.5       63     52.7      0.00      0.00      76.2     0.31      1009.8     0.3     SSE   163   1.6       S   172   9.51    267      -69.8
   10/08/2018 19:30      66.5      65.9       62     52.9      0.00      0.00      76.1     0.31      1009.7     0.4       E    99   1.4       S   178   9.51    267      -70.1
   10/08/2018 19:20      66.7      66.1       62     52.8      0.00      0.00      76.1     0.31      1009.5     2.2       S   182   3.9       S   177   9.52    267      -70.7
   10/08/2018 19:10      67.3      66.4       61     52.7      0.00      0.00      76.1     0.31      1009.4     2.3       S   191   3.3       S   178   9.52    266      -72.0
   10/08/2018 19:00      67.8      66.9       59     52.5      0.00      0.00      76.1     0.31      1009.3     2.4     SSW   194   3.5     SSW   199   9.52    266      -73.5
   10/08/2018 18:50      68.3      67.4       58     52.6      0.00      0.00      76.0     0.31      1009.2     2.2       S   190   4.3     SSW   199   9.52    266      -74.8
   10/08/2018 18:40      69.0      68.0       57     52.4      0.00      0.00      76.0     0.31      1009.1     2.9       S   189   6.0     SSW   210   9.53    266      -74.2
   10/08/2018 18:30      70.0      68.8       53     51.7      0.00      0.00      76.0     0.31      1009.1     2.8       S   185   6.2       S   176   9.53    266      -72.0
   10/08/2018 18:20      70.6      69.6       51     51.0      0.00      0.00      75.9     0.31      1009.1     3.0     SSW   192   4.6       S   183   9.53    266      -68.8
   10/08/2018 18:10      71.2      70.3       50     51.2      0.00      0.00      75.9     0.31      1009.0     2.9       S   177   5.4       S   185   9.53    266      -65.0
   10/08/2018 18:00      71.9      71.0       49     51.3      0.00      0.00      75.9     0.31      1008.9     3.2       S   181   5.2     SSW   213   9.54    266      -51.4
   10/08/2018 17:50      72.8      71.6       47     50.8      0.00      0.00      75.8     0.31      1009.0     4.1       S   179   7.2     SSW   194   9.54    266      -36.0
   10/08/2018 17:40      73.5      72.4       46     50.6      0.00      0.00      75.8     0.31      1008.9     4.0       S   183   7.4       S   187   9.54    265       -8.0
   10/08/2018 17:30      73.7      72.9       46     51.0      0.00      0.00      75.8     0.31      1008.9     3.1       S   179   6.2     SSE   157   9.55    265       10.9
   10/08/2018 17:20      73.6      72.9       45     50.8      0.00      0.00      75.7     0.31      1008.8     4.6     SSE   162   7.6      SE   138   9.55    265       38.3
   10/08/2018 17:10      74.0      73.3       45     50.8      0.00      0.00      75.7     0.31      1008.6     4.6     SSE   160   8.7      SE   139   9.55    265       61.4
   10/08/2018 17:00      73.9      73.5       44     50.4      0.00      0.00      75.7     0.31      1008.6     5.3       S   170   8.9       S   184   9.56    265       88.4
   10/08/2018 16:50      74.5      73.6       45     51.0      0.00      0.00      75.6     0.31      1008.6     5.8     SSE   152  11.4       S   173   9.56    264      112.1
   10/08/2018 16:40      74.8      74.2       43     50.7      0.00      0.00      75.6     0.31      1008.7     5.3     SSE   160  10.1     SSW   207   9.57    264      135.7
   10/08/2018 16:30      75.5      74.5       41     49.8      0.00      0.00      75.5     0.31      1008.6     5.6       S   172   8.4     SSW   192   9.57    264      160.9
   10/08/2018 16:20      76.0      74.8       36     46.8      0.00      0.00      75.5     0.31      1008.7     5.2     SSE   166   8.3       S   175   9.57    264      184.9
   10/08/2018 16:10      76.7      75.5       35     46.7      0.00      0.00      75.4     0.31      1008.7     4.5       S   180   8.0     SSW   197   9.57    264      208.0
   10/08/2018 16:00      76.6      75.6       35     46.2      0.00      0.00      75.4     0.31      1008.8     5.5       S   179   9.5       S   175   9.58    264      219.4
   10/08/2018 15:50      77.0      75.8       35     47.1      0.00      0.00      75.3     0.31      1008.7     5.2       S   175  10.9       S   173   9.58    264      238.7
   10/08/2018 15:40      75.9      75.3       37     47.8      0.00      0.00      75.3     0.31      1008.9     5.5     SSE   159  10.3     ESE   117   9.59    264      262.7
   10/08/2018 15:30      75.8      75.1       38     48.2      0.00      0.00      75.2     0.31      1008.9     6.3     SSE   150  10.8      SE   132   9.59    264      286.0
   10/08/2018 15:20      76.3      75.2       38     48.5      0.00      0.00      75.2     0.31      1009.0     6.3     SSE   157  12.3       S   173   9.59    264      304.6
   10/08/2018 15:10      77.3      75.8       35     46.9      0.00      0.00      75.2     0.31      1008.9     6.6       S   178  11.0      SE   143   9.60    264      329.7
   10/08/2018 15:00      77.6      75.9       37     48.6      0.00      0.00      75.1     0.31      1008.9     6.1       S   180  11.5       S   185   9.60    264      351.9
   10/08/2018 14:50      77.8      77.0       36     48.7      0.00      0.00      75.1     0.31      1008.9     5.3       S   171   8.7     SSW   191   9.60    264      368.3
   10/08/2018 14:40      77.7      77.2       37     49.4      0.00      0.00      75.0     0.31      1008.9     5.2       S   177   9.2     SSW   193   9.61    264      383.4
   10/08/2018 14:30      77.7      76.5       41     51.8      0.00      0.00      75.0     0.31      1009.1     5.0     SSE   164   9.2     SSE   154   9.61    264      396.7
   10/08/2018 14:20      77.5      76.5       42     52.3      0.00      0.00      75.0     0.31      1009.2     5.5       S   170  10.6       S   179   9.61    264      409.4
   10/08/2018 14:10      77.0      76.2       43     52.3      0.00      0.00      75.0     0.31      1009.3     6.1      SW   219  10.4     SSW   197   9.61    264      424.7
   10/08/2018 14:00      77.0      76.5       45     53.9      0.00      0.00      74.9     0.31      1009.5     5.0       S   188   8.1      SW   224   9.62    264      429.7
   10/08/2018 13:50      77.2      75.6       46     54.1      0.00      0.00      74.9     0.31      1009.6     5.3       S   179  10.9       S   183   9.62    265      443.1
   10/08/2018 13:40      77.2      76.2       46     54.2      0.00      0.00      74.9     0.31      1009.7     5.0     SSW   195   8.9     SSW   210   9.62    264      451.3
   10/08/2018 13:30      77.2      76.3       44     53.5      0.00      0.00      74.8     0.31      1009.9     4.9       S   181   9.4      SE   138   9.62    264      452.6
   10/08/2018 13:20      78.1      76.2       43     52.8      0.00      0.00      74.8     0.31      1010.0     5.2     SSE   149   9.4       S   179   9.62    264      464.7
   10/08/2018 13:10      77.7      76.4       41     51.2      0.00      0.00      74.8     0.31      1010.2     2.4      SW   226   6.1      SW   221   9.63    264      450.6
   10/08/2018 13:00      77.4      76.4       42     51.6      0.00      0.00      74.8     0.31      1010.5     2.6       S   178   6.7     SSW   196   9.63    264      463.6
   10/08/2018 12:50      77.5      76.2       40     50.9      0.00      0.00      74.8     0.31      1010.6     2.5       W   268   5.7     WSW   256   9.63    264      460.2
   10/08/2018 12:40      77.2      75.9       42     51.8      0.00      0.00      74.8     0.31      1010.8     2.6      SW   222   5.6     SSW   207   9.63    265      458.4
   10/08/2018 12:30      77.0      75.6       44     52.8      0.00      0.00      74.8     0.31      1011.1     1.7     ENE    60   4.6       N   353   9.63    265      417.5
   10/08/2018 12:20      76.3      75.5       46     53.6      0.00      0.00      74.8     0.31      1011.1     3.2     NNW   333   5.7     NNW   340   9.63    266      458.4
   10/08/2018 12:10      77.1      74.7       46     53.7      0.00      0.00      74.8     0.31      1011.2     1.8     NNE    25   4.4     NNE    23   9.63    265      455.7
   10/08/2018 12:00      76.1      74.5       47     53.7      0.00      0.00      74.8     0.31      1011.3     2.3       E    82   4.1       E    93   9.63    266      444.3
   10/08/2018 11:50      76.0      74.1       48     54.1      0.00      0.00      74.7     0.31      1011.3     1.7      NE    35   3.9     WNW   303   9.63    266      451.7
   10/08/2018 11:40      74.5      73.2       49     53.7      0.00      0.00      74.9     0.31      1011.4     2.1     NNW   332   4.1       W   260   9.63    265      444.8
   10/08/2018 11:30      73.9      72.5       50     53.4      0.00      0.00      74.9     0.31      1011.5     1.5       N    10   3.7      SW   229   9.63    266      434.2
   10/08/2018 11:20      73.1      72.4       49     52.8      0.00      0.00      74.8     0.31      1011.6     2.8       N     6   5.0     NNW   347   9.63    266      427.4
   10/08/2018 11:10      72.7      72.0       49     52.3      0.00      0.00      75.0     0.30      1011.6     2.3     NNW   335   4.4      NW   317   9.62    266      420.2
   10/08/2018 11:00      72.7      71.8       50     52.5      0.00      0.00      75.0     0.31      1011.6     1.6     NNE    25   3.0      NE    44   9.63    266      407.1
   10/08/2018 10:50      72.0      71.2       50     52.2      0.00      0.00      75.0     0.31      1011.7     2.0      NE    36   5.0       N     5   9.63    266      395.4
   10/08/2018 10:40      71.4      70.2       53     52.7      0.00      0.00      75.1     0.31      1011.8     1.7       N     8   4.6     NNW   331   9.63    266      383.6
   10/08/2018 10:30      71.0      69.4       54     52.9      0.00      0.00      75.0     0.31      1011.8     1.7     NNE    20   3.9       N     0   9.63    266      369.9
   10/08/2018 10:20      69.6      68.4       57     53.2      0.00      0.00      75.0     0.31      1011.9     2.1       N     4   5.2       N   353   9.63    266      355.3
   10/08/2018 10:10      69.2      68.6       57     53.3      0.00      0.00      75.1     0.31      1011.9     2.1     NNE    24   3.9     NNE    16   9.63    266      338.9
   10/08/2018 10:00      68.9      67.5       60     53.5      0.00      0.00      75.1     0.31      1012.0     1.3     NNE    25   3.5      NE    38   9.62    266      321.3
   10/08/2018 09:50      68.0      66.7       61     53.5      0.00      0.00      75.2     0.31      1012.1     1.6     NNE    23   3.3       N     5   9.62    266      303.3
   10/08/2018 09:40      66.9      66.3       63     53.4      0.00      0.00      75.2     0.31      1012.0     1.6       N   360   3.1       N   355   9.62    267      286.1
   10/08/2018 09:30      66.9      65.9       63     53.3      0.00      0.00      75.2     0.31      1011.9     1.3     ENE    64   2.6       N   354   9.62    267      266.3
   10/08/2018 09:20      66.0      65.5       63     52.8      0.00      0.00      75.3     0.31      1011.8     1.1     NNW   348   3.2     NNW   329   9.62    267      246.1
   10/08/2018 09:10      66.0      65.2       63     52.5      0.00      0.00      75.3     0.31      1011.9     0.9     ESE   110   2.6      SE   136   9.62    267      223.6
   10/08/2018 09:00      65.6      64.3       63     52.3      0.00      0.00      75.3     0.31      1012.0     1.1     ENE    69   3.0       E    83   9.62    268      204.0
   10/08/2018 08:50      64.5      63.8       65     52.1      0.00      0.00      75.4     0.31      1011.9     1.2     ENE    59   2.3     NNE    29   9.62    269      180.5
   10/08/2018 08:40      64.0      62.7       66     52.0      0.00      0.00      75.4     0.31      1011.9     1.2     ENE    67   3.6      NE    51   9.62    269      158.0
   10/08/2018 08:30      63.1      62.3       68     52.1      0.00      0.00      75.4     0.31      1011.9     1.4      NE    38   2.5      NE    47   9.62    270      130.4
   10/08/2018 08:20      62.6      60.4       73     52.8      0.00      0.00      75.5     0.31      1012.0     1.1     ENE    75   2.5       E    95   9.16    270       99.6
   10/08/2018 08:10      60.4      57.2       84     53.7      0.00      0.00      75.5     0.31      1012.1     0.3      NE    46   1.8      NE    44   9.06    270      112.3
   10/08/2018 08:00      57.2      55.5       87     52.2      0.00      0.00      75.5     0.31      1012.0     0.2     NNW   330   1.4      NW   324   9.06    270       67.7
   10/08/2018 07:50      55.5      54.5       87     51.1      0.00      0.00      75.6     0.31      1011.7     0.0       N     0   0.0     SSE   167   9.06    266       26.2
   10/08/2018 07:40      54.5      53.9       87     50.5      0.00      0.00      75.6     0.31      1011.6     0.1     SSE   167   0.7     SSE   167   9.06    255       -2.7
   10/08/2018 07:30      54.1      53.4       88     50.1      0.00      0.00      75.6     0.31      1011.5     0.2      SE   143   1.2      SE   144   9.06    268      -14.6
   10/08/2018 07:20      53.8      53.1       87     49.8      0.00      0.00      75.6     0.31      1011.5     0.2       E    91   1.1       E    92   9.06    269      -25.4
   10/08/2018 07:10      53.9      53.3       87     49.6      0.00      0.00      75.7     0.31      1011.5     0.3       S   169   1.2     SSW   206   9.06    268      -39.0
   10/08/2018 07:00      54.0      53.4       86     49.5      0.00      0.00      75.7     0.31      1011.4     0.2     SSW   204   1.1      SW   221   9.06    265      -47.7
   10/08/2018 06:50      54.6      53.6       85     49.5      0.00      0.00      75.7     0.31      1011.4     0.6     SSE   163   1.5       S   179   9.06    263      -53.4
   10/08/2018 06:40      55.2      54.3       83     49.8      0.00      0.00      75.7     0.31      1011.3     0.2     SSE   158   0.6     SSE   161   9.06    258      -55.5
   10/08/2018 06:30      55.8      55.0       82     49.7      0.00      0.00      75.8     0.31      1011.3     0.4     SSE   159   0.9     SSE   160   9.06    257      -58.5
   10/08/2018 06:20      56.3      55.6       80     49.8      0.00      0.00      75.8     0.31      1011.3     0.0       S   172   0.2       S   172   9.06    252      -57.4
   10/08/2018 06:10      56.8      56.0       79     50.1      0.00      0.00      75.8     0.31      1011.3     0.2     SSE   159   1.2      SE   142   9.06    254      -45.6
   10/08/2018 06:00      56.8      56.0       81     50.6      0.00      0.00      75.9     0.31      1011.2     0.4     WNW   293   1.8     WNW   285   9.06    268      -26.8
   10/08/2018 05:50      56.2      55.3       83     50.5      0.00      0.00      75.9     0.31      1011.1     0.4      SW   226   1.6      SW   226   9.06    268      -19.0
   10/08/2018 05:40      55.5      54.6       84     50.0      0.00      0.00      75.9     0.31      1011.0     0.8       S   169   2.1      SE   143   9.06    266      -17.4
   10/08/2018 05:30      54.9      54.1       85     50.0      0.00      0.00      76.0     0.31      1011.0     0.2      SE   130   1.1      SE   139   9.06    263      -10.6
   10/08/2018 05:20      54.4      53.9       84     49.4      0.00      0.00      76.0     0.31      1010.9     0.0      SE   137   0.7      SE   138   9.06    256      -19.4
   10/08/2018 05:10      54.8      54.0       83     49.2      0.00      0.00      76.0     0.31      1010.7     0.4      SE   138   1.6      SE   137   9.06    255      -52.1
   10/08/2018 05:00      55.0      54.5       82     49.4      0.00      0.00      76.0     0.31      1010.8     1.1     SSW   193   1.9     SSW   205   9.06    251      -55.2
   10/08/2018 04:50      55.8      54.7       81     49.4      0.00      0.00      76.1     0.31      1010.8     0.2       S   171   1.1       S   171   9.06    253      -57.7
   10/08/2018 04:40      56.6      55.5       79     49.6      0.00      0.00      76.1     0.31      1010.9     0.3     SSE   162   1.1     SSE   164   9.06    251      -57.5
   10/08/2018 04:30      57.0      56.3       78     50.0      0.00      0.00      76.1     0.31      1010.8     0.2       E   100   1.1      NE    54   9.06    261      -56.8
   10/08/2018 04:20      57.2      56.4       79     50.5      0.00      0.00      76.2     0.31      1010.7     1.4     ENE    61   3.2     WSW   253   9.06    263      -48.3
   10/08/2018 04:10      56.6      55.5       82     50.5      0.00      0.00      76.2     0.31      1010.7     0.9      SW   219   3.5     WSW   248   9.06    270       -8.2
   10/08/2018 04:00      55.6      54.6       84     50.2      0.00      0.00      76.2     0.31      1010.8     0.2     ESE   108   1.1       E    93   9.06    268       -7.5
   10/08/2018 03:50      54.8      53.5       85     49.6      0.00      0.00      76.3     0.31      1010.8     0.7     SSE   161   2.0      SE   134   9.06    267       -8.2
   10/08/2018 03:40      53.9      53.2       85     48.9      0.00      0.00      76.3     0.31      1010.7     0.4     SSE   152   1.7      SE   138   9.06    260      -19.9
   10/08/2018 03:30      53.7      53.4       84     48.9      0.00      0.00      76.3     0.31      1010.8     0.2      SE   139   0.9      SE   139   9.06    252      -42.8
   10/08/2018 03:20      54.4      53.6       84     49.2      0.00      0.00      76.3     0.31      1010.9     0.6     SSE   162   1.6      SE   139   9.06    252      -45.9
   10/08/2018 03:10      54.2      53.8       84     49.4      0.00      0.00      76.4     0.31      1011.0     0.4       S   169   1.0       S   174   9.06    252      -45.3
   10/08/2018 03:00      54.6      53.9       83     49.1      0.00      0.00      76.4     0.31      1011.0     0.4     SSE   148   1.4      SE   140   9.06    250      -49.0
   10/08/2018 02:50      54.5      54.0       83     49.2      0.00      0.00      76.4     0.31      1011.2     0.4     SSE   150   1.8      SE   135   9.06    252      -49.4
   10/08/2018 02:40      54.4      54.0       83     49.1      0.00      0.00      76.4     0.31      1011.1     0.3     SSE   158   0.9     SSW   201   9.06    250      -49.3
   10/08/2018 02:30      54.5      54.0       83     49.0      0.00      0.00      76.4     0.31      1011.2     0.7     SSE   166   1.5       S   187   9.06    250      -53.5
   10/08/2018 02:20      54.6      54.1       82     48.9      0.00      0.00      76.5     0.31      1011.2     0.7     SSE   161   1.8       S   175   9.06    252      -53.5
   10/08/2018 02:10      55.0      54.2       81     48.7      0.00      0.00      76.5     0.31      1011.4     0.1     SSE   160   0.6     SSE   163   9.06    251      -54.8
   10/08/2018 02:00      55.3      54.6       79     48.7      0.00      0.00      76.5     0.31      1011.3     0.3     SSE   157   1.1      SE   139   9.07    251      -56.0
   10/08/2018 01:50      55.8      55.1       79     48.9      0.00      0.00      76.6     0.31      1011.3     0.3     SSE   159   0.8      SE   130   9.07    256      -55.3
   10/08/2018 01:40      56.0      55.1       78     48.6      0.00      0.00      76.6     0.31      1011.3     0.4       S   170   1.0     SSW   198   9.07    262      -56.0
   10/08/2018 01:30      56.3      55.6       78     49.0      0.00      0.00      76.6     0.31      1011.3     0.3     ESE   121   1.8      SE   141   9.07    265      -57.4
   10/08/2018 01:20      56.3      55.8       78     49.3      0.00      0.00      76.6     0.31      1011.3     0.5     SSE   161   1.2      SE   143   9.07    258      -57.4
   10/08/2018 01:10      56.4      55.6       77     48.8      0.00      0.00      76.7     0.31      1011.2     0.6     SSE   161   1.6      SE   137   9.07    260      -58.0
   10/08/2018 01:00      56.3      55.9       77     49.1      0.00      0.00      76.7     0.31      1011.2     0.7      SE   146   2.4       S   176   9.07    260      -58.4
   10/08/2018 00:50      56.3      55.9       77     49.0      0.00      0.00      76.7     0.31      1011.2     0.5     SSE   147   1.1     SSE   150   9.07    256      -58.2
   10/08/2018 00:40      56.6      56.0       76     49.0      0.00      0.00      76.7     0.31      1011.1     0.9     SSE   158   1.6      SE   137   9.07    264      -58.7
   10/08/2018 00:30      57.4      56.3       74     48.4      0.00      0.00      76.7     0.31      1011.1     0.7     SSE   153   1.5      SE   139   9.07    265      -57.8
   10/08/2018 00:20      57.7      57.0       72     48.4      0.00      0.00      76.7     0.31      1011.0     1.4     SSW   212   2.3      SW   226   9.07    269      -56.6
   10/08/2018 00:10      57.6      56.9       74     48.9      0.00      0.00      76.8     0.31      1011.0     1.5     SSW   206   2.3     SSW   213   9.07    269      -57.3
   10/08/2018 00:00      58.0      57.1       72     48.6      0.00      0.00      76.8     0.31      1010.9     0.1     ENE    68   1.1     ENE    71   9.07    269      -57.8
   10/07/2018 23:50      58.6      57.7       71     48.8      0.00      0.00      76.8     0.31      1010.8     0.7      SE   141   2.6       S   184   9.07    269      -58.8
   10/07/2018 23:40      58.6      58.0       72     49.0      0.00      0.00      76.8     0.31      1010.8     0.7      NW   318   3.0      NE    44   9.08    269      -58.4
   10/07/2018 23:30      58.5      57.4       71     48.7      0.00      0.00      76.8     0.31      1010.6     2.2     SSE   157   3.0     SSW   212   9.08    269      -57.5
   10/07/2018 23:20      58.1      57.5       73     49.1      0.00      0.00      76.8     0.31      1010.7     0.7     SSE   168   1.3       S   176   9.08    269      -57.9
   10/07/2018 23:10      58.1      57.3       73     49.0      0.00      0.00      76.9     0.31      1010.7     1.3       S   176   2.2       S   185   9.08    269      -59.8
   10/07/2018 23:00      58.0      57.5       72     48.7      0.00      0.00      76.8     0.31      1010.7     0.5       S   170   2.0       S   180   9.08    269      -59.0
   10/07/2018 22:50      58.5      57.8       70     48.5      0.00      0.00      76.9     0.31      1010.6     0.0       N     0   0.0      SE   138   9.08    269      -60.4
   10/07/2018 22:40      58.7      58.3       71     49.0      0.00      0.00      76.9     0.31      1010.5     0.0      SE   138   0.7      SE   138   9.08    269      -60.3
   10/07/2018 22:30      59.0      58.4       70     48.9      0.00      0.00      76.8     0.31      1010.5     0.3      SE   138   1.6      SE   138   9.08    269      -61.6
   10/07/2018 22:20      59.2      58.6       69     48.8      0.00      0.00      76.9     0.31      1010.3     0.5     SSE   148   1.1      SE   137   9.08    269      -61.5
   10/07/2018 22:10      59.8      58.8       69     49.0      0.00      0.00      76.9     0.31      1010.3     0.5       S   171   1.2       S   184   9.08    268      -62.4
   10/07/2018 22:00      59.8      59.2       70     49.7      0.00      0.00      76.9     0.31      1010.3     0.3     SSE   156   0.9     SSE   154   9.08    269      -62.2
   10/07/2018 21:50      59.5      59.0       70     49.4      0.00      0.00      76.9     0.31      1010.3     0.8      SE   141   1.7      SE   135   9.08    268      -63.2
   10/07/2018 21:40      59.8      59.0       68     49.0      0.00      0.00      76.9     0.31      1010.3     0.1     SSE   154   0.8     SSE   152   9.09    268      -64.4
   10/07/2018 21:30      60.3      59.7       67     49.3      0.00      0.00      76.9     0.31      1010.3     0.7     SSE   158   1.4       S   180   9.09    268      -64.5
   10/07/2018 21:20      60.5      59.9       69     49.8      0.00      0.00      76.8     0.31      1010.3     0.6     SSE   168   1.8     SSE   151   9.09    268      -64.8
   10/07/2018 21:10      60.7      60.0       68     49.8      0.00      0.00      76.9     0.31      1010.2     0.8     SSE   168   2.1     SSE   149   9.09    268      -64.9
   10/07/2018 21:00      61.1      60.3       67     49.4      0.00      0.00      76.9     0.31      1010.1     0.5     SSE   161   1.4       S   181   9.09    268      -65.9
   10/07/2018 20:50      61.7      60.8       66     49.9      0.00      0.00      76.9     0.31      1010.0     0.5       S   173   1.7       S   178   9.09    268      -65.8
   10/07/2018 20:40      61.7      61.3       66     50.1      0.00      0.00      76.8     0.31      1009.9     0.0       S   178   0.8       S   178   9.09    268      -65.5
   10/07/2018 20:30      62.2      61.4       65     49.9      0.00      0.00      76.8     0.31      1009.8     0.0       N     0   0.0       S   178   9.10    267      -67.1
   10/07/2018 20:20      62.8      62.0       64     50.0      0.00      0.00      76.8     0.31      1009.7     0.0       S   178   0.6       S   178   9.10    267      -67.6
   10/07/2018 20:10      63.5      62.5       62     49.9      0.00      0.00      76.8     0.31      1009.7     0.5       S   174   1.3       S   178   9.10    267      -67.9
   10/07/2018 20:00      63.9      63.2       62     50.1      0.00      0.00      76.8     0.31      1009.7     0.0     SSE   165   0.9     SSE   167   9.10    267      -67.9
   10/07/2018 19:50      64.7      63.7       61     50.1      0.00      0.00      76.8     0.31      1009.6     0.2     ESE   122   1.4     ESE   103   9.10    266      -69.7
   10/07/2018 19:40      65.2      64.2       59     50.0      0.00      0.00      76.7     0.31      1009.5     1.1       E    98   2.8     SSW   207   9.10    266      -69.3
   10/07/2018 19:30      65.2      64.3       59     50.0      0.00      0.00      76.8     0.31      1009.6     2.2     SSW   192   3.7     SSW   210   9.10    266      -68.5
   10/07/2018 19:20      65.8      65.0       57     49.8      0.00      0.00      76.7     0.31      1009.5     0.1       S   182   0.9     SSW   205   9.11    266      -69.3
   10/07/2018 19:10      66.5      65.6       57     50.1      0.00      0.00      76.7     0.31      1009.4     1.2     SSW   199   2.1     SSW   205   9.11    266      -69.0
   10/07/2018 19:00      66.8      66.2       56     50.2      0.00      0.00      76.7     0.31      1009.2     1.4       S   175   3.8       S   179   9.11    266      -72.3
   10/07/2018 18:50      67.4      66.6       55     50.6      0.00      0.00      76.6     0.31      1009.0     1.1      SE   138   3.2       S   183   9.11    266      -72.7
   10/07/2018 18:40      67.8      67.2       55     50.6      0.00      0.00      76.6     0.31      1008.9     1.4      SE   139   3.0       S   173   9.11    266      -71.6
   10/07/2018 18:30      68.3      67.5       54     50.8      0.00      0.00      76.5     0.31      1008.8     2.0     SSE   168   3.2     SSW   198   9.12    266      -70.4
   10/07/2018 18:20      68.9      67.9       54     50.8      0.00      0.00      76.5     0.31      1008.8     2.8     SSE   163   5.2     SSE   168   9.12    266      -64.4
   10/07/2018 18:10      69.7      68.6       52     50.8      0.00      0.00      76.5     0.31      1008.7     3.6       S   171   6.4       S   182   9.12    266      -64.1
   10/07/2018 18:00      71.2      69.5       49     50.4      0.00      0.00      76.5     0.31      1008.7     4.0       S   180   6.0     SSW   196   9.12    266      -44.4
   10/07/2018 17:50      72.1      71.0       47     50.2      0.00      0.00      76.4     0.31      1008.5     3.6     SSE   157   6.5       S   172   9.13    265      -29.9
   10/07/2018 17:40      72.0      71.6       47     50.4      0.00      0.00      76.4     0.31      1008.5     2.8     SSE   148   5.7      SE   133   9.13    265       -9.5
   10/07/2018 17:30      72.7      71.4       47     50.9      0.00      0.00      76.3     0.31      1008.5     3.6      SE   133   6.8      SE   143   9.13    265       16.3
   10/07/2018 17:20      72.5      72.2       47     50.8      0.00      0.00      76.3     0.31      1008.4     3.1     SSE   163   5.8       S   174   9.14    265       37.5
   10/07/2018 17:10      72.8      72.2       47     51.2      0.00      0.00      76.3     0.31      1008.3     4.1       S   176   7.1       S   176   9.14    265       67.8
   10/07/2018 17:00      73.3      72.5       47     51.7      0.00      0.00      76.2     0.31      1008.3     4.3       S   170   7.6       S   184   9.14    265       82.8
   10/07/2018 16:50      73.9      72.8       47     52.0      0.00      0.00      76.2     0.31      1008.2     4.7       S   173   7.8       S   180   9.15    265      115.5
   10/07/2018 16:40      74.0      73.5       46     51.7      0.00      0.00      76.1     0.31      1008.2     4.3       S   171   7.4       S   181   9.15    265      139.2
   10/07/2018 16:30      74.0      73.6       46     51.8      0.00      0.00      76.1     0.31      1008.1     4.3     SSE   166   7.1       S   184   9.15    265      162.9
   10/07/2018 16:20      75.2      73.5       46     52.0      0.00      0.00      76.0     0.31      1008.0     4.6       S   175   8.7       S   177   9.16    266      187.9
   10/07/2018 16:10      75.1      74.3       45     52.0      0.00      0.00      76.0     0.31      1007.9     4.4     SSE   165   6.9     SSW   210   9.16    265      214.3
   10/07/2018 16:00      75.9      74.3       45     52.0      0.00      0.00      76.0     0.31      1008.1     5.4      SE   138   9.0      SE   139   9.16    265      240.2
   10/07/2018 15:50      75.8      75.1       44     52.1      0.00      0.00      75.9     0.31      1008.1     4.1     SSE   159   8.3     SSW   205   9.16    264      263.4
   10/07/2018 15:40      75.3      74.5       45     52.3      0.00      0.00      75.9     0.31      1008.1     5.6     SSE   163   9.1      SE   133   9.17    265      276.4
   10/07/2018 15:30      75.2      74.1       46     52.6      0.00      0.00      75.8     0.31      1008.1     5.3     SSE   159   8.0     SSE   160   9.17    264      341.6
   10/07/2018 15:20      75.2      74.3       46     52.6      0.00      0.00      75.8     0.31      1008.2     5.4     SSE   169  10.3     SSW   198   9.17    264      307.3
   10/07/2018 15:10      75.5      74.8       47     53.4      0.00      0.00      75.7     0.31      1008.0     6.7     SSE   165  11.4      SE   138   9.17    264      427.5
   10/07/2018 15:00      75.5      73.9       48     53.4      0.00      0.00      75.7     0.31      1008.1     6.2     SSE   154  11.9      SE   139   9.18    264      406.5
   10/07/2018 14:50      75.9      73.9       46     52.5      0.00      0.00      75.6     0.31      1007.9     5.4       S   172  11.0     SSE   147   9.18    265       88.6
   10/07/2018 14:40      77.3      75.5       44     52.7      0.00      0.00      75.6     0.31      1007.7     4.9       S   173   9.0     SSE   167   9.18    265       62.5
   10/07/2018 14:30      77.8      77.2       41     52.0      0.00      0.00      75.6     0.31      1007.8     6.3       S   174   9.3     SSW   206   9.19    264      410.2
   10/07/2018 14:20      78.4      77.4       40     51.5      0.00      0.00      75.5     0.31      1007.8     6.2       S   182   9.8       S   185   9.19    264      406.2
   10/07/2018 14:10      78.4      76.5       40     51.2      0.00      0.00      75.5     0.31      1007.8     5.4       S   175  10.1       S   178   9.19    264      378.9
   10/07/2018 14:00      78.7      76.8       39     50.6      0.00      0.00      75.5     0.31      1007.8     6.8       S   187  10.9       S   170   9.20    264      271.1
   10/07/2018 13:50      79.5      78.5       37     50.4      0.00      0.00      75.5     0.31      1007.9     6.0       S   191   9.9      SE   142   9.20    264      548.4
   10/07/2018 13:40      79.0      77.7       39     51.2      0.00      0.00      75.4     0.31      1008.0     6.9     SSW   212  10.4      SW   218   9.21    264      566.1
   10/07/2018 13:30      78.6      78.1       39     51.7      0.00      0.00      75.4     0.31      1008.3     5.7       S   175  10.6       S   170   9.21    264      545.0
   10/07/2018 13:20      79.4      78.2       39     51.5      0.00      0.00      75.4     0.31      1008.4     5.2       S   181   8.4      SE   131   9.21    264      392.9
   10/07/2018 13:10      79.1      78.1       36     49.5      0.00      0.00      75.4     0.31      1008.6     5.2     SSE   167  10.3     SSW   193   9.21    264      515.3
   10/07/2018 13:00      78.8      77.9       38     51.1      0.00      0.00      75.4     0.31      1008.7     4.8     SSE   163   8.9     SSW   212   9.21    264      500.2
   10/07/2018 12:50      78.4      77.3       40     51.5      0.00      0.00      75.4     0.31      1008.8     4.5     SSE   168   8.5      SE   135   9.21    264      487.5
   10/07/2018 12:40      78.2      77.5       40     51.7      0.00      0.00      75.4     0.31      1009.0     4.7     SSE   155   8.9       S   181   9.21    264      477.2
   10/07/2018 12:30      78.7      77.5       39     50.9      0.00      0.00      75.4     0.31      1009.3     3.6     SSE   161   7.0     SSW   206   9.21    264      479.2
   10/07/2018 12:20      79.2      78.4       32     46.2      0.00      0.00      75.3     0.31      1009.4     2.7     ESE   113   5.4     ESE   124   9.22    264      469.2
   10/07/2018 12:10      79.5      78.5       30     44.7      0.00      0.00      75.5     0.31      1009.5     2.0     NNE    30   5.5     WNW   301   9.22    264      460.3
   10/07/2018 12:00      78.5      77.1       33     46.3      0.00      0.00      75.4     0.31      1009.5     2.2     ESE   116   5.4     NNE    25   9.22    264      463.8
   10/07/2018 11:50      77.4      76.4       35     47.3      0.00      0.00      75.5     0.31      1009.6     2.8     ESE   120   6.0     ESE   106   9.22    265      457.4
   10/07/2018 11:40      77.9      76.8       34     47.0      0.00      0.00      75.5     0.31      1009.7     2.3      NE    45   5.5       E    88   9.22    264      451.1
   10/07/2018 11:30      77.0      75.9       38     48.7      0.00      0.00      75.5     0.31      1009.8     1.9     ENE    78   4.1      NE    47   9.22    265      445.8
   10/07/2018 11:20      76.3      75.3       39     49.3      0.00      0.00      75.5     0.31      1010.0     2.7       E    79   5.5      SE   129   9.22    266      434.3
   10/07/2018 11:10      75.7      75.1       40     49.5      0.00      0.00      75.5     0.31      1010.0     2.8     ENE    69   5.8     ENE    58   9.22    265      414.7
   10/07/2018 11:00      75.6      74.6       41     49.8      0.00      0.00      75.6     0.31      1009.9     2.1      NW   305   4.8       N     5   9.22    265      418.8
   10/07/2018 10:50      75.5      74.3       42     50.5      0.00      0.00      75.6     0.31      1010.0     1.6     NNE    23   4.4       N   351   9.22    266      400.9
   10/07/2018 10:40      74.6      72.8       44     50.4      0.00      0.00      75.6     0.31      1010.1     1.0     NNE    22   2.7     NNE    26   9.22    265      386.5
   10/07/2018 10:30      73.5      72.4       46     51.1      0.00      0.00      75.7     0.31      1010.1     1.8     NNE    27   4.6     NNE    26   9.22    266      372.2
   10/07/2018 10:20      73.0      71.9       47     51.2      0.00      0.00      75.7     0.31      1010.1     1.9     ENE    66   4.9     ENE    62   9.22    266      357.5
   10/07/2018 10:10      72.3      71.3       49     51.4      0.00      0.00      75.7     0.31      1010.1     2.0     NNE    14   5.9     NNW   342   9.22    266      341.6
   10/07/2018 10:00      71.8      71.1       51     52.3      0.00      0.00      75.8     0.31      1010.1     1.7     ENE    58   3.7     ENE    65   9.22    266      325.9
   10/07/2018 09:50      71.3      69.8       54     53.1      0.00      0.00      75.8     0.31      1010.2     1.8     ENE    72   4.0       E    92   9.22    266      308.2
   10/07/2018 09:40      70.2      69.1       56     53.0      0.00      0.00      75.9     0.31      1010.3     1.8     ENE    59   3.8     NNE    29   9.22    266      288.4
   10/07/2018 09:30      69.6      68.9       56     52.6      0.00      0.00      75.9     0.31      1010.5     2.2     ENE    66   5.3      NE    56   9.22    267      272.3
   10/07/2018 09:20      69.2      67.7       54     51.2      0.00      0.00      75.9     0.31      1010.5     1.4      NE    42   2.9       N   353   9.22    267      253.2
   10/07/2018 09:10      67.9      66.9       56     51.0      0.00      0.00      76.0     0.31      1010.5     1.8     ENE    59   3.5      NE    43   9.22    267      235.5
   10/07/2018 09:00      67.1      66.3       59     51.7      0.00      0.00      76.0     0.31      1010.6     1.5     NNE    18   2.7      NE    50   9.22    268      216.6
   10/07/2018 08:50      66.5      65.4       60     51.7      0.00      0.00      76.0     0.31      1010.5     1.6     NNE    32   2.9      NE    36   9.22    269      195.5
   10/07/2018 08:40      65.6      64.9       62     52.1      0.00      0.00      76.1     0.31      1010.4     1.6     NNE    16   2.9     NNE    19   9.22    270      172.4
   10/07/2018 08:30      65.0      63.0       65     52.3      0.00      0.00      76.1     0.31      1010.3     0.7      SE   140   2.5      SE   144   9.22    270      144.2
   10/07/2018 08:20      63.1      61.8       70     52.5      0.00      0.00      76.1     0.31      1010.1     1.3      NE    40   3.9      SE   135   9.22    270      113.8
   10/07/2018 08:10      62.3      60.4       73     53.2      0.00      0.00      76.2     0.31      1010.1     0.9     NNE    11   4.1       N     0   9.22    265       94.2
   10/07/2018 08:00      60.6      57.9       80     52.5      0.00      0.00      76.2     0.31      1009.9     0.5      NE    51   2.8      SE   141   9.22    271       71.6
   10/07/2018 07:50      58.2      56.9       83     52.6      0.00      0.00      76.2     0.31      1009.8     0.7       E    97   3.3      SE   143   9.22    286       36.8
   10/07/2018 07:40      57.0      54.7       87     51.8      0.00      0.00      76.2     0.31      1009.7     0.1      NW   318   1.0      NW   318   9.22    294       -8.8
   10/07/2018 07:30      55.0      53.9       87     50.4      0.00      0.00      76.2     0.31      1009.6     1.2      SE   146   2.1       S   183   9.22    294      -20.6
   10/07/2018 07:20      54.4      53.7       87     50.1      0.00      0.00      76.3     0.31      1009.6     0.8      SE   139   1.9      SE   145   9.22    295      -25.3
   10/07/2018 07:10      54.2      53.6       87     50.1      0.00      0.00      76.3     0.31      1009.4     0.9     SSW   211   1.8      SW   224   9.22    294      -29.6
   10/07/2018 07:00      54.3      53.9       87     50.3      0.00      0.00      76.4     0.31      1009.3     0.5      SW   227   2.4      SW   228   9.22    292      -34.7
   10/07/2018 06:50      54.5      53.8       87     50.2      0.00      0.00      76.4     0.31      1009.2     0.4       S   171   1.1       S   185   9.22    290      -38.7
   10/07/2018 06:40      55.0      54.1       86     50.2      0.00      0.00      76.4     0.31      1009.2     0.7       S   187   1.8     SSW   195   9.22    287      -41.0
   10/07/2018 06:30      55.3      54.7       86     50.8      0.00      0.00      76.4     0.31      1009.1     0.3       S   175   1.5       S   178   9.22    284      -42.5
   10/07/2018 06:20      55.5      55.0       85     50.9      0.00      0.00      76.4     0.31      1009.0     0.0      SW   233   1.0      SW   233   9.22    280      -46.7
   10/07/2018 06:10      55.9      55.1       84     50.6      0.00      0.00      76.5     0.31      1008.8     0.0       N     0   0.0      SW   234   9.22    278      -51.7
   10/07/2018 06:00      56.7      55.7       83     51.2      0.00      0.00      76.5     0.31      1008.7     0.0       N     0   0.0      SW   234   9.22    273      -53.6
   10/07/2018 05:50      57.3      56.4       82     51.1      0.00      0.00      76.5     0.31      1008.7     0.3     SSW   213   1.3     SSW   198   9.22    268      -54.6
   10/07/2018 05:40      58.3      57.0       80     51.4      0.00      0.00      76.6     0.31      1008.6     0.3       E    95   1.3       E    80   9.22    267      -57.1
   10/07/2018 05:30      58.6      58.0       79     51.9      0.00      0.00      76.6     0.31      1008.5     0.0       E    87   0.7       E    90   9.22    263      -58.2
   10/07/2018 05:20      59.4      58.5       78     52.1      0.00      0.00      76.6     0.31      1008.4     0.4      SE   131   2.3      SE   138   9.22    256      -60.4
   10/07/2018 05:10      60.2      59.0       76     52.0      0.00      0.00      76.6     0.31      1008.4     1.5     SSE   161   3.1       S   186   9.22    251      -60.7
   10/07/2018 05:00      60.2      59.4       76     52.0      0.00      0.00      76.7     0.31      1008.3     2.5     SSW   201   4.8      SW   215   9.22    265      -59.9
   10/07/2018 04:50      60.1      59.4       76     52.0      0.00      0.00      76.7     0.31      1008.3     1.2     SSW   207   3.0     WSW   250   9.22    256      -59.9
   10/07/2018 04:40      60.1      59.8       77     52.6      0.00      0.00      76.7     0.31      1008.3     1.3      SW   221   3.1      SW   219   9.22    256      -61.7
   10/07/2018 04:30      60.2      59.1       78     52.7      0.00      0.00      76.7     0.31      1008.4     1.8      SW   214   3.7     SSW   207   9.22    262      -61.5
   10/07/2018 04:20      59.8      59.1       79     53.0      0.00      0.00      76.8     0.31      1008.4     1.4     SSW   198   2.7      SW   222   9.23    249      -61.5
   10/07/2018 04:10      59.9      59.4       80     53.3      0.00      0.00      76.8     0.31      1008.4     1.7      SW   220   3.9     WSW   241   9.23    253      -63.7
   10/07/2018 04:00      59.9      59.5       80     53.6      0.00      0.00      76.8     0.31      1008.6     3.6     WSW   243   5.6       W   265   9.23    256      -64.5
   10/07/2018 03:50      59.9      59.4       81     53.7      0.00      0.00      76.8     0.31      1008.4     3.6      SW   236   6.2     WSW   238   9.23    257      -64.8
   10/07/2018 03:40      60.3      59.5       81     53.9      0.00      0.00      76.9     0.31      1008.5     3.1      SW   231   5.7     WSW   258   9.23    254      -64.8
   10/07/2018 03:30      60.4      59.9       80     54.1      0.00      0.00      76.9     0.31      1008.7     3.4      SW   235   6.5     WSW   256   9.23    255      -63.3
   10/07/2018 03:20      60.4      59.8       81     54.2      0.00      0.00      76.9     0.31      1008.8     3.4       W   262   7.0     WSW   247   9.23    256      -52.5
   10/07/2018 03:10      60.0      59.0       84     54.7      0.00      0.00      76.9     0.31      1008.9     4.1     WSW   239   7.2      SW   227   9.23    258      -46.0
   10/07/2018 03:00      59.1      58.0       88     54.8      0.00      0.00      77.0     0.31      1009.1     3.2     WSW   258   5.1      SW   234   9.23    269      -41.1
   10/07/2018 02:50      58.3      57.5       89     54.5      0.00      0.00      77.0     0.31      1009.2     1.1     WSW   256   2.7       W   276   9.23    283      -39.3
   10/07/2018 02:40      57.7      57.3       88     54.0      0.00      0.00      77.0     0.31      1009.2     0.5     SSE   168   3.6     SSW   205   9.23    282      -40.3
   10/07/2018 02:30      57.8      57.3       88     53.9      0.00      0.00      77.0     0.31      1009.2     0.6     SSE   151   2.1     ESE   108   9.23    277      -41.7
   10/07/2018 02:20      57.9      57.3       87     53.9      0.00      0.00      77.0     0.31      1009.3     0.6      SE   133   1.9     SSW   199   9.23    271      -43.1
   10/07/2018 02:10      58.2      57.3       87     53.7      0.00      0.00      77.1     0.31      1009.3     0.8       S   170   2.2      SE   131   9.23    270      -44.4
   10/07/2018 02:00      58.8      57.8       86     53.9      0.00      0.00      77.1     0.31      1009.4     0.8     SSE   168   2.4      SE   136   9.23    265      -45.5
   10/07/2018 01:50      58.6      58.0       85     54.0      0.00      0.00      77.1     0.31      1009.3     0.3     WSW   249   1.0       W   269   9.23    263      -46.7
   10/07/2018 01:40      59.0      58.4       86     54.5      0.00      0.00      77.1     0.31      1009.2     1.2       S   173   2.6     SSW   207   9.23    259      -47.2
   10/07/2018 01:30      59.4      58.6       85     54.5      0.00      0.00      77.2     0.31      1009.3     1.0       S   190   2.2       S   191   9.23    260      -49.8
   10/07/2018 01:20      59.2      58.7       85     54.6      0.00      0.00      77.2     0.31      1009.2     0.9     SSW   211   2.3       W   264   9.23    258      -50.3
   10/07/2018 01:10      59.4      58.9       85     54.4      0.00      0.00      77.2     0.31      1009.2     0.5      SE   145   2.2      SE   141   9.23    260      -53.9
   10/07/2018 01:00      59.9      59.0       84     54.7      0.00      0.00      77.2     0.31      1009.1     1.1       S   174   2.7       S   183   9.23    254      -54.1
   10/07/2018 00:50      59.8      59.4       84     54.8      0.00      0.00      77.3     0.31      1009.2     1.6      SE   128   4.0      SE   136   9.23    253      -54.7
   10/07/2018 00:40      60.6      59.5       82     54.3      0.00      0.00      77.2     0.31      1009.1     1.2      SE   141   3.2     ESE   121   9.23    250      -56.2
   10/07/2018 00:30      60.8      60.3       82     54.9      0.00      0.00      77.3     0.31      1009.2     0.5     WSW   243   1.2      SW   225   9.23    249      -54.5
   10/07/2018 00:20      60.7      60.2       82     54.8      0.00      0.00      77.3     0.31      1009.3     1.3     SSW   199   3.3       S   185   9.23    250      -50.2
   10/07/2018 00:10      61.0      60.3       81     55.0      0.00      0.00      77.3     0.31      1009.4     0.9       S   169   2.4     SSW   203   9.23    256      -49.4
   10/07/2018 00:00      60.8      59.6       83     55.0      0.00      0.00      77.3     0.31      1009.4     2.2     WSW   237   3.9      SW   236   9.24    264      -45.2
   10/06/2018 23:50      59.8      59.3       83     54.2      0.00      0.00      77.3     0.31      1009.5     0.4     WSW   239   1.6     WSW   239   9.24    253      -44.1
   10/06/2018 23:40      60.2      59.5       83     54.5      0.00      0.00      77.3     0.31      1009.5     0.3       S   184   1.3      SE   131   9.24    251      -51.0
   10/06/2018 23:30      60.7      59.8       82     54.6      0.00      0.00      77.3     0.31      1009.4     0.6       S   189   2.1     SSW   201   9.24    256      -53.9
   10/06/2018 23:20      60.8      60.3       82     55.0      0.00      0.00      77.3     0.31      1009.4     0.3      SW   216   1.2      SW   216   9.24    252      -51.0
   10/06/2018 23:10      61.2      60.5       81     54.7      0.00      0.00      77.3     0.31      1009.2     0.9       S   174   1.9       S   178   9.24    254      -55.9
   10/06/2018 23:00      61.3      60.9       80     55.0      0.00      0.00      77.4     0.31      1009.2     1.8     SSW   204   3.0      SW   215   9.24    262      -53.6
   10/06/2018 22:50      61.2      60.8       81     55.0      0.00      0.00      77.4     0.31      1009.3     1.2       S   179   2.5       S   179   9.24    264      -42.0
   10/06/2018 22:40      62.0      60.8       79     54.6      0.00      0.00      77.4     0.31      1009.3     1.6      SE   140   3.0      SE   141   9.24    264      -49.3
   10/06/2018 22:30      62.1      61.7       79     55.4      0.00      0.00      77.4     0.31      1009.2     0.8       W   274   2.2     WNW   292   9.24    264      -56.7
   10/06/2018 22:20      62.0      61.4       79     55.1      0.00      0.00      77.4     0.31      1009.2     1.3     NNE    22   2.8      NE    53   9.24    254      -58.4
   10/06/2018 22:10      61.8      61.4       80     55.2      0.00      0.00      77.4     0.31      1008.8     1.8       S   191   4.4       S   176   9.24    263      -59.6
   10/06/2018 22:00      61.7      61.3       80     55.2      0.00      0.00      77.4     0.31      1009.1     1.5       S   181   2.5       S   179   9.24    256      -57.3
   10/06/2018 21:50      61.9      61.3       80     55.2      0.00      0.00      77.4     0.31      1009.2     1.6       S   189   2.5     SSW   200   9.24    263      -52.8
   10/06/2018 21:40      61.9      61.2       80     55.0      0.00      0.00      77.4     0.31      1009.2     0.4     ESE   102   1.3      SE   143   9.25    260      -57.6
   10/06/2018 21:30      62.3      61.4       79     55.2      0.00      0.00      77.4     0.31      1009.1     0.2       S   184   0.8       S   184   9.25    263      -59.3
   10/06/2018 21:20      62.6      62.0       78     55.3      0.00      0.00      77.4     0.31      1009.0     0.8       S   189   2.2       S   175   9.25    257      -58.4
   10/06/2018 21:10      63.4      62.4       76     55.0      0.00      0.00      77.4     0.31      1009.0     0.2      SE   138   1.2     SSE   154   9.25    264      -56.8
   10/06/2018 21:00      63.8      63.1       76     55.6      0.00      0.00      77.4     0.31      1008.9     1.9     SSW   198   2.6     SSW   213   9.25    268      -59.3
   10/06/2018 20:50      63.6      63.1       76     55.7      0.00      0.00      77.4     0.31      1008.9     0.5     SSW   209   1.9     SSW   207   9.25    269      -54.1
   10/06/2018 20:40      63.5      63.1       76     55.6      0.00      0.00      77.3     0.31      1008.7     0.3     SSW   196   1.3      SE   144   9.25    269      -57.4
   10/06/2018 20:30      63.7      63.1       76     55.5      0.00      0.00      77.4     0.31      1008.7     0.6     SSE   150   1.9      SE   128   9.25    269      -49.6
   10/06/2018 20:20      64.4      63.2       75     55.6      0.00      0.00      77.4     0.31      1008.6     0.2     SSE   157   1.0       S   172   9.25    268      -58.1
   10/06/2018 20:10      64.5      63.8       76     56.2      0.00      0.00      77.3     0.31      1008.3     1.1       E    83   1.8     ENE    66   9.25    268      -63.0
   10/06/2018 20:00      64.7      64.2       75     56.3      0.00      0.00      77.3     0.31      1008.0     0.3     ESE   121   1.3       S   173   9.25    267      -64.6
   10/06/2018 19:50      65.1      64.3       74     56.2      0.00      0.00      77.3     0.31      1007.8     1.0     SSE   157   2.1       S   183   9.25    268      -65.2
   10/06/2018 19:40      65.3      64.8       73     56.1      0.00      0.00      77.3     0.31      1007.7     1.4       S   171   2.7       S   171   9.26    269      -65.9
   10/06/2018 19:30      65.7      65.1       72     56.1      0.00      0.00      77.3     0.31      1007.7     1.8       S   185   2.6       S   181   9.26    268      -66.3
   10/06/2018 19:20      66.1      65.4       70     55.9      0.00      0.00      77.3     0.31      1007.7     0.8       S   183   2.3       S   179   9.26    268      -66.2
   10/06/2018 19:10      66.5      65.8       70     55.9      0.00      0.00      77.2     0.31      1007.7     1.4       S   189   3.0       S   189   9.26    268      -64.9
   10/06/2018 19:00      66.8      66.2       69     55.9      0.00      0.00      77.2     0.31      1007.8     1.6     SSE   161   2.8     SSE   147   9.26    268      -63.0
   10/06/2018 18:50      67.0      66.4       69     56.0      0.00      0.00      77.2     0.31      1007.9     1.7     SSE   167   3.6     ESE   123   9.26    268      -59.9
   10/06/2018 18:40      67.5      66.7       68     56.0      0.00      0.00      77.2     0.31      1007.8     1.9       S   178   4.0     SSW   197   9.27    268      -56.6
   10/06/2018 18:30      67.6      67.1       67     56.0      0.00      0.00      77.1     0.31      1007.9     2.5     SSE   165   4.6     SSE   152   9.27    267      -49.8
   10/06/2018 18:20      67.7      67.2       67     56.0      0.00      0.00      77.1     0.31      1007.9     3.2       S   171   6.2     SSE   152   9.27    267      -44.5
   10/06/2018 18:10      68.3      67.4       66     56.0      0.00      0.00      77.1     0.31      1007.9     3.9       S   177   6.6       S   184   9.27    267      -36.5
   10/06/2018 18:00      68.8      67.9       65     56.2      0.00      0.00      77.1     0.31      1008.0     3.9       S   182   6.8     SSW   202   9.28    267      -15.9
   10/06/2018 17:50      69.0      68.3       65     56.3      0.00      0.00      77.0     0.31      1008.0     3.6       S   172   6.4       S   182   9.28    267       -0.9
   10/06/2018 17:40      69.0      68.6       65     56.5      0.00      0.00      77.0     0.31      1008.0     3.8       S   169   7.2       S   186   9.28    267       -0.4
   10/06/2018 17:30      69.8      68.7       64     56.6      0.00      0.00      77.0     0.31      1008.0     5.0       S   181   7.7     SSE   169   9.28    266        6.4
   10/06/2018 17:20      71.1      69.5       62     56.7      0.00      0.00      76.9     0.31      1008.0     5.1       S   183   8.2     SSW   193   9.29    266       38.3
   10/06/2018 17:10      71.4      70.4       61     56.8      0.00      0.00      76.9     0.31      1008.0     3.8       S   176   6.7       S   188   9.29    266       70.2
   10/06/2018 17:00      71.4      70.8       61     56.8      0.00      0.00      76.9     0.31      1008.0     4.1       S   172   7.0     SSW   196   9.29    266      100.2
   10/06/2018 16:50      71.7      70.9       61     56.9      0.00      0.00      76.9     0.31      1007.9     4.5     SSE   164   8.4       S   188   9.29    266      126.1
   10/06/2018 16:40      72.4      71.4       60     57.0      0.00      0.00      76.8     0.31      1008.0     4.2     SSE   160   7.4       S   172   9.30    266      152.8
   10/06/2018 16:30      72.6      71.8       59     57.3      0.00      0.00      76.8     0.31      1008.0     4.1     SSE   163   7.8     SSE   160   9.30    266      176.9
   10/06/2018 16:20      72.0      71.4       60     57.3      0.00      0.00      76.8     0.31      1008.0     4.7     SSE   164   8.4     SSW   197   9.30    266      205.2
   10/06/2018 16:10      71.9      71.0       61     57.3      0.00      0.00      76.7     0.31      1008.0     5.6     SSE   164   9.8       S   175   9.30    266      225.4
   10/06/2018 16:00      71.4      70.8       62     57.2      0.00      0.00      76.7     0.31      1008.1     6.1     SSE   166  10.8     SSW   195   9.31    266      231.4
   10/06/2018 15:50      72.3      71.2       61     57.3      0.00      0.00      76.6     0.31      1008.2     5.5     SSE   168  10.6       S   188   9.31    266      166.5
   10/06/2018 15:40      72.2      71.2       61     57.3      0.00      0.00      76.6     0.31      1008.2     5.5      SE   146   9.1      SE   139   9.31    266      252.5
   10/06/2018 15:30      72.5      71.3       60     57.4      0.00      0.00      76.5     0.31      1008.3     5.5      SE   146  10.6      SE   128   9.31    266      142.2
   10/06/2018 15:20      73.2      72.3       59     57.6      0.00      0.00      76.5     0.31      1008.2     5.4     SSE   148  10.6     SSW   197   9.32    266      188.2
   10/06/2018 15:10      74.2      72.7       57     57.5      0.00      0.00      76.5     0.31      1008.2     5.4     SSE   162  11.6     SSW   193   9.32    266      304.0
   10/06/2018 15:00      74.7      73.3       57     57.4      0.00      0.00      76.4     0.31      1008.4     6.1     SSE   155  10.3      SE   133   9.32    265      423.2
   10/06/2018 14:50      74.8      73.8       55     57.4      0.00      0.00      76.4     0.31      1008.3     5.3       S   174   9.7       S   188   9.32    265      417.4
   10/06/2018 14:40      74.8      73.3       56     57.4      0.00      0.00      76.4     0.31      1008.3     5.0     SSE   168   9.0     SSE   159   9.33    265      395.4
   10/06/2018 14:30      75.0      73.7       55     57.3      0.00      0.00      76.4     0.31      1008.4     6.0     SSE   164  11.2     ESE   120   9.33    266      475.0
   10/06/2018 14:20      74.6      73.3       56     57.2      0.00      0.00      76.3     0.31      1008.4     6.1       S   185  10.1     SSW   193   9.33    266      394.2
   10/06/2018 14:10      75.2      74.2       55     57.4      0.00      0.00      76.3     0.31      1008.5     6.0     SSE   155  10.4     SSE   163   9.33    266      430.8
   10/06/2018 14:00      75.6      74.6       55     57.6      0.00      0.00      76.3     0.31      1008.7     6.4     SSE   154  12.3     ESE   118   9.33    266      438.0
   10/06/2018 13:50      75.3      73.5       55     57.5      0.00      0.00      76.3     0.31      1008.7     5.3       S   184   9.9       S   189   9.34    265      483.2
   10/06/2018 13:40      75.3      73.6       55     57.4      0.00      0.00      76.3     0.31      1008.9     5.8       S   182  10.7       S   189   9.34    266      406.3
   10/06/2018 13:30      75.0      74.3       54     56.9      0.00      0.00      76.3     0.31      1009.1     6.4       S   187  10.7     SSW   213   9.34    266      362.3
   10/06/2018 13:20      76.8      74.3       53     56.9      0.00      0.00      76.2     0.31      1009.3     5.8       S   171  10.8     ESE   122   9.34    266      389.3
   10/06/2018 13:10      77.5      76.5       42     52.1      0.00      0.00      76.2     0.31      1009.4     2.5     SSE   162   6.5      SE   136   9.34    265      371.3
   10/06/2018 13:00      76.7      75.4       40     49.8      0.00      0.00      76.2     0.31      1009.7     2.5      SE   140   5.4     ESE   121   9.34    264      381.0
   10/06/2018 12:50      76.2      75.2       41     50.3      0.00      0.00      76.2     0.31      1009.7     2.6       S   178   6.7       S   189   9.34    265      411.2
   10/06/2018 12:40      77.0      75.3       41     50.5      0.00      0.00      76.2     0.31      1009.9     3.2      SW   221   7.1      SW   223   9.34    265      378.6
   10/06/2018 12:30      76.5      75.9       41     51.2      0.00      0.00      76.3     0.31      1010.1     2.8     WNW   291   6.5       W   270   9.34    265      378.8
   10/06/2018 12:20      76.1      74.0       45     52.0      0.00      0.00      76.3     0.31      1010.3     1.4     WNW   303   5.7       W   268   9.34    265      382.8
   10/06/2018 12:10      75.3      74.2       47     53.3      0.00      0.00      76.3     0.31      1010.4     3.1       S   171   6.9     SSW   213   9.34    266      408.9
   10/06/2018 12:00      74.4      73.4       50     54.1      0.00      0.00      76.3     0.31      1010.7     1.7       E    96   4.7     SSE   147   9.34    266      408.2
   10/06/2018 11:50      73.6      72.1       52     54.2      0.00      0.00      76.3     0.31      1011.0     1.9     NNW   338   4.2       N    11   9.34    266      438.4
   10/06/2018 11:40      72.5      71.3       54     54.2      0.00      0.00      76.3     0.31      1011.2     1.8       S   180   4.1     SSW   198   9.35    266      285.0
   10/06/2018 11:30      71.8      70.6       56     54.6      0.00      0.00      76.3     0.31      1011.3     1.8     ESE   108   3.6     ENE    63   9.34    266      455.7
   10/06/2018 11:20      70.8      70.2       57     54.6      0.00      0.00      76.3     0.31      1011.4     1.4      SW   228   4.1     WSW   253   9.34    266      211.4
   10/06/2018 11:10      70.8      69.7       58     55.2      0.00      0.00      76.3     0.31      1011.5     1.6     NNE    30   3.0      NE    46   9.34    266      338.8
   10/06/2018 11:00      69.7      68.9       61     55.2      0.00      0.00      76.3     0.31      1011.7     1.1       E    93   2.6       E    80   9.34    267      236.3
   10/06/2018 10:50      69.3      67.9       64     55.7      0.00      0.00      76.4     0.31      1011.7     1.2      SE   145   4.3      SE   135   9.34    267      207.9
   10/06/2018 10:40      68.3      67.3       66     55.8      0.00      0.00      76.4     0.31      1011.8     2.7     SSW   206   6.2      SE   139   9.34    267      325.8
   10/06/2018 10:30      68.5      67.2       66     55.8      0.00      0.00      76.4     0.31      1011.8     2.1       S   169   4.2     SSE   150   9.34    267      250.5
   10/06/2018 10:20      69.3      68.2       64     55.9      0.00      0.00      76.5     0.31      1011.9     1.1     SSW   193   3.0      SW   226   9.34    267      238.5
   10/06/2018 10:10      68.4      67.2       66     55.8      0.00      0.00      76.5     0.31      1011.8     1.0      NE    55   3.0       E    94   9.34    267      253.8
   10/06/2018 10:00      67.3      66.3       68     55.6      0.00      0.00      76.5     0.31      1011.7     1.9     ENE    75   3.9       E    98   9.34    268      237.8
   10/06/2018 09:50      66.9      66.2       69     56.2      0.00      0.00      76.5     0.31      1011.7     1.8       N   357   3.7       N     9   9.34    268      165.6
   10/06/2018 09:40      66.4      65.2       72     56.4      0.00      0.00      76.6     0.31      1011.7     1.3      SE   131   4.2     SSE   153   9.34    268      227.4
   10/06/2018 09:30      65.3      64.7       74     56.5      0.00      0.00      76.6     0.31      1011.8     0.6     ESE   122   1.6     ESE   121   9.34    268      125.2
   10/06/2018 09:20      65.0      64.5       74     56.3      0.00      0.00      76.6     0.31      1011.9     1.1     NNW   342   2.3       N   355   9.34    268      103.9
   10/06/2018 09:10      65.0      64.3       74     56.1      0.00      0.00      76.7     0.31      1011.9     1.1     ENE    65   2.4     NNE    21   9.34    269       90.8
   10/06/2018 09:00      65.0      64.4       74     56.2      0.00      0.00      76.7     0.31      1012.0     0.8     ENE    64   3.1     NNE    24   9.34    269       71.0
   10/06/2018 08:50      65.3      64.8       74     56.5      0.00      0.00      76.7     0.31      1012.1     0.9     NNW   343   2.9      NW   317   9.34    269       84.5
   10/06/2018 08:40      65.2      64.7       75     56.9      0.00      0.00      76.8     0.31      1012.0     0.8     ESE   123   2.5       E   101   9.34    269      139.7
   10/06/2018 08:30      64.9      62.2       80     57.0      0.00      0.00      76.8     0.31      1012.0     0.0     ENE    67   1.0       E    80   9.34    270      163.7
   10/06/2018 08:20      62.3      60.4       83     56.0      0.00      0.00      76.8     0.31      1012.2     0.6       N   352   1.8     NNW   336   9.34    270      101.3
   10/06/2018 08:10      60.6      59.1       85     55.2      0.00      0.00      76.8     0.31      1012.2     0.7       N   360   2.3       N     3   9.34    270       73.4
   10/06/2018 08:00      59.2      58.3       86     54.4      0.00      0.00      76.9     0.31      1012.1     0.9     SSE   162   2.2      SW   222   9.35    269       38.2
   10/06/2018 07:50      58.4      57.7       87     54.2      0.00      0.00      76.8     0.31      1012.0     0.3     SSE   168   1.7      SW   224   9.35    262       20.0
   10/06/2018 07:40      58.0      57.0       88     53.9      0.00      0.00      76.9     0.31      1011.9     0.0      SE   139   1.0      SE   139   9.35    253       14.6
   10/06/2018 07:30      57.2      56.4       88     53.4      0.00      0.00      77.0     0.31      1011.8     0.0       N     0   0.0      SW   222   9.35    258        7.2
   10/06/2018 07:20      56.9      56.0       89     53.2      0.00      0.00      76.9     0.31      1011.8     0.0     SSW   213   0.5      SW   222   9.35    253       -5.5
   10/06/2018 07:10      56.3      55.6       89     52.8      0.00      0.00      77.0     0.31      1011.7     0.6     SSW   196   1.6     SSW   194   9.35    262       -4.9
   10/06/2018 07:00      55.9      55.5       89     52.5      0.00      0.00      77.0     0.31      1011.7     0.4       S   182   1.8     SSW   194   9.35    274      -18.0
   10/06/2018 06:50      56.1      55.6       89     52.7      0.00      0.00      77.0     0.31      1011.7     0.3     SSE   155   1.5      SE   143   9.35    277      -24.5
   10/06/2018 06:40      56.3      55.7       89     52.7      0.00      0.00      77.1     0.31      1011.5     0.0     SSE   156   0.7       S   171   9.35    276      -24.9
   10/06/2018 06:30      56.4      56.0       89     53.0      0.00      0.00      77.1     0.31      1011.3     0.0      SE   142   0.8      SE   142   9.35    275      -25.1
   10/06/2018 06:20      56.6      56.1       89     53.2      0.00      0.00      77.2     0.31      1011.2     0.0       N     0   0.0      SE   142   9.35    275      -25.8
   10/06/2018 06:10      56.6      56.0       89     53.1      0.00      0.00      77.2     0.31      1011.0     0.8     SSE   163   1.8       S   176   9.35    276      -27.2
   10/06/2018 06:00      56.8      56.0       89     53.2      0.00      0.00      77.2     0.31      1011.0     0.7     SSE   162   2.2       S   184   9.35    275      -28.5
   10/06/2018 05:50      56.6      55.4       89     52.6      0.00      0.00      77.2     0.31      1011.0     1.6       S   176   3.7       S   183   9.35    275      -28.8
   10/06/2018 05:40      56.4      55.8       89     52.8      0.00      0.00      77.3     0.31      1011.1     0.4     SSE   153   1.2     SSE   147   9.35    275      -28.7
   10/06/2018 05:30      56.3      55.5       89     52.7      0.00      0.00      77.3     0.31      1011.0     0.0       N   355   0.5       N   355   9.35    275      -29.1
   10/06/2018 05:20      56.2      55.5       89     52.5      0.00      0.00      77.3     0.31      1010.7     0.8     SSE   168   1.8     SSE   151   9.35    273      -30.0
   10/06/2018 05:10      56.4      55.7       88     52.5      0.00      0.00      77.4     0.31      1010.8     0.6     SSE   154   1.1      SE   128   9.35    273      -30.1
   10/06/2018 05:00      56.5      56.0       88     52.7      0.00      0.00      77.4     0.31      1010.8     0.0      SE   129   0.7      SE   129   9.35    273      -30.4
   10/06/2018 04:50      56.7      56.1       88     52.9      0.00      0.00      77.3     0.31      1010.7     0.0     NNE    28   0.5     NNE    28   9.35    271      -31.4
   10/06/2018 04:40      56.8      56.4       88     53.0      0.00      0.00      77.4     0.31      1010.7     0.3      SE   144   1.4      SE   141   9.35    271      -33.0
   10/06/2018 04:30      57.4      56.6       87     53.1      0.00      0.00      77.5     0.31      1010.8     0.6       S   170   1.4       S   178   9.35    268      -33.3
   10/06/2018 04:20      57.6      56.9       87     53.5      0.00      0.00      77.5     0.31      1010.9     0.0       S   178   0.2       S   178   9.35    267      -34.0
   10/06/2018 04:10      57.7      57.2       87     53.6      0.00      0.00      77.5     0.31      1011.0     0.1       S   178   0.7       S   178   9.35    265      -34.3
   10/06/2018 04:00      57.5      57.0       87     53.4      0.00      0.00      77.5     0.31      1011.0     0.4       S   172   1.0       S   171   9.35    259      -34.6
   10/06/2018 03:50      57.6      56.9       86     53.0      0.00      0.00      77.5     0.31      1011.0     0.5     SSE   154   1.9      SE   143   9.35    261      -36.8
   10/06/2018 03:40      57.6      57.2       86     53.3      0.00      0.00      77.6     0.31      1011.1     0.6     SSE   159   1.8      SE   144   9.35    258      -36.5
   10/06/2018 03:30      57.5      57.2       86     53.1      0.00      0.00      77.6     0.31      1011.4     0.1     SSW   204   0.7     SSW   204   9.35    255      -36.5
   10/06/2018 03:20      57.8      57.3       85     53.2      0.00      0.00      77.6     0.31      1011.5     0.2     ESE   109   0.9      SE   134   9.35    254      -38.7
   10/06/2018 03:10      58.6      57.5       86     53.7      0.00      0.00      77.7     0.31      1011.4     0.6     SSE   160   1.8      SE   142   9.35    257      -38.3
   10/06/2018 03:00      58.9      58.3       86     54.3      0.00      0.00      77.7     0.31      1011.5     0.0     SSE   155   0.5     SSE   155   9.35    258      -38.2
   10/06/2018 02:50      58.8      58.4       86     54.4      0.00      0.00      77.7     0.31      1011.6     0.3     SSE   158   1.6     SSE   152   9.35    260      -40.3
   10/06/2018 02:40      58.8      58.1       86     54.4      0.00      0.00      77.7     0.31      1011.6     1.0     SSE   159   2.7      SE   145   9.36    259      -41.2
   10/06/2018 02:30      58.9      58.4       87     54.7      0.00      0.00      77.8     0.31      1012.0     0.7     SSE   161   1.7     SSE   153   9.36    260      -40.4
   10/06/2018 02:20      59.2      58.3       86     54.4      0.00      0.00      77.8     0.31      1012.0     0.5       S   171   1.2       S   174   9.36    257      -42.6
   10/06/2018 02:10      59.4      59.0       86     54.9      0.00      0.00      77.8     0.31      1012.1     0.2     SSE   161   0.9     SSE   161   9.36    262      -43.9
   10/06/2018 02:00      59.5      59.0       85     54.6      0.00      0.00      77.7     0.31      1012.1     0.0       N     0   0.0      SE   145   9.36    257      -47.0
   10/06/2018 01:50      59.6      58.9       84     54.3      0.00      0.00      77.8     0.31      1012.1     0.7      SE   144   1.4      SE   142   9.36    256      -50.9
   10/06/2018 01:40      59.6      59.2       83     54.1      0.00      0.00      77.9     0.31      1012.0     0.6     SSE   161   1.3     SSE   146   9.36    251      -53.5
   10/06/2018 01:30      59.7      59.2       82     53.9      0.00      0.00      77.9     0.31      1012.0     0.7     SSE   161   1.3     SSE   168   9.36    250      -54.5
   10/06/2018 01:20      59.7      59.3       81     53.6      0.00      0.00      77.9     0.31      1012.1     0.6     SSE   158   1.4      SE   126   9.36    253      -54.2
   10/06/2018 01:10      60.1      59.2       80     53.5      0.00      0.00      77.9     0.31      1012.1     0.4     SSE   160   1.5      SE   135   9.36    261      -54.9
   10/06/2018 01:00      60.2      59.5       79     53.3      0.00      0.00      77.9     0.32      1012.2     0.3     SSE   164   1.2       S   182   9.36    255      -54.4
   10/06/2018 00:50      60.6      60.0       78     53.3      0.00      0.00      77.9     0.31      1012.3     0.3     SSE   153   1.2     SSE   157   9.36    261      -54.1
   10/06/2018 00:40      60.8      60.2       76     52.8      0.00      0.00      78.0     0.31      1012.3     0.6     SSE   169   1.0     SSE   154   9.36    266      -54.6
   10/06/2018 00:30      60.9      60.3       76     52.9      0.00      0.00      77.9     0.31      1012.3     0.6     SSW   197   1.5     SSW   194   9.36    269      -54.2
   10/06/2018 00:20      61.4      60.6       75     53.0      0.00      0.00      78.0     0.31      1012.2     0.0       N     0   0.0     ESE   108   9.37    266      -55.4
   10/06/2018 00:10      61.4      60.9       76     53.4      0.00      0.00      78.0     0.32      1012.4     0.5       S   187   1.5     SSW   204   9.37    267      -56.2
   10/06/2018 00:00      61.4      60.8       76     53.3      0.00      0.00      78.0     0.32      1012.5     0.8     SSE   152   1.9     SSE   151   9.37    264      -56.9
   10/05/2018 23:50      61.7      61.1       75     53.2      0.00      0.00      78.0     0.32      1012.7     0.6       S   176   1.1     SSE   147   9.37    268      -57.0
   10/05/2018 23:40      61.9      61.3       74     53.1      0.00      0.00      78.0     0.32      1012.8     0.5       S   191   1.4       S   184   9.37    269      -56.3
   10/05/2018 23:30      62.1      61.4       73     52.9      0.00      0.00      78.0     0.32      1012.6     0.0       N     0   0.0     ESE   104   9.37    267      -56.6
   10/05/2018 23:20      62.1      61.7       73     53.3      0.00      0.00      78.0     0.32      1012.4     0.3      SE   139   1.2     SSE   149   9.37    269      -57.5
   10/05/2018 23:10      62.5      61.8       73     53.3      0.00      0.00      78.0     0.32      1012.5     0.8     SSE   157   1.8      SE   146   9.37    269      -57.8
   10/05/2018 23:00      62.7      61.9       72     53.1      0.00      0.00      78.0     0.32      1012.7     0.3     SSE   164   1.3     SSE   154   9.37    269      -58.1
   10/05/2018 22:50      63.3      62.3       71     53.2      0.00      0.00      78.1     0.32      1012.7     0.6     SSE   165   1.4       S   172   9.37    269      -58.2
   10/05/2018 22:40      63.4      62.9       70     53.1      0.00      0.00      78.0     0.32      1012.6     0.2     SSE   168   0.9       S   171   9.38    269      -57.9
   10/05/2018 22:30      63.5      62.9       70     53.0      0.00      0.00      78.0     0.32      1012.6     0.0       N     0   0.0     SSE   158   9.38    268      -58.4
   10/05/2018 22:20      63.8      63.2       70     53.3      0.00      0.00      78.1     0.32      1012.6     0.6     SSE   167   1.4      SE   146   9.38    268      -59.7
   10/05/2018 22:10      63.8      63.4       69     53.4      0.00      0.00      78.0     0.32      1012.7     0.0      SE   146   0.5     SSE   147   9.38    268      -59.6
   10/05/2018 22:00      64.4      63.6       68     53.4      0.00      0.00      78.0     0.32      1012.6     0.5     SSE   150   1.3      SE   146   9.38    268      -61.0
   10/05/2018 21:50      65.2      64.1       67     53.4      0.00      0.00      78.0     0.32      1012.5     0.7      SE   140   2.0      SE   141   9.38    267      -62.1
   10/05/2018 21:40      65.5      64.5       66     53.4      0.00      0.00      78.0     0.32      1012.6     1.5       S   181   2.5       S   182   9.38    267      -62.3
   10/05/2018 21:30      65.5      64.9       65     53.3      0.00      0.00      78.0     0.32      1012.6     1.4     SSW   193   2.1       S   189   9.38    267      -63.0
   10/05/2018 21:20      66.6      65.1       63     53.0      0.00      0.00      78.0     0.32      1012.7     0.9      SE   143   1.9      SE   137   9.38    267      -63.6
   10/05/2018 21:10      66.5      65.5       63     53.1      0.00      0.00      78.0     0.32      1012.7     1.6     SSW   210   2.2     SSW   205   9.39    267      -63.1
   10/05/2018 21:00      66.4      65.5       62     52.5      0.00      0.00      78.0     0.32      1012.8     0.4     SSE   166   2.1     SSW   204   9.39    267      -64.6
   10/05/2018 20:50      67.2      66.3       60     52.4      0.00      0.00      78.0     0.32      1012.8     0.6       S   170   1.6       S   179   9.39    266      -64.9
   10/05/2018 20:40      67.5      66.8       60     52.6      0.00      0.00      78.0     0.32      1012.8     0.0     SSW   202   0.4     SSW   200   9.39    266      -65.1
   10/05/2018 20:30      69.0      67.2       58     52.5      0.00      0.00      78.0     0.32      1012.9     0.2     SSE   146   1.0      SE   131   9.39    266      -67.0
   10/05/2018 20:20      69.5      68.7       57     53.1      0.00      0.00      77.9     0.32      1012.9     0.2       S   176   1.5       S   176   9.40    266      -69.1
   10/05/2018 20:10      70.0      69.1       55     52.8      0.00      0.00      77.9     0.32      1012.8     1.6       S   169   3.0       S   176   9.40    266      -70.7
   10/05/2018 20:00      70.1      69.6       55     52.8      0.00      0.00      77.9     0.32      1012.8     2.0     SSW   205   3.7     SSW   205   9.40    266      -71.9
   10/05/2018 19:50      70.8      69.7       54     52.9      0.00      0.00      77.8     0.31      1012.8     2.6     SSW   193   4.0     SSW   196   9.40    266      -72.7
   10/05/2018 19:40      71.8      70.6       53     53.1      0.00      0.00      77.9     0.31      1012.9     2.7      SW   224   5.1       W   262   9.40    266      -74.0
   10/05/2018 19:30      72.3      71.6       52     53.2      0.00      0.00      77.8     0.32      1012.8     1.8       W   270   4.4     WSW   238   9.41    266      -75.2
   10/05/2018 19:20      72.6      71.9       51     53.2      0.00      0.00      77.8     0.31      1012.8     1.7     WNW   289   3.9       W   281   9.41    266      -75.2
   10/05/2018 19:10      73.1      72.4       50     53.1      0.00      0.00      77.8     0.32      1012.7     2.0      NW   304   4.1     WNW   304   9.41    266      -72.2
   10/05/2018 19:00      73.7      72.8       49     52.8      0.00      0.00      77.8     0.31      1012.6     2.8     WNW   284   4.5       W   270   9.41    266      -66.8
   10/05/2018 18:50      74.4      73.5       47     52.4      0.00      0.00      77.8     0.32      1012.8     1.7     WNW   285   3.8     WSW   256   9.41    265      -68.9
   10/05/2018 18:40      75.5      74.1       44     51.4      0.00      0.00      77.7     0.31      1012.7     2.1     WNW   302   4.6     WNW   285   9.42    265      -74.1
   10/05/2018 18:30      76.2      75.2       40     49.7      0.00      0.00      77.7     0.31      1012.6     1.2      NW   310   4.4      NW   308   9.42    265      -73.8
   10/05/2018 18:20      76.6      75.8       38     48.9      0.00      0.00      77.7     0.31      1012.5     1.2     WNW   285   3.8       W   264   9.42    264      -70.5
   10/05/2018 18:10      77.2      76.3       38     48.9      0.00      0.00      77.7     0.31      1012.5     1.4      NW   309   3.5     WNW   299   9.43    264      -68.8
   10/05/2018 18:00      77.5      76.9       37     48.7      0.00      0.00      77.6     0.31      1012.4     2.2     WNW   296   5.0       W   277   9.43    264      -46.6
   10/05/2018 17:50      77.7      77.2       37     49.0      0.00      0.00      77.5     0.31      1012.3     3.6      NW   321   6.2     NNW   348   9.43    264      -25.9
   10/05/2018 17:40      78.1      77.4       37     49.3      0.00      0.00      77.5     0.31      1012.4     2.9     NNW   338   5.3       N   350   9.43    264       -6.5
   10/05/2018 17:30      78.2      77.7       37     49.3      0.00      0.00      77.5     0.31      1012.5     3.0      NW   325   6.2     NNW   342   9.44    264       16.8
   10/05/2018 17:20      78.7      77.7       36     49.3      0.00      0.00      77.4     0.31      1012.4     3.7      NW   325   7.5       N     2   9.44    264       41.1
   10/05/2018 17:10      78.8      78.2       36     49.5      0.00      0.00      77.4     0.31      1012.4     3.4     NNW   333   6.6     WNW   299   9.44    264       65.2
   10/05/2018 17:00      79.0      78.3       36     49.4      0.00      0.00      77.3     0.31      1012.4     4.2     NNW   328   8.3     NNW   330   9.45    264       91.9
   10/05/2018 16:50      79.1      78.5       37     50.0      0.00      0.00      77.3     0.31      1012.4     4.3     NNW   329   8.2      NW   319   9.45    264      118.4
   10/05/2018 16:40      79.2      78.5       36     49.9      0.00      0.00      77.3     0.31      1012.4     4.2      NW   319   8.9     NNW   330   9.45    264      148.5
   10/05/2018 16:30      80.0      78.5       37     50.6      0.00      0.00      77.2     0.31      1012.4     5.5      NW   324   9.2      NW   304   9.46    264      134.3
   10/05/2018 16:20      80.1      79.4       39     52.5      0.00      0.00      77.2     0.31      1012.5     4.7      NW   322  10.3     WSW   256   9.46    264      205.9
   10/05/2018 16:10      80.0      79.4       44     55.5      0.00      0.00      77.1     0.31      1012.4     3.4     NNE    21   9.7     NNE    29   9.46    265      209.6
   10/05/2018 16:00      79.9      79.3       47     57.8      0.00      0.00      77.0     0.31      1012.4     2.5     NNE    31   5.5     NNW   331   9.47    265      218.0
   10/05/2018 15:50      80.7      79.0       47     57.7      0.00      0.00      77.0     0.31      1012.4     3.4     ENE    59   6.3      NE    36   9.47    265      240.3
   10/05/2018 15:40      81.3      80.0       46     57.7      0.00      0.00      76.9     0.31      1012.4     2.9      NE    40   5.9     ENE    63   9.47    264      260.4
   10/05/2018 15:30      81.3      80.3       45     57.7      0.00      0.00      76.8     0.31      1012.5     2.7      NE    54   4.5      NE    40   9.47    264      279.1
   10/05/2018 15:20      80.8      80.2       46     57.8      0.00      0.00      76.9     0.31      1012.5     2.6      NE    34   6.0     ENE    56   9.47    264      301.4
   10/05/2018 15:10      81.5      80.5       45     57.7      0.00      0.00      76.8     0.31      1012.6     3.0      NE    41   6.0     NNE    29   9.47    264      328.8
   10/05/2018 15:00      81.5      79.7       45     57.6      0.00      0.00      76.8     0.31      1012.7     2.2     NNE    32   4.3     NNE    24   9.48    264      349.6
   10/05/2018 14:50      80.2      79.0       47     57.3      0.00      0.00      76.7     0.31      1012.8     3.8      NE    46   8.1       N     5   9.48    264      367.6
   10/05/2018 14:40      80.3      79.7       46     57.3      0.00      0.00      76.7     0.31      1012.9     3.4     NNE    32   7.2       N     0   9.48    264      382.0
   10/05/2018 14:30      80.6      79.9       46     57.3      0.00      0.00      76.6     0.31      1012.9     4.0     ENE    63  10.2     NNW   345   9.48    264      400.1
   10/05/2018 14:20      81.8      79.7       45     57.0      0.00      0.00      76.6     0.31      1013.1     3.1     ESE   118   6.8      SE   129   9.48    264      416.1
   10/05/2018 14:10      82.0      80.5       44     57.1      0.00      0.00      76.6     0.31      1013.2     2.6       E    96   6.3     SSE   152   9.48    264      426.9
   10/05/2018 14:00      81.1      79.4       46     57.3      0.00      0.00      76.6     0.31      1013.4     2.1     NNE    32   5.4      NW   313   9.48    264      437.7
   10/05/2018 13:50      80.8      79.4       44     56.1      0.00      0.00      76.5     0.31      1013.5     3.6     SSE   167   6.4      SE   145   9.49    264      451.0
   10/05/2018 13:40      81.0      79.7       42     55.4      0.00      0.00      76.5     0.31      1013.7     3.0     SSE   166   6.5     SSE   165   9.49    264      467.5
   10/05/2018 13:30      80.5      79.8       42     54.6      0.00      0.00      76.5     0.31      1013.8     4.4     SSW   194   8.2      SE   140   9.49    264      446.7
   10/05/2018 13:20      81.2      79.5       43     55.4      0.00      0.00      76.4     0.31      1013.8     3.5     ESE   108   6.7     ESE   121   9.49    264      467.7
   10/05/2018 13:10      83.4      81.0       41     56.4      0.00      0.00      76.4     0.31      1013.8     4.2      NE    51   7.7     ENE    59   9.49    264      467.4
   10/05/2018 13:00      84.2      83.1       35     52.9      0.00      0.00      76.4     0.31      1014.0     2.5      NE    50   5.0     NNE    23   9.49    264      467.5
   10/05/2018 12:50      83.8      82.0       31     49.3      0.00      0.00      76.4     0.31      1014.1     1.8       N     7   4.3     NNW   327   9.49    264      470.0
   10/05/2018 12:40      83.8      82.6       31     49.4      0.00      0.00      76.4     0.31      1014.3     2.4     NNE    15   6.5     NNE    23   9.49    264      463.4
   10/05/2018 12:30      83.0      81.1       32     49.5      0.00      0.00      76.4     0.31      1014.4     1.8     ENE    78   4.2      NE    43   9.49    264      474.3
   10/05/2018 12:20      81.1      79.6       34     49.1      0.00      0.00      76.4     0.31      1014.5     3.6       S   179   6.4     SSW   191   9.49    264      478.1
   10/05/2018 12:10      81.5      79.5       33     49.1      0.00      0.00      76.4     0.31      1014.7     3.7       S   185   7.0     SSW   202   9.50    264      473.9
   10/05/2018 12:00      80.8      79.0       34     48.9      0.00      0.00      76.4     0.31      1014.8     3.5       W   278   8.2       W   259   9.50    264      469.3
   10/05/2018 11:50      79.6      78.6       35     48.7      0.00      0.00      76.4     0.31      1014.9     2.9      SW   225   5.8     SSW   206   9.50    265      464.4
   10/05/2018 11:40      79.0      78.4       35     49.1      0.00      0.00      76.4     0.31      1015.0     2.7      SW   214   8.0       W   278   9.50    265      456.5
   10/05/2018 11:30      78.8      77.2       37     49.5      0.00      0.00      76.4     0.31      1015.1     3.0      SW   228   6.2       W   279   9.50    266      450.3
   10/05/2018 11:20      77.4      75.8       42     51.6      0.00      0.00      76.5     0.31      1015.2     3.5     WSW   240   7.2     WSW   237   9.50    266      442.7
   10/05/2018 11:10      76.4      75.8       43     51.8      0.00      0.00      76.5     0.31      1015.4     3.9     WSW   258   6.7     WSW   252   9.50    266      432.4
   10/05/2018 11:00      76.1      73.7       45     52.0      0.00      0.00      76.5     0.31      1015.7     2.7     WNW   281   5.9       W   269   9.50    266      421.1
   10/05/2018 10:50      73.6      72.4       51     53.6      0.00      0.00      76.5     0.31      1015.8     3.6       W   277   5.9       W   270   9.50    266      410.0
   10/05/2018 10:40      72.6      71.1       54     54.2      0.00      0.00      76.6     0.31      1016.0     2.9     WNW   283   5.5      NW   311   9.50    266      396.1
   10/05/2018 10:30      71.3      70.2       57     54.6      0.00      0.00      76.5     0.31      1016.2     2.6     WSW   248   6.2     WSW   245   9.50    266      381.6
   10/05/2018 10:20      70.2      68.9       59     54.6      0.00      0.00      76.6     0.31      1016.4     2.0     WSW   238   4.2       W   261   9.50    266      365.3
   10/05/2018 10:10      69.4      68.0       63     55.5      0.00      0.00      76.6     0.31      1016.6     2.4      SW   227   5.1       W   270   9.50    267      349.8
   10/05/2018 10:00      68.3      67.4       65     55.6      0.00      0.00      76.6     0.31      1016.7     2.4       W   260   5.7     WSW   252   9.50    267      330.3
   10/05/2018 09:50      68.2      66.9       67     56.0      0.00      0.00      76.7     0.31      1016.7     2.2       W   269   5.9       W   261   9.50    267      310.3
   10/05/2018 09:40      67.3      65.8       69     56.1      0.00      0.00      76.7     0.31      1016.8     2.0       W   268   4.8      SW   235   9.50    267      289.0
   10/05/2018 09:30      66.3      65.5       70     56.0      0.00      0.00      76.7     0.31      1016.8     2.2     WSW   246   4.6     SSW   201   9.50    268      268.9
   10/05/2018 09:20      66.1      65.4       71     56.0      0.00      0.00      76.7     0.31      1016.8     1.7     WSW   256   4.5     WSW   255   9.50    268      246.8
   10/05/2018 09:10      65.6      63.9       74     56.2      0.00      0.00      76.8     0.31      1017.0     1.2     NNW   337   4.1      NW   312   9.50    268      238.2
   10/05/2018 09:00      64.0      63.0       77     56.0      0.00      0.00      76.8     0.31      1017.0     1.5       W   278   3.8     WSW   257   9.50    269      151.4
   10/05/2018 08:50      63.3      62.5       78     56.0      0.00      0.00      76.8     0.31      1017.0     1.3       W   262   3.3      SW   228   9.50    270       93.5
   10/05/2018 08:40      62.8      62.0       80     56.1      0.00      0.00      76.8     0.31      1017.1     0.6      SW   236   2.6     SSW   213   9.50    270       73.7
   10/05/2018 08:30      62.4      61.9       80     55.9      0.00      0.00      76.8     0.31      1017.1     1.5       W   268   2.5       N   352   9.50    270       65.6
   10/05/2018 08:20      62.2      61.8       81     56.2      0.00      0.00      76.9     0.31      1017.0     1.3      NW   311   2.6     WNW   295   9.50    270       49.6
   10/05/2018 08:10      62.0      61.3       83     56.5      0.00      0.00      76.9     0.31      1016.9     1.1     WNW   282   2.8     WSW   247   9.50    270       45.7
   10/05/2018 08:00      61.6      61.1       85     56.6      0.00      0.00      76.9     0.31      1016.8     1.4     WNW   283   2.3     WNW   297   9.50    269       40.5
   10/05/2018 07:50      61.3      60.8       85     56.6      0.00      0.00      76.9     0.31      1016.6     1.1      NW   316   2.1     NNW   329   9.50    264       16.5
   10/05/2018 07:40      61.1      60.4       86     56.5      0.00      0.00      77.0     0.31      1016.5     0.7      NW   325   1.9      NW   309   9.50    265       15.8
   10/05/2018 07:30      60.8      60.1       87     56.4      0.00      0.00      77.0     0.31      1016.5     1.2     WSW   245   2.1     WSW   253   9.50    258        8.2
   10/05/2018 07:20      60.5      60.1       87     56.3      0.00      0.00      77.0     0.31      1016.4     1.2      SW   223   2.0     WSW   237   9.50    257       -7.5
   10/05/2018 07:10      60.4      60.1       87     56.3      0.00      0.00      77.1     0.31      1016.3     1.0      SW   220   1.7     SSW   213   9.50    251      -15.4
   10/05/2018 07:00      60.5      59.9       87     56.3      0.00      0.00      77.1     0.31      1016.3     0.9     SSW   208   2.0     SSW   213   9.50    254       -8.4
   10/05/2018 06:50      60.2      59.8       88     56.4      0.00      0.00      77.2     0.31      1016.2     0.5      SW   227   1.4     SSE   164   9.50    251      -10.4
   10/05/2018 06:40      60.1      59.4       88     56.2      0.00      0.00      77.2     0.31      1016.1     0.7     NNW   345   2.4       N     7   9.50    251       -8.1
   10/05/2018 06:30      59.8      59.1       88     55.9      0.00      0.00      77.2     0.31      1016.0     0.8     WNW   282   1.8     WSW   240   9.50    254       -8.1
   10/05/2018 06:20      59.4      58.9       89     55.8      0.00      0.00      77.2     0.31      1016.0     0.0      NW   324   1.4      NW   323   9.50    254       -7.3
   10/05/2018 06:10      59.2      58.5       89     55.8      0.00      0.00      77.2     0.31      1015.9     0.7     NNW   342   2.9     SSW   200   9.50    248      -10.2
   10/05/2018 06:00      58.8      58.0       90     55.3      0.00      0.00      77.3     0.31      1015.8     0.6      SW   222   2.2     SSW   195   9.50    247      -15.1
   10/05/2018 05:50      58.2      57.6       90     54.8      0.00      0.00      77.3     0.31      1015.8     0.5      SW   232   2.3      SW   232   9.50    256       -7.9
   10/05/2018 05:40      57.8      57.5       90     54.6      0.00      0.00      77.3     0.31      1015.8     0.2       S   182   1.1     SSW   207   9.50    279       -5.8
   10/05/2018 05:30      57.7      57.4       90     54.6      0.00      0.00      77.3     0.31      1015.8     0.5       S   189   1.6     SSW   199   9.50    291      -18.7
   10/05/2018 05:20      57.7      57.2       90     54.6      0.00      0.00      77.4     0.31      1015.8     0.6     SSW   213   1.9      SW   231   9.50    293      -18.0
   10/05/2018 05:10      57.4      57.0       91     54.5      0.00      0.00      77.4     0.31      1015.7     0.7     ESE   101   1.8      NE    50   9.50    296      -11.1
   10/05/2018 05:00      57.3      56.2       91     54.0      0.00      0.00      77.4     0.31      1015.7     1.5      SW   214   2.6     WSW   246   9.50    299      -15.8
   10/05/2018 04:50      56.4      56.0       90     53.3      0.00      0.00      77.4     0.31      1015.7     0.2     SSE   158   1.2      SE   146   9.50    300      -16.9
   10/05/2018 04:40      56.9      56.1       90     53.5      0.00      0.00      77.5     0.31      1015.7     0.5      SE   141   1.9      SE   137   9.50    300      -30.3
   10/05/2018 04:30      57.2      56.4       90     53.8      0.00      0.00      77.5     0.31      1015.6     0.9     SSW   204   1.8      SW   221   9.50    297      -29.8
   10/05/2018 04:20      57.2      56.7       90     54.1      0.00      0.00      77.5     0.31      1015.6     1.6     SSW   198   2.3     SSW   194   9.50    294      -31.0
   10/05/2018 04:10      57.2      56.5       90     53.7      0.00      0.00      77.5     0.31      1015.6     0.1     SSW   211   1.4     SSW   210   9.51    292      -34.7
   10/05/2018 04:00      57.1      56.6       89     53.7      0.00      0.00      77.6     0.31      1015.6     0.5      SE   129   1.4      SE   145   9.50    290      -36.3
   10/05/2018 03:50      57.3      56.8       89     53.6      0.00      0.00      77.6     0.31      1015.5     0.2     SSW   211   1.2     SSW   211   9.50    286      -36.5
   10/05/2018 03:40      58.1      57.0       88     53.9      0.00      0.00      77.6     0.31      1015.5     0.0     SSW   211   0.3     SSW   211   9.51    283      -38.7
   10/05/2018 03:30      58.1      57.5       88     54.2      0.00      0.00      77.6     0.31      1015.4     0.0     SSW   211   0.9     SSW   211   9.51    279      -39.5
   10/05/2018 03:20      58.3      57.4       87     53.8      0.00      0.00      77.7     0.31      1015.4     0.1     SSW   202   0.9     SSW   201   9.51    275      -42.5
   10/05/2018 03:10      58.9      58.0       87     54.5      0.00      0.00      77.6     0.31      1015.4     0.2     SSW   200   1.1     SSW   202   9.51    274      -43.9
   10/05/2018 03:00      59.4      58.4       86     54.4      0.00      0.00      77.6     0.32      1015.5     0.3     SSE   154   1.1       S   177   9.51    271      -46.5
   10/05/2018 02:50      59.7      59.1       85     55.0      0.00      0.00      77.7     0.32      1015.6     0.2      SW   226   1.3     SSW   197   9.51    269      -47.3
   10/05/2018 02:40      60.1      59.4       85     55.3      0.00      0.00      77.7     0.31      1015.6     0.0       E    82   0.5     ENE    76   9.51    265      -49.6
   10/05/2018 02:30      60.1      59.7       85     55.5      0.00      0.00      77.7     0.32      1015.7     0.0     SSW   204   1.2     WSW   253   9.51    262      -51.5
   10/05/2018 02:20      60.0      59.7       85     55.4      0.00      0.00      77.8     0.32      1015.7     1.4     SSE   160   2.9       S   175   9.51    256      -52.5
   10/05/2018 02:10      60.2      59.7       85     55.5      0.00      0.00      77.8     0.32      1015.8     1.7     SSE   169   3.6       S   171   9.51    254      -52.6
   10/05/2018 02:00      60.5      59.8       85     55.4      0.00      0.00      77.8     0.32      1015.8     1.5     SSE   168   2.7     SSW   199   9.51    254      -53.1
   10/05/2018 01:50      60.7      60.1       84     55.6      0.00      0.00      77.8     0.32      1015.9     1.7       S   169   3.4     SSW   201   9.51    252      -53.2
   10/05/2018 01:40      60.7      60.4       84     55.7      0.00      0.00      77.8     0.32      1015.8     1.4     SSW   198   3.8     SSE   168   9.51    251      -53.9
   10/05/2018 01:30      60.9      60.4       84     55.6      0.00      0.00      77.8     0.32      1015.8     2.0     SSW   194   3.4      SW   214   9.51    249      -53.9
   10/05/2018 01:20      61.2      60.6       83     55.7      0.00      0.00      77.9     0.32      1015.8     2.6     SSW   214   5.1       S   176   9.51    249      -54.3
   10/05/2018 01:10      61.3      60.9       83     55.8      0.00      0.00      77.9     0.32      1015.8     0.9     WSW   253   2.7     WSW   243   9.51    253      -54.8
   10/05/2018 01:00      61.3      60.9       83     55.9      0.00      0.00      77.9     0.32      1015.7     1.5     WNW   282   4.3      SW   234   9.51    250      -55.2
   10/05/2018 00:50      61.3      60.9       83     55.9      0.00      0.00      77.9     0.32      1015.5     1.7      SW   216   5.5     SSW   212   9.51    250      -55.9
   10/05/2018 00:40      61.6      61.0       83     56.0      0.00      0.00      77.9     0.32      1015.4     3.3     SSW   203   6.0     SSW   208   9.51    254      -56.1
   10/05/2018 00:30      61.6      61.1       83     56.2      0.00      0.00      77.9     0.31      1015.3     4.0     SSW   205   6.0       S   179   9.52    256      -56.1
   10/05/2018 00:20      61.6      61.1       83     56.2      0.00      0.00      77.9     0.31      1015.6     3.6     SSW   208   7.0     SSW   204   9.52    257      -48.2
   10/05/2018 00:10      61.5      61.1       83     56.2      0.00      0.00      78.0     0.31      1015.8     1.9      SW   220   3.3     SSW   195   9.52    257      -39.8
   10/05/2018 00:00      61.7      61.2       83     56.1      0.00      0.00      78.0     0.31      1015.8     2.8     SSW   207   5.2       S   182   9.52    256      -51.6
   10/04/2018 23:50      61.7      61.3       83     56.2      0.00      0.00      78.0     0.31      1015.8     4.8      SW   215   6.7     WSW   237   9.52    258      -54.5
   10/04/2018 23:40      61.8      61.3       82     56.1      0.00      0.00      78.0     0.32      1015.9     3.9     SSW   210   6.7      SW   220   9.52    259      -56.6
   10/04/2018 23:30      62.0      61.6       82     56.2      0.00      0.00      78.0     0.32      1015.9     3.4      SW   214   7.6      SW   227   9.52    258      -57.6
   10/04/2018 23:20      62.2      61.7       81     56.1      0.00      0.00      78.0     0.32      1015.9     2.1      SW   232   4.6      SW   215   9.52    256      -58.2
   10/04/2018 23:10      62.0      61.7       81     56.1      0.00      0.00      78.0     0.32      1015.8     3.5      SW   219   7.6      SW   228   9.52    260      -58.2
   10/04/2018 23:00      62.2      61.7       81     55.9      0.00      0.00      78.0     0.32      1015.8     2.1     SSW   205   4.2     SSW   203   9.52    260      -58.8
   10/04/2018 22:50      62.5      62.0       80     55.9      0.00      0.00      78.0     0.32      1015.8     3.0      SW   233   5.4     WSW   251   9.52    260      -59.2
   10/04/2018 22:40      62.7      62.2       79     55.8      0.00      0.00      78.0     0.32      1015.8     2.4      SW   234   4.7       W   263   9.53    262      -59.8
   10/04/2018 22:30      62.7      62.3       79     55.8      0.00      0.00      78.0     0.32      1015.7     3.1      SW   233   5.3     WSW   242   9.53    266      -60.0
   10/04/2018 22:20      62.8      62.4       78     55.7      0.00      0.00      78.0     0.32      1015.6     3.3     SSW   210   6.9      SW   226   9.53    265      -60.3
   10/04/2018 22:10      62.9      62.4       78     55.7      0.00      0.00      78.0     0.32      1015.6     3.8     SSW   211   6.9      SW   219   9.53    268      -59.9
   10/04/2018 22:00      63.0      62.5       78     55.6      0.00      0.00      78.0     0.32      1015.7     3.0      SW   231   4.5      SW   224   9.53    268      -59.8
   10/04/2018 21:50      63.1      62.7       77     55.7      0.00      0.00      78.0     0.32      1015.7     2.8      SW   230   5.3     WSW   249   9.53    269      -60.6
   10/04/2018 21:40      63.5      62.8       77     55.6      0.00      0.00      78.0     0.32      1015.6     3.3      SW   219   5.9      SW   222   9.53    269      -61.5
   10/04/2018 21:30      63.6      63.1       76     55.7      0.00      0.00      78.0     0.32      1015.5     2.7      SW   231   5.3     WSW   241   9.53    269      -62.4
   10/04/2018 21:20      63.8      63.3       76     55.7      0.00      0.00      78.0     0.32      1015.4     2.9      SW   226   5.1     WNW   296   9.53    268      -63.2
   10/04/2018 21:10      64.2      63.4       75     55.7      0.00      0.00      78.0     0.32      1015.4     3.4      SW   214   6.0      SW   236   9.54    269      -63.0
   10/04/2018 21:00      64.5      63.9       74     55.8      0.00      0.00      78.0     0.32      1015.4     3.5      SW   221   6.3     SSW   205   9.54    268      -60.5
   10/04/2018 20:50      64.7      64.2       74     55.9      0.00      0.00      78.0     0.32      1015.4     3.4      SW   220   6.2     WSW   241   9.54    268      -60.0
   10/04/2018 20:40      65.0      64.4       73     56.0      0.00      0.00      78.0     0.32      1015.4     4.0      SW   225   6.5     WSW   248   9.54    268      -51.5
   10/04/2018 20:30      65.2      64.6       72     55.8      0.00      0.00      78.0     0.32      1015.4     4.1     SSW   212   6.1      SW   224   9.54    268      -33.2
   10/04/2018 20:20      65.5      64.8       71     55.6      0.00      0.00      78.0     0.32      1015.4     3.8      SW   226   6.0     WSW   250   9.54    268      -37.9
   10/04/2018 20:10      65.6      65.2       71     55.7      0.00      0.00      78.0     0.32      1015.2     3.2     WSW   238   7.3     WSW   251   9.54    268      -46.8
   10/04/2018 20:00      65.7      65.3       70     55.6      0.00      0.00      78.0     0.32      1015.2     3.6      SW   228   6.4      SW   228   9.55    268      -35.3
   10/04/2018 19:50      65.9      65.3       70     55.4      0.00      0.00      77.9     0.32      1015.2     3.6      SW   231   6.1     WSW   242   9.55    268      -45.4
   10/04/2018 19:40      66.2      65.6       69     55.4      0.00      0.00      78.0     0.32      1015.0     4.6      SW   230   6.8      SW   226   9.55    267      -49.3
   10/04/2018 19:30      66.5      65.9       68     55.3      0.00      0.00      77.9     0.32      1015.0     5.1     WSW   237   7.5      SW   229   9.55    267      -38.7
   10/04/2018 19:20      66.9      66.3       67     55.2      0.00      0.00      77.9     0.32      1015.0     4.2     WSW   240   8.5     WSW   245   9.55    267      -50.0
   10/04/2018 19:10      67.3      66.4       66     55.2      0.00      0.00      77.9     0.32      1015.0     3.5      SW   231   6.0      SW   230   9.56    267      -59.1
   10/04/2018 19:00      67.8      67.0       65     55.2      0.00      0.00      77.9     0.32      1015.0     2.5     WSW   243   5.2     WSW   250   9.56    267      -67.2
   10/04/2018 18:50      68.2      67.5       65     55.5      0.00      0.00      77.9     0.32      1015.0     3.1       W   275   7.3       W   263   9.56    267      -68.6
   10/04/2018 18:40      68.5      67.8       65     55.7      0.00      0.00      77.8     0.32      1015.0     3.1       W   272   6.5       W   269   9.56    267      -67.6
   10/04/2018 18:30      69.0      68.1       64     55.9      0.00      0.00      77.8     0.32      1014.9     4.0     WNW   288   9.2     WSW   253   9.57    267      -62.9
   10/04/2018 18:20      70.1      68.8       62     55.9      0.00      0.00      77.8     0.32      1014.8     5.0     WNW   287   9.1     WSW   249   9.57    266      -37.9
   10/04/2018 18:10      70.8      69.9       61     55.9      0.00      0.00      77.8     0.32      1014.8     4.9       W   262   7.8     WSW   244   9.57    266      -27.4
   10/04/2018 18:00      70.8      70.3       59     55.5      0.00      0.00      77.8     0.32      1014.7     5.2     WSW   237   9.6      SW   226   9.57    266      -17.5
   10/04/2018 17:50      72.0      70.5       57     54.8      0.00      0.00      77.8     0.32      1014.7     6.5      SW   236  10.1     WSW   252   9.58    266       -8.5
   10/04/2018 17:40      73.6      71.6       53     54.6      0.00      0.00      77.7     0.32      1014.7     5.9     WSW   247   9.3      SW   233   9.58    266       10.2
   10/04/2018 17:30      73.8      73.2       51     54.0      0.00      0.00      77.7     0.32      1014.7     4.1     WSW   248   8.6       W   271   9.58    266       40.8
   10/04/2018 17:20      74.1      73.3       50     53.9      0.00      0.00      77.7     0.32      1014.6     4.5      SW   218   8.2      SW   226   9.59    266       60.2
   10/04/2018 17:10      73.9      73.0       50     53.6      0.00      0.00      77.6     0.31      1014.6     4.5     SSW   199   8.1     SSW   196   9.59    266       92.9
   10/04/2018 17:00      74.2      73.3       49     53.4      0.00      0.00      77.6     0.31      1014.4     5.8       S   182   9.9       S   169   9.59    266      141.1
   10/04/2018 16:50      74.6      73.7       49     53.5      0.00      0.00      77.6     0.32      1014.4     5.3       S   184  11.1     SSW   205   9.59    266      177.2
   10/04/2018 16:40      74.5      74.0       48     53.6      0.00      0.00      77.5     0.31      1014.4     5.2     SSE   164   9.5     SSE   157   9.59    266      194.4
   10/04/2018 16:30      74.8      74.0       48     53.7      0.00      0.00      77.5     0.31      1014.4     5.7       S   175  10.6     SSW   209   9.60    265      251.6
   10/04/2018 16:20      75.7      74.8       47     53.3      0.00      0.00      77.5     0.31      1014.4     6.1     SSW   194   9.9       S   174   9.60    266      306.1
   10/04/2018 16:10      75.8      74.8       45     52.2      0.00      0.00      77.5     0.31      1014.5     5.2     SSW   211   9.3     SSW   205   9.60    266      281.1
   10/04/2018 16:00      76.5      75.5       44     52.5      0.00      0.00      77.5     0.31      1014.5     5.4     SSW   210   9.2     WSW   237   9.60    266      268.9
   10/04/2018 15:50      76.5      75.1       43     51.5      0.00      0.00      77.4     0.31      1014.6     6.4     WSW   244   9.4     WSW   246   9.61    265      312.3
   10/04/2018 15:40      77.5      75.5       44     53.3      0.00      0.00      77.4     0.31      1014.7     5.3     SSW   198  10.1      SW   216   9.61    265      364.4
   10/04/2018 15:30      76.6      74.3       48     53.8      0.00      0.00      77.4     0.31      1014.7     4.5       S   183   8.3       S   186   9.61    266      361.9
   10/04/2018 15:20      74.4      73.3       50     54.0      0.00      0.00      77.4     0.31      1014.7     4.1     SSW   194   8.0       S   178   9.61    266      199.7
   10/04/2018 15:10      73.7      73.2       50     53.9      0.00      0.00      77.3     0.31      1014.7     4.4      SE   143   8.2      SE   127   9.62    266      135.5
   10/04/2018 15:00      73.6      73.2       51     54.0      0.00      0.00      77.3     0.31      1014.6     4.3     SSE   157   9.1      SE   138   9.62    266       60.3
   10/04/2018 14:50      74.0      73.2       51     54.3      0.00      0.00      77.3     0.31      1014.6     4.6       S   171   9.4       S   187   9.62    266       57.1
   10/04/2018 14:40      75.2      73.4       51     54.6      0.00      0.00      77.2     0.31      1014.7     4.9       S   186   8.9     SSE   166   9.62    266      101.4
   10/04/2018 14:30      75.9      74.3       50     54.9      0.00      0.00      77.2     0.31      1014.7     4.6     SSE   167   8.7      SE   135   9.62    265      356.8
   10/04/2018 14:20      76.2      74.0       49     54.8      0.00      0.00      77.2     0.31      1014.8     5.0      SE   142  10.2      SE   140   9.63    266      177.3
   10/04/2018 14:10      77.0      75.4       48     55.2      0.00      0.00      77.2     0.31      1014.9     4.4     SSE   152   8.8     ESE   123   9.63    265      438.8
   10/04/2018 14:00      76.4      73.7       51     55.4      0.00      0.00      77.2     0.31      1014.9     5.2      SE   131  10.0      SE   140   9.63    265      637.6
   10/04/2018 13:50      74.8      73.7       52     55.6      0.00      0.00      77.2     0.31      1015.0     5.9     SSE   147   9.8     ESE   118   9.63    266      430.2
   10/04/2018 13:40      75.1      73.6       53     55.6      0.00      0.00      77.1     0.31      1015.1     4.5     SSE   153   9.0      SE   140   9.63    266      158.0
   10/04/2018 13:30      76.6      75.1       51     56.3      0.00      0.00      77.2     0.31      1015.2     3.5      SE   133  11.8     SSW   197   9.63    265      285.0
   10/04/2018 13:20      76.4      75.4       49     55.6      0.00      0.00      77.2     0.31      1015.4     2.4       S   173   6.2       W   273   9.63    266      321.7
   10/04/2018 13:10      76.3      74.7       51     56.4      0.00      0.00      77.2     0.31      1015.5     1.5     ESE   106   4.4      SE   126   9.64    265      521.1
   10/04/2018 13:00      74.9      74.1       53     56.0      0.00      0.00      77.1     0.31      1015.7     1.9     ESE   121   5.7      SE   129   9.64    266      277.0
   10/04/2018 12:50      74.4      72.4       56     56.3      0.00      0.00      77.2     0.31      1015.8     3.4       W   280   6.8     SSW   193   9.64    266      570.4
   10/04/2018 12:40      72.5      71.4       57     55.7      0.00      0.00      77.2     0.31      1015.9     3.1     SSW   194   5.6     SSW   208   9.64    266      297.4
   10/04/2018 12:30      72.3      71.3       56     55.0      0.00      0.00      77.2     0.31      1016.0     2.8       S   181   4.9      SW   222   9.64    266       87.1
   10/04/2018 12:20      72.3      71.4       56     55.3      0.00      0.00      77.2     0.31      1016.0     1.4       S   173   4.5     SSE   149   9.64    266       66.2
   10/04/2018 12:10      71.7      71.2       56     54.9      0.00      0.00      77.2     0.31      1016.1     2.0      SE   134   5.6     SSE   165   9.64    266       60.6
   10/04/2018 12:00      72.2      71.2       55     54.5      0.00      0.00      77.1     0.31      1016.2     2.3     SSW   210   5.4     SSW   206   9.64    266       53.2
   10/04/2018 11:50      72.8      71.9       53     54.2      0.00      0.00      77.2     0.31      1016.3     1.1       W   274   3.1       W   276   9.64    266       32.4
   10/04/2018 11:40      73.5      72.4       52     54.5      0.00      0.00      77.1     0.31      1016.4     1.5      NW   315   3.1      NW   322   9.65    266       57.9
   10/04/2018 11:30      74.2      73.2       51     54.7      0.00      0.00      77.2     0.31      1016.4     1.4     NNW   328   3.3     WSW   256   9.65    266      134.3
   10/04/2018 11:20      74.2      73.4       52     55.0      0.00      0.00      77.2     0.31      1016.5     2.4      NW   312   4.8     WNW   291   9.65    266      518.3
   10/04/2018 11:10      73.7      73.0       54     55.4      0.00      0.00      77.3     0.31      1016.5     2.1     NNE    33   4.1      NE    44   9.65    266      426.2
   10/04/2018 11:00      73.5      71.9       55     55.6      0.00      0.00      77.3     0.31      1016.6     2.4     NNW   346   4.5      NE    34   9.65    266      508.8
   10/04/2018 10:50      72.6      71.9       57     56.0      0.00      0.00      77.3     0.31      1016.7     2.3       N     0   4.6     NNE    16   9.65    266      449.1
   10/04/2018 10:40      72.9      71.3       57     56.5      0.00      0.00      77.4     0.31      1016.8     1.9       W   267   6.7     NNW   348   9.65    266      425.0
   10/04/2018 10:30      71.4      69.3       62     56.4      0.00      0.00      77.4     0.31      1016.9     0.7      NW   307   2.2      NW   326   9.65    266      324.1
   10/04/2018 10:20      69.6      68.7       63     56.1      0.00      0.00      77.4     0.32      1017.1     0.7     ENE    74   4.1      NE    37   9.65    267       78.0
   10/04/2018 10:10      70.5      69.2       63     56.4      0.00      0.00      77.5     0.31      1017.2     1.3      NE    34   3.0     ESE   107   9.65    267       53.9
   10/04/2018 10:00      71.0      70.2       62     56.7      0.00      0.00      77.5     0.31      1017.2     1.4      NE    37   3.7     ENE    58   9.65    267      126.7
   10/04/2018 09:50      70.8      69.8       62     56.8      0.00      0.00      77.5     0.32      1017.2     1.8     NNE    28   3.9     ESE   107   9.65    267      296.8
   10/04/2018 09:40      70.6      68.9       63     56.9      0.00      0.00      77.6     0.32      1017.1     2.1     ENE    57   5.0       N     3   9.65    267      394.4
   10/04/2018 09:30      69.1      67.2       67     56.7      0.00      0.00      77.5     0.32      1017.0     1.7       E   100   4.8     ENE    61   9.65    268      319.1
   10/04/2018 09:20      67.3      66.6       69     56.5      0.00      0.00      77.6     0.32      1017.0     1.0     SSE   158   3.3      SE   133   9.65    268       76.2
   10/04/2018 09:10      68.2      66.8       68     56.4      0.00      0.00      77.6     0.32      1016.9     2.6      SW   218   6.3     SSW   205   9.65    268       55.7
   10/04/2018 09:00      68.3      67.5       67     56.5      0.00      0.00      77.7     0.32      1016.9     2.7     WSW   245   5.4     WSW   257   9.65    268      237.3
   10/04/2018 08:50      68.2      66.8       68     56.6      0.00      0.00      77.7     0.32      1016.8     1.9      SW   227   5.3     SSW   205   9.65    269      244.1
   10/04/2018 08:40      67.1      66.2       70     56.5      0.00      0.00      77.8     0.32      1016.8     1.5     WNW   294   3.7       W   264   9.65    270      184.4
   10/04/2018 08:30      66.3      64.5       74     56.9      0.00      0.00      77.8     0.32      1016.7     1.4       W   277   3.0       W   272   9.65    270      161.1
   10/04/2018 08:20      64.8      63.8       76     56.6      0.00      0.00      77.8     0.32      1016.6     2.5       W   277   4.4       W   276   9.65    270      175.7
   10/04/2018 08:10      64.0      63.2       78     56.7      0.00      0.00      77.8     0.32      1016.6     2.3       W   272   4.6     WSW   256   9.65    270      128.7
   10/04/2018 08:00      63.4      61.7       83     57.4      0.00      0.00      77.9     0.32      1016.6     2.6       W   262   4.2      SW   235   9.65    267      125.4
   10/04/2018 07:50      62.0      60.2       89     57.7      0.00      0.00      77.9     0.32      1016.5     1.7     WSW   241   4.7     WSW   255   9.38    309       75.2
   10/04/2018 07:40      60.5      58.8       91     57.1      0.00      0.00      77.9     0.32      1016.3     0.0     WSW   255   1.3       W   263   9.38    328        7.2
   10/04/2018 07:30      58.9      57.0       92     55.4      0.00      0.00      78.0     0.32      1016.2     0.2      SE   138   1.7      SE   141   9.38    327       -6.2
   10/04/2018 07:20      57.3      56.7       91     54.4      0.00      0.00      78.0     0.32      1016.0     0.0     SSE   148   0.8     SSE   148   9.38    323      -10.1
   10/04/2018 07:10      57.5      57.0       91     54.7      0.00      0.00      78.0     0.32      1015.8     0.1     SSE   149   1.0     SSE   149   9.38    320      -14.4
   10/04/2018 07:00      57.4      56.9       91     54.5      0.00      0.00      78.0     0.32      1015.7     0.0       N     0   0.0     SSE   148   9.38    316      -19.1
   10/04/2018 06:50      57.7      56.9       91     54.5      0.00      0.00      78.0     0.32      1015.7     0.0       N     0   0.0     SSE   148   9.38    312      -22.4
   10/04/2018 06:40      57.7      57.3       91     54.8      0.00      0.00      78.1     0.32      1015.6     0.0     SSE   149   0.8     SSE   148   9.38    309      -24.4
   10/04/2018 06:30      57.8      57.0       91     54.5      0.00      0.00      78.1     0.32      1015.5     0.0     SSE   149   0.4     SSE   149   9.38    304      -25.6
   10/04/2018 06:20      57.8      57.2       91     54.9      0.00      0.00      78.2     0.32      1015.5     0.2     SSE   148   0.7     SSE   149   9.38    301      -26.5
   10/04/2018 06:10      57.6      57.0       90     54.4      0.00      0.00      78.2     0.32      1015.4     0.0     SSE   149   0.3     SSE   149   9.39    298      -26.4
   10/04/2018 06:00      57.6      56.9       90     54.4      0.00      0.00      78.2     0.32      1015.3     0.0     SSE   156   0.8     SSE   157   9.39    297      -28.2
   10/04/2018 05:50      58.0      56.9       89     54.2      0.00      0.00      78.2     0.32      1015.3     0.0       N     0   0.0     SSE   157   9.39    293      -29.1
   10/04/2018 05:40      58.1      57.5       90     54.7      0.00      0.00      78.3     0.32      1015.1     0.1     SSE   158   0.7     SSE   158   9.39    289      -28.8
   10/04/2018 05:30      58.1      57.8       89     54.9      0.00      0.00      78.3     0.32      1015.0     0.3     SSE   161   1.0     SSE   159   9.39    286      -29.8
   10/04/2018 05:20      58.3      57.8       89     54.9      0.00      0.00      78.3     0.32      1014.9     0.9     SSW   208   1.6      SW   224   9.39    284      -30.2
   10/04/2018 05:10      58.1      57.6       89     54.7      0.00      0.00      78.3     0.32      1014.8     0.2     SSE   156   1.1     SSE   156   9.39    282      -31.6
   10/04/2018 05:00      58.6      57.6       89     54.5      0.00      0.00      78.3     0.32      1014.7     0.0     SSE   156   0.7     SSE   156   9.39    281      -33.8
   10/04/2018 04:50      58.6      58.1       89     55.1      0.00      0.00      78.4     0.32      1014.7     0.5     SSE   164   1.3       S   176   9.39    278      -33.7
   10/04/2018 04:40      58.8      58.3       89     55.1      0.00      0.00      78.4     0.32      1014.7     0.7     SSE   165   1.2     SSE   162   9.39    274      -34.9
   10/04/2018 04:30      58.7      58.2       88     55.0      0.00      0.00      78.4     0.32      1014.7     0.9       S   187   2.4       S   183   9.39    273      -35.4
   10/04/2018 04:20      59.1      58.4       88     55.0      0.00      0.00      78.5     0.32      1014.6     0.7       S   173   1.7       S   182   9.39    273      -37.1
   10/04/2018 04:10      59.0      58.4       87     55.0      0.00      0.00      78.5     0.32      1014.5     0.0       S   173   0.4       S   171   9.39    272      -38.3
   10/04/2018 04:00      59.3      58.4       87     54.9      0.00      0.00      78.5     0.32      1014.5     0.6      SE   146   1.3     SSE   147   9.39    272      -40.6
   10/04/2018 03:50      59.7      59.0       87     55.3      0.00      0.00      78.5     0.32      1014.6     0.0     NNE    31   0.4     NNE    31   9.39    271      -41.2
   10/04/2018 03:40      59.7      59.3       87     55.6      0.00      0.00      78.5     0.32      1014.6     0.1       S   176   1.4       S   190   9.39    266      -41.4
   10/04/2018 03:30      60.0      59.4       87     55.7      0.00      0.00      78.5     0.32      1014.6     0.0     SSE   165   0.3     SSE   165   9.39    266      -42.9
   10/04/2018 03:20      60.0      59.6       87     55.8      0.00      0.00      78.6     0.32      1014.7     0.1       S   179   1.3       S   191   9.39    266      -45.3
   10/04/2018 03:10      60.3      59.6       86     55.6      0.00      0.00      78.6     0.32      1014.7     0.1       S   191   1.4     SSW   191   9.39    261      -47.1
   10/04/2018 03:00      60.7      60.0       85     55.7      0.00      0.00      78.5     0.32      1014.7     0.0       N     0   0.0       S   178   9.39    259      -49.9
   10/04/2018 02:50      60.6      60.3       85     56.0      0.00      0.00      78.6     0.32      1014.7     0.8     SSE   160   2.6     SSE   162   9.39    256      -51.7
   10/04/2018 02:40      61.1      60.3       84     55.8      0.00      0.00      78.6     0.32      1014.7     0.7     SSE   156   2.6      SE   145   9.39    255      -52.5
   10/04/2018 02:30      61.6      60.8       83     56.0      0.00      0.00      78.7     0.32      1014.7     0.4     SSW   193   1.6       S   186   9.39    252      -52.6
   10/04/2018 02:20      62.2      61.3       82     56.4      0.00      0.00      78.7     0.32      1014.8     0.2       S   191   1.1       S   191   9.39    251      -53.9
   10/04/2018 02:10      62.5      61.8       83     56.6      0.00      0.00      78.7     0.32      1014.9     1.2       S   175   1.9       S   190   9.39    252      -54.5
   10/04/2018 02:00      62.7      62.0       81     56.6      0.00      0.00      78.7     0.32      1015.1     0.4      SE   144   1.0      SE   143   9.40    251      -52.9
   10/04/2018 01:50      63.0      62.4       81     56.5      0.00      0.00      78.7     0.32      1015.1     0.5     SSE   146   1.8      SE   144   9.40    258      -46.1
   10/04/2018 01:40      63.1      62.7       79     56.4      0.00      0.00      78.7     0.32      1015.1     0.0       N     0   0.0     SSE   152   9.40    264      -38.2
   10/04/2018 01:30      63.6      62.8       79     56.5      0.00      0.00      78.8     0.32      1015.0     0.0     SSE   153   0.5     SSE   152   9.40    262      -39.8
   10/04/2018 01:20      64.5      63.4       78     56.9      0.00      0.00      78.8     0.32      1015.0     0.1     SSE   158   0.8     SSE   154   9.40    264      -37.3
   10/04/2018 01:10      64.8      64.2       78     57.3      0.00      0.00      78.8     0.32      1015.0     0.0       S   177   0.6       S   177   9.40    263      -37.4
   10/04/2018 01:00      64.7      64.3       78     57.3      0.00      0.00      78.8     0.32      1015.0     1.2     SSW   201   3.5      SW   232   9.40    266      -32.5
   10/04/2018 00:50      64.6      64.2       77     57.1      0.00      0.00      78.8     0.32      1015.0     1.8      SW   220   3.0      SW   224   9.40    268      -25.9
   10/04/2018 00:40      64.7      64.3       76     56.9      0.00      0.00      78.9     0.32      1015.0     1.2     SSW   204   3.3      SW   236   9.40    266      -34.0
   10/04/2018 00:30      64.6      64.1       76     56.7      0.00      0.00      78.9     0.32      1014.9     2.3      SW   234   3.7      SW   218   9.40    268      -39.0
   10/04/2018 00:20      64.2      63.7       76     56.2      0.00      0.00      78.9     0.32      1014.9     1.3       W   261   3.2      SW   233   9.40    266      -49.4
   10/04/2018 00:10      64.6      63.7       75     56.2      0.00      0.00      78.9     0.32      1014.8     0.9     SSW   209   1.6     WSW   242   9.40    266      -55.7
   10/04/2018 00:00      65.2      64.5       74     56.4      0.00      0.00      78.9     0.32      1014.8     0.6      SW   236   1.6       W   264   9.40    265      -57.0
   10/03/2018 23:50      65.6      64.9       74     56.6      0.00      0.00      78.9     0.32      1014.8     0.5     SSW   199   2.0     SSW   208   9.40    267      -56.6
   10/03/2018 23:40      65.7      65.2       72     56.3      0.00      0.00      79.0     0.32      1014.9     1.3     SSW   195   2.7      SW   223   9.40    268      -42.5
   10/03/2018 23:30      65.9      65.5       72     56.2      0.00      0.00      79.0     0.32      1014.9     1.0      SW   227   1.8     WSW   258   9.40    268      -32.4
   10/03/2018 23:20      66.3      65.6       71     56.3      0.00      0.00      79.0     0.32      1014.8     2.2      SW   229   3.9     WSW   239   9.40    268      -34.6
   10/03/2018 23:10      66.4      65.8       71     56.2      0.00      0.00      79.0     0.32      1015.0     1.7     WSW   252   4.3     WSW   248   9.40    268      -24.7
   10/03/2018 23:00      66.3      65.9       71     56.2      0.00      0.00      79.0     0.32      1015.1     2.2       W   266   4.1       W   269   9.40    268      -21.8
   10/03/2018 22:50      66.3      65.9       71     56.4      0.00      0.00      79.0     0.32      1015.0     1.8     WSW   243   3.5       W   262   9.40    268      -22.0
   10/03/2018 22:40      66.2      65.9       71     56.2      0.00      0.00      79.0     0.32      1015.0     2.2       W   261   4.9       W   268   9.40    268      -21.6
   10/03/2018 22:30      66.1      65.7       71     56.1      0.00      0.00      79.0     0.32      1015.1     2.4      SW   226   3.9     SSW   193   9.40    268      -18.0
   10/03/2018 22:20      65.8      65.4       72     56.3      0.00      0.00      79.1     0.32      1015.1     2.1     SSW   196   3.2       S   190   9.40    269      -17.3
   10/03/2018 22:10      65.7      65.3       73     56.4      0.00      0.00      79.0     0.32      1014.9     1.8     SSW   195   3.1       S   177   9.40    269      -21.0
   10/03/2018 22:00      65.5      65.1       73     56.7      0.00      0.00      79.1     0.32      1014.9     2.4     SSW   211   4.3       S   183   9.40    269      -22.5
   10/03/2018 21:50      65.4      64.5       74     56.5      0.00      0.00      79.1     0.32      1014.8     1.6     SSW   199   2.8       S   189   9.40    269      -19.1
   10/03/2018 21:40      64.7      63.5       75     56.2      0.00      0.00      79.1     0.32      1014.7     1.8       S   187   3.3     SSW   212   9.41    269      -22.4
   10/03/2018 21:30      63.9      63.4       75     55.5      0.00      0.00      79.1     0.32      1014.6     0.5       S   173   1.6     SSW   203   9.41    268      -44.9
   10/03/2018 21:20      64.3      63.6       76     56.2      0.00      0.00      79.1     0.32      1014.4     0.0       N     0   0.0     SSE   154   9.41    267      -53.2
   10/03/2018 21:10      64.7      64.2       76     56.9      0.00      0.00      79.0     0.32      1014.2     0.2     SSE   154   0.7     SSE   154   9.41    264      -54.9
   10/03/2018 21:00      65.2      64.2       76     56.7      0.00      0.00      79.1     0.32      1014.1     0.3     SSE   154   1.1     SSE   154   9.41    262      -56.5
   10/03/2018 20:50      65.7      64.8       75     57.0      0.00      0.00      79.1     0.32      1014.0     0.1     SSE   167   0.7     SSE   154   9.41    266      -57.4
   10/03/2018 20:40      65.8      65.2       74     57.0      0.00      0.00      79.1     0.32      1014.0     0.2       S   179   1.7     SSW   197   9.41    265      -56.6
   10/03/2018 20:30      66.7      65.6       72     57.0      0.00      0.00      79.1     0.32      1014.0     0.3      SE   135   1.3      SE   137   9.41    266      -55.3
   10/03/2018 20:20      67.4      66.5       71     57.3      0.00      0.00      79.1     0.32      1014.0     0.1     SSW   199   1.0     SSW   199   9.41    266      -59.3
   10/03/2018 20:10      67.7      67.0       70     57.3      0.00      0.00      79.1     0.32      1013.9     1.6     SSW   203   2.9     SSW   210   9.41    268      -61.0
   10/03/2018 20:00      67.8      67.3       70     57.3      0.00      0.00      79.1     0.32      1013.9     2.0     SSW   207   3.7      SW   214   9.41    268      -53.6
   10/03/2018 19:50      67.8      67.3       70     57.4      0.00      0.00      79.1     0.32      1014.0     1.7      SW   224   3.0      SW   233   9.41    268      -46.5
   10/03/2018 19:40      68.0      67.3       70     57.3      0.00      0.00      79.1     0.32      1014.0     2.1     SSW   197   3.7      SW   218   9.41    268      -47.2
   10/03/2018 19:30      68.3      67.7       69     57.3      0.00      0.00      79.1     0.32      1013.9     2.7       S   186   5.3     SSW   204   9.41    268      -52.2
   10/03/2018 19:20      68.4      67.9       68     57.3      0.00      0.00      79.1     0.32      1013.8     2.3     SSW   194   4.5      SW   231   9.42    268      -36.3
   10/03/2018 19:10      68.5      68.1       68     57.4      0.00      0.00      79.1     0.32      1013.6     2.9      SW   216   4.8     SSW   206   9.42    268      -39.7
   10/03/2018 19:00      68.8      68.2       68     57.2      0.00      0.00      79.0     0.32      1013.4     2.3      SW   221   4.3     WSW   237   9.42    268      -54.0
   10/03/2018 18:50      68.9      68.4       68     57.6      0.00      0.00      79.1     0.32      1013.4     1.7     SSW   199   3.5      SW   220   9.42    268      -51.4
   10/03/2018 18:40      69.3      68.6       68     57.7      0.00      0.00      79.1     0.32      1013.3     2.4       S   172   5.1       S   190   9.42    267      -44.0
   10/03/2018 18:30      69.5      68.9       67     57.9      0.00      0.00      79.1     0.32      1013.4     2.6     SSE   168   5.4     SSW   200   9.42    267      -21.5
   10/03/2018 18:20      69.4      68.8       68     57.9      0.00      0.00      79.1     0.32      1013.5     3.0     SSE   164   5.2     SSW   200   9.42    267        1.9
   10/03/2018 18:10      69.4      68.8       68     57.8      0.00      0.00      79.0     0.32      1013.5     4.0       S   173   7.1      SE   145   9.42    267       18.7
   10/03/2018 18:00      69.9      69.0       67     57.9      0.00      0.00      79.0     0.32      1013.5     4.3     SSE   162   6.7     SSW   193   9.42    267        0.1
   10/03/2018 17:50      69.9      69.4       67     58.0      0.00      0.00      79.0     0.32      1013.4     3.5     SSE   164   6.9       S   172   9.42    267       25.1
   10/03/2018 17:40      70.2      69.4       66     57.9      0.00      0.00      79.0     0.32      1013.5     4.9       S   184   8.4      SW   219   9.43    267       13.2
   10/03/2018 17:30      70.3      69.7       65     57.6      0.00      0.00      79.0     0.32      1013.3     3.5       S   173   5.4       S   184   9.43    266       -4.8
   10/03/2018 17:20      70.8      69.9       64     57.3      0.00      0.00      79.0     0.32      1013.4     3.9       S   177   7.0       S   181   9.43    266      -12.0
   10/03/2018 17:10      71.6      70.5       61     57.0      0.00      0.00      79.0     0.32      1013.4     4.3       S   182   7.3     SSE   162   9.43    266      -13.2
   10/03/2018 17:00      72.1      71.5       59     56.6      0.00      0.00      79.0     0.32      1013.4     2.7       S   171   5.5     SSE   158   9.43    266       -7.0
   10/03/2018 16:50      72.2      71.7       58     56.3      0.00      0.00      79.0     0.32      1013.2     2.1      SE   142   4.9      SE   140   9.43    266       29.2
   10/03/2018 16:40      72.4      71.8       57     55.8      0.00      0.00      79.0     0.32      1013.3     3.1     SSE   166   5.6       S   189   9.44    266       27.9
   10/03/2018 16:30      72.4      71.7       56     55.7      0.00      0.00      79.0     0.32      1013.2     1.9       S   169   6.9       S   188   9.43    266       21.7
   10/03/2018 16:20      72.4      71.8       56     55.6      0.00      0.00      78.9     0.32      1013.2     3.0      SE   137   5.4      SE   134   9.44    266       22.6
   10/03/2018 16:10      72.5      72.1       56     55.6      0.00      0.00      79.0     0.32      1013.0     3.1      SE   133   6.0     ESE   103   9.44    266       48.8
   10/03/2018 16:00      72.8      72.2       55     55.4      0.00      0.00      78.9     0.32      1013.0     2.9      SE   126   5.8     SSE   152   9.44    266       46.4
   10/03/2018 15:50      72.8      72.1       55     55.2      0.00      0.00      78.9     0.32      1013.2     3.4      SE   128   7.8     SSE   150   9.44    266       37.0
   10/03/2018 15:40      73.2      72.4       54     55.0      0.00      0.00      78.9     0.32      1013.4     3.5     ESE   121   8.7     ESE   109   9.44    266       41.0
   10/03/2018 15:30      73.2      72.5       52     54.4      0.00      0.00      78.9     0.32      1013.4     3.1      SE   127   7.7      SE   134   9.44    266       69.0
   10/03/2018 15:20      73.5      72.8       52     54.4      0.00      0.00      78.9     0.32      1013.4     4.1     SSE   167   8.2       S   185   9.44    266       93.4
   10/03/2018 15:10      73.5      72.8       52     54.6      0.00      0.00      78.9     0.32      1013.3     3.0      SE   142   6.0      SE   127   9.45    266      122.8
   10/03/2018 15:00      73.3      72.7       53     54.8      0.00      0.00      78.9     0.32      1013.2     4.1     SSE   148   7.5      SE   129   9.45    266      140.5
   10/03/2018 14:50      73.5      72.7       53     54.8      0.00      0.00      78.8     0.32      1013.2     4.4     SSE   149   7.5      SE   135   9.45    266      122.1
   10/03/2018 14:40      74.2      73.3       52     55.1      0.00      0.00      78.9     0.32      1013.2     4.0       S   173   8.7       S   183   9.45    266      123.9
   10/03/2018 14:30      74.0      73.3       53     55.5      0.00      0.00      78.8     0.32      1013.3     2.5     ESE   112   5.5      SE   143   9.45    266      138.0
   10/03/2018 14:20      73.7      73.2       53     55.2      0.00      0.00      78.8     0.32      1013.5     2.9      SE   137   5.7       S   185   9.45    266      139.1
   10/03/2018 14:10      73.7      73.2       52     54.9      0.00      0.00      78.8     0.32      1013.5     3.2     SSE   167   6.3       S   178   9.45    266      150.8
   10/03/2018 14:00      73.7      72.8       52     54.6      0.00      0.00      78.8     0.32      1013.5     2.8     SSE   151   7.3     SSW   199   9.45    266      157.7
   10/03/2018 13:50      73.8      73.0       52     54.5      0.00      0.00      78.8     0.32      1013.8     3.0      SE   135   6.0      SE   143   9.45    266      150.8
   10/03/2018 13:40      73.8      73.3       52     54.8      0.00      0.00      78.8     0.32      1014.0     2.6       E    91   4.8       E    83   9.46    266      171.2
   10/03/2018 13:30      73.7      73.0       53     55.3      0.00      0.00      78.8     0.32      1014.2     2.0      SE   144   5.8     SSW   193   9.46    266      144.2
   10/03/2018 13:20      73.2      72.5       55     55.8      0.00      0.00      78.8     0.32      1014.3     1.6     SSE   148   4.0       E    81   9.46    266      147.9
   10/03/2018 13:10      73.5      72.5       56     56.1      0.00      0.00      78.8     0.32      1014.5     2.1      SE   126   5.7      SE   132   9.46    266       73.7
   10/03/2018 13:00      73.5      72.8       56     56.7      0.00      0.00      78.8     0.32      1014.5     1.0       E    86   3.5     ESE   106   9.46    266       91.1
   10/03/2018 12:50      73.1      72.0       58     56.7      0.00      0.00      78.8     0.32      1014.6     0.8       N     6   2.3     NNW   348   9.46    266      131.7
   10/03/2018 12:40      72.4      71.6       58     56.6      0.00      0.00      78.8     0.32      1014.7     1.6     ESE   108   4.0      SE   138   9.46    266      108.3
   10/03/2018 12:30      71.7      71.3       59     56.4      0.00      0.00      78.8     0.32      1014.8     2.8     SSW   208   5.2     SSW   212   9.46    266      122.8
   10/03/2018 12:20      71.8      71.3       59     56.5      0.00      0.00      78.8     0.32      1015.0     2.6       S   184   5.3     SSW   206   9.46    266       77.7
   10/03/2018 12:10      71.6      71.0       59     56.4      0.00      0.00      78.8     0.32      1015.1     3.2       S   179   5.0       S   175   9.46    266      117.9
   10/03/2018 12:00      71.6      71.1       60     56.5      0.00      0.00      78.8     0.32      1015.1     4.3       S   169   8.5       S   183   9.46    266      138.4
   10/03/2018 11:50      72.5      71.3       58     56.0      0.00      0.00      78.8     0.32      1015.0     4.8     SSE   150   9.5       S   178   9.46    266      144.5
   10/03/2018 11:40      73.0      72.3       52     54.1      0.00      0.00      78.9     0.32      1015.1     3.0     ESE   109   8.2     SSE   146   9.47    266      124.6
   10/03/2018 11:30      72.8      71.8       52     53.4      0.00      0.00      78.8     0.32      1015.1     2.7     ENE    78   6.0       E    98   9.47    266      156.2
   10/03/2018 11:20      73.5      71.9       52     54.4      0.00      0.00      78.9     0.32      1015.0     3.7     ENE    79   7.1       E    81   9.47    266      202.6
   10/03/2018 11:10      73.0      72.1       53     54.7      0.00      0.00      78.9     0.32      1015.0     3.4     ENE    66   8.6      NE    43   9.47    266      298.4
   10/03/2018 11:00      72.8      71.3       55     55.1      0.00      0.00      78.9     0.32      1015.1     3.4     ENE    72   7.6     ENE    66   9.47    266      312.5
   10/03/2018 10:50      71.7      71.2       56     54.8      0.00      0.00      78.8     0.32      1015.2     3.1     ENE    78   6.9       E    80   9.47    266      172.2
   10/03/2018 10:40      71.6      70.9       57     55.4      0.00      0.00      78.9     0.32      1015.3     2.6     ENE    77   5.9     ENE    71   9.47    266      183.3
   10/03/2018 10:30      71.8      71.1       57     55.5      0.00      0.00      78.9     0.32      1015.4     2.4     ENE    78   5.6     ENE    78   9.47    266      162.2
   10/03/2018 10:20      71.7      70.8       58     55.9      0.00      0.00      79.0     0.32      1015.4     1.9     ENE    77   5.7     ENE    74   9.47    266      226.3
   10/03/2018 10:10      71.2      70.3       60     56.3      0.00      0.00      79.0     0.32      1015.4     1.6     ENE    71   3.8     SSE   148   9.47    266      234.1
   10/03/2018 10:00      70.6      69.6       63     56.9      0.00      0.00      79.0     0.32      1015.4     1.9      NE    53   4.2     ENE    68   9.47    266      224.6
   10/03/2018 09:50      69.7      68.7       64     56.7      0.00      0.00      79.0     0.32      1015.4     2.0     ENE    58   4.8      NE    48   9.47    266      178.9
   10/03/2018 09:40      69.0      68.2       66     56.8      0.00      0.00      79.0     0.32      1015.5     2.1       E    97   5.5      NE    47   9.47    267      111.8
   10/03/2018 09:30      68.9      68.5       66     57.0      0.00      0.00      79.0     0.32      1015.4     1.8       E    81   3.8     SSE   152   9.47    267       76.3
   10/03/2018 09:20      68.8      68.2       66     56.6      0.00      0.00      79.1     0.32      1015.4     1.3       E    79   4.0       S   177   9.47    267       75.3
   10/03/2018 09:10      68.5      68.1       68     57.2      0.00      0.00      79.0     0.32      1015.3     1.4      SE   125   3.3      SE   137   9.47    267       92.6
   10/03/2018 09:00      68.4      67.7       69     57.5      0.00      0.00      79.1     0.32      1015.3     1.2       E    84   3.1       E    90   9.47    267       81.0
   10/03/2018 08:50      67.8      67.2       70     57.3      0.00      0.00      79.1     0.32      1015.3     1.8       E    79   4.8     ENE    65   9.47    267       80.8
   10/03/2018 08:40      67.8      67.0       71     57.5      0.00      0.00      79.1     0.32      1015.2     1.5       E    81   3.7       E    96   9.47    267       78.1
   10/03/2018 08:30      67.5      66.7       72     57.8      0.00      0.00      79.2     0.32      1015.1     1.6       E    82   3.8       E    98   9.47    268       58.0
   10/03/2018 08:20      66.9      66.4       73     57.6      0.00      0.00      79.2     0.32      1015.0     1.9       E    90   4.0      SE   127   9.47    268       22.7
   10/03/2018 08:10      66.7      66.4       73     57.8      0.00      0.00      79.2     0.32      1015.0     1.8     ESE   103   4.0     ENE    71   9.17    268       30.5
   10/03/2018 08:00      66.8      66.3       74     58.0      0.00      0.00      79.2     0.32      1014.8     1.6     ENE    71   3.7       E    88   9.17    267       19.4
   10/03/2018 07:50      66.7      66.2       73     57.6      0.00      0.00      79.2     0.32      1014.7     2.2      NE    52   4.0      NE    49   9.17    267        7.6
   10/03/2018 07:40      66.9      66.3       71     57.0      0.00      0.00      79.2     0.32      1014.6     1.7     ENE    57   3.9       E    97   9.17    277       -5.4
   10/03/2018 07:30      66.9      66.4       67     55.5      0.00      0.00      79.2     0.32      1014.6     1.2     ENE    62   3.7      NE    49   9.17    267       -9.0
   10/03/2018 07:20      66.7      66.3       66     54.7      0.00      0.00      79.3     0.32      1014.5     0.6     ESE   111   1.9      SE   142   9.17    267       -5.7
   10/03/2018 07:10      66.7      66.3       65     54.5      0.00      0.00      79.3     0.32      1014.4     0.6       E    94   1.5       E    99   9.17    267       -9.8
   10/03/2018 07:00      66.7      66.3       65     54.5      0.00      0.00      79.3     0.32      1014.3     0.4       E    82   1.6       E    93   9.17    267      -14.3
   10/03/2018 06:50      66.7      66.3       66     54.6      0.00      0.00      79.3     0.32      1014.4     0.0     ENE    66   0.6     ENE    66   9.17    267      -16.4
   10/03/2018 06:40      66.4      66.1       66     54.6      0.00      0.00      79.3     0.32      1014.3     0.3      SE   143   1.6      SE   143   9.17    267      -15.5
   10/03/2018 06:30      66.6      66.1       66     54.5      0.00      0.00      79.3     0.32      1014.2     0.3      SE   136   1.0     SSE   150   9.17    267      -17.2
   10/03/2018 06:20      66.4      66.0       66     54.5      0.00      0.00      79.4     0.32      1014.2     0.3       E    89   1.3       E    94   9.17    267      -16.1
   10/03/2018 06:10      66.4      65.8       66     54.4      0.00      0.00      79.3     0.32      1014.2     0.2     ESE   122   1.2      SE   136   9.17    267      -17.0
   10/03/2018 06:00      66.2      65.8       66     54.3      0.00      0.00      79.4     0.32      1014.0     0.0     ESE   109   0.7       E    96   9.17    267      -27.2
   10/03/2018 05:50      66.2      65.8       66     54.2      0.00      0.00      79.4     0.32      1014.0     0.0       N     0   0.0     ESE   123   9.17    267      -23.7
   10/03/2018 05:40      66.5      65.9       65     54.2      0.00      0.00      79.5     0.32      1014.0     0.0     ESE   123   0.5     ESE   123   9.17    267      -31.9
   10/03/2018 05:30      66.7      66.2       65     54.2      0.00      0.00      79.5     0.32      1014.0     0.0     ENE    62   1.2     ENE    58   9.17    267      -30.1
   10/03/2018 05:20      66.7      66.3       65     54.3      0.00      0.00      79.5     0.32      1013.9     0.3       E    92   1.6       E    85   9.17    267      -33.0
   10/03/2018 05:10      66.7      66.3       65     54.4      0.00      0.00      79.5     0.32      1014.0     0.4       E    94   1.5     ESE   122   9.17    267      -18.5
   10/03/2018 05:00      66.7      66.3       65     54.5      0.00      0.00      79.5     0.32      1014.0     0.7     ESE   108   1.8      SE   143   9.18    267      -16.3
   10/03/2018 04:50      66.8      66.3       65     54.4      0.00      0.00      79.5     0.32      1013.8     1.3       E    96   3.5     ENE    65   9.18    266      -15.6
   10/03/2018 04:40      66.7      66.3       65     54.2      0.00      0.00      79.5     0.32      1013.8     0.7       E    89   2.3     ENE    69   9.18    266      -15.9
   10/03/2018 04:30      66.7      66.3       64     54.0      0.00      0.00      79.5     0.32      1013.8     1.0       E    87   2.8      SE   129   9.18    266      -24.5
   10/03/2018 04:20      66.9      66.4       64     53.9      0.00      0.00      79.6     0.32      1013.8     1.1       E   101   3.2       E    86   9.18    266      -19.4
   10/03/2018 04:10      67.0      66.6       63     53.6      0.00      0.00      79.6     0.32      1013.8     1.0     ENE    60   2.4      NE    50   9.18    266      -25.3
   10/03/2018 04:00      67.0      66.6       62     53.4      0.00      0.00      79.6     0.32      1013.8     0.6     ENE    67   1.6      NE    50   9.18    266      -18.5
   10/03/2018 03:50      66.9      66.5       62     53.2      0.00      0.00      79.6     0.32      1013.9     0.5       E    96   3.3     ENE    66   9.18    266      -15.8
   10/03/2018 03:40      66.9      66.5       62     53.2      0.00      0.00      79.6     0.32      1013.9     0.6     ENE    76   2.0     ENE    76   9.18    266      -17.5
   10/03/2018 03:30      66.9      66.5       63     53.6      0.00      0.00      79.7     0.32      1014.0     0.3      NE    56   1.8      NE    55   9.18    266      -26.6
   10/03/2018 03:20      66.7      66.4       63     53.9      0.00      0.00      79.7     0.32      1014.1     0.1     ESE   106   0.9     ESE   108   9.18    266      -17.9
   10/03/2018 03:10      66.7      66.4       64     54.0      0.00      0.00      79.7     0.32      1014.2     0.2      SE   133   1.4      SE   125   9.18    266      -15.8
   10/03/2018 03:00      66.8      66.3       64     53.9      0.00      0.00      79.7     0.32      1014.3     0.4     ESE   120   1.3      SE   127   9.18    266      -15.6
   10/03/2018 02:50      67.0      66.3       63     53.8      0.00      0.00      79.7     0.32      1014.4     0.3     ESE   102   1.4     ESE   110   9.18    266      -20.4
   10/03/2018 02:40      67.0      66.6       61     53.1      0.00      0.00      79.7     0.32      1014.6     1.1     ESE   117   2.6     ESE   102   9.18    266      -18.6
   10/03/2018 02:30      67.0      66.7       60     52.6      0.00      0.00      79.8     0.32      1014.7     1.3      SE   138   2.9     SSE   147   9.18    266      -17.9
   10/03/2018 02:20      67.2      66.7       59     52.1      0.00      0.00      79.8     0.32      1014.7     1.5     SSE   149   2.8      SE   132   9.18    266      -23.4
   10/03/2018 02:10      67.4      66.9       58     51.9      0.00      0.00      79.8     0.32      1014.8     1.7       S   169   3.2      SE   136   9.18    266      -19.5
   10/03/2018 02:00      67.3      66.9       56     51.0      0.00      0.00      79.8     0.32      1014.8     1.8     SSE   158   3.9     SSE   162   9.18    268      -16.8
   10/03/2018 01:50      67.3      67.0       56     51.1      0.00      0.00      79.8     0.32      1014.8     2.2       S   179   3.7     SSE   161   9.18    266      -17.6
   10/03/2018 01:40      67.5      67.0       55     50.6      0.00      0.00      79.8     0.32      1014.8     2.3       S   169   4.9     SSW   197   9.18    266      -17.3
   10/03/2018 01:30      67.5      67.0       54     49.8      0.00      0.00      79.9     0.32      1014.7     2.2       S   172   3.8     SSE   168   9.18    266      -18.4
   10/03/2018 01:20      67.5      67.1       52     49.0      0.00      0.00      79.9     0.32      1014.7     2.4     SSW   192   5.1     SSW   205   9.18    265      -17.3
   10/03/2018 01:10      67.5      67.1       51     48.6      0.00      0.00      79.9     0.32      1014.6     2.6       S   179   5.4     SSE   168   9.18    265      -16.2
   10/03/2018 01:00      67.7      67.2       50     48.2      0.00      0.00      79.8     0.32      1014.5     2.6       S   185   5.9       S   175   9.19    265      -16.5
   10/03/2018 00:50      67.8      67.2       49     47.6      0.00      0.00      79.9     0.32      1014.4     2.3       S   189   3.9       S   187   9.19    265      -19.0
   10/03/2018 00:40      67.9      67.4       48     47.1      0.00      0.00      79.9     0.32      1014.4     2.8     SSW   194   5.8     SSW   210   9.19    265      -17.0
   10/03/2018 00:30      67.9      67.5       47     46.9      0.00      0.00      80.0     0.32      1014.4     2.3       S   188   3.5       S   185   9.19    265      -20.4
   10/03/2018 00:20      68.2      67.6       47     46.9      0.00      0.00      79.9     0.32      1014.5     2.9       S   190   4.9       S   172   9.19    265      -17.1
   10/03/2018 00:10      68.6      67.8       47     47.0      0.00      0.00      79.9     0.32      1014.6     2.8       S   190   4.9     SSW   193   9.19    265      -16.5
   10/03/2018 00:00      68.9      68.3       47     47.4      0.00      0.00      80.0     0.32      1014.6     1.8       S   191   5.4     SSW   208   9.19    265      -16.8
   10/02/2018 23:50      68.9      68.4       49     48.4      0.00      0.00      80.0     0.32      1014.5     0.8       S   179   1.9       S   175   9.19    265      -16.7
   10/02/2018 23:40      68.6      68.2       50     49.0      0.00      0.00      80.0     0.32      1014.5     1.0       S   172   2.3       S   186   9.20    265      -16.6
   10/02/2018 23:30      68.8      68.3       50     49.3      0.00      0.00      80.0     0.32      1014.4     0.3     ESE   104   1.3       E    85   9.20    265      -20.2
   10/02/2018 23:20      68.8      68.3       50     49.4      0.00      0.00      80.0     0.32      1014.4     0.6       E    82   1.7     ENE    64   9.20    265      -17.4
   10/02/2018 23:10      68.9      68.4       50     49.4      0.00      0.00      80.0     0.32      1014.3     1.2      NE    50   2.1      NE    46   9.20    265      -21.9
   10/02/2018 23:00      68.9      68.4       48     48.1      0.00      0.00      80.0     0.32      1014.3     0.9       E    99   1.8     ENE    68   9.20    265      -19.4
   10/02/2018 22:50      68.9      68.5       47     47.4      0.00      0.00      80.0     0.32      1014.3     0.0       E    81   0.8       E    80   9.20    265      -21.5
   10/02/2018 22:40      68.9      68.3       47     47.4      0.00      0.00      80.0     0.32      1014.3     0.5     SSW   210   1.2      SW   230   9.20    264      -21.2
   10/02/2018 22:30      68.8      68.2       47     47.3      0.00      0.00      80.1     0.32      1014.2     0.3      SE   141   1.2     SSW   194   9.20    264      -17.8
   10/02/2018 22:20      68.6      68.2       47     47.2      0.00      0.00      80.1     0.32      1014.2     0.8      SE   131   1.6       S   186   9.20    264      -23.1
   10/02/2018 22:10      68.6      68.2       47     47.2      0.00      0.00      80.0     0.32      1014.1     1.0     SSE   165   2.9     SSE   155   9.20    264      -29.8
   10/02/2018 22:00      68.8      68.3       46     47.1      0.00      0.00      80.0     0.32      1014.1     2.2       S   171   4.8       S   189   9.20    264      -20.3
   10/02/2018 21:50      68.9      68.5       46     47.2      0.00      0.00      80.1     0.32      1014.2     1.9       S   179   3.0     SSW   196   9.20    264      -19.0
   10/02/2018 21:40      68.9      68.5       46     47.2      0.00      0.00      80.1     0.32      1014.2     2.1       S   182   3.4       S   181   9.21    264      -20.8
   10/02/2018 21:30      69.3      68.6       45     46.8      0.00      0.00      80.1     0.32      1014.0     2.2       S   174   4.8     SSE   151   9.21    264      -29.6
   10/02/2018 21:20      69.6      68.8       44     46.4      0.00      0.00      80.1     0.32      1014.0     1.9       S   172   3.0       S   182   9.21    264      -30.4
   10/02/2018 21:10      69.9      69.3       43     46.2      0.00      0.00      80.1     0.32      1014.0     1.5     SSE   154   3.4      SE   140   9.21    264      -37.0
   10/02/2018 21:00      70.3      69.6       43     46.6      0.00      0.00      80.0     0.32      1014.0     0.2     ESE   123   1.0     ESE   119   9.21    264      -30.1
   10/02/2018 20:50      70.3      69.9       43     46.4      0.00      0.00      80.1     0.32      1013.9     0.0     SSE   155   0.8     SSE   157   9.21    264      -38.0
   10/02/2018 20:40      70.3      69.8       43     46.4      0.00      0.00      80.1     0.32      1013.8     0.9       S   176   1.7       S   183   9.21    264      -33.0
   10/02/2018 20:30      70.5      70.0       43     46.5      0.00      0.00      80.1     0.32      1013.8     1.2       S   183   2.5     SSE   167   9.21    264      -35.3
   10/02/2018 20:20      70.6      70.1       43     46.6      0.00      0.00      80.1     0.32      1013.7     1.0       S   182   2.1     SSW   200   9.22    264      -35.4
   10/02/2018 20:10      70.6      70.1       43     46.6      0.00      0.00      80.0     0.32      1013.7     0.8     SSE   165   2.1       S   176   9.22    264      -30.3
   10/02/2018 20:00      70.4      69.8       43     46.5      0.00      0.00      80.0     0.32      1013.5     0.8     SSE   167   2.3     SSE   168   9.22    264      -26.5
   10/02/2018 19:50      70.2      69.9       43     46.5      0.00      0.00      80.0     0.32      1013.4     1.7     SSW   193   2.7     SSW   212   9.22    264      -39.6
   10/02/2018 19:40      70.3      69.9       43     46.7      0.00      0.00      80.0     0.32      1013.4     1.9     SSW   194   3.7     SSW   197   9.22    264      -32.2
   10/02/2018 19:30      70.6      69.9       43     46.5      0.00      0.00      80.0     0.32      1013.3     1.9       S   178   3.9     SSW   194   9.22    264      -38.4
   10/02/2018 19:20      70.8      70.2       42     46.1      0.00      0.00      80.0     0.32      1013.2     2.6       S   174   5.3     SSW   209   9.23    264      -39.3
   10/02/2018 19:10      71.1      70.5       41     46.2      0.00      0.00      80.0     0.32      1013.2     2.2     SSE   163   4.1      SE   139   9.23    264      -38.0
   10/02/2018 19:00      71.3      70.7       41     46.3      0.00      0.00      80.0     0.32      1013.0     2.3       S   177   5.0     SSE   167   9.23    264      -31.3
   10/02/2018 18:50      71.3      70.7       41     46.0      0.00      0.00      80.0     0.32      1012.9     3.5       S   174   7.1       S   177   9.23    264      -28.3
   10/02/2018 18:40      71.7      71.0       40     45.7      0.00      0.00      79.9     0.32      1012.7     3.4     SSE   168   5.4      SE   136   9.23    264      -33.1
   10/02/2018 18:30      72.2      71.3       39     45.5      0.00      0.00      79.9     0.32      1012.6     4.0       S   178   6.9     SSW   198   9.24    264      -32.3
   10/02/2018 18:20      72.7      71.9       38     45.5      0.00      0.00      79.9     0.32      1012.5     2.8       S   182   5.2     SSE   159   9.24    264      -21.0
   10/02/2018 18:10      73.0      72.4       38     45.9      0.00      0.00      79.9     0.32      1012.5     2.1       S   171   5.0     SSE   168   9.24    264      -16.8
   10/02/2018 18:00      73.0      72.5       39     46.7      0.00      0.00      79.9     0.32      1012.5     2.4     SSE   166   5.8     SSW   203   9.24    264       -5.0
   10/02/2018 17:50      73.7      72.7       40     47.5      0.00      0.00      79.9     0.32      1012.4     3.6     SSE   160   7.2       S   190   9.25    264      -14.4
   10/02/2018 17:40      74.3      73.3       41     48.6      0.00      0.00      79.8     0.32      1012.3     4.1     SSE   168   7.5       S   188   9.25    264        2.2
   10/02/2018 17:30      75.3      73.9       42     50.2      0.00      0.00      79.8     0.32      1012.2     4.2       S   178   8.0     SSW   201   9.25    264       16.0
   10/02/2018 17:20      76.4      75.2       42     50.9      0.00      0.00      79.8     0.32      1012.1     3.7       S   188   7.6       S   177   9.26    264       13.9
   10/02/2018 17:10      76.9      76.3       40     50.7      0.00      0.00      79.8     0.32      1012.0     3.3     SSE   167   5.8      SE   146   9.26    264       38.0
   10/02/2018 17:00      76.7      75.8       39     49.9      0.00      0.00      79.7     0.32      1011.9     3.9       S   175   7.0       S   190   9.26    264      109.1
   10/02/2018 16:50      76.4      75.7       40     49.8      0.00      0.00      79.7     0.32      1011.8     4.5       S   170   7.8       S   181   9.26    264       71.5
   10/02/2018 16:40      77.1      75.9       39     49.4      0.00      0.00      79.7     0.32      1011.8     5.3       S   182   9.0     SSW   206   9.27    263       54.2
   10/02/2018 16:30      77.1      76.7       38     49.6      0.00      0.00      79.7     0.32      1011.8     4.5     SSE   166   8.7       S   173   9.27    263      105.8
   10/02/2018 16:20      77.6      76.7       39     50.0      0.00      0.00      79.6     0.32      1011.7     5.6     SSE   163  11.3       S   181   9.28    264      207.3
   10/02/2018 16:10      78.5      77.3       38     50.0      0.00      0.00      79.6     0.32      1011.7     5.2       S   171   9.5     SSW   193   9.28    263      127.8
   10/02/2018 16:00      80.8      78.1       34     48.6      0.00      0.00      79.6     0.32      1011.6     5.1     SSE   166   7.8     SSE   153   9.29    263      111.6
   10/02/2018 15:50      82.3      80.6       29     45.9      0.00      0.00      79.6     0.32      1011.5     4.7       S   176  10.4      SE   136   9.29    262      162.5
   10/02/2018 15:40      82.3      81.5       26     43.5      0.00      0.00      79.6     0.32      1011.4     5.5       S   187   8.6     SSW   209   9.29    263      275.1
   10/02/2018 15:30      82.4      81.8       25     42.6      0.00      0.00      79.5     0.32      1011.4     4.6      SE   145   8.3      SE   141   9.29    263      274.8
   10/02/2018 15:20      82.2      81.3       23     40.5      0.00      0.00      79.5     0.32      1011.5     4.3     SSE   147   8.1      SE   125   9.30    262      366.8
   10/02/2018 15:10      82.6      81.3       24     41.3      0.00      0.00      79.5     0.32      1011.4     4.7     SSE   156   8.9       S   176   9.30    262      301.8
   10/02/2018 15:00      82.3      81.4       21     37.4      0.00      0.00      79.5     0.32      1011.4     3.2     SSE   158   6.2      SE   125   9.30    262      252.0
   10/02/2018 14:50      81.9      81.3       18     34.0      0.00      0.00      79.5     0.32      1011.4     2.5     SSW   200   4.7       S   188   9.31    262      158.6
   10/02/2018 14:40      82.4      81.6       19     35.1      0.00      0.00      79.5     0.32      1011.4     4.3     SSW   198   8.0      SW   225   9.31    262      221.0
   10/02/2018 14:30      82.8      81.5       19     35.2      0.00      0.00      79.5     0.32      1011.3     4.4      SW   221   6.7     SSW   207   9.31    262      382.0
   10/02/2018 14:20      82.7      82.0       20     36.9      0.00      0.00      79.5     0.32      1011.3     2.4      SW   219   5.3     ESE   111   9.32    262      289.6
   10/02/2018 14:10      82.9      81.8       20     37.9      0.00      0.00      79.5     0.32      1011.4     2.3     SSW   193   5.8       S   177   9.32    262      254.2
   10/02/2018 14:00      82.7      81.5       20     37.5      0.00      0.00      79.5     0.32      1011.5     2.3      SE   137   6.1      SE   137   9.32    263      330.4
   10/02/2018 13:50      82.1      81.1       21     38.1      0.00      0.00      79.4     0.32      1011.6     2.5      SE   146   5.8     SSE   158   9.32    262      329.2
   10/02/2018 13:40      81.6      80.8       22     38.5      0.00      0.00      79.4     0.32      1011.6     3.1     SSE   169   5.5       S   185   9.32    262      237.6
   10/02/2018 13:30      82.0      80.9       21     37.8      0.00      0.00      79.4     0.32      1011.8     3.8       S   179   6.3     SSE   154   9.32    262      327.8
   10/02/2018 13:20      81.3      80.3       22     38.1      0.00      0.00      79.4     0.32      1011.9     2.7      SE   134   6.0       S   187   9.33    263      247.9
   10/02/2018 13:10      80.6      79.4       23     38.3      0.00      0.00      79.4     0.32      1012.0     2.9      SE   124   6.1     ESE   123   9.33    263      210.3
   10/02/2018 13:00      79.6      78.6       25     40.7      0.00      0.00      79.4     0.32      1012.1     3.6      SE   137   7.6      SE   142   9.33    263      189.3
   10/02/2018 12:50      79.4      78.7       27     41.9      0.00      0.00      79.4     0.32      1012.1     4.6     SSE   165   9.4     SSW   210   9.34    264      118.4
   10/02/2018 12:40      79.3      78.6       28     43.3      0.00      0.00      79.4     0.32      1012.1     4.2     SSE   164   8.4       S   191   9.34    263      148.4
   10/02/2018 12:30      79.1      78.4       30     44.8      0.00      0.00      79.4     0.32      1012.0     3.3      SE   140   6.5      SE   141   9.34    264      124.6
   10/02/2018 12:20      78.7      78.3       32     46.5      0.00      0.00      79.4     0.32      1011.9     4.3      SE   144   8.1     SSE   162   9.34    264      135.6
   10/02/2018 12:10      78.9      78.3       34     47.6      0.00      0.00      79.3     0.32      1011.9     4.1     SSE   152   7.3      SE   144   9.35    264      133.3
   10/02/2018 12:00      78.9      78.4       35     48.9      0.00      0.00      79.3     0.32      1011.9     4.0     SSE   166   7.1       S   172   9.35    264      103.2
   10/02/2018 11:50      79.1      78.5       37     50.4      0.00      0.00      79.3     0.32      1011.8     4.3     SSE   168   7.3       S   188   9.35    264      104.2
   10/02/2018 11:40      79.5      78.6       40     52.3      0.00      0.00      79.3     0.32      1011.7     3.8       S   179   6.1     SSW   199   9.35    264      106.9
   10/02/2018 11:30      79.5      78.9       43     54.4      0.00      0.00      79.3     0.32      1011.6     3.9       S   187   7.7       S   186   9.36    265      111.4
   10/02/2018 11:20      79.9      79.1       47     57.3      0.00      0.00      79.4     0.32      1011.6     3.5     SSE   164   7.8     SSE   163   9.36    265      135.5
   10/02/2018 11:10      80.0      79.4       48     57.9      0.00      0.00      79.4     0.32      1011.7     4.3     SSE   164   6.7      SW   223   9.36    265      141.1
   10/02/2018 11:00      80.1      79.4       48     58.1      0.00      0.00      79.3     0.32      1011.7     3.2       S   170   7.0      SE   126   9.36    265      142.4
   10/02/2018 10:50      80.3      79.7       48     58.6      0.00      0.00      79.4     0.32      1011.6     4.0       S   181   7.4     SSW   195   9.36    265      244.7
   10/02/2018 10:40      80.5      79.9       48     58.6      0.00      0.00      79.4     0.32      1011.6     3.3       S   176   6.1       S   185   9.36    265      233.9
   10/02/2018 10:30      81.5      79.5       47     58.0      0.00      0.00      79.4     0.32      1011.6     3.4      SE   128   7.2      SE   137   9.36    265      210.7
   10/02/2018 10:20      81.6      79.7       48     59.3      0.00      0.00      79.5     0.32      1011.6     1.7       E    80   6.0      SE   132   9.36    264      267.0
   10/02/2018 10:10      80.0      79.4       49     59.0      0.00      0.00      79.5     0.32      1011.5     2.8      NE    34   4.5      NE    48   9.36    265      275.1
   10/02/2018 10:00      80.1      78.9       49     58.8      0.00      0.00      79.5     0.32      1011.4     2.0     ENE    57   6.1     NNE    30   9.36    265      267.2
   10/02/2018 09:50      80.0      78.7       49     58.5      0.00      0.00      79.5     0.32      1011.3     1.9      NE    54   3.7     ENE    73   9.36    266      134.3
   10/02/2018 09:40      80.6      79.8       47     58.3      0.00      0.00      79.5     0.32      1011.3     1.6      NE    54   4.6     ESE   107   9.37    265      145.9
   10/02/2018 09:30      80.6      79.9       46     57.6      0.00      0.00      79.5     0.32      1011.2     1.4     NNE    14   3.2       N     5   9.37    264      279.8
   10/02/2018 09:20      80.0      78.3       47     57.3      0.00      0.00      79.5     0.32      1011.1     1.0     NNE    14   3.0     NNE    15   9.37    264      293.7
   10/02/2018 09:10      78.4      76.5       50     57.1      0.00      0.00      79.6     0.32      1011.0     1.3      NE    38   2.5      NE    46   9.37    265      213.1
   10/02/2018 09:00      77.2      76.5       50     56.7      0.00      0.00      79.6     0.32      1011.0     0.9     NNE    12   2.1      NE    37   9.37    266       78.4
   10/02/2018 08:50      78.8      77.0       48     56.6      0.00      0.00      79.6     0.32      1011.0     1.2     WNW   302   2.3     NNW   331   9.37    266      125.0
   10/02/2018 08:40      79.2      78.5       47     56.9      0.00      0.00      79.6     0.32      1010.9     0.6     NNW   348   2.0     NNW   348   9.37    266      178.6
   10/02/2018 08:30      78.9      73.5       49     55.8      0.00      0.00      79.6     0.32      1010.8     0.0     ESE   123   1.6     ESE   120   9.37    266      177.2
   10/02/2018 08:20      73.5      71.0       57     55.6      0.00      0.00      79.6     0.32      1010.7     0.2       S   181   1.0       S   181   9.37    266       91.0
   10/02/2018 08:10      71.2      70.5       60     56.1      0.00      0.00      79.6     0.32      1010.6     0.5      SE   146   1.6      SE   142   9.37    266      -12.6
   10/02/2018 08:00      70.8      70.2       61     56.3      0.00      0.00      79.7     0.32      1010.6     0.4      SE   142   1.0      SE   142   9.37    266       -6.6
   10/02/2018 07:50      70.6      70.2       58     55.0      0.00      0.00      79.6     0.32      1010.6     0.4     SSE   151   1.4      SE   142   9.37    266      -16.7
   10/02/2018 07:40      71.1      70.3       57     54.7      0.00      0.00      79.7     0.32      1010.5     0.6       S   176   1.4       S   182   9.37    266      -25.0
   10/02/2018 07:30      70.9      70.3       57     54.4      0.00      0.00      79.7     0.32      1010.4     1.5      SW   234   2.3     WSW   246   9.37    266      -31.1
   10/02/2018 07:20      71.0      70.3       57     54.6      0.00      0.00      79.7     0.32      1010.2     0.2       S   177   0.9       S   173   9.37    266      -30.5
   10/02/2018 07:10      71.1      70.7       57     54.9      0.00      0.00      79.7     0.32      1010.2     0.0      SE   125   0.1      SE   125   9.37    266      -35.4
   10/02/2018 07:00      71.8      70.8       58     55.5      0.00      0.00      79.7     0.32      1010.2     0.0      SE   125   0.6      SE   125   9.37    266      -31.4
   10/02/2018 06:50      72.1      71.5       56     55.1      0.00      0.00      79.7     0.32      1010.2     0.0       N     0   0.0      SE   125   9.37    266      -30.9
   10/02/2018 06:40      72.1      71.6       54     54.5      0.00      0.00      79.7     0.32      1010.2     0.0       N     0   0.0      SE   125   9.37    266      -24.5
   10/02/2018 06:30      72.1      71.7       55     55.1      0.00      0.00      79.8     0.32      1010.2     0.0      SE   125   0.6      SE   125   9.37    266      -21.8
   10/02/2018 06:20      72.6      71.8       56     55.8      0.00      0.00      79.8     0.32      1010.3     0.1      SE   125   0.7      SE   125   9.37    266      -19.2
   10/02/2018 06:10      72.7      72.1       56     55.7      0.00      0.00      79.8     0.32      1010.2     0.0       N     0   0.0       W   259   9.37    266      -18.9
   10/02/2018 06:00      72.6      72.2       56     55.7      0.00      0.00      79.8     0.32      1010.2     0.5      SW   232   1.3      SW   216   9.37    266      -17.1
   10/02/2018 05:50      72.6      72.2       56     55.8      0.00      0.00      79.8     0.32      1010.1     0.2      SE   138   0.9     NNE    16   9.37    266      -16.1
   10/02/2018 05:40      72.4      72.2       56     55.9      0.00      0.00      79.8     0.32      1010.0     0.0     SSW   199   0.9       S   191   9.37    266      -16.9
   10/02/2018 05:30      72.4      72.0       56     55.7      0.00      0.00      79.8     0.32      1009.9     0.3      NE    55   1.5      NE    54   9.37    266      -17.4
   10/02/2018 05:20      72.4      72.1       56     55.5      0.00      0.00      79.9     0.32      1009.9     0.0       N     0   0.0      SE   144   9.37    266      -19.4
   10/02/2018 05:10      72.7      72.1       56     55.6      0.00      0.00      79.8     0.32      1009.9     0.0      SE   133   0.6      SE   133   9.38    266      -19.8
   10/02/2018 05:00      73.0      72.4       55     55.3      0.00      0.00      79.9     0.32      1009.9     0.6     ENE    68   1.4     ENE    72   9.38    266      -16.9
   10/02/2018 04:50      72.8      72.3       54     55.1      0.00      0.00      79.9     0.32      1009.9     0.0     NNW   334   0.6      NW   321   9.38    266      -15.4
   10/02/2018 04:40      73.0      72.4       54     55.1      0.00      0.00      79.9     0.32      1009.9     0.0       N     0   0.0     ENE    60   9.38    266      -17.4
   10/02/2018 04:30      73.5      72.8       53     54.9      0.00      0.00      79.9     0.32      1009.7     0.0     ENE    60   0.7     ENE    60   9.38    266      -28.5
   10/02/2018 04:20      73.8      73.2       52     54.6      0.00      0.00      79.9     0.32      1009.6     1.0       S   190   2.5       S   183   9.38    266      -29.9
   10/02/2018 04:10      73.8      73.4       51     54.5      0.00      0.00      79.9     0.32      1009.6     1.8     SSW   209   4.4     SSW   203   9.38    266      -27.3
   10/02/2018 04:00      73.8      73.3       51     54.5      0.00      0.00      80.0     0.32      1009.5     2.8      SW   220   5.1      SW   220   9.38    266      -25.0
   10/02/2018 03:50      73.5      73.2       52     54.5      0.00      0.00      80.0     0.32      1009.6     2.7     SSW   212   5.5      SW   226   9.38    266      -24.4
   10/02/2018 03:40      73.5      72.9       53     55.2      0.00      0.00      80.0     0.32      1009.6     2.4     SSW   205   6.0     SSW   213   9.38    266      -24.9
   10/02/2018 03:30      73.1      72.6       55     55.9      0.00      0.00      80.0     0.32      1009.7     0.4      SW   222   1.8      SW   234   9.38    266      -23.6
   10/02/2018 03:20      72.8      71.8       57     56.2      0.00      0.00      80.0     0.32      1009.7     0.8       S   177   3.1       S   183   9.38    266      -21.7
   10/02/2018 03:10      72.1      71.6       58     56.4      0.00      0.00      80.0     0.32      1009.7     0.0      NE    54   0.7      NE    43   9.38    266      -24.3
   10/02/2018 03:00      72.3      71.7       58     56.4      0.00      0.00      80.0     0.32      1009.7     0.4     SSW   200   1.3     SSW   202   9.38    266      -28.2
   10/02/2018 02:50      72.8      72.1       57     56.5      0.00      0.00      80.0     0.32      1009.8     0.8       S   190   1.5       S   179   9.38    266      -32.1
   10/02/2018 02:40      73.2      72.6       55     55.7      0.00      0.00      80.0     0.32      1009.7     1.4       S   183   2.4       S   187   9.39    266      -38.5
   10/02/2018 02:30      73.0      72.4       55     55.8      0.00      0.00      80.0     0.32      1009.8     1.5       S   191   2.6       S   189   9.39    266      -45.8
   10/02/2018 02:20      72.8      72.2       56     56.1      0.00      0.00      80.0     0.32      1009.9     0.8     SSW   205   2.2      SW   214   9.39    266      -44.0
   10/02/2018 02:10      72.8      72.4       57     56.4      0.00      0.00      80.0     0.32      1009.9     0.2     SSW   204   1.4     SSW   204   9.39    266      -37.1
   10/02/2018 02:00      73.2      72.6       56     56.3      0.00      0.00      80.1     0.32      1009.9     0.0       N     0   0.0     SSE   147   9.39    266      -30.0
   10/02/2018 01:50      73.9      72.9       55     56.1      0.00      0.00      80.1     0.32      1009.9     0.3     SSE   151   1.0     SSE   147   9.39    266      -29.3
   10/02/2018 01:40      74.2      73.5       53     55.7      0.00      0.00      80.1     0.32      1009.9     0.5       S   178   1.2     SSW   197   9.39    266      -32.5
   10/02/2018 01:30      74.1      73.7       53     55.7      0.00      0.00      80.1     0.32      1009.9     1.5     SSW   205   2.7     WSW   242   9.39    266      -31.9
   10/02/2018 01:20      74.1      73.6       54     56.3      0.00      0.00      80.1     0.32      1010.0     0.9     SSW   193   2.1       S   189   9.39    266      -29.3
   10/02/2018 01:10      74.1      73.7       54     56.4      0.00      0.00      80.1     0.32      1009.9     0.5     SSW   202   1.4     WSW   243   9.39    266      -32.2
   10/02/2018 01:00      74.1      73.7       55     56.6      0.00      0.00      80.1     0.32      1009.9     0.7     SSW   207   1.5      SW   226   9.39    266      -31.3
   10/02/2018 00:50      73.8      73.3       57     57.3      0.00      0.00      80.1     0.32      1009.9     1.3     SSW   211   2.6      SW   220   9.39    266      -29.2
   10/02/2018 00:40      73.8      73.2       57     57.3      0.00      0.00      80.1     0.32      1009.8     0.0       N     0   0.0     SSE   163   9.40    266      -28.5
   10/02/2018 00:30      73.7      73.4       58     57.7      0.00      0.00      80.1     0.32      1009.8     0.0       N     0   0.0     SSE   163   9.40    266      -25.6
   10/02/2018 00:20      73.7      73.3       57     57.5      0.00      0.00      80.1     0.32      1009.8     0.0       N     0   0.0     SSE   163   9.40    266      -25.8
   10/02/2018 00:10      73.6      73.2       57     57.3      0.00      0.00      80.1     0.32      1009.7     0.0     SSE   164   0.8       S   172   9.40    266      -25.5
   10/02/2018 00:00      73.5      73.2       56     56.8      0.00      0.00      80.1     0.32      1009.7     0.0       N     0   0.0       E    94   9.40    266      -23.9
   10/01/2018 23:50      73.4      73.0       57     57.0      0.00      0.00      80.1     0.32      1009.6     0.0       N     0   0.0       E    94   9.40    266      -24.0
   10/01/2018 23:40      73.2      72.8       57     56.9      0.00      0.00      80.1     0.32      1009.6     0.0       N     0   0.0       E    94   9.40    266      -25.2
   10/01/2018 23:30      73.1      72.8       57     56.8      0.00      0.00      80.1     0.32      1009.6     0.0       N     0   0.0       E    94   9.40    266      -26.9
   10/01/2018 23:20      73.0      72.7       57     56.7      0.00      0.00      80.1     0.32      1009.6     0.0       N     0   0.0       E    93   9.40    266      -26.6
   10/01/2018 23:10      73.1      72.6       57     56.7      0.00      0.00      80.2     0.32      1009.6     0.1     ESE   110   0.6       E    94   9.40    266      -24.8
   10/01/2018 23:00      73.1      72.7       56     56.0      0.00      0.00      80.1     0.32      1009.6     0.9     SSW   208   1.9     SSW   209   9.40    266      -35.4
   10/01/2018 22:50      73.1      72.4       56     56.4      0.00      0.00      80.1     0.32      1009.7     0.1       S   178   0.9       S   178   9.40    266      -47.0
   10/01/2018 22:40      73.6      72.8       55     56.1      0.00      0.00      80.1     0.32      1009.7     0.3       S   180   1.4       S   187   9.40    266      -50.9
   10/01/2018 22:30      74.5      73.4       54     56.4      0.00      0.00      80.1     0.32      1009.7     0.0     SSW   192   1.5       S   187   9.40    266      -51.9
   10/01/2018 22:20      75.2      74.3       53     56.2      0.00      0.00      80.1     0.32      1009.7     0.1     SSE   150   0.8      NE    53   9.41    265      -53.2
   10/01/2018 22:10      75.9      75.0       52     56.5      0.00      0.00      80.1     0.32      1009.7     0.7     ESE   115   1.8       S   183   9.41    265      -53.6
   10/01/2018 22:00      76.2      75.5       51     56.4      0.00      0.00      80.1     0.32      1009.7     0.8     SSW   193   2.8     SSW   199   9.41    265      -51.4
   10/01/2018 21:50      76.1      75.7       51     56.4      0.00      0.00      80.0     0.32      1009.7     1.9     SSW   208   5.2      SW   221   9.41    265      -51.8
   10/01/2018 21:40      76.5      75.8       50     56.1      0.00      0.00      80.0     0.32      1009.7     2.2     SSW   211   4.2     SSW   207   9.41    265      -54.9
   10/01/2018 21:30      76.7      76.2       48     55.3      0.00      0.00      80.0     0.32      1009.8     2.5     SSW   210   4.7      SW   231   9.41    265      -56.9
   10/01/2018 21:20      77.1      76.4       46     54.1      0.00      0.00      80.0     0.32      1009.8     2.4     SSW   206   5.3      SW   223   9.42    264      -57.1
   10/01/2018 21:10      77.3      76.8       46     54.5      0.00      0.00      80.0     0.32      1009.8     2.1     SSW   195   4.0     SSW   204   9.42    264      -57.5
   10/01/2018 21:00      77.7      77.0       46     54.9      0.00      0.00      80.0     0.32      1009.7     2.3     SSW   201   3.9      SW   221   9.42    264      -58.0
   10/01/2018 20:50      77.9      77.3       45     54.7      0.00      0.00      80.0     0.32      1009.7     2.0      SW   214   4.2     WSW   239   9.42    264      -58.9
   10/01/2018 20:40      78.1      77.6       45     54.9      0.00      0.00      79.9     0.32      1009.7     2.6      SW   222   5.0     WSW   238   9.42    264      -59.5
   10/01/2018 20:30      78.7      77.8       45     55.3      0.00      0.00      79.9     0.32      1009.7     2.8      SW   235   5.2       W   269   9.43    264      -60.5
   10/01/2018 20:20      79.3      78.4       44     55.1      0.00      0.00      79.9     0.32      1009.6     3.1      SW   230   5.6     WSW   248   9.43    264      -61.8
   10/01/2018 20:10      79.9      78.9       42     54.1      0.00      0.00      79.8     0.32      1009.5     1.3      SW   224   3.3     WSW   247   9.43    264      -62.3
   10/01/2018 20:00      80.3      79.5       40     53.5      0.00      0.00      79.8     0.32      1009.3     1.9       W   265   3.8     WNW   282   9.43    264      -61.2
   10/01/2018 19:50      80.5      79.8       40     53.4      0.00      0.00      79.8     0.32      1009.3     2.7       W   276   4.5     WSW   257   9.43    264      -56.8
   10/01/2018 19:40      80.8      80.2       39     53.3      0.00      0.00      79.7     0.32      1009.2     3.9     WSW   253   6.9     WSW   246   9.44    264      -54.9
   10/01/2018 19:30      81.6      80.5       39     54.1      0.00      0.00      79.7     0.32      1009.0     3.3       W   270   6.6     WSW   239   9.44    264      -53.8
   10/01/2018 19:20      82.3      81.3       40     54.9      0.00      0.00      79.7     0.32      1008.9     2.4     WNW   296   5.5     WSW   251   9.44    264      -56.8
   10/01/2018 19:10      82.9      82.1       39     54.9      0.00      0.00      79.6     0.32      1008.9     1.8      NW   322   4.5      NW   318   9.45    264      -54.9
   10/01/2018 19:00      83.0      82.5       38     54.9      0.00      0.00      79.6     0.32      1008.8     2.1     WSW   252   3.8       W   269   9.45    264      -45.9
   10/01/2018 18:50      83.3      82.7       38     54.9      0.00      0.00      79.6     0.32      1008.8     2.4     WSW   243   4.0     WSW   239   9.45    264      -43.0
   10/01/2018 18:40      83.8      83.0       37     54.7      0.00      0.00      79.5     0.32      1008.8     2.7     WSW   244   5.3       W   268   9.45    264      -45.5
   10/01/2018 18:30      83.8      83.3       37     54.6      0.00      0.00      79.4     0.32      1008.8     2.7     WSW   259   5.3       W   264   9.46    264      -49.5
   10/01/2018 18:20      83.8      83.3       37     54.7      0.00      0.00      79.3     0.32      1008.8     1.8     WNW   288   5.4      NW   319   9.46    264      -55.1
   10/01/2018 18:10      84.1      83.5       37     54.4      0.00      0.00      79.4     0.32      1008.7     1.8      NW   312   3.8       N   354   9.47    264      -47.2
   10/01/2018 18:00      84.6      83.7       36     54.2      0.00      0.00      79.3     0.32      1008.7     2.4      NW   306   6.1       W   280   9.47    263      -33.5
   10/01/2018 17:50      85.7      84.5       35     54.3      0.00      0.00      79.3     0.32      1008.6     3.4      NW   320   7.0     WNW   295   9.47    263      -36.6
   10/01/2018 17:40      87.1      85.5       34     54.4      0.00      0.00      79.2     0.32      1008.6     4.0     WNW   289   7.9      NW   308   9.48    263      -19.8
   10/01/2018 17:30      87.8      86.7       33     54.7      0.00      0.00      79.2     0.32      1008.6     3.3       W   266   6.4     WSW   246   9.48    263       10.5
   10/01/2018 17:20      88.0      87.1       33     55.2      0.00      0.00      79.1     0.32      1008.6     4.0       W   261   7.6       W   273   9.49    263       63.9
   10/01/2018 17:10      88.1      87.5       32     54.6      0.00      0.00      79.0     0.32      1008.6     3.5     WNW   290   7.1     WSW   253   9.49    263       97.8
   10/01/2018 17:00      88.9      87.4       33     54.8      0.00      0.00      79.0     0.32      1008.6     4.3      NW   311  12.8      NW   310   9.49    263      122.7
   10/01/2018 16:50      90.7      88.7       31     55.5      0.00      0.00      78.9     0.32      1008.5     3.7      NW   319   7.6     WNW   302   9.50    263      144.6
   10/01/2018 16:40      90.6      89.5       33     56.9      0.00      0.00      78.9     0.32      1008.5     2.7       W   274   6.4       W   260   9.50    263      165.5
   10/01/2018 16:30      89.9      89.4       33     56.8      0.00      0.00      78.8     0.32      1008.6     2.8      SW   235   6.3      SW   216   9.50    264      188.9
   10/01/2018 16:20      90.0      89.2       33     56.8      0.00      0.00      78.8     0.32      1008.6     2.6      SW   219   6.2     SSW   202   9.51    264      213.4
   10/01/2018 16:10      89.8      88.6       34     56.8      0.00      0.00      78.7     0.32      1008.7     4.1       S   188   9.9       S   174   9.51    264      228.5
   10/01/2018 16:00      89.7      88.6       34     56.9      0.00      0.00      78.7     0.32      1008.8     4.8     SSW   195   9.3     SSW   209   9.51    264      249.7
   10/01/2018 15:50      89.5      88.3       34     57.1      0.00      0.00      78.6     0.32      1008.8     4.8     SSE   148   7.8     SSE   161   9.52    263      215.3
   10/01/2018 15:40      89.7      89.0       34     57.1      0.00      0.00      78.5     0.32      1008.9     5.7       S   169  12.6      SE   143   9.52    263      285.7
   10/01/2018 15:30      89.5      88.6       34     57.3      0.00      0.00      78.5     0.32      1008.9     5.7       S   172   9.4     SSE   162   9.53    263      306.6
   10/01/2018 15:20      89.8      88.4       34     57.1      0.00      0.00      78.4     0.32      1008.9     6.7       S   186  10.7     SSW   213   9.53    263      329.2
   10/01/2018 15:10      90.4      89.3       34     57.2      0.00      0.00      78.3     0.32      1009.0     6.8       S   179  11.9       S   180   9.54    263      353.8
   10/01/2018 15:00      90.5      89.7       33     57.1      0.00      0.00      78.3     0.32      1008.9     5.7     SSE   158   8.8       S   188   9.54    263      371.5
   10/01/2018 14:50      90.8      89.8       33     57.2      0.00      0.00      78.2     0.32      1009.1     4.9      SE   146   9.5       S   185   9.55    262      382.2
   10/01/2018 14:40      90.6      89.4       33     57.2      0.00      0.00      78.2     0.32      1009.1     5.0      SE   140  11.6     SSW   198   9.55    263      399.5
   10/01/2018 14:30      91.9      90.1       32     57.1      0.00      0.00      78.1     0.32      1009.1     5.2      SE   129   9.4      SE   137   9.55    263      419.3
   10/01/2018 14:20      92.9      91.7       31     57.1      0.00      0.00      78.1     0.32      1009.1     3.4     ESE   106   9.0     ESE   122   9.56    262      435.7
   10/01/2018 14:10      93.2      91.8       30     56.7      0.00      0.00      78.1     0.32      1009.2     2.4      NE    45   6.6       E    84   9.56    262      431.5
   10/01/2018 14:00      93.6      91.7       30     56.5      0.00      0.00      78.0     0.32      1009.2     1.6       N     2   4.4      NE    53   9.56    262      435.6
   10/01/2018 13:50      91.7      88.7       32     56.0      0.00      0.00      78.0     0.32      1009.5     2.1      NW   310   5.0     SSW   214   9.56    262      451.8
   10/01/2018 13:40      91.4      88.8       32     55.8      0.00      0.00      78.0     0.32      1009.7     4.9      SW   232   7.8     SSW   209   9.56    262      459.8
   10/01/2018 13:30      91.4      89.9       31     56.0      0.00      0.00      77.9     0.32      1009.8     3.6      NW   307   6.3     NNW   328   9.57    262      459.4
   10/01/2018 13:20      90.3      89.2       31     55.4      0.00      0.00      77.9     0.31      1010.0     3.4     WSW   240   7.2     SSW   199   9.57    263      467.0
   10/01/2018 13:10      91.0      89.2       31     55.4      0.00      0.00      77.9     0.31      1010.2     2.2       S   182   5.7     SSW   203   9.57    262      470.0
   10/01/2018 13:00      90.3      88.3       32     55.2      0.00      0.00      77.8     0.31      1010.3     1.9      SW   232   5.0       S   179   9.57    263      476.3
   10/01/2018 12:50      89.4      88.0       32     55.1      0.00      0.00      77.8     0.31      1010.5     2.9       S   177   6.5     SSW   203   9.57    263      478.7
   10/01/2018 12:40      89.5      88.3       31     54.7      0.00      0.00      77.8     0.31      1010.6     2.8       S   190   7.4       S   185   9.57    263      475.2
   10/01/2018 12:30      89.3      88.7       31     54.5      0.00      0.00      77.8     0.31      1010.9     2.5       E    82   4.3     ENE    65   9.57    263      473.3
   10/01/2018 12:20      90.2      88.1       31     54.4      0.00      0.00      77.8     0.31      1011.1     3.7     SSE   168   8.0     WSW   244   9.57    263      471.8
   10/01/2018 12:10      90.7      89.0       30     54.7      0.00      0.00      77.8     0.31      1011.1     1.8       W   278   6.6     WSW   243   9.57    262      465.7
   10/01/2018 12:00      90.2      88.5       31     54.6      0.00      0.00      77.8     0.31      1011.2     1.6      NE    39   4.2     NNE    12   9.57    262      464.9
   10/01/2018 11:50      89.0      88.4       31     54.5      0.00      0.00      77.8     0.31      1011.2     2.1     ENE    61   4.3     ENE    62   9.57    263      458.6
   10/01/2018 11:40      88.6      87.8       32     54.8      0.00      0.00      77.8     0.31      1011.2     2.6      NE    53   4.5     ENE    60   9.57    263      452.6
   10/01/2018 11:30      88.6      87.3       33     55.0      0.00      0.00      77.9     0.31      1011.3     2.3      NE    53   4.5       E    81   9.57    263      447.2
   10/01/2018 11:20      87.9      86.3       33     54.7      0.00      0.00      77.8     0.31      1011.4     1.4     NNW   339   3.7       N    11   9.57    263      440.3
   10/01/2018 11:10      87.0      86.2       33     54.4      0.00      0.00      77.9     0.31      1011.6     1.9       N   359   5.0       E    87   9.57    263      430.6
   10/01/2018 11:00      86.8      86.2       34     55.0      0.00      0.00      77.9     0.31      1011.7     1.7       N     3   3.1     NNW   345   9.57    263      420.5
   10/01/2018 10:50      86.3      84.9       37     56.2      0.00      0.00      77.9     0.31      1011.8     1.7     NNW   343   5.3     NNE    27   9.57    263      409.5
   10/01/2018 10:40      86.7      85.4       31     52.1      0.00      0.00      77.9     0.32      1011.9     1.9     ENE    61   4.0      SE   134   9.57    263      397.2
   10/01/2018 10:30      86.0      84.5       28     48.3      0.00      0.00      78.0     0.32      1011.9     1.1       E    81   2.5     ENE    70   9.57    262      382.0
   10/01/2018 10:20      84.7      83.6       28     47.5      0.00      0.00      78.0     0.32      1011.9     1.2     NNW   339   2.8       N   350   9.57    262      367.2
   10/01/2018 10:10      84.5      83.5       26     45.9      0.00      0.00      78.0     0.32      1012.0     1.2       N   357   3.7       N     1   9.57    262      352.3
   10/01/2018 10:00      83.7      82.6       26     44.4      0.00      0.00      78.0     0.32      1012.2     0.9     NNE    17   2.5     NNE    27   9.57    262      334.9
   10/01/2018 09:50      83.7      82.4       25     43.3      0.00      0.00      78.1     0.32      1012.2     1.2       E    97   2.7     ESE   107   9.57    263      320.8
   10/01/2018 09:40      83.8      82.4       24     43.1      0.00      0.00      78.1     0.32      1012.3     0.5     ENE    61   1.6      SE   128   9.57    262      303.1
   10/01/2018 09:30      82.7      81.5       27     44.3      0.00      0.00      78.1     0.32      1012.3     0.2     NNW   346   1.3     NNE    16   9.57    263      284.4
   10/01/2018 09:20      82.1      80.6       28     45.6      0.00      0.00      78.1     0.32      1012.4     0.4     NNW   346   1.9       N     9   9.57    263      266.2
   10/01/2018 09:10      80.7      80.0       29     45.7      0.00      0.00      78.2     0.32      1012.4     0.4       N   355   1.8       N     6   9.57    263      248.1
   10/01/2018 09:00      79.9      78.0       31     45.9      0.00      0.00      78.2     0.32      1012.4     0.3     ENE    67   1.7       E    86   9.57    264      230.5
   10/01/2018 08:50      78.1      77.3       33     46.1      0.00      0.00      78.3     0.32      1012.5     0.4      NW   322   1.5     WNW   286   9.57    264      208.7
   10/01/2018 08:40      77.9      76.5       32     45.1      0.00      0.00      78.3     0.32      1012.6     0.2     NNE    23   1.4     NNE    31   9.57    264      184.8
   10/01/2018 08:30      76.7      73.5       34     45.0      0.00      0.00      78.2     0.32      1012.6     0.0       E    84   0.8       N   352   9.57    265      158.6
   10/01/2018 08:20      74.3      73.3       37     45.6      0.00      0.00      78.3     0.32      1012.7     0.7      SE   143   1.5      SE   137   9.57    265      132.7
   10/01/2018 08:10      73.6      71.6       40     46.4      0.00      0.00      78.3     0.32      1012.6     0.1      SE   125   0.8      SE   135   9.57    265      106.8
   10/01/2018 08:00      71.7      69.8       41     45.9      0.00      0.00      78.4     0.32      1012.6     0.5      NE    49   1.4       N     7   9.26    265       79.2
   10/01/2018 07:50      69.9      67.4       43     45.5      0.00      0.00      78.4     0.32      1012.6     0.3       N    10   1.5     NNE    16   8.89    266       20.8
   10/01/2018 07:40      67.6      64.7       48     45.7      0.00      0.00      78.4     0.32      1012.6     0.0     WNW   284   0.3     WNW   284   8.89    266      -25.4
   10/01/2018 07:30      64.9      63.6       51     45.5      0.00      0.00      78.5     0.32      1012.7     0.6      SE   145   1.3      SE   145   8.89    266      -27.0
   10/01/2018 07:20      63.8      62.9       52     45.3      0.00      0.00      78.5     0.32      1012.7     1.2      SE   145   2.5      SE   140   8.89    266      -30.9
   10/01/2018 07:10      63.0      62.1       53     45.1      0.00      0.00      78.5     0.32      1012.8     1.3     SSE   163   2.5      SE   129   8.89    266      -34.7
   10/01/2018 07:00      62.4      61.7       54     45.2      0.00      0.00      78.5     0.32      1012.8     0.8      SE   146   2.6      SE   141   8.89    266      -39.1
   10/01/2018 06:50      62.7      61.7       55     45.9      0.00      0.00      78.5     0.32      1012.8     0.8     SSE   161   1.7      SE   143   8.89    266      -42.3
   10/01/2018 06:40      62.9      62.3       51     44.2      0.00      0.00      78.5     0.32      1012.8     0.6       S   179   1.9     SSW   200   8.89    266      -43.9
   10/01/2018 06:30      62.8      62.4       53     45.2      0.00      0.00      78.5     0.32      1012.8     0.9       S   191   1.8     SSW   197   8.89    266      -44.3
   10/01/2018 06:20      62.8      62.4       53     45.4      0.00      0.00      78.6     0.32      1012.7     0.0       N     0   0.0     SSW   200   8.89    266      -44.7
   10/01/2018 06:10      63.3      62.4       53     45.2      0.00      0.00      78.6     0.32      1012.6     0.0       N     0   0.0     SSW   200   8.89    266      -45.6
   10/01/2018 06:00      63.6      62.9       51     45.0      0.00      0.00      78.6     0.32      1012.5     0.0       N     0   0.0     SSW   200   8.89    266      -45.6
   10/01/2018 05:50      64.0      63.3       51     45.1      0.00      0.00      78.7     0.32      1012.4     0.0     SSW   200   0.7     SSW   200   8.89    266      -44.9
   10/01/2018 05:40      64.1      63.6       50     44.9      0.00      0.00      78.7     0.32      1012.5     0.0       N     0   0.0     SSW   200   8.89    265      -42.5
   10/01/2018 05:30      64.1      63.6       51     45.5      0.00      0.00      78.7     0.32      1012.5     0.0      SE   138   0.5      SE   138   8.89    265      -39.6
   10/01/2018 05:20      64.0      63.6       52     45.8      0.00      0.00      78.7     0.32      1012.5     0.4      SE   138   1.2      SE   138   8.89    266      -29.9
   10/01/2018 05:10      63.9      63.5       52     45.6      0.00      0.00      78.7     0.32      1012.4     0.1     SSE   161   1.0      SE   138   8.90    266      -33.0
   10/01/2018 05:00      63.8      63.3       51     44.9      0.00      0.00      78.8     0.32      1012.3     0.6      SE   143   1.4      SE   145   8.90    265      -25.3
   10/01/2018 04:50      63.6      63.3       49     44.0      0.00      0.00      78.8     0.32      1012.3     0.4     SSE   155   1.5      SE   142   8.90    265      -25.5
   10/01/2018 04:40      63.8      63.3       49     44.2      0.00      0.00      78.7     0.32      1012.3     0.0       N     0   0.0       E    92   8.90    265      -39.2
   10/01/2018 04:30      64.0      63.4       50     44.4      0.00      0.00      78.8     0.32      1012.2     0.0       E    92   0.4       E    92   8.90    265      -39.6
   10/01/2018 04:20      64.0      63.6       50     44.7      0.00      0.00      78.8     0.32      1012.2     0.3       E    93   0.9       E    92   8.90    265      -30.9
   10/01/2018 04:10      64.1      63.6       50     44.9      0.00      0.00      78.9     0.32      1012.2     0.5     SSE   147   1.4      SE   146   8.90    265      -43.9
   10/01/2018 04:00      64.6      63.8       49     44.8      0.00      0.00      78.9     0.32      1012.2     0.4     SSE   157   1.6      SE   146   8.90    265      -47.3
   10/01/2018 03:50      64.7      64.2       49     45.0      0.00      0.00      78.9     0.32      1012.3     0.0     SSE   165   0.7     SSE   166   8.90    265      -42.5
   10/01/2018 03:40      64.5      64.2       50     45.1      0.00      0.00      78.9     0.32      1012.3     0.0     SSE   147   0.4     SSE   147   8.90    265      -34.4
   10/01/2018 03:30      64.6      64.1       50     45.2      0.00      0.00      79.0     0.32      1012.3     0.0       N     0   0.0     SSE   147   8.90    265      -27.1
   10/01/2018 03:20      64.8      64.2       49     45.1      0.00      0.00      79.0     0.32      1012.3     0.2     SSE   147   0.8     SSE   147   8.90    265      -29.6
   10/01/2018 03:10      64.6      64.2       49     45.1      0.00      0.00      79.0     0.32      1012.4     0.0       N     0   0.0     SSE   147   8.90    265      -27.8
   10/01/2018 03:00      64.9      64.2       49     44.8      0.00      0.00      79.0     0.32      1012.4     0.0     SSE   147   0.5     SSE   147   8.90    265      -40.3
   10/01/2018 02:50      64.8      64.4       49     44.9      0.00      0.00      79.0     0.32      1012.5     0.0       N     0   0.0     SSE   147   8.90    265      -31.3
   10/01/2018 02:40      64.8      64.4       49     44.8      0.00      0.00      79.0     0.32      1012.5     0.0     SSE   147   1.0     SSE   147   8.90    265      -28.0
   10/01/2018 02:30      64.7      63.8       50     44.9      0.00      0.00      79.1     0.32      1012.6     0.0     ENE    65   0.9     NNE    19   8.90    265      -35.2
   10/01/2018 02:20      64.3      63.8       50     44.9      0.00      0.00      79.1     0.32      1012.7     1.2     SSE   149   3.2      SE   143   8.90    265      -41.6
   10/01/2018 02:10      64.3      63.4       51     45.2      0.00      0.00      79.1     0.32      1012.8     1.4      SE   146   2.7     SSE   158   8.90    265      -46.5
   10/01/2018 02:00      63.8      63.3       51     44.9      0.00      0.00      79.1     0.32      1012.9     0.8     SSE   151   2.0      SE   135   8.91    265      -48.6
   10/01/2018 01:50      64.1      63.5       50     44.8      0.00      0.00      79.1     0.32      1012.8     0.8     SSE   157   1.7     SSE   148   8.91    265      -49.7
   10/01/2018 01:40      64.3      63.8       49     44.7      0.00      0.00      79.1     0.32      1012.8     0.4     SSE   167   1.1       S   171   8.91    265      -50.4
   10/01/2018 01:30      64.5      63.8       48     44.1      0.00      0.00      79.1     0.32      1012.8     0.3     SSE   154   1.1     SSE   152   8.91    265      -50.4
   10/01/2018 01:20      64.5      64.1       50     45.4      0.00      0.00      79.2     0.32      1012.9     0.5     SSE   148   1.7     SSE   162   8.91    264      -51.6
   10/01/2018 01:10      64.8      64.1       49     45.0      0.00      0.00      79.2     0.32      1013.0     0.5     SSE   152   1.2       S   177   8.91    265      -51.2
   10/01/2018 01:00      64.8      64.3       49     45.2      0.00      0.00      79.2     0.32      1013.0     0.6     SSE   154   1.3     SSE   150   8.91    265      -51.3
   10/01/2018 00:50      64.8      64.5       50     45.5      0.00      0.00      79.1     0.32      1012.9     0.3     SSE   161   1.2     SSE   150   8.91    264      -52.0
   10/01/2018 00:40      65.2      64.5       48     45.0      0.00      0.00      79.2     0.32      1012.9     0.5     SSE   156   1.1      SE   141   8.91    264      -53.3
   10/01/2018 00:30      65.6      64.8       47     44.3      0.00      0.00      79.2     0.32      1012.9     0.4       S   170   1.1       S   173   8.91    264      -52.8
   10/01/2018 00:20      66.0      65.1       47     44.7      0.00      0.00      79.2     0.32      1012.9     0.0       N     0   0.0     ESE   115   8.91    264      -52.8
   10/01/2018 00:10      66.6      65.7       47     45.0      0.00      0.00      79.2     0.32      1012.9     0.0       N     0   0.0     ESE   115   8.91    264      -53.6
   10/01/2018 00:00      66.7      66.2       46     45.0      0.00      0.00      79.2     0.32      1012.9     0.5     SSE   149   1.4     SSE   149   8.92    264      -55.3


Back to data home page